<?xml version="1.0" encoding="UTF-8"?>
<gpx creator="Garmin Connect" version="1.1"
  xsi:schemaLocation="http://www.topografix.com/GPX/1/1 http://www.topografix.com/GPX/11.xsd"
  xmlns:ns3="http://www.garmin.com/xmlschemas/TrackPointExtension/v1"
  xmlns="http://www.topografix.com/GPX/1/1"
  xmlns:xsi="http://www.w3.org/2001/XMLSchema-instance" xmlns:ns2="http://www.garmin.com/xmlschemas/GpxExtensions/v3">
  <metadata>
    <link href="connect.garmin.com">
      <text>Garmin Connect</text>
    </link>
    <time>2019-06-19T10:00:12.000Z</time>
  </metadata>
  <trk>
    <name>Neuchatel Mountain Bike</name>
    <type>mountain_biking</type>
    <trkseg>
      <trkpt lat="47.00303086079657077789306640625" lon="6.932440437376499176025390625">
        <ele>656.4000244140625</ele>
        <time>2019-06-19T10:00:12.000Z</time>
        <extensions>
          <ns3:TrackPointExtension>
            <ns3:atemp>30.0</ns3:atemp>
            <ns3:hr>75</ns3:hr>
          </ns3:TrackPointExtension>
        </extensions>
      </trkpt>
      <trkpt lat="47.00302734039723873138427734375" lon="6.9324253499507904052734375">
        <ele>656</ele>
        <time>2019-06-19T10:00:13.000Z</time>
        <extensions>
          <ns3:TrackPointExtension>
            <ns3:atemp>30.0</ns3:atemp>
            <ns3:hr>73</ns3:hr>
          </ns3:TrackPointExtension>
        </extensions>
      </trkpt>
      <trkpt lat="47.003023065626621246337890625" lon="6.9323946721851825714111328125">
        <ele>655.5999755859375</ele>
        <time>2019-06-19T10:00:15.000Z</time>
        <extensions>
          <ns3:TrackPointExtension>
            <ns3:atemp>30.0</ns3:atemp>
            <ns3:hr>76</ns3:hr>
          </ns3:TrackPointExtension>
        </extensions>
      </trkpt>
      <trkpt lat="47.0030185393989086151123046875" lon="6.93237598054111003875732421875">
        <ele>655.5999755859375</ele>
        <time>2019-06-19T10:00:16.000Z</time>
        <extensions>
          <ns3:TrackPointExtension>
            <ns3:atemp>30.0</ns3:atemp>
            <ns3:hr>79</ns3:hr>
          </ns3:TrackPointExtension>
        </extensions>
      </trkpt>
      <trkpt lat="47.003015689551830291748046875" lon="6.9323571212589740753173828125">
        <ele>655.79998779296875</ele>
        <time>2019-06-19T10:00:17.000Z</time>
        <extensions>
          <ns3:TrackPointExtension>
            <ns3:atemp>30.0</ns3:atemp>
            <ns3:hr>82</ns3:hr>
          </ns3:TrackPointExtension>
        </extensions>
      </trkpt>
      <trkpt lat="47.0029980875551700592041015625" lon="6.932279504835605621337890625">
        <ele>655.5999755859375</ele>
        <time>2019-06-19T10:00:21.000Z</time>
        <extensions>
          <ns3:TrackPointExtension>
            <ns3:atemp>30.0</ns3:atemp>
            <ns3:hr>85</ns3:hr>
          </ns3:TrackPointExtension>
        </extensions>
      </trkpt>
      <trkpt lat="47.00300018303096294403076171875" lon="6.9322129525244235992431640625">
        <ele>656.20001220703125</ele>
        <time>2019-06-19T10:00:24.000Z</time>
        <extensions>
          <ns3:TrackPointExtension>
            <ns3:atemp>30.0</ns3:atemp>
            <ns3:hr>85</ns3:hr>
          </ns3:TrackPointExtension>
        </extensions>
      </trkpt>
      <trkpt lat="47.003012336790561676025390625" lon="6.9321314804255962371826171875">
        <ele>656.4000244140625</ele>
        <time>2019-06-19T10:00:28.000Z</time>
        <extensions>
          <ns3:TrackPointExtension>
            <ns3:atemp>30.0</ns3:atemp>
            <ns3:hr>84</ns3:hr>
          </ns3:TrackPointExtension>
        </extensions>
      </trkpt>
      <trkpt lat="47.00305030681192874908447265625" lon="6.93212837912142276763916015625">
        <ele>656.4000244140625</ele>
        <time>2019-06-19T10:00:32.000Z</time>
        <extensions>
          <ns3:TrackPointExtension>
            <ns3:atemp>30.0</ns3:atemp>
            <ns3:hr>88</ns3:hr>
          </ns3:TrackPointExtension>
        </extensions>
      </trkpt>
      <trkpt lat="47.00307528488337993621826171875" lon="6.93213810212910175323486328125">
        <ele>656.5999755859375</ele>
        <time>2019-06-19T10:00:34.000Z</time>
        <extensions>
          <ns3:TrackPointExtension>
            <ns3:atemp>30.0</ns3:atemp>
            <ns3:hr>89</ns3:hr>
          </ns3:TrackPointExtension>
        </extensions>
      </trkpt>
      <trkpt lat="47.003087438642978668212890625" lon="6.9321437180042266845703125">
        <ele>656.5999755859375</ele>
        <time>2019-06-19T10:00:35.000Z</time>
        <extensions>
          <ns3:TrackPointExtension>
            <ns3:atemp>30.0</ns3:atemp>
            <ns3:hr>91</ns3:hr>
          </ns3:TrackPointExtension>
        </extensions>
      </trkpt>
      <trkpt lat="47.003130018711090087890625" lon="6.93216442130506038665771484375">
        <ele>656.5999755859375</ele>
        <time>2019-06-19T10:00:38.000Z</time>
        <extensions>
          <ns3:TrackPointExtension>
            <ns3:atemp>30.0</ns3:atemp>
            <ns3:hr>94</ns3:hr>
          </ns3:TrackPointExtension>
        </extensions>
      </trkpt>
      <trkpt lat="47.00314837507903575897216796875" lon="6.93219677545130252838134765625">
        <ele>657</ele>
        <time>2019-06-19T10:00:40.000Z</time>
        <extensions>
          <ns3:TrackPointExtension>
            <ns3:atemp>30.0</ns3:atemp>
            <ns3:hr>95</ns3:hr>
          </ns3:TrackPointExtension>
        </extensions>
      </trkpt>
      <trkpt lat="47.00315843336284160614013671875" lon="6.93221538327634334564208984375">
        <ele>657.4000244140625</ele>
        <time>2019-06-19T10:00:41.000Z</time>
        <extensions>
          <ns3:TrackPointExtension>
            <ns3:atemp>30.0</ns3:atemp>
            <ns3:hr>95</ns3:hr>
          </ns3:TrackPointExtension>
        </extensions>
      </trkpt>
      <trkpt lat="47.003171928226947784423828125" lon="6.9322243519127368927001953125">
        <ele>657.5999755859375</ele>
        <time>2019-06-19T10:00:42.000Z</time>
        <extensions>
          <ns3:TrackPointExtension>
            <ns3:atemp>30.0</ns3:atemp>
            <ns3:hr>95</ns3:hr>
          </ns3:TrackPointExtension>
        </extensions>
      </trkpt>
      <trkpt lat="47.0032250694930553436279296875" lon="6.9323138706386089324951171875">
        <ele>658.20001220703125</ele>
        <time>2019-06-19T10:00:47.000Z</time>
        <extensions>
          <ns3:TrackPointExtension>
            <ns3:atemp>30.0</ns3:atemp>
            <ns3:hr>95</ns3:hr>
          </ns3:TrackPointExtension>
        </extensions>
      </trkpt>
      <trkpt lat="47.00323998928070068359375" lon="6.93234614096581935882568359375">
        <ele>658.79998779296875</ele>
        <time>2019-06-19T10:00:49.000Z</time>
        <extensions>
          <ns3:TrackPointExtension>
            <ns3:atemp>30.0</ns3:atemp>
            <ns3:hr>94</ns3:hr>
          </ns3:TrackPointExtension>
        </extensions>
      </trkpt>
      <trkpt lat="47.00325298123061656951904296875" lon="6.93236340768635272979736328125">
        <ele>659</ele>
        <time>2019-06-19T10:00:50.000Z</time>
        <extensions>
          <ns3:TrackPointExtension>
            <ns3:atemp>30.0</ns3:atemp>
            <ns3:hr>94</ns3:hr>
          </ns3:TrackPointExtension>
        </extensions>
      </trkpt>
      <trkpt lat="47.00327418744564056396484375" lon="6.932388804852962493896484375">
        <ele>659.20001220703125</ele>
        <time>2019-06-19T10:00:52.000Z</time>
        <extensions>
          <ns3:TrackPointExtension>
            <ns3:atemp>30.0</ns3:atemp>
            <ns3:hr>97</ns3:hr>
          </ns3:TrackPointExtension>
        </extensions>
      </trkpt>
      <trkpt lat="47.0032793842256069183349609375" lon="6.93241520784795284271240234375">
        <ele>659.4000244140625</ele>
        <time>2019-06-19T10:00:53.000Z</time>
        <extensions>
          <ns3:TrackPointExtension>
            <ns3:atemp>30.0</ns3:atemp>
            <ns3:hr>96</ns3:hr>
          </ns3:TrackPointExtension>
        </extensions>
      </trkpt>
      <trkpt lat="47.0033112354576587677001953125" lon="6.93246633745729923248291015625">
        <ele>659.79998779296875</ele>
        <time>2019-06-19T10:00:56.000Z</time>
        <extensions>
          <ns3:TrackPointExtension>
            <ns3:atemp>30.0</ns3:atemp>
            <ns3:hr>96</ns3:hr>
          </ns3:TrackPointExtension>
        </extensions>
      </trkpt>
      <trkpt lat="47.003333866596221923828125" lon="6.93249114789068698883056640625">
        <ele>660.5999755859375</ele>
        <time>2019-06-19T10:00:58.000Z</time>
        <extensions>
          <ns3:TrackPointExtension>
            <ns3:atemp>30.0</ns3:atemp>
            <ns3:hr>99</ns3:hr>
          </ns3:TrackPointExtension>
        </extensions>
      </trkpt>
      <trkpt lat="47.0033420808613300323486328125" lon="6.932502128183841705322265625">
        <ele>660.79998779296875</ele>
        <time>2019-06-19T10:00:59.000Z</time>
        <extensions>
          <ns3:TrackPointExtension>
            <ns3:atemp>30.0</ns3:atemp>
            <ns3:hr>99</ns3:hr>
          </ns3:TrackPointExtension>
        </extensions>
      </trkpt>
      <trkpt lat="47.0033564977347850799560546875" lon="6.93250590004026889801025390625">
        <ele>661</ele>
        <time>2019-06-19T10:01:00.000Z</time>
        <extensions>
          <ns3:TrackPointExtension>
            <ns3:atemp>30.0</ns3:atemp>
            <ns3:hr>100</ns3:hr>
          </ns3:TrackPointExtension>
        </extensions>
      </trkpt>
      <trkpt lat="47.00340293347835540771484375" lon="6.9325183890759944915771484375">
        <ele>661.4000244140625</ele>
        <time>2019-06-19T10:01:03.000Z</time>
        <extensions>
          <ns3:TrackPointExtension>
            <ns3:atemp>30.0</ns3:atemp>
            <ns3:hr>98</ns3:hr>
          </ns3:TrackPointExtension>
        </extensions>
      </trkpt>
      <trkpt lat="47.0034641213715076446533203125" lon="6.932555772364139556884765625">
        <ele>661.79998779296875</ele>
        <time>2019-06-19T10:01:06.000Z</time>
        <extensions>
          <ns3:TrackPointExtension>
            <ns3:atemp>30.0</ns3:atemp>
            <ns3:hr>99</ns3:hr>
          </ns3:TrackPointExtension>
        </extensions>
      </trkpt>
      <trkpt lat="47.0034839026629924774169921875" lon="6.9325646571815013885498046875">
        <ele>662.20001220703125</ele>
        <time>2019-06-19T10:01:07.000Z</time>
        <extensions>
          <ns3:TrackPointExtension>
            <ns3:atemp>30.0</ns3:atemp>
            <ns3:hr>99</ns3:hr>
          </ns3:TrackPointExtension>
        </extensions>
      </trkpt>
      <trkpt lat="47.00358255766332149505615234375" lon="6.93260698579251766204833984375">
        <ele>663</ele>
        <time>2019-06-19T10:01:12.000Z</time>
        <extensions>
          <ns3:TrackPointExtension>
            <ns3:atemp>30.0</ns3:atemp>
            <ns3:hr>99</ns3:hr>
          </ns3:TrackPointExtension>
        </extensions>
      </trkpt>
      <trkpt lat="47.00362564064562320709228515625" lon="6.9326250068843364715576171875">
        <ele>663.20001220703125</ele>
        <time>2019-06-19T10:01:15.000Z</time>
        <extensions>
          <ns3:TrackPointExtension>
            <ns3:atemp>30.0</ns3:atemp>
            <ns3:hr>101</ns3:hr>
          </ns3:TrackPointExtension>
        </extensions>
      </trkpt>
      <trkpt lat="47.00367928482592105865478515625" lon="6.9326377473771572113037109375">
        <ele>663.79998779296875</ele>
        <time>2019-06-19T10:01:18.000Z</time>
        <extensions>
          <ns3:TrackPointExtension>
            <ns3:atemp>30.0</ns3:atemp>
            <ns3:hr>98</ns3:hr>
          </ns3:TrackPointExtension>
        </extensions>
      </trkpt>
      <trkpt lat="47.003699652850627899169921875" lon="6.93265174515545368194580078125">
        <ele>663.79998779296875</ele>
        <time>2019-06-19T10:01:19.000Z</time>
        <extensions>
          <ns3:TrackPointExtension>
            <ns3:atemp>30.0</ns3:atemp>
            <ns3:hr>102</ns3:hr>
          </ns3:TrackPointExtension>
        </extensions>
      </trkpt>
      <trkpt lat="47.0037281513214111328125" lon="6.9326640665531158447265625">
        <ele>664</ele>
        <time>2019-06-19T10:01:21.000Z</time>
        <extensions>
          <ns3:TrackPointExtension>
            <ns3:atemp>30.0</ns3:atemp>
            <ns3:hr>106</ns3:hr>
          </ns3:TrackPointExtension>
        </extensions>
      </trkpt>
      <trkpt lat="47.0037440769374370574951171875" lon="6.9326726160943508148193359375">
        <ele>664.20001220703125</ele>
        <time>2019-06-19T10:01:22.000Z</time>
        <extensions>
          <ns3:TrackPointExtension>
            <ns3:atemp>30.0</ns3:atemp>
            <ns3:hr>109</ns3:hr>
          </ns3:TrackPointExtension>
        </extensions>
      </trkpt>
      <trkpt lat="47.00375874526798725128173828125" lon="6.932681500911712646484375">
        <ele>664.20001220703125</ele>
        <time>2019-06-19T10:01:23.000Z</time>
        <extensions>
          <ns3:TrackPointExtension>
            <ns3:atemp>30.0</ns3:atemp>
            <ns3:hr>110</ns3:hr>
          </ns3:TrackPointExtension>
        </extensions>
      </trkpt>
      <trkpt lat="47.00376913882791996002197265625" lon="6.93269080482423305511474609375">
        <ele>664.5999755859375</ele>
        <time>2019-06-19T10:01:24.000Z</time>
        <extensions>
          <ns3:TrackPointExtension>
            <ns3:atemp>30.0</ns3:atemp>
            <ns3:hr>111</ns3:hr>
          </ns3:TrackPointExtension>
        </extensions>
      </trkpt>
      <trkpt lat="47.00381934642791748046875" lon="6.932731457054615020751953125">
        <ele>665.4000244140625</ele>
        <time>2019-06-19T10:01:28.000Z</time>
        <extensions>
          <ns3:TrackPointExtension>
            <ns3:atemp>30.0</ns3:atemp>
            <ns3:hr>112</ns3:hr>
          </ns3:TrackPointExtension>
        </extensions>
      </trkpt>
      <trkpt lat="47.003829739987850189208984375" lon="6.932744197547435760498046875">
        <ele>665.4000244140625</ele>
        <time>2019-06-19T10:01:29.000Z</time>
        <extensions>
          <ns3:TrackPointExtension>
            <ns3:atemp>30.0</ns3:atemp>
            <ns3:hr>111</ns3:hr>
          </ns3:TrackPointExtension>
        </extensions>
      </trkpt>
      <trkpt lat="47.00391230173408985137939453125" lon="6.93284754641354084014892578125">
        <ele>666.4000244140625</ele>
        <time>2019-06-19T10:01:36.000Z</time>
        <extensions>
          <ns3:TrackPointExtension>
            <ns3:atemp>30.0</ns3:atemp>
            <ns3:hr>108</ns3:hr>
          </ns3:TrackPointExtension>
        </extensions>
      </trkpt>
      <trkpt lat="47.00397801585495471954345703125" lon="6.932927928864955902099609375">
        <ele>667.5999755859375</ele>
        <time>2019-06-19T10:01:40.000Z</time>
        <extensions>
          <ns3:TrackPointExtension>
            <ns3:atemp>30.0</ns3:atemp>
            <ns3:hr>111</ns3:hr>
          </ns3:TrackPointExtension>
        </extensions>
      </trkpt>
      <trkpt lat="47.0040106214582920074462890625" lon="6.93296070210635662078857421875">
        <ele>668</ele>
        <time>2019-06-19T10:01:42.000Z</time>
        <extensions>
          <ns3:TrackPointExtension>
            <ns3:atemp>30.0</ns3:atemp>
            <ns3:hr>117</ns3:hr>
          </ns3:TrackPointExtension>
        </extensions>
      </trkpt>
      <trkpt lat="47.00402663089334964752197265625" lon="6.93297998048365116119384765625">
        <ele>668</ele>
        <time>2019-06-19T10:01:43.000Z</time>
        <extensions>
          <ns3:TrackPointExtension>
            <ns3:atemp>30.0</ns3:atemp>
            <ns3:hr>117</ns3:hr>
          </ns3:TrackPointExtension>
        </extensions>
      </trkpt>
      <trkpt lat="47.00404004193842411041259765625" lon="6.933003030717372894287109375">
        <ele>668</ele>
        <time>2019-06-19T10:01:44.000Z</time>
        <extensions>
          <ns3:TrackPointExtension>
            <ns3:atemp>30.0</ns3:atemp>
            <ns3:hr>115</ns3:hr>
          </ns3:TrackPointExtension>
        </extensions>
      </trkpt>
      <trkpt lat="47.004110030829906463623046875" lon="6.93308240734040737152099609375">
        <ele>668.79998779296875</ele>
        <time>2019-06-19T10:01:50.000Z</time>
        <extensions>
          <ns3:TrackPointExtension>
            <ns3:atemp>30.0</ns3:atemp>
            <ns3:hr>114</ns3:hr>
          </ns3:TrackPointExtension>
        </extensions>
      </trkpt>
      <trkpt lat="47.00412436388432979583740234375" lon="6.93312347866594791412353515625">
        <ele>669.20001220703125</ele>
        <time>2019-06-19T10:01:52.000Z</time>
        <extensions>
          <ns3:TrackPointExtension>
            <ns3:atemp>30.0</ns3:atemp>
            <ns3:hr>115</ns3:hr>
          </ns3:TrackPointExtension>
        </extensions>
      </trkpt>
      <trkpt lat="47.0041661895811557769775390625" lon="6.93317058496177196502685546875">
        <ele>669.4000244140625</ele>
        <time>2019-06-19T10:01:55.000Z</time>
        <extensions>
          <ns3:TrackPointExtension>
            <ns3:atemp>30.0</ns3:atemp>
            <ns3:hr>114</ns3:hr>
          </ns3:TrackPointExtension>
        </extensions>
      </trkpt>
      <trkpt lat="47.0042231865227222442626953125" lon="6.93325356580317020416259765625">
        <ele>669.79998779296875</ele>
        <time>2019-06-19T10:01:59.000Z</time>
        <extensions>
          <ns3:TrackPointExtension>
            <ns3:atemp>30.0</ns3:atemp>
            <ns3:hr>110</ns3:hr>
          </ns3:TrackPointExtension>
        </extensions>
      </trkpt>
      <trkpt lat="47.00422779656946659088134765625" lon="6.9332744367420673370361328125">
        <ele>670</ele>
        <time>2019-06-19T10:02:00.000Z</time>
        <extensions>
          <ns3:TrackPointExtension>
            <ns3:atemp>30.0</ns3:atemp>
            <ns3:hr>110</ns3:hr>
          </ns3:TrackPointExtension>
        </extensions>
      </trkpt>
      <trkpt lat="47.00423349626362323760986328125" lon="6.9333185255527496337890625">
        <ele>670.20001220703125</ele>
        <time>2019-06-19T10:02:01.000Z</time>
        <extensions>
          <ns3:TrackPointExtension>
            <ns3:atemp>30.0</ns3:atemp>
            <ns3:hr>109</ns3:hr>
          </ns3:TrackPointExtension>
        </extensions>
      </trkpt>
      <trkpt lat="47.00426392257213592529296875" lon="6.9334987364709377288818359375">
        <ele>670.4000244140625</ele>
        <time>2019-06-19T10:02:07.000Z</time>
        <extensions>
          <ns3:TrackPointExtension>
            <ns3:atemp>30.0</ns3:atemp>
            <ns3:hr>106</ns3:hr>
          </ns3:TrackPointExtension>
        </extensions>
      </trkpt>
      <trkpt lat="47.00429669581353664398193359375" lon="6.93361432291567325592041015625">
        <ele>670.4000244140625</ele>
        <time>2019-06-19T10:02:11.000Z</time>
        <extensions>
          <ns3:TrackPointExtension>
            <ns3:atemp>30.0</ns3:atemp>
            <ns3:hr>106</ns3:hr>
          </ns3:TrackPointExtension>
        </extensions>
      </trkpt>
      <trkpt lat="47.00433609075844287872314453125" lon="6.93366712890565395355224609375">
        <ele>670.4000244140625</ele>
        <time>2019-06-19T10:02:13.000Z</time>
        <extensions>
          <ns3:TrackPointExtension>
            <ns3:atemp>30.0</ns3:atemp>
            <ns3:hr>104</ns3:hr>
          </ns3:TrackPointExtension>
        </extensions>
      </trkpt>
      <trkpt lat="47.00439912267029285430908203125" lon="6.933794952929019927978515625">
        <ele>670.5999755859375</ele>
        <time>2019-06-19T10:02:17.000Z</time>
        <extensions>
          <ns3:TrackPointExtension>
            <ns3:atemp>30.0</ns3:atemp>
            <ns3:hr>101</ns3:hr>
          </ns3:TrackPointExtension>
        </extensions>
      </trkpt>
      <trkpt lat="47.0044241845607757568359375" lon="6.93385253660380840301513671875">
        <ele>670.79998779296875</ele>
        <time>2019-06-19T10:02:19.000Z</time>
        <extensions>
          <ns3:TrackPointExtension>
            <ns3:atemp>29.0</ns3:atemp>
            <ns3:hr>103</ns3:hr>
          </ns3:TrackPointExtension>
        </extensions>
      </trkpt>
      <trkpt lat="47.00443298555910587310791015625" lon="6.93387977778911590576171875">
        <ele>671</ele>
        <time>2019-06-19T10:02:20.000Z</time>
        <extensions>
          <ns3:TrackPointExtension>
            <ns3:atemp>29.0</ns3:atemp>
            <ns3:hr>103</ns3:hr>
          </ns3:TrackPointExtension>
        </extensions>
      </trkpt>
      <trkpt lat="47.004439271986484527587890625" lon="6.93390634842216968536376953125">
        <ele>671.20001220703125</ele>
        <time>2019-06-19T10:02:21.000Z</time>
        <extensions>
          <ns3:TrackPointExtension>
            <ns3:atemp>29.0</ns3:atemp>
            <ns3:hr>106</ns3:hr>
          </ns3:TrackPointExtension>
        </extensions>
      </trkpt>
      <trkpt lat="47.004448659718036651611328125" lon="6.9339703023433685302734375">
        <ele>671.79998779296875</ele>
        <time>2019-06-19T10:02:24.000Z</time>
        <extensions>
          <ns3:TrackPointExtension>
            <ns3:atemp>29.0</ns3:atemp>
            <ns3:hr>107</ns3:hr>
          </ns3:TrackPointExtension>
        </extensions>
      </trkpt>
      <trkpt lat="47.0044572092592716217041015625" lon="6.9340107031166553497314453125">
        <ele>671.79998779296875</ele>
        <time>2019-06-19T10:02:25.000Z</time>
        <extensions>
          <ns3:TrackPointExtension>
            <ns3:atemp>29.0</ns3:atemp>
            <ns3:hr>106</ns3:hr>
          </ns3:TrackPointExtension>
        </extensions>
      </trkpt>
      <trkpt lat="47.0045323111116886138916015625" lon="6.93417523987591266632080078125">
        <ele>671.79998779296875</ele>
        <time>2019-06-19T10:02:31.000Z</time>
        <extensions>
          <ns3:TrackPointExtension>
            <ns3:atemp>29.0</ns3:atemp>
            <ns3:hr>107</ns3:hr>
          </ns3:TrackPointExtension>
        </extensions>
      </trkpt>
      <trkpt lat="47.004545219242572784423828125" lon="6.93422620184719562530517578125">
        <ele>672</ele>
        <time>2019-06-19T10:02:33.000Z</time>
        <extensions>
          <ns3:TrackPointExtension>
            <ns3:atemp>29.0</ns3:atemp>
            <ns3:hr>108</ns3:hr>
          </ns3:TrackPointExtension>
        </extensions>
      </trkpt>
      <trkpt lat="47.00455804355442523956298828125" lon="6.9342841207981109619140625">
        <ele>672.4000244140625</ele>
        <time>2019-06-19T10:02:35.000Z</time>
        <extensions>
          <ns3:TrackPointExtension>
            <ns3:atemp>29.0</ns3:atemp>
            <ns3:hr>108</ns3:hr>
          </ns3:TrackPointExtension>
        </extensions>
      </trkpt>
      <trkpt lat="47.0045701973140239715576171875" lon="6.93430800922214984893798828125">
        <ele>672.4000244140625</ele>
        <time>2019-06-19T10:02:36.000Z</time>
        <extensions>
          <ns3:TrackPointExtension>
            <ns3:atemp>29.0</ns3:atemp>
            <ns3:hr>109</ns3:hr>
          </ns3:TrackPointExtension>
        </extensions>
      </trkpt>
      <trkpt lat="47.0046835206449031829833984375" lon="6.93456198088824748992919921875">
        <ele>672.5999755859375</ele>
        <time>2019-06-19T10:02:43.000Z</time>
        <extensions>
          <ns3:TrackPointExtension>
            <ns3:atemp>29.0</ns3:atemp>
            <ns3:hr>108</ns3:hr>
          </ns3:TrackPointExtension>
        </extensions>
      </trkpt>
      <trkpt lat="47.00469450093805789947509765625" lon="6.9345914013683795928955078125">
        <ele>672.5999755859375</ele>
        <time>2019-06-19T10:02:44.000Z</time>
        <extensions>
          <ns3:TrackPointExtension>
            <ns3:atemp>29.0</ns3:atemp>
            <ns3:hr>107</ns3:hr>
          </ns3:TrackPointExtension>
        </extensions>
      </trkpt>
      <trkpt lat="47.00476708821952342987060546875" lon="6.93473003804683685302734375">
        <ele>673.20001220703125</ele>
        <time>2019-06-19T10:02:47.000Z</time>
        <extensions>
          <ns3:TrackPointExtension>
            <ns3:atemp>29.0</ns3:atemp>
            <ns3:hr>108</ns3:hr>
          </ns3:TrackPointExtension>
        </extensions>
      </trkpt>
      <trkpt lat="47.0048184692859649658203125" lon="6.93479650653898715972900390625">
        <ele>673.4000244140625</ele>
        <time>2019-06-19T10:02:49.000Z</time>
        <extensions>
          <ns3:TrackPointExtension>
            <ns3:atemp>29.0</ns3:atemp>
            <ns3:hr>108</ns3:hr>
          </ns3:TrackPointExtension>
        </extensions>
      </trkpt>
      <trkpt lat="47.0048826746642589569091796875" lon="6.934904716908931732177734375">
        <ele>674</ele>
        <time>2019-06-19T10:02:52.000Z</time>
        <extensions>
          <ns3:TrackPointExtension>
            <ns3:atemp>29.0</ns3:atemp>
            <ns3:hr>105</ns3:hr>
          </ns3:TrackPointExtension>
        </extensions>
      </trkpt>
      <trkpt lat="47.004939503967761993408203125" lon="6.93496833555400371551513671875">
        <ele>674.20001220703125</ele>
        <time>2019-06-19T10:02:54.000Z</time>
        <extensions>
          <ns3:TrackPointExtension>
            <ns3:atemp>29.0</ns3:atemp>
            <ns3:hr>107</ns3:hr>
          </ns3:TrackPointExtension>
        </extensions>
      </trkpt>
      <trkpt lat="47.00502860359847545623779296875" lon="6.93506405688822269439697265625">
        <ele>675.20001220703125</ele>
        <time>2019-06-19T10:02:58.000Z</time>
        <extensions>
          <ns3:TrackPointExtension>
            <ns3:atemp>29.0</ns3:atemp>
            <ns3:hr>107</ns3:hr>
          </ns3:TrackPointExtension>
        </extensions>
      </trkpt>
      <trkpt lat="47.0050593651831150054931640625" lon="6.93510881625115871429443359375">
        <ele>675.4000244140625</ele>
        <time>2019-06-19T10:03:00.000Z</time>
        <extensions>
          <ns3:TrackPointExtension>
            <ns3:atemp>29.0</ns3:atemp>
            <ns3:hr>105</ns3:hr>
          </ns3:TrackPointExtension>
        </extensions>
      </trkpt>
      <trkpt lat="47.005114853382110595703125" lon="6.935195066034793853759765625">
        <ele>675.79998779296875</ele>
        <time>2019-06-19T10:03:03.000Z</time>
        <extensions>
          <ns3:TrackPointExtension>
            <ns3:atemp>29.0</ns3:atemp>
            <ns3:hr>102</ns3:hr>
          </ns3:TrackPointExtension>
        </extensions>
      </trkpt>
      <trkpt lat="47.00512901879847049713134765625" lon="6.93521660752594470977783203125">
        <ele>676.20001220703125</ele>
        <time>2019-06-19T10:03:04.000Z</time>
        <extensions>
          <ns3:TrackPointExtension>
            <ns3:atemp>29.0</ns3:atemp>
            <ns3:hr>103</ns3:hr>
          </ns3:TrackPointExtension>
        </extensions>
      </trkpt>
      <trkpt lat="47.005139999091625213623046875" lon="6.93524636328220367431640625">
        <ele>676.5999755859375</ele>
        <time>2019-06-19T10:03:05.000Z</time>
        <extensions>
          <ns3:TrackPointExtension>
            <ns3:atemp>29.0</ns3:atemp>
            <ns3:hr>101</ns3:hr>
          </ns3:TrackPointExtension>
        </extensions>
      </trkpt>
      <trkpt lat="47.00516539625823497772216796875" lon="6.93528701551258563995361328125">
        <ele>676.79998779296875</ele>
        <time>2019-06-19T10:03:06.000Z</time>
        <extensions>
          <ns3:TrackPointExtension>
            <ns3:atemp>29.0</ns3:atemp>
            <ns3:hr>102</ns3:hr>
          </ns3:TrackPointExtension>
        </extensions>
      </trkpt>
      <trkpt lat="47.00522557832300662994384765625" lon="6.93538391031324863433837890625">
        <ele>676.79998779296875</ele>
        <time>2019-06-19T10:03:10.000Z</time>
        <extensions>
          <ns3:TrackPointExtension>
            <ns3:atemp>29.0</ns3:atemp>
            <ns3:hr>109</ns3:hr>
          </ns3:TrackPointExtension>
        </extensions>
      </trkpt>
      <trkpt lat="47.0052481256425380706787109375" lon="6.93543009459972381591796875">
        <ele>676.5999755859375</ele>
        <time>2019-06-19T10:03:12.000Z</time>
        <extensions>
          <ns3:TrackPointExtension>
            <ns3:atemp>29.0</ns3:atemp>
            <ns3:hr>110</ns3:hr>
          </ns3:TrackPointExtension>
        </extensions>
      </trkpt>
      <trkpt lat="47.00529254972934722900390625" lon="6.93555255420506000518798828125">
        <ele>677.79998779296875</ele>
        <time>2019-06-19T10:03:16.000Z</time>
        <extensions>
          <ns3:TrackPointExtension>
            <ns3:atemp>29.0</ns3:atemp>
            <ns3:hr>107</ns3:hr>
          </ns3:TrackPointExtension>
        </extensions>
      </trkpt>
      <trkpt lat="47.00532197020947933197021484375" lon="6.93562279455363750457763671875">
        <ele>678.20001220703125</ele>
        <time>2019-06-19T10:03:18.000Z</time>
        <extensions>
          <ns3:TrackPointExtension>
            <ns3:atemp>29.0</ns3:atemp>
            <ns3:hr>102</ns3:hr>
          </ns3:TrackPointExtension>
        </extensions>
      </trkpt>
      <trkpt lat="47.005336470901966094970703125" lon="6.93565732799470424652099609375">
        <ele>678.4000244140625</ele>
        <time>2019-06-19T10:03:19.000Z</time>
        <extensions>
          <ns3:TrackPointExtension>
            <ns3:atemp>29.0</ns3:atemp>
            <ns3:hr>97</ns3:hr>
          </ns3:TrackPointExtension>
        </extensions>
      </trkpt>
      <trkpt lat="47.00535700656473636627197265625" lon="6.9356890954077243804931640625">
        <ele>678.5999755859375</ele>
        <time>2019-06-19T10:03:20.000Z</time>
        <extensions>
          <ns3:TrackPointExtension>
            <ns3:atemp>29.0</ns3:atemp>
            <ns3:hr>91</ns3:hr>
          </ns3:TrackPointExtension>
        </extensions>
      </trkpt>
      <trkpt lat="47.0053768716752529144287109375" lon="6.9357098825275897979736328125">
        <ele>678.79998779296875</ele>
        <time>2019-06-19T10:03:21.000Z</time>
        <extensions>
          <ns3:TrackPointExtension>
            <ns3:atemp>29.0</ns3:atemp>
            <ns3:hr>88</ns3:hr>
          </ns3:TrackPointExtension>
        </extensions>
      </trkpt>
      <trkpt lat="47.00539472512900829315185546875" lon="6.93572874180972576141357421875">
        <ele>678.79998779296875</ele>
        <time>2019-06-19T10:03:22.000Z</time>
        <extensions>
          <ns3:TrackPointExtension>
            <ns3:atemp>29.0</ns3:atemp>
            <ns3:hr>81</ns3:hr>
          </ns3:TrackPointExtension>
        </extensions>
      </trkpt>
      <trkpt lat="47.00541199184954166412353515625" lon="6.93575103767216205596923828125">
        <ele>679</ele>
        <time>2019-06-19T10:03:23.000Z</time>
        <extensions>
          <ns3:TrackPointExtension>
            <ns3:atemp>29.0</ns3:atemp>
            <ns3:hr>75</ns3:hr>
          </ns3:TrackPointExtension>
        </extensions>
      </trkpt>
      <trkpt lat="47.00547904707491397857666015625" lon="6.935834772884845733642578125">
        <ele>679.4000244140625</ele>
        <time>2019-06-19T10:03:27.000Z</time>
        <extensions>
          <ns3:TrackPointExtension>
            <ns3:atemp>29.0</ns3:atemp>
            <ns3:hr>76</ns3:hr>
          </ns3:TrackPointExtension>
        </extensions>
      </trkpt>
      <trkpt lat="47.00550603680312633514404296875" lon="6.93586419336497783660888671875">
        <ele>679.4000244140625</ele>
        <time>2019-06-19T10:03:29.000Z</time>
        <extensions>
          <ns3:TrackPointExtension>
            <ns3:atemp>29.0</ns3:atemp>
            <ns3:hr>79</ns3:hr>
          </ns3:TrackPointExtension>
        </extensions>
      </trkpt>
      <trkpt lat="47.005574516952037811279296875" lon="6.93593141622841358184814453125">
        <ele>679.79998779296875</ele>
        <time>2019-06-19T10:03:33.000Z</time>
        <extensions>
          <ns3:TrackPointExtension>
            <ns3:atemp>29.0</ns3:atemp>
            <ns3:hr>79</ns3:hr>
          </ns3:TrackPointExtension>
        </extensions>
      </trkpt>
      <trkpt lat="47.00561198405921459197998046875" lon="6.93598103709518909454345703125">
        <ele>680</ele>
        <time>2019-06-19T10:03:35.000Z</time>
        <extensions>
          <ns3:TrackPointExtension>
            <ns3:atemp>29.0</ns3:atemp>
            <ns3:hr>79</ns3:hr>
          </ns3:TrackPointExtension>
        </extensions>
      </trkpt>
      <trkpt lat="47.00569865293800830841064453125" lon="6.93611296825110912322998046875">
        <ele>681</ele>
        <time>2019-06-19T10:03:39.000Z</time>
        <extensions>
          <ns3:TrackPointExtension>
            <ns3:atemp>29.0</ns3:atemp>
            <ns3:hr>85</ns3:hr>
          </ns3:TrackPointExtension>
        </extensions>
      </trkpt>
      <trkpt lat="47.00572228990495204925537109375" lon="6.93615873344242572784423828125">
        <ele>681</ele>
        <time>2019-06-19T10:03:40.000Z</time>
        <extensions>
          <ns3:TrackPointExtension>
            <ns3:atemp>29.0</ns3:atemp>
            <ns3:hr>90</ns3:hr>
          </ns3:TrackPointExtension>
        </extensions>
      </trkpt>
      <trkpt lat="47.00576470233500003814697265625" lon="6.93623769097030162811279296875">
        <ele>681.4000244140625</ele>
        <time>2019-06-19T10:03:42.000Z</time>
        <extensions>
          <ns3:TrackPointExtension>
            <ns3:atemp>29.0</ns3:atemp>
            <ns3:hr>92</ns3:hr>
          </ns3:TrackPointExtension>
        </extensions>
      </trkpt>
      <trkpt lat="47.00581692159175872802734375" lon="6.93632435984909534454345703125">
        <ele>682</ele>
        <time>2019-06-19T10:03:45.000Z</time>
        <extensions>
          <ns3:TrackPointExtension>
            <ns3:atemp>29.0</ns3:atemp>
            <ns3:hr>93</ns3:hr>
          </ns3:TrackPointExtension>
        </extensions>
      </trkpt>
      <trkpt lat="47.0058613456785678863525390625" lon="6.93641622550785541534423828125">
        <ele>682.5999755859375</ele>
        <time>2019-06-19T10:03:49.000Z</time>
        <extensions>
          <ns3:TrackPointExtension>
            <ns3:atemp>29.0</ns3:atemp>
            <ns3:hr>93</ns3:hr>
          </ns3:TrackPointExtension>
        </extensions>
      </trkpt>
      <trkpt lat="47.0058928616344928741455078125" lon="6.9364847056567668914794921875">
        <ele>683.20001220703125</ele>
        <time>2019-06-19T10:03:52.000Z</time>
        <extensions>
          <ns3:TrackPointExtension>
            <ns3:atemp>29.0</ns3:atemp>
            <ns3:hr>94</ns3:hr>
          </ns3:TrackPointExtension>
        </extensions>
      </trkpt>
      <trkpt lat="47.005938626825809478759765625" lon="6.93658746778964996337890625">
        <ele>683.5999755859375</ele>
        <time>2019-06-19T10:03:56.000Z</time>
        <extensions>
          <ns3:TrackPointExtension>
            <ns3:atemp>29.0</ns3:atemp>
            <ns3:hr>93</ns3:hr>
          </ns3:TrackPointExtension>
        </extensions>
      </trkpt>
      <trkpt lat="47.005959413945674896240234375" lon="6.93662744946777820587158203125">
        <ele>683.79998779296875</ele>
        <time>2019-06-19T10:03:58.000Z</time>
        <extensions>
          <ns3:TrackPointExtension>
            <ns3:atemp>29.0</ns3:atemp>
            <ns3:hr>97</ns3:hr>
          </ns3:TrackPointExtension>
        </extensions>
      </trkpt>
      <trkpt lat="47.00597207061946392059326171875" lon="6.93664454855024814605712890625">
        <ele>684</ele>
        <time>2019-06-19T10:03:59.000Z</time>
        <extensions>
          <ns3:TrackPointExtension>
            <ns3:atemp>29.0</ns3:atemp>
            <ns3:hr>102</ns3:hr>
          </ns3:TrackPointExtension>
        </extensions>
      </trkpt>
      <trkpt lat="47.0059823803603649139404296875" lon="6.9366593845188617706298828125">
        <ele>684.20001220703125</ele>
        <time>2019-06-19T10:04:00.000Z</time>
        <extensions>
          <ns3:TrackPointExtension>
            <ns3:atemp>29.0</ns3:atemp>
            <ns3:hr>106</ns3:hr>
          </ns3:TrackPointExtension>
        </extensions>
      </trkpt>
      <trkpt lat="47.00598497875034809112548828125" lon="6.936674304306507110595703125">
        <ele>684.4000244140625</ele>
        <time>2019-06-19T10:04:01.000Z</time>
        <extensions>
          <ns3:TrackPointExtension>
            <ns3:atemp>29.0</ns3:atemp>
            <ns3:hr>112</ns3:hr>
          </ns3:TrackPointExtension>
        </extensions>
      </trkpt>
      <trkpt lat="47.0059998147189617156982421875" lon="6.93671428598463535308837890625">
        <ele>684.5999755859375</ele>
        <time>2019-06-19T10:04:03.000Z</time>
        <extensions>
          <ns3:TrackPointExtension>
            <ns3:atemp>29.0</ns3:atemp>
            <ns3:hr>115</ns3:hr>
          </ns3:TrackPointExtension>
        </extensions>
      </trkpt>
      <trkpt lat="47.00604784302413463592529296875" lon="6.93682928569614887237548828125">
        <ele>685.4000244140625</ele>
        <time>2019-06-19T10:04:08.000Z</time>
        <extensions>
          <ns3:TrackPointExtension>
            <ns3:atemp>29.0</ns3:atemp>
            <ns3:hr>114</ns3:hr>
          </ns3:TrackPointExtension>
        </extensions>
      </trkpt>
      <trkpt lat="47.00608137063682079315185546875" lon="6.93691930733621120452880859375">
        <ele>685.79998779296875</ele>
        <time>2019-06-19T10:04:11.000Z</time>
        <extensions>
          <ns3:TrackPointExtension>
            <ns3:atemp>29.0</ns3:atemp>
            <ns3:hr>112</ns3:hr>
          </ns3:TrackPointExtension>
        </extensions>
      </trkpt>
      <trkpt lat="47.006100229918956756591796875" lon="6.93694847635924816131591796875">
        <ele>686</ele>
        <time>2019-06-19T10:04:13.000Z</time>
        <extensions>
          <ns3:TrackPointExtension>
            <ns3:atemp>29.0</ns3:atemp>
            <ns3:hr>112</ns3:hr>
          </ns3:TrackPointExtension>
        </extensions>
      </trkpt>
      <trkpt lat="47.00613283552229404449462890625" lon="6.936986446380615234375">
        <ele>686.4000244140625</ele>
        <time>2019-06-19T10:04:15.000Z</time>
        <extensions>
          <ns3:TrackPointExtension>
            <ns3:atemp>29.0</ns3:atemp>
            <ns3:hr>111</ns3:hr>
          </ns3:TrackPointExtension>
        </extensions>
      </trkpt>
      <trkpt lat="47.0061520300805568695068359375" lon="6.93700396455824375152587890625">
        <ele>686.4000244140625</ele>
        <time>2019-06-19T10:04:16.000Z</time>
        <extensions>
          <ns3:TrackPointExtension>
            <ns3:atemp>29.0</ns3:atemp>
            <ns3:hr>110</ns3:hr>
          </ns3:TrackPointExtension>
        </extensions>
      </trkpt>
      <trkpt lat="47.00621564872562885284423828125" lon="6.937103457748889923095703125">
        <ele>686</ele>
        <time>2019-06-19T10:04:20.000Z</time>
        <extensions>
          <ns3:TrackPointExtension>
            <ns3:atemp>29.0</ns3:atemp>
            <ns3:hr>107</ns3:hr>
          </ns3:TrackPointExtension>
        </extensions>
      </trkpt>
      <trkpt lat="47.00628018938004970550537109375" lon="6.9372327066957950592041015625">
        <ele>685.4000244140625</ele>
        <time>2019-06-19T10:04:24.000Z</time>
        <extensions>
          <ns3:TrackPointExtension>
            <ns3:atemp>29.0</ns3:atemp>
            <ns3:hr>104</ns3:hr>
          </ns3:TrackPointExtension>
        </extensions>
      </trkpt>
      <trkpt lat="47.00630265288054943084716796875" lon="6.93728945218026638031005859375">
        <ele>685.20001220703125</ele>
        <time>2019-06-19T10:04:25.000Z</time>
        <extensions>
          <ns3:TrackPointExtension>
            <ns3:atemp>29.0</ns3:atemp>
            <ns3:hr>105</ns3:hr>
          </ns3:TrackPointExtension>
        </extensions>
      </trkpt>
      <trkpt lat="47.0063568837940692901611328125" lon="6.93742942996323108673095703125">
        <ele>685.20001220703125</ele>
        <time>2019-06-19T10:04:29.000Z</time>
        <extensions>
          <ns3:TrackPointExtension>
            <ns3:atemp>29.0</ns3:atemp>
            <ns3:hr>108</ns3:hr>
          </ns3:TrackPointExtension>
        </extensions>
      </trkpt>
      <trkpt lat="47.00637591071426868438720703125" lon="6.93746714852750301361083984375">
        <ele>685.4000244140625</ele>
        <time>2019-06-19T10:04:30.000Z</time>
        <extensions>
          <ns3:TrackPointExtension>
            <ns3:atemp>29.0</ns3:atemp>
            <ns3:hr>111</ns3:hr>
          </ns3:TrackPointExtension>
        </extensions>
      </trkpt>
      <trkpt lat="47.00638395734131336212158203125" lon="6.9375215470790863037109375">
        <ele>685.79998779296875</ele>
        <time>2019-06-19T10:04:31.000Z</time>
        <extensions>
          <ns3:TrackPointExtension>
            <ns3:atemp>29.0</ns3:atemp>
            <ns3:hr>115</ns3:hr>
          </ns3:TrackPointExtension>
        </extensions>
      </trkpt>
      <trkpt lat="47.00642452575266361236572265625" lon="6.93758985958993434906005859375">
        <ele>686.20001220703125</ele>
        <time>2019-06-19T10:04:33.000Z</time>
        <extensions>
          <ns3:TrackPointExtension>
            <ns3:atemp>29.0</ns3:atemp>
            <ns3:hr>124</ns3:hr>
          </ns3:TrackPointExtension>
        </extensions>
      </trkpt>
      <trkpt lat="47.0064641721546649932861328125" lon="6.9376461021602153778076171875">
        <ele>686.5999755859375</ele>
        <time>2019-06-19T10:04:35.000Z</time>
        <extensions>
          <ns3:TrackPointExtension>
            <ns3:atemp>29.0</ns3:atemp>
            <ns3:hr>127</ns3:hr>
          </ns3:TrackPointExtension>
        </extensions>
      </trkpt>
      <trkpt lat="47.00647917576134204864501953125" lon="6.93768055178225040435791015625">
        <ele>686.79998779296875</ele>
        <time>2019-06-19T10:04:36.000Z</time>
        <extensions>
          <ns3:TrackPointExtension>
            <ns3:atemp>29.0</ns3:atemp>
            <ns3:hr>127</ns3:hr>
          </ns3:TrackPointExtension>
        </extensions>
      </trkpt>
      <trkpt lat="47.0065198279917240142822265625" lon="6.93773956038057804107666015625">
        <ele>687.79998779296875</ele>
        <time>2019-06-19T10:04:39.000Z</time>
        <extensions>
          <ns3:TrackPointExtension>
            <ns3:atemp>29.0</ns3:atemp>
            <ns3:hr>126</ns3:hr>
          </ns3:TrackPointExtension>
        </extensions>
      </trkpt>
      <trkpt lat="47.00653332285583019256591796875" lon="6.93780477158725261688232421875">
        <ele>688.79998779296875</ele>
        <time>2019-06-19T10:04:41.000Z</time>
        <extensions>
          <ns3:TrackPointExtension>
            <ns3:atemp>29.0</ns3:atemp>
            <ns3:hr>124</ns3:hr>
          </ns3:TrackPointExtension>
        </extensions>
      </trkpt>
      <trkpt lat="47.00653566978871822357177734375" lon="6.937844417989253997802734375">
        <ele>689</ele>
        <time>2019-06-19T10:04:42.000Z</time>
        <extensions>
          <ns3:TrackPointExtension>
            <ns3:atemp>29.0</ns3:atemp>
            <ns3:hr>124</ns3:hr>
          </ns3:TrackPointExtension>
        </extensions>
      </trkpt>
      <trkpt lat="47.0065510086715221405029296875" lon="6.93788473494350910186767578125">
        <ele>689.4000244140625</ele>
        <time>2019-06-19T10:04:43.000Z</time>
        <extensions>
          <ns3:TrackPointExtension>
            <ns3:atemp>29.0</ns3:atemp>
            <ns3:hr>123</ns3:hr>
          </ns3:TrackPointExtension>
        </extensions>
      </trkpt>
      <trkpt lat="47.00656617991626262664794921875" lon="6.93792060948908329010009765625">
        <ele>689.5999755859375</ele>
        <time>2019-06-19T10:04:44.000Z</time>
        <extensions>
          <ns3:TrackPointExtension>
            <ns3:atemp>29.0</ns3:atemp>
            <ns3:hr>123</ns3:hr>
          </ns3:TrackPointExtension>
        </extensions>
      </trkpt>
      <trkpt lat="47.0065875537693500518798828125" lon="6.9379538856446743011474609375">
        <ele>689.79998779296875</ele>
        <time>2019-06-19T10:04:45.000Z</time>
        <extensions>
          <ns3:TrackPointExtension>
            <ns3:atemp>29.0</ns3:atemp>
            <ns3:hr>124</ns3:hr>
          </ns3:TrackPointExtension>
        </extensions>
      </trkpt>
      <trkpt lat="47.006642036139965057373046875" lon="6.9380427338182926177978515625">
        <ele>690.79998779296875</ele>
        <time>2019-06-19T10:04:48.000Z</time>
        <extensions>
          <ns3:TrackPointExtension>
            <ns3:atemp>29.0</ns3:atemp>
            <ns3:hr>124</ns3:hr>
          </ns3:TrackPointExtension>
        </extensions>
      </trkpt>
      <trkpt lat="47.00669358484447002410888671875" lon="6.9381344318389892578125">
        <ele>692.20001220703125</ele>
        <time>2019-06-19T10:04:51.000Z</time>
        <extensions>
          <ns3:TrackPointExtension>
            <ns3:atemp>28.0</ns3:atemp>
            <ns3:hr>125</ns3:hr>
          </ns3:TrackPointExtension>
        </extensions>
      </trkpt>
      <trkpt lat="47.00670464895665645599365234375" lon="6.938175000250339508056640625">
        <ele>692.4000244140625</ele>
        <time>2019-06-19T10:04:52.000Z</time>
        <extensions>
          <ns3:TrackPointExtension>
            <ns3:atemp>28.0</ns3:atemp>
            <ns3:hr>127</ns3:hr>
          </ns3:TrackPointExtension>
        </extensions>
      </trkpt>
      <trkpt lat="47.0067199878394603729248046875" lon="6.93821950815618038177490234375">
        <ele>692.4000244140625</ele>
        <time>2019-06-19T10:04:53.000Z</time>
        <extensions>
          <ns3:TrackPointExtension>
            <ns3:atemp>28.0</ns3:atemp>
            <ns3:hr>125</ns3:hr>
          </ns3:TrackPointExtension>
        </extensions>
      </trkpt>
      <trkpt lat="47.0067132823169231414794921875" lon="6.9382586516439914703369140625">
        <ele>692.4000244140625</ele>
        <time>2019-06-19T10:04:54.000Z</time>
        <extensions>
          <ns3:TrackPointExtension>
            <ns3:atemp>28.0</ns3:atemp>
            <ns3:hr>126</ns3:hr>
          </ns3:TrackPointExtension>
        </extensions>
      </trkpt>
      <trkpt lat="47.00672074221074581146240234375" lon="6.93839653395116329193115234375">
        <ele>692.4000244140625</ele>
        <time>2019-06-19T10:04:57.000Z</time>
        <extensions>
          <ns3:TrackPointExtension>
            <ns3:atemp>28.0</ns3:atemp>
            <ns3:hr>125</ns3:hr>
          </ns3:TrackPointExtension>
        </extensions>
      </trkpt>
      <trkpt lat="47.00680355541408061981201171875" lon="6.93861580453813076019287109375">
        <ele>692</ele>
        <time>2019-06-19T10:05:02.000Z</time>
        <extensions>
          <ns3:TrackPointExtension>
            <ns3:atemp>28.0</ns3:atemp>
            <ns3:hr>128</ns3:hr>
          </ns3:TrackPointExtension>
        </extensions>
      </trkpt>
      <trkpt lat="47.006831131875514984130859375" lon="6.9386614859104156494140625">
        <ele>692</ele>
        <time>2019-06-19T10:05:03.000Z</time>
        <extensions>
          <ns3:TrackPointExtension>
            <ns3:atemp>28.0</ns3:atemp>
            <ns3:hr>126</ns3:hr>
          </ns3:TrackPointExtension>
        </extensions>
      </trkpt>
      <trkpt lat="47.00688485987484455108642578125" lon="6.9387803412973880767822265625">
        <ele>691.79998779296875</ele>
        <time>2019-06-19T10:05:06.000Z</time>
        <extensions>
          <ns3:TrackPointExtension>
            <ns3:atemp>28.0</ns3:atemp>
            <ns3:hr>126</ns3:hr>
          </ns3:TrackPointExtension>
        </extensions>
      </trkpt>
      <trkpt lat="47.0070284418761730194091796875" lon="6.93901008926331996917724609375">
        <ele>692.20001220703125</ele>
        <time>2019-06-19T10:05:11.000Z</time>
        <extensions>
          <ns3:TrackPointExtension>
            <ns3:atemp>28.0</ns3:atemp>
            <ns3:hr>125</ns3:hr>
          </ns3:TrackPointExtension>
        </extensions>
      </trkpt>
      <trkpt lat="47.00715492479503154754638671875" lon="6.9391669146716594696044921875">
        <ele>693.20001220703125</ele>
        <time>2019-06-19T10:05:15.000Z</time>
        <extensions>
          <ns3:TrackPointExtension>
            <ns3:atemp>28.0</ns3:atemp>
            <ns3:hr>122</ns3:hr>
          </ns3:TrackPointExtension>
        </extensions>
      </trkpt>
      <trkpt lat="47.00717939995229244232177734375" lon="6.9391997717320919036865234375">
        <ele>693.4000244140625</ele>
        <time>2019-06-19T10:05:16.000Z</time>
        <extensions>
          <ns3:TrackPointExtension>
            <ns3:atemp>28.0</ns3:atemp>
            <ns3:hr>121</ns3:hr>
          </ns3:TrackPointExtension>
        </extensions>
      </trkpt>
      <trkpt lat="47.0072163641452789306640625" lon="6.93924260325729846954345703125">
        <ele>693.4000244140625</ele>
        <time>2019-06-19T10:05:17.000Z</time>
        <extensions>
          <ns3:TrackPointExtension>
            <ns3:atemp>28.0</ns3:atemp>
            <ns3:hr>118</ns3:hr>
          </ns3:TrackPointExtension>
        </extensions>
      </trkpt>
      <trkpt lat="47.00738131999969482421875" lon="6.939413510262966156005859375">
        <ele>693.5999755859375</ele>
        <time>2019-06-19T10:05:22.000Z</time>
        <extensions>
          <ns3:TrackPointExtension>
            <ns3:atemp>28.0</ns3:atemp>
            <ns3:hr>118</ns3:hr>
          </ns3:TrackPointExtension>
        </extensions>
      </trkpt>
      <trkpt lat="47.00746438466012477874755859375" lon="6.9395125843584537506103515625">
        <ele>694.4000244140625</ele>
        <time>2019-06-19T10:05:26.000Z</time>
        <extensions>
          <ns3:TrackPointExtension>
            <ns3:atemp>28.0</ns3:atemp>
            <ns3:hr>117</ns3:hr>
          </ns3:TrackPointExtension>
        </extensions>
      </trkpt>
      <trkpt lat="47.0075397379696369171142578125" lon="6.93957234732806682586669921875">
        <ele>695.20001220703125</ele>
        <time>2019-06-19T10:05:30.000Z</time>
        <extensions>
          <ns3:TrackPointExtension>
            <ns3:atemp>28.0</ns3:atemp>
          </ns3:TrackPointExtension>
        </extensions>
      </trkpt>
      <trkpt lat="47.0075997523963451385498046875" lon="6.93960956297814846038818359375">
        <ele>695.5999755859375</ele>
        <time>2019-06-19T10:05:33.000Z</time>
        <extensions>
          <ns3:TrackPointExtension>
            <ns3:atemp>28.0</ns3:atemp>
            <ns3:hr>118</ns3:hr>
          </ns3:TrackPointExtension>
        </extensions>
      </trkpt>
      <trkpt lat="47.0077003352344036102294921875" lon="6.939673013985157012939453125">
        <ele>696.20001220703125</ele>
        <time>2019-06-19T10:05:38.000Z</time>
        <extensions>
          <ns3:TrackPointExtension>
            <ns3:atemp>28.0</ns3:atemp>
            <ns3:hr>116</ns3:hr>
          </ns3:TrackPointExtension>
        </extensions>
      </trkpt>
      <trkpt lat="47.00776713900268077850341796875" lon="6.93973277695477008819580078125">
        <ele>696.5999755859375</ele>
        <time>2019-06-19T10:05:41.000Z</time>
        <extensions>
          <ns3:TrackPointExtension>
            <ns3:atemp>28.0</ns3:atemp>
            <ns3:hr>116</ns3:hr>
          </ns3:TrackPointExtension>
        </extensions>
      </trkpt>
      <trkpt lat="47.00779974460601806640625" lon="6.9398228824138641357421875">
        <ele>696.79998779296875</ele>
        <time>2019-06-19T10:05:43.000Z</time>
        <extensions>
          <ns3:TrackPointExtension>
            <ns3:atemp>28.0</ns3:atemp>
            <ns3:hr>116</ns3:hr>
          </ns3:TrackPointExtension>
        </extensions>
      </trkpt>
      <trkpt lat="47.00784559361636638641357421875" lon="6.93990862928330898284912109375">
        <ele>697</ele>
        <time>2019-06-19T10:05:45.000Z</time>
        <extensions>
          <ns3:TrackPointExtension>
            <ns3:atemp>28.0</ns3:atemp>
            <ns3:hr>120</ns3:hr>
          </ns3:TrackPointExtension>
        </extensions>
      </trkpt>
      <trkpt lat="47.007936201989650726318359375" lon="6.94003201089799404144287109375">
        <ele>697.4000244140625</ele>
        <time>2019-06-19T10:05:48.000Z</time>
        <extensions>
          <ns3:TrackPointExtension>
            <ns3:atemp>28.0</ns3:atemp>
            <ns3:hr>120</ns3:hr>
          </ns3:TrackPointExtension>
        </extensions>
      </trkpt>
      <trkpt lat="47.00795774348080158233642578125" lon="6.94005849771201610565185546875">
        <ele>697.5999755859375</ele>
        <time>2019-06-19T10:05:49.000Z</time>
        <extensions>
          <ns3:TrackPointExtension>
            <ns3:atemp>28.0</ns3:atemp>
            <ns3:hr>120</ns3:hr>
          </ns3:TrackPointExtension>
        </extensions>
      </trkpt>
      <trkpt lat="47.007973752915859222412109375" lon="6.9400942884385585784912109375">
        <ele>697.5999755859375</ele>
        <time>2019-06-19T10:05:50.000Z</time>
        <extensions>
          <ns3:TrackPointExtension>
            <ns3:atemp>28.0</ns3:atemp>
            <ns3:hr>119</ns3:hr>
          </ns3:TrackPointExtension>
        </extensions>
      </trkpt>
      <trkpt lat="47.008020691573619842529296875" lon="6.9402283988893032073974609375">
        <ele>698</ele>
        <time>2019-06-19T10:05:54.000Z</time>
        <extensions>
          <ns3:TrackPointExtension>
            <ns3:atemp>28.0</ns3:atemp>
            <ns3:hr>117</ns3:hr>
          </ns3:TrackPointExtension>
        </extensions>
      </trkpt>
      <trkpt lat="47.00807936489582061767578125" lon="6.94039947353303432464599609375">
        <ele>698</ele>
        <time>2019-06-19T10:05:58.000Z</time>
        <extensions>
          <ns3:TrackPointExtension>
            <ns3:atemp>28.0</ns3:atemp>
            <ns3:hr>113</ns3:hr>
          </ns3:TrackPointExtension>
        </extensions>
      </trkpt>
      <trkpt lat="47.00808263383805751800537109375" lon="6.9405269622802734375">
        <ele>698</ele>
        <time>2019-06-19T10:06:00.000Z</time>
        <extensions>
          <ns3:TrackPointExtension>
            <ns3:atemp>28.0</ns3:atemp>
            <ns3:hr>110</ns3:hr>
          </ns3:TrackPointExtension>
        </extensions>
      </trkpt>
      <trkpt lat="47.0080885849893093109130859375" lon="6.9406149722635746002197265625">
        <ele>697.4000244140625</ele>
        <time>2019-06-19T10:06:02.000Z</time>
        <extensions>
          <ns3:TrackPointExtension>
            <ns3:atemp>28.0</ns3:atemp>
            <ns3:hr>110</ns3:hr>
          </ns3:TrackPointExtension>
        </extensions>
      </trkpt>
      <trkpt lat="47.00813946314156055450439453125" lon="6.9407195784151554107666015625">
        <ele>696.79998779296875</ele>
        <time>2019-06-19T10:06:04.000Z</time>
        <extensions>
          <ns3:TrackPointExtension>
            <ns3:atemp>28.0</ns3:atemp>
            <ns3:hr>108</ns3:hr>
          </ns3:TrackPointExtension>
        </extensions>
      </trkpt>
      <trkpt lat="47.00820568017661571502685546875" lon="6.94081865251064300537109375">
        <ele>696.5999755859375</ele>
        <time>2019-06-19T10:06:06.000Z</time>
        <extensions>
          <ns3:TrackPointExtension>
            <ns3:atemp>28.0</ns3:atemp>
          </ns3:TrackPointExtension>
        </extensions>
      </trkpt>
      <trkpt lat="47.00831430964171886444091796875" lon="6.94105242379009723663330078125">
        <ele>696.79998779296875</ele>
        <time>2019-06-19T10:06:10.000Z</time>
        <extensions>
          <ns3:TrackPointExtension>
            <ns3:atemp>27.0</ns3:atemp>
            <ns3:hr>107</ns3:hr>
          </ns3:TrackPointExtension>
        </extensions>
      </trkpt>
      <trkpt lat="47.00836476869881153106689453125" lon="6.9412234984338283538818359375">
        <ele>696.4000244140625</ele>
        <time>2019-06-19T10:06:13.000Z</time>
        <extensions>
          <ns3:TrackPointExtension>
            <ns3:atemp>27.0</ns3:atemp>
            <ns3:hr>108</ns3:hr>
          </ns3:TrackPointExtension>
        </extensions>
      </trkpt>
      <trkpt lat="47.008376084268093109130859375" lon="6.941280663013458251953125">
        <ele>696.4000244140625</ele>
        <time>2019-06-19T10:06:14.000Z</time>
        <extensions>
          <ns3:TrackPointExtension>
            <ns3:atemp>27.0</ns3:atemp>
            <ns3:hr>105</ns3:hr>
          </ns3:TrackPointExtension>
        </extensions>
      </trkpt>
      <trkpt lat="47.00840550474822521209716796875" lon="6.9414581917226314544677734375">
        <ele>696.20001220703125</ele>
        <time>2019-06-19T10:06:16.000Z</time>
        <extensions>
          <ns3:TrackPointExtension>
            <ns3:atemp>27.0</ns3:atemp>
            <ns3:hr>103</ns3:hr>
          </ns3:TrackPointExtension>
        </extensions>
      </trkpt>
      <trkpt lat="47.0084285549819469451904296875" lon="6.94161660969257354736328125">
        <ele>696</ele>
        <time>2019-06-19T10:06:18.000Z</time>
        <extensions>
          <ns3:TrackPointExtension>
            <ns3:atemp>27.0</ns3:atemp>
            <ns3:hr>103</ns3:hr>
          </ns3:TrackPointExtension>
        </extensions>
      </trkpt>
      <trkpt lat="47.0084718056023120880126953125" lon="6.94181132130324840545654296875">
        <ele>696.20001220703125</ele>
        <time>2019-06-19T10:06:21.000Z</time>
        <extensions>
          <ns3:TrackPointExtension>
            <ns3:atemp>27.0</ns3:atemp>
            <ns3:hr>103</ns3:hr>
          </ns3:TrackPointExtension>
        </extensions>
      </trkpt>
      <trkpt lat="47.008538357913494110107421875" lon="6.9419520534574985504150390625">
        <ele>696.20001220703125</ele>
        <time>2019-06-19T10:06:25.000Z</time>
        <extensions>
          <ns3:TrackPointExtension>
            <ns3:atemp>27.0</ns3:atemp>
            <ns3:hr>101</ns3:hr>
          </ns3:TrackPointExtension>
        </extensions>
      </trkpt>
      <trkpt lat="47.00864707119762897491455078125" lon="6.94219135679304599761962890625">
        <ele>695.5999755859375</ele>
        <time>2019-06-19T10:06:31.000Z</time>
        <extensions>
          <ns3:TrackPointExtension>
            <ns3:atemp>27.0</ns3:atemp>
            <ns3:hr>104</ns3:hr>
          </ns3:TrackPointExtension>
        </extensions>
      </trkpt>
      <trkpt lat="47.0086634159088134765625" lon="6.94223276339471340179443359375">
        <ele>695.4000244140625</ele>
        <time>2019-06-19T10:06:32.000Z</time>
        <extensions>
          <ns3:TrackPointExtension>
            <ns3:atemp>27.0</ns3:atemp>
            <ns3:hr>104</ns3:hr>
          </ns3:TrackPointExtension>
        </extensions>
      </trkpt>
      <trkpt lat="47.00869627296924591064453125" lon="6.9423486851155757904052734375">
        <ele>695.5999755859375</ele>
        <time>2019-06-19T10:06:35.000Z</time>
        <extensions>
          <ns3:TrackPointExtension>
            <ns3:atemp>27.0</ns3:atemp>
            <ns3:hr>103</ns3:hr>
          </ns3:TrackPointExtension>
        </extensions>
      </trkpt>
      <trkpt lat="47.0087279565632343292236328125" lon="6.94239336065948009490966796875">
        <ele>696.20001220703125</ele>
        <time>2019-06-19T10:06:39.000Z</time>
        <extensions>
          <ns3:TrackPointExtension>
            <ns3:atemp>27.0</ns3:atemp>
            <ns3:hr>103</ns3:hr>
          </ns3:TrackPointExtension>
        </extensions>
      </trkpt>
      <trkpt lat="47.00874061323702335357666015625" lon="6.9423745013773441314697265625">
        <ele>696.4000244140625</ele>
        <time>2019-06-19T10:06:40.000Z</time>
        <extensions>
          <ns3:TrackPointExtension>
            <ns3:atemp>27.0</ns3:atemp>
            <ns3:hr>102</ns3:hr>
          </ns3:TrackPointExtension>
        </extensions>
      </trkpt>
      <trkpt lat="47.00875838287174701690673828125" lon="6.94233284331858158111572265625">
        <ele>696.4000244140625</ele>
        <time>2019-06-19T10:06:42.000Z</time>
        <extensions>
          <ns3:TrackPointExtension>
            <ns3:atemp>27.0</ns3:atemp>
            <ns3:hr>102</ns3:hr>
          </ns3:TrackPointExtension>
        </extensions>
      </trkpt>
      <trkpt lat="47.0087822712957859039306640625" lon="6.9422819651663303375244140625">
        <ele>697</ele>
        <time>2019-06-19T10:06:44.000Z</time>
        <extensions>
          <ns3:TrackPointExtension>
            <ns3:atemp>27.0</ns3:atemp>
            <ns3:hr>106</ns3:hr>
          </ns3:TrackPointExtension>
        </extensions>
      </trkpt>
      <trkpt lat="47.00879551470279693603515625" lon="6.94228322245180606842041015625">
        <ele>697.20001220703125</ele>
        <time>2019-06-19T10:06:45.000Z</time>
        <extensions>
          <ns3:TrackPointExtension>
            <ns3:atemp>27.0</ns3:atemp>
            <ns3:hr>108</ns3:hr>
          </ns3:TrackPointExtension>
        </extensions>
      </trkpt>
      <trkpt lat="47.008806578814983367919921875" lon="6.94222354330122470855712890625">
        <ele>697.5999755859375</ele>
        <time>2019-06-19T10:06:47.000Z</time>
        <extensions>
          <ns3:TrackPointExtension>
            <ns3:atemp>27.0</ns3:atemp>
            <ns3:hr>111</ns3:hr>
          </ns3:TrackPointExtension>
        </extensions>
      </trkpt>
      <trkpt lat="47.008825354278087615966796875" lon="6.94218398071825504302978515625">
        <ele>697.79998779296875</ele>
        <time>2019-06-19T10:06:49.000Z</time>
        <extensions>
          <ns3:TrackPointExtension>
            <ns3:atemp>27.0</ns3:atemp>
            <ns3:hr>109</ns3:hr>
          </ns3:TrackPointExtension>
        </extensions>
      </trkpt>
      <trkpt lat="47.00884111225605010986328125" lon="6.942168809473514556884765625">
        <ele>697.79998779296875</ele>
        <time>2019-06-19T10:06:50.000Z</time>
        <extensions>
          <ns3:TrackPointExtension>
            <ns3:atemp>27.0</ns3:atemp>
            <ns3:hr>109</ns3:hr>
          </ns3:TrackPointExtension>
        </extensions>
      </trkpt>
      <trkpt lat="47.00885913334786891937255859375" lon="6.94208800792694091796875">
        <ele>698.4000244140625</ele>
        <time>2019-06-19T10:06:53.000Z</time>
        <extensions>
          <ns3:TrackPointExtension>
            <ns3:atemp>27.0</ns3:atemp>
            <ns3:hr>111</ns3:hr>
          </ns3:TrackPointExtension>
        </extensions>
      </trkpt>
      <trkpt lat="47.00886701233685016632080078125" lon="6.94205808453261852264404296875">
        <ele>698.5999755859375</ele>
        <time>2019-06-19T10:06:54.000Z</time>
        <extensions>
          <ns3:TrackPointExtension>
            <ns3:atemp>27.0</ns3:atemp>
            <ns3:hr>112</ns3:hr>
          </ns3:TrackPointExtension>
        </extensions>
      </trkpt>
      <trkpt lat="47.008877657353878021240234375" lon="6.9420227967202663421630859375">
        <ele>698.5999755859375</ele>
        <time>2019-06-19T10:06:55.000Z</time>
        <extensions>
          <ns3:TrackPointExtension>
            <ns3:atemp>27.0</ns3:atemp>
            <ns3:hr>112</ns3:hr>
          </ns3:TrackPointExtension>
        </extensions>
      </trkpt>
      <trkpt lat="47.00887908227741718292236328125" lon="6.9418769516050815582275390625">
        <ele>699</ele>
        <time>2019-06-19T10:06:59.000Z</time>
        <extensions>
          <ns3:TrackPointExtension>
            <ns3:atemp>27.0</ns3:atemp>
            <ns3:hr>113</ns3:hr>
          </ns3:TrackPointExtension>
        </extensions>
      </trkpt>
      <trkpt lat="47.00889064930379390716552734375" lon="6.9416628777980804443359375">
        <ele>699.4000244140625</ele>
        <time>2019-06-19T10:07:04.000Z</time>
        <extensions>
          <ns3:TrackPointExtension>
            <ns3:atemp>27.0</ns3:atemp>
            <ns3:hr>116</ns3:hr>
          </ns3:TrackPointExtension>
        </extensions>
      </trkpt>
      <trkpt lat="47.00888679362833499908447265625" lon="6.94156187586486339569091796875">
        <ele>699.4000244140625</ele>
        <time>2019-06-19T10:07:06.000Z</time>
        <extensions>
          <ns3:TrackPointExtension>
            <ns3:atemp>27.0</ns3:atemp>
            <ns3:hr>114</ns3:hr>
          </ns3:TrackPointExtension>
        </extensions>
      </trkpt>
      <trkpt lat="47.00888545252382755279541015625" lon="6.94146967492997646331787109375">
        <ele>699.4000244140625</ele>
        <time>2019-06-19T10:07:08.000Z</time>
        <extensions>
          <ns3:TrackPointExtension>
            <ns3:atemp>27.0</ns3:atemp>
            <ns3:hr>111</ns3:hr>
          </ns3:TrackPointExtension>
        </extensions>
      </trkpt>
      <trkpt lat="47.008891738951206207275390625" lon="6.9413535855710506439208984375">
        <ele>699.79998779296875</ele>
        <time>2019-06-19T10:07:11.000Z</time>
        <extensions>
          <ns3:TrackPointExtension>
            <ns3:atemp>27.0</ns3:atemp>
            <ns3:hr>110</ns3:hr>
          </ns3:TrackPointExtension>
        </extensions>
      </trkpt>
      <trkpt lat="47.00890255160629749298095703125" lon="6.94127990864217281341552734375">
        <ele>700.20001220703125</ele>
        <time>2019-06-19T10:07:13.000Z</time>
        <extensions>
          <ns3:TrackPointExtension>
            <ns3:atemp>27.0</ns3:atemp>
            <ns3:hr>112</ns3:hr>
          </ns3:TrackPointExtension>
        </extensions>
      </trkpt>
      <trkpt lat="47.00890992768108844757080078125" lon="6.94116490893065929412841796875">
        <ele>700.79998779296875</ele>
        <time>2019-06-19T10:07:16.000Z</time>
        <extensions>
          <ns3:TrackPointExtension>
            <ns3:atemp>27.0</ns3:atemp>
            <ns3:hr>112</ns3:hr>
          </ns3:TrackPointExtension>
        </extensions>
      </trkpt>
      <trkpt lat="47.0089254342019557952880859375" lon="6.94105745293200016021728515625">
        <ele>701.79998779296875</ele>
        <time>2019-06-19T10:07:19.000Z</time>
        <extensions>
          <ns3:TrackPointExtension>
            <ns3:atemp>27.0</ns3:atemp>
            <ns3:hr>114</ns3:hr>
          </ns3:TrackPointExtension>
        </extensions>
      </trkpt>
      <trkpt lat="47.0089391805231571197509765625" lon="6.9408325664699077606201171875">
        <ele>702.79998779296875</ele>
        <time>2019-06-19T10:07:26.000Z</time>
        <extensions>
          <ns3:TrackPointExtension>
            <ns3:atemp>27.0</ns3:atemp>
            <ns3:hr>114</ns3:hr>
          </ns3:TrackPointExtension>
        </extensions>
      </trkpt>
      <trkpt lat="47.0089410245418548583984375" lon="6.9408070854842662811279296875">
        <ele>703</ele>
        <time>2019-06-19T10:07:27.000Z</time>
        <extensions>
          <ns3:TrackPointExtension>
            <ns3:atemp>27.0</ns3:atemp>
            <ns3:hr>112</ns3:hr>
          </ns3:TrackPointExtension>
        </extensions>
      </trkpt>
      <trkpt lat="47.008967511355876922607421875" lon="6.9406381063163280487060546875">
        <ele>704.20001220703125</ele>
        <time>2019-06-19T10:07:31.000Z</time>
        <extensions>
          <ns3:TrackPointExtension>
            <ns3:atemp>27.0</ns3:atemp>
            <ns3:hr>113</ns3:hr>
          </ns3:TrackPointExtension>
        </extensions>
      </trkpt>
      <trkpt lat="47.0089807547628879547119140625" lon="6.94051179103553295135498046875">
        <ele>704.79998779296875</ele>
        <time>2019-06-19T10:07:35.000Z</time>
        <extensions>
          <ns3:TrackPointExtension>
            <ns3:atemp>27.0</ns3:atemp>
            <ns3:hr>111</ns3:hr>
          </ns3:TrackPointExtension>
        </extensions>
      </trkpt>
      <trkpt lat="47.00897731818258762359619140625" lon="6.940436102449893951416015625">
        <ele>705.20001220703125</ele>
        <time>2019-06-19T10:07:37.000Z</time>
        <extensions>
          <ns3:TrackPointExtension>
            <ns3:atemp>27.0</ns3:atemp>
            <ns3:hr>113</ns3:hr>
          </ns3:TrackPointExtension>
        </extensions>
      </trkpt>
      <trkpt lat="47.00900078751146793365478515625" lon="6.9403056800365447998046875">
        <ele>705.79998779296875</ele>
        <time>2019-06-19T10:07:41.000Z</time>
        <extensions>
          <ns3:TrackPointExtension>
            <ns3:atemp>27.0</ns3:atemp>
            <ns3:hr>114</ns3:hr>
          </ns3:TrackPointExtension>
        </extensions>
      </trkpt>
      <trkpt lat="47.0089931599795818328857421875" lon="6.94008171558380126953125">
        <ele>706.4000244140625</ele>
        <time>2019-06-19T10:07:47.000Z</time>
        <extensions>
          <ns3:TrackPointExtension>
            <ns3:atemp>27.0</ns3:atemp>
            <ns3:hr>114</ns3:hr>
          </ns3:TrackPointExtension>
        </extensions>
      </trkpt>
      <trkpt lat="47.008958123624324798583984375" lon="6.93993980996310710906982421875">
        <ele>707</ele>
        <time>2019-06-19T10:07:51.000Z</time>
        <extensions>
          <ns3:TrackPointExtension>
            <ns3:atemp>27.0</ns3:atemp>
            <ns3:hr>115</ns3:hr>
          </ns3:TrackPointExtension>
        </extensions>
      </trkpt>
      <trkpt lat="47.0089571177959442138671875" lon="6.93989153020083904266357421875">
        <ele>707</ele>
        <time>2019-06-19T10:07:52.000Z</time>
        <extensions>
          <ns3:TrackPointExtension>
            <ns3:atemp>27.0</ns3:atemp>
            <ns3:hr>114</ns3:hr>
          </ns3:TrackPointExtension>
        </extensions>
      </trkpt>
      <trkpt lat="47.00894563458859920501708984375" lon="6.93975456990301609039306640625">
        <ele>707</ele>
        <time>2019-06-19T10:07:55.000Z</time>
        <extensions>
          <ns3:TrackPointExtension>
            <ns3:atemp>27.0</ns3:atemp>
            <ns3:hr>118</ns3:hr>
          </ns3:TrackPointExtension>
        </extensions>
      </trkpt>
      <trkpt lat="47.0089207403361797332763671875" lon="6.93969086743891239166259765625">
        <ele>707.5999755859375</ele>
        <time>2019-06-19T10:07:57.000Z</time>
        <extensions>
          <ns3:TrackPointExtension>
            <ns3:atemp>27.0</ns3:atemp>
            <ns3:hr>120</ns3:hr>
          </ns3:TrackPointExtension>
        </extensions>
      </trkpt>
      <trkpt lat="47.008909173309803009033203125" lon="6.9396168552339076995849609375">
        <ele>708.20001220703125</ele>
        <time>2019-06-19T10:07:59.000Z</time>
        <extensions>
          <ns3:TrackPointExtension>
            <ns3:atemp>27.0</ns3:atemp>
            <ns3:hr>120</ns3:hr>
          </ns3:TrackPointExtension>
        </extensions>
      </trkpt>
      <trkpt lat="47.0089029707014560699462890625" lon="6.9395427592098712921142578125">
        <ele>708.79998779296875</ele>
        <time>2019-06-19T10:08:01.000Z</time>
        <extensions>
          <ns3:TrackPointExtension>
            <ns3:atemp>27.0</ns3:atemp>
            <ns3:hr>119</ns3:hr>
          </ns3:TrackPointExtension>
        </extensions>
      </trkpt>
      <trkpt lat="47.0088976062834262847900390625" lon="6.93947478197515010833740234375">
        <ele>709</ele>
        <time>2019-06-19T10:08:03.000Z</time>
        <extensions>
          <ns3:TrackPointExtension>
            <ns3:atemp>27.0</ns3:atemp>
            <ns3:hr>120</ns3:hr>
          </ns3:TrackPointExtension>
        </extensions>
      </trkpt>
      <trkpt lat="47.00889207422733306884765625" lon="6.93945013917982578277587890625">
        <ele>709.20001220703125</ele>
        <time>2019-06-19T10:08:04.000Z</time>
        <extensions>
          <ns3:TrackPointExtension>
            <ns3:atemp>27.0</ns3:atemp>
            <ns3:hr>120</ns3:hr>
          </ns3:TrackPointExtension>
        </extensions>
      </trkpt>
      <trkpt lat="47.0088620670139789581298828125" lon="6.9392832554876804351806640625">
        <ele>709.79998779296875</ele>
        <time>2019-06-19T10:08:10.000Z</time>
        <extensions>
          <ns3:TrackPointExtension>
            <ns3:atemp>27.0</ns3:atemp>
            <ns3:hr>121</ns3:hr>
          </ns3:TrackPointExtension>
        </extensions>
      </trkpt>
      <trkpt lat="47.00880448333919048309326171875" lon="6.93919348530471324920654296875">
        <ele>710.20001220703125</ele>
        <time>2019-06-19T10:08:14.000Z</time>
        <extensions>
          <ns3:TrackPointExtension>
            <ns3:atemp>27.0</ns3:atemp>
            <ns3:hr>118</ns3:hr>
          </ns3:TrackPointExtension>
        </extensions>
      </trkpt>
      <trkpt lat="47.00879023410379886627197265625" lon="6.93915836513042449951171875">
        <ele>710.4000244140625</ele>
        <time>2019-06-19T10:08:15.000Z</time>
        <extensions>
          <ns3:TrackPointExtension>
            <ns3:atemp>27.0</ns3:atemp>
            <ns3:hr>119</ns3:hr>
          </ns3:TrackPointExtension>
        </extensions>
      </trkpt>
      <trkpt lat="47.00874933041632175445556640625" lon="6.9390656612813472747802734375">
        <ele>711</ele>
        <time>2019-06-19T10:08:18.000Z</time>
        <extensions>
          <ns3:TrackPointExtension>
            <ns3:atemp>27.0</ns3:atemp>
            <ns3:hr>120</ns3:hr>
          </ns3:TrackPointExtension>
        </extensions>
      </trkpt>
      <trkpt lat="47.00868512503802776336669921875" lon="6.938921995460987091064453125">
        <ele>711.79998779296875</ele>
        <time>2019-06-19T10:08:22.000Z</time>
        <extensions>
          <ns3:TrackPointExtension>
            <ns3:atemp>27.0</ns3:atemp>
            <ns3:hr>122</ns3:hr>
          </ns3:TrackPointExtension>
        </extensions>
      </trkpt>
      <trkpt lat="47.00862997211515903472900390625" lon="6.9388175569474697113037109375">
        <ele>712</ele>
        <time>2019-06-19T10:08:26.000Z</time>
        <extensions>
          <ns3:TrackPointExtension>
            <ns3:atemp>27.0</ns3:atemp>
            <ns3:hr>123</ns3:hr>
          </ns3:TrackPointExtension>
        </extensions>
      </trkpt>
      <trkpt lat="47.00861270539462566375732421875" lon="6.9387846998870372772216796875">
        <ele>712.20001220703125</ele>
        <time>2019-06-19T10:08:27.000Z</time>
        <extensions>
          <ns3:TrackPointExtension>
            <ns3:atemp>27.0</ns3:atemp>
            <ns3:hr>123</ns3:hr>
          </ns3:TrackPointExtension>
        </extensions>
      </trkpt>
      <trkpt lat="47.00858764350414276123046875" lon="6.93873985670506954193115234375">
        <ele>712.20001220703125</ele>
        <time>2019-06-19T10:08:29.000Z</time>
        <extensions>
          <ns3:TrackPointExtension>
            <ns3:atemp>27.0</ns3:atemp>
            <ns3:hr>120</ns3:hr>
          </ns3:TrackPointExtension>
        </extensions>
      </trkpt>
      <trkpt lat="47.00857917778193950653076171875" lon="6.93871873430907726287841796875">
        <ele>712.20001220703125</ele>
        <time>2019-06-19T10:08:30.000Z</time>
        <extensions>
          <ns3:TrackPointExtension>
            <ns3:atemp>27.0</ns3:atemp>
            <ns3:hr>124</ns3:hr>
          </ns3:TrackPointExtension>
        </extensions>
      </trkpt>
      <trkpt lat="47.00854078866541385650634765625" lon="6.93866576068103313446044921875">
        <ele>712.20001220703125</ele>
        <time>2019-06-19T10:08:32.000Z</time>
        <extensions>
          <ns3:TrackPointExtension>
            <ns3:atemp>27.0</ns3:atemp>
            <ns3:hr>127</ns3:hr>
          </ns3:TrackPointExtension>
        </extensions>
      </trkpt>
      <trkpt lat="47.0085328258574008941650390625" lon="6.93863927386701107025146484375">
        <ele>712.4000244140625</ele>
        <time>2019-06-19T10:08:33.000Z</time>
        <extensions>
          <ns3:TrackPointExtension>
            <ns3:atemp>27.0</ns3:atemp>
            <ns3:hr>129</ns3:hr>
          </ns3:TrackPointExtension>
        </extensions>
      </trkpt>
      <trkpt lat="47.00851296074688434600830078125" lon="6.93857741542160511016845703125">
        <ele>712.79998779296875</ele>
        <time>2019-06-19T10:08:35.000Z</time>
        <extensions>
          <ns3:TrackPointExtension>
            <ns3:atemp>27.0</ns3:atemp>
            <ns3:hr>130</ns3:hr>
          </ns3:TrackPointExtension>
        </extensions>
      </trkpt>
      <trkpt lat="47.0085056684911251068115234375" lon="6.93854556418955326080322265625">
        <ele>713.20001220703125</ele>
        <time>2019-06-19T10:08:36.000Z</time>
        <extensions>
          <ns3:TrackPointExtension>
            <ns3:atemp>27.0</ns3:atemp>
            <ns3:hr>131</ns3:hr>
          </ns3:TrackPointExtension>
        </extensions>
      </trkpt>
      <trkpt lat="47.00848178006708621978759765625" lon="6.9384779222309589385986328125">
        <ele>714</ele>
        <time>2019-06-19T10:08:38.000Z</time>
        <extensions>
          <ns3:TrackPointExtension>
            <ns3:atemp>27.0</ns3:atemp>
            <ns3:hr>130</ns3:hr>
          </ns3:TrackPointExtension>
        </extensions>
      </trkpt>
      <trkpt lat="47.008478678762912750244140625" lon="6.9384333305060863494873046875">
        <ele>714.20001220703125</ele>
        <time>2019-06-19T10:08:39.000Z</time>
        <extensions>
          <ns3:TrackPointExtension>
            <ns3:atemp>27.0</ns3:atemp>
            <ns3:hr>129</ns3:hr>
          </ns3:TrackPointExtension>
        </extensions>
      </trkpt>
      <trkpt lat="47.0084490068256855010986328125" lon="6.938288994133472442626953125">
        <ele>714.79998779296875</ele>
        <time>2019-06-19T10:08:43.000Z</time>
        <extensions>
          <ns3:TrackPointExtension>
            <ns3:atemp>27.0</ns3:atemp>
            <ns3:hr>126</ns3:hr>
          </ns3:TrackPointExtension>
        </extensions>
      </trkpt>
      <trkpt lat="47.00843651778995990753173828125" lon="6.93818782456219196319580078125">
        <ele>715.4000244140625</ele>
        <time>2019-06-19T10:08:46.000Z</time>
        <extensions>
          <ns3:TrackPointExtension>
            <ns3:atemp>27.0</ns3:atemp>
            <ns3:hr>126</ns3:hr>
          </ns3:TrackPointExtension>
        </extensions>
      </trkpt>
      <trkpt lat="47.00842863880097866058349609375" lon="6.93803225643932819366455078125">
        <ele>716.4000244140625</ele>
        <time>2019-06-19T10:08:50.000Z</time>
        <extensions>
          <ns3:TrackPointExtension>
            <ns3:atemp>27.0</ns3:atemp>
            <ns3:hr>125</ns3:hr>
          </ns3:TrackPointExtension>
        </extensions>
      </trkpt>
      <trkpt lat="47.00844003818929195404052734375" lon="6.93791507743299007415771484375">
        <ele>717.5999755859375</ele>
        <time>2019-06-19T10:08:54.000Z</time>
        <extensions>
          <ns3:TrackPointExtension>
            <ns3:atemp>27.0</ns3:atemp>
            <ns3:hr>123</ns3:hr>
          </ns3:TrackPointExtension>
        </extensions>
      </trkpt>
      <trkpt lat="47.00846216641366481781005859375" lon="6.93784567527472972869873046875">
        <ele>718</ele>
        <time>2019-06-19T10:08:57.000Z</time>
        <extensions>
          <ns3:TrackPointExtension>
            <ns3:atemp>27.0</ns3:atemp>
            <ns3:hr>123</ns3:hr>
          </ns3:TrackPointExtension>
        </extensions>
      </trkpt>
      <trkpt lat="47.008471973240375518798828125" lon="6.93780326284468173980712890625">
        <ele>718</ele>
        <time>2019-06-19T10:08:59.000Z</time>
        <extensions>
          <ns3:TrackPointExtension>
            <ns3:atemp>27.0</ns3:atemp>
            <ns3:hr>126</ns3:hr>
          </ns3:TrackPointExtension>
        </extensions>
      </trkpt>
      <trkpt lat="47.00849720276892185211181640625" lon="6.9377406500279903411865234375">
        <ele>718.4000244140625</ele>
        <time>2019-06-19T10:09:01.000Z</time>
        <extensions>
          <ns3:TrackPointExtension>
            <ns3:atemp>27.0</ns3:atemp>
            <ns3:hr>129</ns3:hr>
          </ns3:TrackPointExtension>
        </extensions>
      </trkpt>
      <trkpt lat="47.00850843451917171478271484375" lon="6.93768315017223358154296875">
        <ele>718.5999755859375</ele>
        <time>2019-06-19T10:09:03.000Z</time>
        <extensions>
          <ns3:TrackPointExtension>
            <ns3:atemp>27.0</ns3:atemp>
            <ns3:hr>131</ns3:hr>
          </ns3:TrackPointExtension>
        </extensions>
      </trkpt>
      <trkpt lat="47.0085318200290203094482421875" lon="6.93751291371881961822509765625">
        <ele>719.5999755859375</ele>
        <time>2019-06-19T10:09:09.000Z</time>
        <extensions>
          <ns3:TrackPointExtension>
            <ns3:atemp>27.0</ns3:atemp>
            <ns3:hr>127</ns3:hr>
          </ns3:TrackPointExtension>
        </extensions>
      </trkpt>
      <trkpt lat="47.0085386931896209716796875" lon="6.93747016601264476776123046875">
        <ele>719.79998779296875</ele>
        <time>2019-06-19T10:09:10.000Z</time>
        <extensions>
          <ns3:TrackPointExtension>
            <ns3:atemp>27.0</ns3:atemp>
            <ns3:hr>123</ns3:hr>
          </ns3:TrackPointExtension>
        </extensions>
      </trkpt>
      <trkpt lat="47.00853425078094005584716796875" lon="6.937431357800960540771484375">
        <ele>719.79998779296875</ele>
        <time>2019-06-19T10:09:11.000Z</time>
        <extensions>
          <ns3:TrackPointExtension>
            <ns3:atemp>27.0</ns3:atemp>
            <ns3:hr>119</ns3:hr>
          </ns3:TrackPointExtension>
        </extensions>
      </trkpt>
      <trkpt lat="47.00853995047509670257568359375" lon="6.9373939745128154754638671875">
        <ele>720</ele>
        <time>2019-06-19T10:09:12.000Z</time>
        <extensions>
          <ns3:TrackPointExtension>
            <ns3:atemp>27.0</ns3:atemp>
            <ns3:hr>119</ns3:hr>
          </ns3:TrackPointExtension>
        </extensions>
      </trkpt>
      <trkpt lat="47.0085425488650798797607421875" lon="6.93732314743101596832275390625">
        <ele>720.4000244140625</ele>
        <time>2019-06-19T10:09:14.000Z</time>
        <extensions>
          <ns3:TrackPointExtension>
            <ns3:atemp>27.0</ns3:atemp>
            <ns3:hr>116</ns3:hr>
          </ns3:TrackPointExtension>
        </extensions>
      </trkpt>
      <trkpt lat="47.0085241086781024932861328125" lon="6.9372645579278469085693359375">
        <ele>721</ele>
        <time>2019-06-19T10:09:16.000Z</time>
        <extensions>
          <ns3:TrackPointExtension>
            <ns3:atemp>27.0</ns3:atemp>
            <ns3:hr>115</ns3:hr>
          </ns3:TrackPointExtension>
        </extensions>
      </trkpt>
      <trkpt lat="47.00850022025406360626220703125" lon="6.93711762316524982452392578125">
        <ele>722</ele>
        <time>2019-06-19T10:09:21.000Z</time>
        <extensions>
          <ns3:TrackPointExtension>
            <ns3:atemp>27.0</ns3:atemp>
            <ns3:hr>114</ns3:hr>
          </ns3:TrackPointExtension>
        </extensions>
      </trkpt>
      <trkpt lat="47.00849636457860469818115234375" lon="6.9370607100427150726318359375">
        <ele>722.79998779296875</ele>
        <time>2019-06-19T10:09:23.000Z</time>
        <extensions>
          <ns3:TrackPointExtension>
            <ns3:atemp>27.0</ns3:atemp>
            <ns3:hr>113</ns3:hr>
          </ns3:TrackPointExtension>
        </extensions>
      </trkpt>
      <trkpt lat="47.00849602930247783660888671875" lon="6.93704017437994480133056640625">
        <ele>723</ele>
        <time>2019-06-19T10:09:24.000Z</time>
        <extensions>
          <ns3:TrackPointExtension>
            <ns3:atemp>27.0</ns3:atemp>
            <ns3:hr>114</ns3:hr>
          </ns3:TrackPointExtension>
        </extensions>
      </trkpt>
      <trkpt lat="47.00849569402635097503662109375" lon="6.9370177946984767913818359375">
        <ele>723.20001220703125</ele>
        <time>2019-06-19T10:09:25.000Z</time>
        <extensions>
          <ns3:TrackPointExtension>
            <ns3:atemp>27.0</ns3:atemp>
            <ns3:hr>118</ns3:hr>
          </ns3:TrackPointExtension>
        </extensions>
      </trkpt>
      <trkpt lat="47.0085046626627445220947265625" lon="6.93696892820298671722412109375">
        <ele>723.4000244140625</ele>
        <time>2019-06-19T10:09:27.000Z</time>
        <extensions>
          <ns3:TrackPointExtension>
            <ns3:atemp>27.0</ns3:atemp>
            <ns3:hr>122</ns3:hr>
          </ns3:TrackPointExtension>
        </extensions>
      </trkpt>
      <trkpt lat="47.008504159748554229736328125" lon="6.93693858571350574493408203125">
        <ele>723.4000244140625</ele>
        <time>2019-06-19T10:09:28.000Z</time>
        <extensions>
          <ns3:TrackPointExtension>
            <ns3:atemp>27.0</ns3:atemp>
            <ns3:hr>126</ns3:hr>
          </ns3:TrackPointExtension>
        </extensions>
      </trkpt>
      <trkpt lat="47.0084976218640804290771484375" lon="6.9369225762784481048583984375">
        <ele>723.5999755859375</ele>
        <time>2019-06-19T10:09:29.000Z</time>
        <extensions>
          <ns3:TrackPointExtension>
            <ns3:atemp>27.0</ns3:atemp>
            <ns3:hr>126</ns3:hr>
          </ns3:TrackPointExtension>
        </extensions>
      </trkpt>
      <trkpt lat="47.00849368236958980560302734375" lon="6.93685878999531269073486328125">
        <ele>724</ele>
        <time>2019-06-19T10:09:31.000Z</time>
        <extensions>
          <ns3:TrackPointExtension>
            <ns3:atemp>27.0</ns3:atemp>
            <ns3:hr>128</ns3:hr>
          </ns3:TrackPointExtension>
        </extensions>
      </trkpt>
      <trkpt lat="47.00847255997359752655029296875" lon="6.93678192794322967529296875">
        <ele>724.4000244140625</ele>
        <time>2019-06-19T10:09:34.000Z</time>
        <extensions>
          <ns3:TrackPointExtension>
            <ns3:atemp>27.0</ns3:atemp>
            <ns3:hr>128</ns3:hr>
          </ns3:TrackPointExtension>
        </extensions>
      </trkpt>
      <trkpt lat="47.00845428742468357086181640625" lon="6.93668964318931102752685546875">
        <ele>724.79998779296875</ele>
        <time>2019-06-19T10:09:37.000Z</time>
        <extensions>
          <ns3:TrackPointExtension>
            <ns3:atemp>27.0</ns3:atemp>
            <ns3:hr>131</ns3:hr>
          </ns3:TrackPointExtension>
        </extensions>
      </trkpt>
      <trkpt lat="47.00843886472284793853759765625" lon="6.93664287216961383819580078125">
        <ele>725</ele>
        <time>2019-06-19T10:09:39.000Z</time>
        <extensions>
          <ns3:TrackPointExtension>
            <ns3:atemp>27.0</ns3:atemp>
            <ns3:hr>132</ns3:hr>
          </ns3:TrackPointExtension>
        </extensions>
      </trkpt>
      <trkpt lat="47.008438445627689361572265625" lon="6.9366238452494144439697265625">
        <ele>725</ele>
        <time>2019-06-19T10:09:40.000Z</time>
        <extensions>
          <ns3:TrackPointExtension>
            <ns3:atemp>27.0</ns3:atemp>
            <ns3:hr>132</ns3:hr>
          </ns3:TrackPointExtension>
        </extensions>
      </trkpt>
      <trkpt lat="47.0084342546761035919189453125" lon="6.9366080872714519500732421875">
        <ele>725.20001220703125</ele>
        <time>2019-06-19T10:09:41.000Z</time>
        <extensions>
          <ns3:TrackPointExtension>
            <ns3:atemp>27.0</ns3:atemp>
            <ns3:hr>132</ns3:hr>
          </ns3:TrackPointExtension>
        </extensions>
      </trkpt>
      <trkpt lat="47.00841757468879222869873046875" lon="6.9365266151726245880126953125">
        <ele>726.20001220703125</ele>
        <time>2019-06-19T10:09:45.000Z</time>
        <extensions>
          <ns3:TrackPointExtension>
            <ns3:atemp>27.0</ns3:atemp>
            <ns3:hr>130</ns3:hr>
          </ns3:TrackPointExtension>
        </extensions>
      </trkpt>
      <trkpt lat="47.00839930213987827301025390625" lon="6.9364486634731292724609375">
        <ele>726.79998779296875</ele>
        <time>2019-06-19T10:09:48.000Z</time>
        <extensions>
          <ns3:TrackPointExtension>
            <ns3:atemp>26.0</ns3:atemp>
            <ns3:hr>129</ns3:hr>
          </ns3:TrackPointExtension>
        </extensions>
      </trkpt>
      <trkpt lat="47.00840835459530353546142578125" lon="6.936376579105854034423828125">
        <ele>727.5999755859375</ele>
        <time>2019-06-19T10:09:50.000Z</time>
        <extensions>
          <ns3:TrackPointExtension>
            <ns3:atemp>26.0</ns3:atemp>
            <ns3:hr>129</ns3:hr>
          </ns3:TrackPointExtension>
        </extensions>
      </trkpt>
      <trkpt lat="47.008398212492465972900390625" lon="6.9363244436681270599365234375">
        <ele>727.79998779296875</ele>
        <time>2019-06-19T10:09:52.000Z</time>
        <extensions>
          <ns3:TrackPointExtension>
            <ns3:atemp>26.0</ns3:atemp>
            <ns3:hr>126</ns3:hr>
          </ns3:TrackPointExtension>
        </extensions>
      </trkpt>
      <trkpt lat="47.00837885029613971710205078125" lon="6.9362798519432544708251953125">
        <ele>728.4000244140625</ele>
        <time>2019-06-19T10:09:54.000Z</time>
        <extensions>
          <ns3:TrackPointExtension>
            <ns3:atemp>26.0</ns3:atemp>
            <ns3:hr>123</ns3:hr>
          </ns3:TrackPointExtension>
        </extensions>
      </trkpt>
      <trkpt lat="47.008365355432033538818359375" lon="6.936225704848766326904296875">
        <ele>728.79998779296875</ele>
        <time>2019-06-19T10:09:56.000Z</time>
        <extensions>
          <ns3:TrackPointExtension>
            <ns3:atemp>26.0</ns3:atemp>
            <ns3:hr>121</ns3:hr>
          </ns3:TrackPointExtension>
        </extensions>
      </trkpt>
      <trkpt lat="47.00836879201233386993408203125" lon="6.93608815781772136688232421875">
        <ele>729.5999755859375</ele>
        <time>2019-06-19T10:10:01.000Z</time>
        <extensions>
          <ns3:TrackPointExtension>
            <ns3:atemp>26.0</ns3:atemp>
            <ns3:hr>118</ns3:hr>
          </ns3:TrackPointExtension>
        </extensions>
      </trkpt>
      <trkpt lat="47.0083682052791118621826171875" lon="6.93606904707849025726318359375">
        <ele>729.79998779296875</ele>
        <time>2019-06-19T10:10:02.000Z</time>
        <extensions>
          <ns3:TrackPointExtension>
            <ns3:atemp>26.0</ns3:atemp>
            <ns3:hr>118</ns3:hr>
          </ns3:TrackPointExtension>
        </extensions>
      </trkpt>
      <trkpt lat="47.00836761854588985443115234375" lon="6.9360498525202274322509765625">
        <ele>730</ele>
        <time>2019-06-19T10:10:03.000Z</time>
        <extensions>
          <ns3:TrackPointExtension>
            <ns3:atemp>26.0</ns3:atemp>
            <ns3:hr>118</ns3:hr>
          </ns3:TrackPointExtension>
        </extensions>
      </trkpt>
      <trkpt lat="47.00836275704205036163330078125" lon="6.93602847866714000701904296875">
        <ele>730.20001220703125</ele>
        <time>2019-06-19T10:10:04.000Z</time>
        <extensions>
          <ns3:TrackPointExtension>
            <ns3:atemp>26.0</ns3:atemp>
            <ns3:hr>120</ns3:hr>
          </ns3:TrackPointExtension>
        </extensions>
      </trkpt>
      <trkpt lat="47.00834892690181732177734375" lon="6.93597382865846157073974609375">
        <ele>730.4000244140625</ele>
        <time>2019-06-19T10:10:06.000Z</time>
        <extensions>
          <ns3:TrackPointExtension>
            <ns3:atemp>26.0</ns3:atemp>
            <ns3:hr>121</ns3:hr>
          </ns3:TrackPointExtension>
        </extensions>
      </trkpt>
      <trkpt lat="47.00835487805306911468505859375" lon="6.935942731797695159912109375">
        <ele>730.4000244140625</ele>
        <time>2019-06-19T10:10:07.000Z</time>
        <extensions>
          <ns3:TrackPointExtension>
            <ns3:atemp>26.0</ns3:atemp>
            <ns3:hr>120</ns3:hr>
          </ns3:TrackPointExtension>
        </extensions>
      </trkpt>
      <trkpt lat="47.00836460106074810028076171875" lon="6.93587441928684711456298828125">
        <ele>731</ele>
        <time>2019-06-19T10:10:09.000Z</time>
        <extensions>
          <ns3:TrackPointExtension>
            <ns3:atemp>26.0</ns3:atemp>
            <ns3:hr>122</ns3:hr>
          </ns3:TrackPointExtension>
        </extensions>
      </trkpt>
      <trkpt lat="47.008360661566257476806640625" lon="6.93576361052691936492919921875">
        <ele>732</ele>
        <time>2019-06-19T10:10:13.000Z</time>
        <extensions>
          <ns3:TrackPointExtension>
            <ns3:atemp>26.0</ns3:atemp>
            <ns3:hr>123</ns3:hr>
          </ns3:TrackPointExtension>
        </extensions>
      </trkpt>
      <trkpt lat="47.00831665657460689544677734375" lon="6.93562799133360385894775390625">
        <ele>732.79998779296875</ele>
        <time>2019-06-19T10:10:19.000Z</time>
        <extensions>
          <ns3:TrackPointExtension>
            <ns3:atemp>26.0</ns3:atemp>
            <ns3:hr>123</ns3:hr>
          </ns3:TrackPointExtension>
        </extensions>
      </trkpt>
      <trkpt lat="47.00828312896192073822021484375" lon="6.9354535639286041259765625">
        <ele>732.79998779296875</ele>
        <time>2019-06-19T10:10:24.000Z</time>
        <extensions>
          <ns3:TrackPointExtension>
            <ns3:atemp>26.0</ns3:atemp>
            <ns3:hr>125</ns3:hr>
          </ns3:TrackPointExtension>
        </extensions>
      </trkpt>
      <trkpt lat="47.00823551975190639495849609375" lon="6.93522951565682888031005859375">
        <ele>732.79998779296875</ele>
        <time>2019-06-19T10:10:30.000Z</time>
        <extensions>
          <ns3:TrackPointExtension>
            <ns3:atemp>26.0</ns3:atemp>
            <ns3:hr>121</ns3:hr>
          </ns3:TrackPointExtension>
        </extensions>
      </trkpt>
      <trkpt lat="47.008172571659088134765625" lon="6.9350195489823818206787109375">
        <ele>733</ele>
        <time>2019-06-19T10:10:35.000Z</time>
        <extensions>
          <ns3:TrackPointExtension>
            <ns3:atemp>26.0</ns3:atemp>
            <ns3:hr>121</ns3:hr>
          </ns3:TrackPointExtension>
        </extensions>
      </trkpt>
      <trkpt lat="47.00814633630216121673583984375" lon="6.9347885437309741973876953125">
        <ele>733</ele>
        <time>2019-06-19T10:10:40.000Z</time>
        <extensions>
          <ns3:TrackPointExtension>
            <ns3:atemp>26.0</ns3:atemp>
            <ns3:hr>118</ns3:hr>
          </ns3:TrackPointExtension>
        </extensions>
      </trkpt>
      <trkpt lat="47.00813359580934047698974609375" lon="6.93469516932964324951171875">
        <ele>733.20001220703125</ele>
        <time>2019-06-19T10:10:43.000Z</time>
        <extensions>
          <ns3:TrackPointExtension>
            <ns3:atemp>26.0</ns3:atemp>
            <ns3:hr>118</ns3:hr>
          </ns3:TrackPointExtension>
        </extensions>
      </trkpt>
      <trkpt lat="47.0081180892884731292724609375" lon="6.93459433503448963165283203125">
        <ele>733.4000244140625</ele>
        <time>2019-06-19T10:10:45.000Z</time>
        <extensions>
          <ns3:TrackPointExtension>
            <ns3:atemp>26.0</ns3:atemp>
            <ns3:hr>117</ns3:hr>
          </ns3:TrackPointExtension>
        </extensions>
      </trkpt>
      <trkpt lat="47.00810886919498443603515625" lon="6.9345608912408351898193359375">
        <ele>733.5999755859375</ele>
        <time>2019-06-19T10:10:46.000Z</time>
        <extensions>
          <ns3:TrackPointExtension>
            <ns3:atemp>26.0</ns3:atemp>
            <ns3:hr>121</ns3:hr>
          </ns3:TrackPointExtension>
        </extensions>
      </trkpt>
      <trkpt lat="47.008095793426036834716796875" lon="6.9345152936875820159912109375">
        <ele>733.79998779296875</ele>
        <time>2019-06-19T10:10:47.000Z</time>
        <extensions>
          <ns3:TrackPointExtension>
            <ns3:atemp>26.0</ns3:atemp>
            <ns3:hr>126</ns3:hr>
          </ns3:TrackPointExtension>
        </extensions>
      </trkpt>
      <trkpt lat="47.008083052933216094970703125" lon="6.93447589874267578125">
        <ele>733.79998779296875</ele>
        <time>2019-06-19T10:10:48.000Z</time>
        <extensions>
          <ns3:TrackPointExtension>
            <ns3:atemp>26.0</ns3:atemp>
            <ns3:hr>130</ns3:hr>
          </ns3:TrackPointExtension>
        </extensions>
      </trkpt>
      <trkpt lat="47.00806939043104648590087890625" lon="6.9343912415206432342529296875">
        <ele>734</ele>
        <time>2019-06-19T10:10:50.000Z</time>
        <extensions>
          <ns3:TrackPointExtension>
            <ns3:atemp>26.0</ns3:atemp>
            <ns3:hr>137</ns3:hr>
          </ns3:TrackPointExtension>
        </extensions>
      </trkpt>
      <trkpt lat="47.00806587003171443939208984375" lon="6.93436601199209690093994140625">
        <ele>734</ele>
        <time>2019-06-19T10:10:51.000Z</time>
        <extensions>
          <ns3:TrackPointExtension>
            <ns3:atemp>26.0</ns3:atemp>
            <ns3:hr>136</ns3:hr>
          </ns3:TrackPointExtension>
        </extensions>
      </trkpt>
      <trkpt lat="47.0080693066120147705078125" lon="6.93433768115937709808349609375">
        <ele>734</ele>
        <time>2019-06-19T10:10:52.000Z</time>
        <extensions>
          <ns3:TrackPointExtension>
            <ns3:atemp>26.0</ns3:atemp>
            <ns3:hr>139</ns3:hr>
          </ns3:TrackPointExtension>
        </extensions>
      </trkpt>
      <trkpt lat="47.008048854768276214599609375" lon="6.9341902434825897216796875">
        <ele>734.20001220703125</ele>
        <time>2019-06-19T10:10:55.000Z</time>
        <extensions>
          <ns3:TrackPointExtension>
            <ns3:atemp>26.0</ns3:atemp>
            <ns3:hr>140</ns3:hr>
          </ns3:TrackPointExtension>
        </extensions>
      </trkpt>
      <trkpt lat="47.00799043290317058563232421875" lon="6.9339607469737529754638671875">
        <ele>734.4000244140625</ele>
        <time>2019-06-19T10:11:00.000Z</time>
        <extensions>
          <ns3:TrackPointExtension>
            <ns3:atemp>26.0</ns3:atemp>
            <ns3:hr>140</ns3:hr>
          </ns3:TrackPointExtension>
        </extensions>
      </trkpt>
      <trkpt lat="47.00787560082972049713134765625" lon="6.9336911849677562713623046875">
        <ele>734.4000244140625</ele>
        <time>2019-06-19T10:11:05.000Z</time>
        <extensions>
          <ns3:TrackPointExtension>
            <ns3:atemp>26.0</ns3:atemp>
            <ns3:hr>139</ns3:hr>
          </ns3:TrackPointExtension>
        </extensions>
      </trkpt>
      <trkpt lat="47.0077626965939998626708984375" lon="6.9333837367594242095947265625">
        <ele>734.79998779296875</ele>
        <time>2019-06-19T10:11:11.000Z</time>
        <extensions>
          <ns3:TrackPointExtension>
            <ns3:atemp>26.0</ns3:atemp>
            <ns3:hr>138</ns3:hr>
          </ns3:TrackPointExtension>
        </extensions>
      </trkpt>
      <trkpt lat="47.00771131552755832672119140625" lon="6.9332338683307170867919921875">
        <ele>735.20001220703125</ele>
        <time>2019-06-19T10:11:14.000Z</time>
        <extensions>
          <ns3:TrackPointExtension>
            <ns3:atemp>26.0</ns3:atemp>
            <ns3:hr>137</ns3:hr>
          </ns3:TrackPointExtension>
        </extensions>
      </trkpt>
      <trkpt lat="47.00766236521303653717041015625" lon="6.93306949920952320098876953125">
        <ele>735.5999755859375</ele>
        <time>2019-06-19T10:11:17.000Z</time>
        <extensions>
          <ns3:TrackPointExtension>
            <ns3:atemp>26.0</ns3:atemp>
            <ns3:hr>136</ns3:hr>
          </ns3:TrackPointExtension>
        </extensions>
      </trkpt>
      <trkpt lat="47.00761307962238788604736328125" lon="6.93286858499050140380859375">
        <ele>735</ele>
        <time>2019-06-19T10:11:20.000Z</time>
        <extensions>
          <ns3:TrackPointExtension>
            <ns3:atemp>26.0</ns3:atemp>
            <ns3:hr>136</ns3:hr>
          </ns3:TrackPointExtension>
        </extensions>
      </trkpt>
      <trkpt lat="47.00759497471153736114501953125" lon="6.932791136205196380615234375">
        <ele>734.5999755859375</ele>
        <time>2019-06-19T10:11:21.000Z</time>
        <extensions>
          <ns3:TrackPointExtension>
            <ns3:atemp>26.0</ns3:atemp>
            <ns3:hr>136</ns3:hr>
          </ns3:TrackPointExtension>
        </extensions>
      </trkpt>
      <trkpt lat="47.007590867578983306884765625" lon="6.93271108902990818023681640625">
        <ele>734.20001220703125</ele>
        <time>2019-06-19T10:11:22.000Z</time>
        <extensions>
          <ns3:TrackPointExtension>
            <ns3:atemp>26.0</ns3:atemp>
            <ns3:hr>136</ns3:hr>
          </ns3:TrackPointExtension>
        </extensions>
      </trkpt>
      <trkpt lat="47.00752280652523040771484375" lon="6.932310350239276885986328125">
        <ele>733</ele>
        <time>2019-06-19T10:11:26.000Z</time>
        <extensions>
          <ns3:TrackPointExtension>
            <ns3:atemp>26.0</ns3:atemp>
            <ns3:hr>136</ns3:hr>
          </ns3:TrackPointExtension>
        </extensions>
      </trkpt>
      <trkpt lat="47.00749673880636692047119140625" lon="6.932191662490367889404296875">
        <ele>732.5999755859375</ele>
        <time>2019-06-19T10:11:27.000Z</time>
        <extensions>
          <ns3:TrackPointExtension>
            <ns3:atemp>26.0</ns3:atemp>
            <ns3:hr>136</ns3:hr>
          </ns3:TrackPointExtension>
        </extensions>
      </trkpt>
      <trkpt lat="47.00746052898466587066650390625" lon="6.9319527782499790191650390625">
        <ele>731.79998779296875</ele>
        <time>2019-06-19T10:11:29.000Z</time>
        <extensions>
          <ns3:TrackPointExtension>
            <ns3:atemp>26.0</ns3:atemp>
            <ns3:hr>137</ns3:hr>
          </ns3:TrackPointExtension>
        </extensions>
      </trkpt>
      <trkpt lat="47.00745885260403156280517578125" lon="6.93182026036083698272705078125">
        <ele>731.5999755859375</ele>
        <time>2019-06-19T10:11:30.000Z</time>
        <extensions>
          <ns3:TrackPointExtension>
            <ns3:atemp>26.0</ns3:atemp>
            <ns3:hr>137</ns3:hr>
          </ns3:TrackPointExtension>
        </extensions>
      </trkpt>
      <trkpt lat="47.007447369396686553955078125" lon="6.9314391352236270904541015625">
        <ele>731.20001220703125</ele>
        <time>2019-06-19T10:11:33.000Z</time>
        <extensions>
          <ns3:TrackPointExtension>
            <ns3:atemp>25.0</ns3:atemp>
            <ns3:hr>136</ns3:hr>
          </ns3:TrackPointExtension>
        </extensions>
      </trkpt>
      <trkpt lat="47.00744862668216228485107421875" lon="6.93114920519292354583740234375">
        <ele>732.4000244140625</ele>
        <time>2019-06-19T10:11:36.000Z</time>
        <extensions>
          <ns3:TrackPointExtension>
            <ns3:atemp>25.0</ns3:atemp>
            <ns3:hr>136</ns3:hr>
          </ns3:TrackPointExtension>
        </extensions>
      </trkpt>
      <trkpt lat="47.0074363052845001220703125" lon="6.9309429265558719635009765625">
        <ele>733</ele>
        <time>2019-06-19T10:11:38.000Z</time>
        <extensions>
          <ns3:TrackPointExtension>
            <ns3:atemp>25.0</ns3:atemp>
            <ns3:hr>135</ns3:hr>
          </ns3:TrackPointExtension>
        </extensions>
      </trkpt>
      <trkpt lat="47.0074334554374217987060546875" lon="6.9308052957057952880859375">
        <ele>734</ele>
        <time>2019-06-19T10:11:40.000Z</time>
        <extensions>
          <ns3:TrackPointExtension>
            <ns3:atemp>25.0</ns3:atemp>
            <ns3:hr>135</ns3:hr>
          </ns3:TrackPointExtension>
        </extensions>
      </trkpt>
      <trkpt lat="47.00743068940937519073486328125" lon="6.93074653856456279754638671875">
        <ele>734.4000244140625</ele>
        <time>2019-06-19T10:11:41.000Z</time>
        <extensions>
          <ns3:TrackPointExtension>
            <ns3:atemp>25.0</ns3:atemp>
            <ns3:hr>135</ns3:hr>
          </ns3:TrackPointExtension>
        </extensions>
      </trkpt>
      <trkpt lat="47.007427252829074859619140625" lon="6.930683590471744537353515625">
        <ele>734.79998779296875</ele>
        <time>2019-06-19T10:11:42.000Z</time>
        <extensions>
          <ns3:TrackPointExtension>
            <ns3:atemp>25.0</ns3:atemp>
            <ns3:hr>135</ns3:hr>
          </ns3:TrackPointExtension>
        </extensions>
      </trkpt>
      <trkpt lat="47.007429599761962890625" lon="6.9304822571575641632080078125">
        <ele>735.5999755859375</ele>
        <time>2019-06-19T10:11:45.000Z</time>
        <extensions>
          <ns3:TrackPointExtension>
            <ns3:atemp>25.0</ns3:atemp>
            <ns3:hr>135</ns3:hr>
          </ns3:TrackPointExtension>
        </extensions>
      </trkpt>
      <trkpt lat="47.0074398256838321685791015625" lon="6.930433809757232666015625">
        <ele>735.79998779296875</ele>
        <time>2019-06-19T10:11:46.000Z</time>
        <extensions>
          <ns3:TrackPointExtension>
            <ns3:atemp>25.0</ns3:atemp>
            <ns3:hr>135</ns3:hr>
          </ns3:TrackPointExtension>
        </extensions>
      </trkpt>
      <trkpt lat="47.007478214800357818603515625" lon="6.93021026439964771270751953125">
        <ele>737</ele>
        <time>2019-06-19T10:11:51.000Z</time>
        <extensions>
          <ns3:TrackPointExtension>
            <ns3:atemp>25.0</ns3:atemp>
            <ns3:hr>136</ns3:hr>
          </ns3:TrackPointExtension>
        </extensions>
      </trkpt>
      <trkpt lat="47.00748232193291187286376953125" lon="6.93010590970516204833984375">
        <ele>738.20001220703125</ele>
        <time>2019-06-19T10:11:54.000Z</time>
        <extensions>
          <ns3:TrackPointExtension>
            <ns3:atemp>25.0</ns3:atemp>
            <ns3:hr>136</ns3:hr>
          </ns3:TrackPointExtension>
        </extensions>
      </trkpt>
      <trkpt lat="47.007493637502193450927734375" lon="6.9300246052443981170654296875">
        <ele>738.79998779296875</ele>
        <time>2019-06-19T10:11:56.000Z</time>
        <extensions>
          <ns3:TrackPointExtension>
            <ns3:atemp>25.0</ns3:atemp>
            <ns3:hr>136</ns3:hr>
          </ns3:TrackPointExtension>
        </extensions>
      </trkpt>
      <trkpt lat="47.00749640353024005889892578125" lon="6.92994874902069568634033203125">
        <ele>739.4000244140625</ele>
        <time>2019-06-19T10:11:58.000Z</time>
        <extensions>
          <ns3:TrackPointExtension>
            <ns3:atemp>25.0</ns3:atemp>
            <ns3:hr>136</ns3:hr>
          </ns3:TrackPointExtension>
        </extensions>
      </trkpt>
      <trkpt lat="47.00758508406579494476318359375" lon="6.92985202185809612274169921875">
        <ele>740.20001220703125</ele>
        <time>2019-06-19T10:12:01.000Z</time>
        <extensions>
          <ns3:TrackPointExtension>
            <ns3:atemp>25.0</ns3:atemp>
            <ns3:hr>135</ns3:hr>
          </ns3:TrackPointExtension>
        </extensions>
      </trkpt>
      <trkpt lat="47.00763755477964878082275390625" lon="6.92978211678564548492431640625">
        <ele>740.5999755859375</ele>
        <time>2019-06-19T10:12:03.000Z</time>
        <extensions>
          <ns3:TrackPointExtension>
            <ns3:atemp>25.0</ns3:atemp>
            <ns3:hr>135</ns3:hr>
          </ns3:TrackPointExtension>
        </extensions>
      </trkpt>
      <trkpt lat="47.00766487978398799896240234375" lon="6.929733417928218841552734375">
        <ele>740.79998779296875</ele>
        <time>2019-06-19T10:12:05.000Z</time>
        <extensions>
          <ns3:TrackPointExtension>
            <ns3:atemp>25.0</ns3:atemp>
            <ns3:hr>138</ns3:hr>
          </ns3:TrackPointExtension>
        </extensions>
      </trkpt>
      <trkpt lat="47.00770360417664051055908203125" lon="6.92967030219733715057373046875">
        <ele>741.20001220703125</ele>
        <time>2019-06-19T10:12:07.000Z</time>
        <extensions>
          <ns3:TrackPointExtension>
            <ns3:atemp>25.0</ns3:atemp>
            <ns3:hr>140</ns3:hr>
          </ns3:TrackPointExtension>
        </extensions>
      </trkpt>
      <trkpt lat="47.00771852396428585052490234375" lon="6.92952630110085010528564453125">
        <ele>741.5999755859375</ele>
        <time>2019-06-19T10:12:10.000Z</time>
        <extensions>
          <ns3:TrackPointExtension>
            <ns3:atemp>25.0</ns3:atemp>
            <ns3:hr>142</ns3:hr>
          </ns3:TrackPointExtension>
        </extensions>
      </trkpt>
      <trkpt lat="47.00770712457597255706787109375" lon="6.92947600968182086944580078125">
        <ele>741.5999755859375</ele>
        <time>2019-06-19T10:12:11.000Z</time>
        <extensions>
          <ns3:TrackPointExtension>
            <ns3:atemp>25.0</ns3:atemp>
            <ns3:hr>143</ns3:hr>
          </ns3:TrackPointExtension>
        </extensions>
      </trkpt>
      <trkpt lat="47.00765616260468959808349609375" lon="6.9292782805860042572021484375">
        <ele>741.20001220703125</ele>
        <time>2019-06-19T10:12:16.000Z</time>
        <extensions>
          <ns3:TrackPointExtension>
            <ns3:atemp>25.0</ns3:atemp>
            <ns3:hr>145</ns3:hr>
          </ns3:TrackPointExtension>
        </extensions>
      </trkpt>
      <trkpt lat="47.00759212486445903778076171875" lon="6.92909060977399349212646484375">
        <ele>741.20001220703125</ele>
        <time>2019-06-19T10:12:21.000Z</time>
        <extensions>
          <ns3:TrackPointExtension>
            <ns3:atemp>25.0</ns3:atemp>
            <ns3:hr>143</ns3:hr>
          </ns3:TrackPointExtension>
        </extensions>
      </trkpt>
      <trkpt lat="47.00752423144876956939697265625" lon="6.928793303668498992919921875">
        <ele>740.5999755859375</ele>
        <time>2019-06-19T10:12:26.000Z</time>
        <extensions>
          <ns3:TrackPointExtension>
            <ns3:atemp>25.0</ns3:atemp>
            <ns3:hr>141</ns3:hr>
          </ns3:TrackPointExtension>
        </extensions>
      </trkpt>
      <trkpt lat="47.00751819647848606109619140625" lon="6.92874678410589694976806640625">
        <ele>740.5999755859375</ele>
        <time>2019-06-19T10:12:27.000Z</time>
        <extensions>
          <ns3:TrackPointExtension>
            <ns3:atemp>25.0</ns3:atemp>
            <ns3:hr>141</ns3:hr>
          </ns3:TrackPointExtension>
        </extensions>
      </trkpt>
      <trkpt lat="47.00745566748082637786865234375" lon="6.92850538529455661773681640625">
        <ele>740.4000244140625</ele>
        <time>2019-06-19T10:12:32.000Z</time>
        <extensions>
          <ns3:TrackPointExtension>
            <ns3:atemp>25.0</ns3:atemp>
            <ns3:hr>139</ns3:hr>
          </ns3:TrackPointExtension>
        </extensions>
      </trkpt>
      <trkpt lat="47.0072741992771625518798828125" lon="6.928171031177043914794921875">
        <ele>739.79998779296875</ele>
        <time>2019-06-19T10:12:37.000Z</time>
        <extensions>
          <ns3:TrackPointExtension>
            <ns3:atemp>25.0</ns3:atemp>
            <ns3:hr>138</ns3:hr>
          </ns3:TrackPointExtension>
        </extensions>
      </trkpt>
      <trkpt lat="47.00720136053860187530517578125" lon="6.928059048950672149658203125">
        <ele>739.5999755859375</ele>
        <time>2019-06-19T10:12:39.000Z</time>
        <extensions>
          <ns3:TrackPointExtension>
            <ns3:atemp>25.0</ns3:atemp>
            <ns3:hr>137</ns3:hr>
          </ns3:TrackPointExtension>
        </extensions>
      </trkpt>
      <trkpt lat="47.00703062117099761962890625" lon="6.9277966953814029693603515625">
        <ele>739.4000244140625</ele>
        <time>2019-06-19T10:12:43.000Z</time>
        <extensions>
          <ns3:TrackPointExtension>
            <ns3:atemp>25.0</ns3:atemp>
            <ns3:hr>136</ns3:hr>
          </ns3:TrackPointExtension>
        </extensions>
      </trkpt>
      <trkpt lat="47.00687563978135585784912109375" lon="6.92755437456071376800537109375">
        <ele>739</ele>
        <time>2019-06-19T10:12:47.000Z</time>
        <extensions>
          <ns3:TrackPointExtension>
            <ns3:atemp>25.0</ns3:atemp>
            <ns3:hr>135</ns3:hr>
          </ns3:TrackPointExtension>
        </extensions>
      </trkpt>
      <trkpt lat="47.00683557428419589996337890625" lon="6.92749469541013240814208984375">
        <ele>738.79998779296875</ele>
        <time>2019-06-19T10:12:48.000Z</time>
        <extensions>
          <ns3:TrackPointExtension>
            <ns3:atemp>25.0</ns3:atemp>
            <ns3:hr>135</ns3:hr>
          </ns3:TrackPointExtension>
        </extensions>
      </trkpt>
      <trkpt lat="47.006777822971343994140625" lon="6.9273383729159832000732421875">
        <ele>739</ele>
        <time>2019-06-19T10:12:50.000Z</time>
        <extensions>
          <ns3:TrackPointExtension>
            <ns3:atemp>25.0</ns3:atemp>
            <ns3:hr>135</ns3:hr>
          </ns3:TrackPointExtension>
        </extensions>
      </trkpt>
      <trkpt lat="47.00672711245715618133544921875" lon="6.927153132855892181396484375">
        <ele>739.20001220703125</ele>
        <time>2019-06-19T10:12:52.000Z</time>
        <extensions>
          <ns3:TrackPointExtension>
            <ns3:atemp>25.0</ns3:atemp>
            <ns3:hr>134</ns3:hr>
          </ns3:TrackPointExtension>
        </extensions>
      </trkpt>
      <trkpt lat="47.00669878162443637847900390625" lon="6.92699681036174297332763671875">
        <ele>739.4000244140625</ele>
        <time>2019-06-19T10:12:54.000Z</time>
        <extensions>
          <ns3:TrackPointExtension>
            <ns3:atemp>25.0</ns3:atemp>
            <ns3:hr>133</ns3:hr>
          </ns3:TrackPointExtension>
        </extensions>
      </trkpt>
      <trkpt lat="47.0066904835402965545654296875" lon="6.92684962414205074310302734375">
        <ele>739.5999755859375</ele>
        <time>2019-06-19T10:12:56.000Z</time>
        <extensions>
          <ns3:TrackPointExtension>
            <ns3:atemp>25.0</ns3:atemp>
            <ns3:hr>133</ns3:hr>
          </ns3:TrackPointExtension>
        </extensions>
      </trkpt>
      <trkpt lat="47.00670766644179821014404296875" lon="6.9265940599143505096435546875">
        <ele>740</ele>
        <time>2019-06-19T10:13:00.000Z</time>
        <extensions>
          <ns3:TrackPointExtension>
            <ns3:atemp>25.0</ns3:atemp>
            <ns3:hr>132</ns3:hr>
          </ns3:TrackPointExtension>
        </extensions>
      </trkpt>
      <trkpt lat="47.00676105916500091552734375" lon="6.9263550080358982086181640625">
        <ele>740.4000244140625</ele>
        <time>2019-06-19T10:13:05.000Z</time>
        <extensions>
          <ns3:TrackPointExtension>
            <ns3:atemp>25.0</ns3:atemp>
            <ns3:hr>133</ns3:hr>
          </ns3:TrackPointExtension>
        </extensions>
      </trkpt>
      <trkpt lat="47.0067773200571537017822265625" lon="6.92632944323122501373291015625">
        <ele>740.5999755859375</ele>
        <time>2019-06-19T10:13:06.000Z</time>
        <extensions>
          <ns3:TrackPointExtension>
            <ns3:atemp>25.0</ns3:atemp>
            <ns3:hr>133</ns3:hr>
          </ns3:TrackPointExtension>
        </extensions>
      </trkpt>
      <trkpt lat="47.0068537630140781402587890625" lon="6.926216371357440948486328125">
        <ele>740.79998779296875</ele>
        <time>2019-06-19T10:13:10.000Z</time>
        <extensions>
          <ns3:TrackPointExtension>
            <ns3:atemp>25.0</ns3:atemp>
            <ns3:hr>133</ns3:hr>
          </ns3:TrackPointExtension>
        </extensions>
      </trkpt>
      <trkpt lat="47.00698904693126678466796875" lon="6.92601361311972141265869140625">
        <ele>740.79998779296875</ele>
        <time>2019-06-19T10:13:15.000Z</time>
        <extensions>
          <ns3:TrackPointExtension>
            <ns3:atemp>25.0</ns3:atemp>
            <ns3:hr>131</ns3:hr>
          </ns3:TrackPointExtension>
        </extensions>
      </trkpt>
      <trkpt lat="47.00705618597567081451416015625" lon="6.92581529729068279266357421875">
        <ele>740.4000244140625</ele>
        <time>2019-06-19T10:13:19.000Z</time>
        <extensions>
          <ns3:TrackPointExtension>
            <ns3:atemp>25.0</ns3:atemp>
            <ns3:hr>132</ns3:hr>
          </ns3:TrackPointExtension>
        </extensions>
      </trkpt>
      <trkpt lat="47.00712583959102630615234375" lon="6.92542972974479198455810546875">
        <ele>740.5999755859375</ele>
        <time>2019-06-19T10:13:24.000Z</time>
        <extensions>
          <ns3:TrackPointExtension>
            <ns3:atemp>25.0</ns3:atemp>
            <ns3:hr>134</ns3:hr>
          </ns3:TrackPointExtension>
        </extensions>
      </trkpt>
      <trkpt lat="47.0071498118340969085693359375" lon="6.92513116635382175445556640625">
        <ele>740.4000244140625</ele>
        <time>2019-06-19T10:13:28.000Z</time>
        <extensions>
          <ns3:TrackPointExtension>
            <ns3:atemp>25.0</ns3:atemp>
            <ns3:hr>137</ns3:hr>
          </ns3:TrackPointExtension>
        </extensions>
      </trkpt>
      <trkpt lat="47.00714453123509883880615234375" lon="6.92505522631108760833740234375">
        <ele>740.4000244140625</ele>
        <time>2019-06-19T10:13:29.000Z</time>
        <extensions>
          <ns3:TrackPointExtension>
            <ns3:atemp>25.0</ns3:atemp>
            <ns3:hr>133</ns3:hr>
          </ns3:TrackPointExtension>
        </extensions>
      </trkpt>
      <trkpt lat="47.00716339051723480224609375" lon="6.92486261017620563507080078125">
        <ele>740.20001220703125</ele>
        <time>2019-06-19T10:13:32.000Z</time>
        <extensions>
          <ns3:TrackPointExtension>
            <ns3:atemp>24.0</ns3:atemp>
            <ns3:hr>132</ns3:hr>
          </ns3:TrackPointExtension>
        </extensions>
      </trkpt>
      <trkpt lat="47.007175795733928680419921875" lon="6.9247892685234546661376953125">
        <ele>740.4000244140625</ele>
        <time>2019-06-19T10:13:33.000Z</time>
        <extensions>
          <ns3:TrackPointExtension>
            <ns3:atemp>24.0</ns3:atemp>
            <ns3:hr>132</ns3:hr>
          </ns3:TrackPointExtension>
        </extensions>
      </trkpt>
      <trkpt lat="47.00718342326581478118896484375" lon="6.9245539046823978424072265625">
        <ele>740</ele>
        <time>2019-06-19T10:13:36.000Z</time>
        <extensions>
          <ns3:TrackPointExtension>
            <ns3:atemp>24.0</ns3:atemp>
            <ns3:hr>132</ns3:hr>
          </ns3:TrackPointExtension>
        </extensions>
      </trkpt>
      <trkpt lat="47.0071930624544620513916015625" lon="6.92415065132081508636474609375">
        <ele>740.5999755859375</ele>
        <time>2019-06-19T10:13:42.000Z</time>
        <extensions>
          <ns3:TrackPointExtension>
            <ns3:atemp>24.0</ns3:atemp>
            <ns3:hr>131</ns3:hr>
          </ns3:TrackPointExtension>
        </extensions>
      </trkpt>
      <trkpt lat="47.007201611995697021484375" lon="6.92400924861431121826171875">
        <ele>740.79998779296875</ele>
        <time>2019-06-19T10:13:44.000Z</time>
        <extensions>
          <ns3:TrackPointExtension>
            <ns3:atemp>24.0</ns3:atemp>
            <ns3:hr>131</ns3:hr>
          </ns3:TrackPointExtension>
        </extensions>
      </trkpt>
      <trkpt lat="47.00724746100604534149169921875" lon="6.92377229221165180206298828125">
        <ele>741.4000244140625</ele>
        <time>2019-06-19T10:13:48.000Z</time>
        <extensions>
          <ns3:TrackPointExtension>
            <ns3:atemp>24.0</ns3:atemp>
            <ns3:hr>132</ns3:hr>
          </ns3:TrackPointExtension>
        </extensions>
      </trkpt>
      <trkpt lat="47.00733915902674198150634765625" lon="6.923525445163249969482421875">
        <ele>740.79998779296875</ele>
        <time>2019-06-19T10:13:53.000Z</time>
        <extensions>
          <ns3:TrackPointExtension>
            <ns3:atemp>24.0</ns3:atemp>
            <ns3:hr>131</ns3:hr>
          </ns3:TrackPointExtension>
        </extensions>
      </trkpt>
      <trkpt lat="47.00739498250186443328857421875" lon="6.92326216958463191986083984375">
        <ele>740.4000244140625</ele>
        <time>2019-06-19T10:13:59.000Z</time>
        <extensions>
          <ns3:TrackPointExtension>
            <ns3:atemp>24.0</ns3:atemp>
            <ns3:hr>133</ns3:hr>
          </ns3:TrackPointExtension>
        </extensions>
      </trkpt>
      <trkpt lat="47.00747243128716945648193359375" lon="6.92280351184308528900146484375">
        <ele>741.20001220703125</ele>
        <time>2019-06-19T10:14:04.000Z</time>
        <extensions>
          <ns3:TrackPointExtension>
            <ns3:atemp>24.0</ns3:atemp>
            <ns3:hr>131</ns3:hr>
          </ns3:TrackPointExtension>
        </extensions>
      </trkpt>
      <trkpt lat="47.0075045339763164520263671875" lon="6.9224745221436023712158203125">
        <ele>741.5999755859375</ele>
        <time>2019-06-19T10:14:09.000Z</time>
        <extensions>
          <ns3:TrackPointExtension>
            <ns3:atemp>24.0</ns3:atemp>
            <ns3:hr>132</ns3:hr>
          </ns3:TrackPointExtension>
        </extensions>
      </trkpt>
      <trkpt lat="47.00751031748950481414794921875" lon="6.92208400927484035491943359375">
        <ele>742.20001220703125</ele>
        <time>2019-06-19T10:14:14.000Z</time>
        <extensions>
          <ns3:TrackPointExtension>
            <ns3:atemp>24.0</ns3:atemp>
            <ns3:hr>133</ns3:hr>
          </ns3:TrackPointExtension>
        </extensions>
      </trkpt>
      <trkpt lat="47.00750595889985561370849609375" lon="6.92184948362410068511962890625">
        <ele>742.79998779296875</ele>
        <time>2019-06-19T10:14:17.000Z</time>
        <extensions>
          <ns3:TrackPointExtension>
            <ns3:atemp>24.0</ns3:atemp>
            <ns3:hr>133</ns3:hr>
          </ns3:TrackPointExtension>
        </extensions>
      </trkpt>
      <trkpt lat="47.00750998221337795257568359375" lon="6.9217174686491489410400390625">
        <ele>743</ele>
        <time>2019-06-19T10:14:19.000Z</time>
        <extensions>
          <ns3:TrackPointExtension>
            <ns3:atemp>24.0</ns3:atemp>
            <ns3:hr>132</ns3:hr>
          </ns3:TrackPointExtension>
        </extensions>
      </trkpt>
      <trkpt lat="47.00756044127047061920166015625" lon="6.9214874692261219024658203125">
        <ele>743.79998779296875</ele>
        <time>2019-06-19T10:14:23.000Z</time>
        <extensions>
          <ns3:TrackPointExtension>
            <ns3:atemp>24.0</ns3:atemp>
            <ns3:hr>133</ns3:hr>
          </ns3:TrackPointExtension>
        </extensions>
      </trkpt>
      <trkpt lat="47.007563374936580657958984375" lon="6.92138009704649448394775390625">
        <ele>745.20001220703125</ele>
        <time>2019-06-19T10:14:26.000Z</time>
        <extensions>
          <ns3:TrackPointExtension>
            <ns3:atemp>24.0</ns3:atemp>
            <ns3:hr>134</ns3:hr>
          </ns3:TrackPointExtension>
        </extensions>
      </trkpt>
      <trkpt lat="47.0075742714107036590576171875" lon="6.92135981284081935882568359375">
        <ele>745.4000244140625</ele>
        <time>2019-06-19T10:14:27.000Z</time>
        <extensions>
          <ns3:TrackPointExtension>
            <ns3:atemp>24.0</ns3:atemp>
            <ns3:hr>134</ns3:hr>
          </ns3:TrackPointExtension>
        </extensions>
      </trkpt>
      <trkpt lat="47.00762431137263774871826171875" lon="6.92108421586453914642333984375">
        <ele>745.4000244140625</ele>
        <time>2019-06-19T10:14:32.000Z</time>
        <extensions>
          <ns3:TrackPointExtension>
            <ns3:atemp>24.0</ns3:atemp>
            <ns3:hr>135</ns3:hr>
          </ns3:TrackPointExtension>
        </extensions>
      </trkpt>
      <trkpt lat="47.00764895416796207427978515625" lon="6.92072714678943157196044921875">
        <ele>744.4000244140625</ele>
        <time>2019-06-19T10:14:38.000Z</time>
        <extensions>
          <ns3:TrackPointExtension>
            <ns3:atemp>24.0</ns3:atemp>
            <ns3:hr>133</ns3:hr>
          </ns3:TrackPointExtension>
        </extensions>
      </trkpt>
      <trkpt lat="47.00764895416796207427978515625" lon="6.9206787832081317901611328125">
        <ele>744</ele>
        <time>2019-06-19T10:14:39.000Z</time>
        <extensions>
          <ns3:TrackPointExtension>
            <ns3:atemp>24.0</ns3:atemp>
            <ns3:hr>133</ns3:hr>
          </ns3:TrackPointExtension>
        </extensions>
      </trkpt>
      <trkpt lat="47.00764476321637630462646484375" lon="6.92043512128293514251708984375">
        <ele>744.20001220703125</ele>
        <time>2019-06-19T10:14:43.000Z</time>
        <extensions>
          <ns3:TrackPointExtension>
            <ns3:atemp>24.0</ns3:atemp>
            <ns3:hr>134</ns3:hr>
          </ns3:TrackPointExtension>
        </extensions>
      </trkpt>
      <trkpt lat="47.00763504020869731903076171875" lon="6.9201192073523998260498046875">
        <ele>744.79998779296875</ele>
        <time>2019-06-19T10:14:49.000Z</time>
        <extensions>
          <ns3:TrackPointExtension>
            <ns3:atemp>24.0</ns3:atemp>
            <ns3:hr>133</ns3:hr>
          </ns3:TrackPointExtension>
        </extensions>
      </trkpt>
      <trkpt lat="47.00759530998766422271728515625" lon="6.91992022097110748291015625">
        <ele>745</ele>
        <time>2019-06-19T10:14:53.000Z</time>
        <extensions>
          <ns3:TrackPointExtension>
            <ns3:atemp>24.0</ns3:atemp>
            <ns3:hr>134</ns3:hr>
          </ns3:TrackPointExtension>
        </extensions>
      </trkpt>
      <trkpt lat="47.00757443904876708984375" lon="6.919880993664264678955078125">
        <ele>745.20001220703125</ele>
        <time>2019-06-19T10:14:54.000Z</time>
        <extensions>
          <ns3:TrackPointExtension>
            <ns3:atemp>24.0</ns3:atemp>
            <ns3:hr>135</ns3:hr>
          </ns3:TrackPointExtension>
        </extensions>
      </trkpt>
      <trkpt lat="47.00751517899334430694580078125" lon="6.9196887128055095672607421875">
        <ele>745.20001220703125</ele>
        <time>2019-06-19T10:14:58.000Z</time>
        <extensions>
          <ns3:TrackPointExtension>
            <ns3:atemp>24.0</ns3:atemp>
            <ns3:hr>134</ns3:hr>
          </ns3:TrackPointExtension>
        </extensions>
      </trkpt>
      <trkpt lat="47.00745784677565097808837890625" lon="6.9195398502051830291748046875">
        <ele>745.4000244140625</ele>
        <time>2019-06-19T10:15:02.000Z</time>
        <extensions>
          <ns3:TrackPointExtension>
            <ns3:atemp>24.0</ns3:atemp>
            <ns3:hr>131</ns3:hr>
          </ns3:TrackPointExtension>
        </extensions>
      </trkpt>
      <trkpt lat="47.0074086450040340423583984375" lon="6.91945225931704044342041015625">
        <ele>745.4000244140625</ele>
        <time>2019-06-19T10:15:04.000Z</time>
        <extensions>
          <ns3:TrackPointExtension>
            <ns3:atemp>24.0</ns3:atemp>
            <ns3:hr>130</ns3:hr>
          </ns3:TrackPointExtension>
        </extensions>
      </trkpt>
      <trkpt lat="47.007362209260463714599609375" lon="6.91933793015778064727783203125">
        <ele>746.4000244140625</ele>
        <time>2019-06-19T10:15:07.000Z</time>
        <extensions>
          <ns3:TrackPointExtension>
            <ns3:atemp>24.0</ns3:atemp>
            <ns3:hr>130</ns3:hr>
          </ns3:TrackPointExtension>
        </extensions>
      </trkpt>
      <trkpt lat="47.00733999721705913543701171875" lon="6.9193028099834918975830078125">
        <ele>746.5999755859375</ele>
        <time>2019-06-19T10:15:08.000Z</time>
        <extensions>
          <ns3:TrackPointExtension>
            <ns3:atemp>24.0</ns3:atemp>
            <ns3:hr>129</ns3:hr>
          </ns3:TrackPointExtension>
        </extensions>
      </trkpt>
      <trkpt lat="47.007239498198032379150390625" lon="6.9191596470773220062255859375">
        <ele>747.4000244140625</ele>
        <time>2019-06-19T10:15:12.000Z</time>
        <extensions>
          <ns3:TrackPointExtension>
            <ns3:atemp>24.0</ns3:atemp>
            <ns3:hr>129</ns3:hr>
          </ns3:TrackPointExtension>
        </extensions>
      </trkpt>
      <trkpt lat="47.007214687764644622802734375" lon="6.91912829875946044921875">
        <ele>747.5999755859375</ele>
        <time>2019-06-19T10:15:13.000Z</time>
        <extensions>
          <ns3:TrackPointExtension>
            <ns3:atemp>24.0</ns3:atemp>
            <ns3:hr>128</ns3:hr>
          </ns3:TrackPointExtension>
        </extensions>
      </trkpt>
      <trkpt lat="47.00710329227149486541748046875" lon="6.9189772568643093109130859375">
        <ele>748</ele>
        <time>2019-06-19T10:15:17.000Z</time>
        <extensions>
          <ns3:TrackPointExtension>
            <ns3:atemp>24.0</ns3:atemp>
            <ns3:hr>127</ns3:hr>
          </ns3:TrackPointExtension>
        </extensions>
      </trkpt>
      <trkpt lat="47.00706012547016143798828125" lon="6.91888891160488128662109375">
        <ele>748</ele>
        <time>2019-06-19T10:15:19.000Z</time>
        <extensions>
          <ns3:TrackPointExtension>
            <ns3:atemp>24.0</ns3:atemp>
            <ns3:hr>124</ns3:hr>
          </ns3:TrackPointExtension>
        </extensions>
      </trkpt>
      <trkpt lat="47.006995417177677154541015625" lon="6.91873594187200069427490234375">
        <ele>748.20001220703125</ele>
        <time>2019-06-19T10:15:22.000Z</time>
        <extensions>
          <ns3:TrackPointExtension>
            <ns3:atemp>24.0</ns3:atemp>
            <ns3:hr>124</ns3:hr>
          </ns3:TrackPointExtension>
        </extensions>
      </trkpt>
      <trkpt lat="47.00693816877901554107666015625" lon="6.91856863908469676971435546875">
        <ele>748.4000244140625</ele>
        <time>2019-06-19T10:15:25.000Z</time>
        <extensions>
          <ns3:TrackPointExtension>
            <ns3:atemp>24.0</ns3:atemp>
            <ns3:hr>123</ns3:hr>
          </ns3:TrackPointExtension>
        </extensions>
      </trkpt>
      <trkpt lat="47.00691218487918376922607421875" lon="6.918453387916088104248046875">
        <ele>748.79998779296875</ele>
        <time>2019-06-19T10:15:27.000Z</time>
        <extensions>
          <ns3:TrackPointExtension>
            <ns3:atemp>24.0</ns3:atemp>
            <ns3:hr>126</ns3:hr>
          </ns3:TrackPointExtension>
        </extensions>
      </trkpt>
      <trkpt lat="47.0068933255970478057861328125" lon="6.91829622723162174224853515625">
        <ele>749</ele>
        <time>2019-06-19T10:15:30.000Z</time>
        <extensions>
          <ns3:TrackPointExtension>
            <ns3:atemp>24.0</ns3:atemp>
            <ns3:hr>130</ns3:hr>
          </ns3:TrackPointExtension>
        </extensions>
      </trkpt>
      <trkpt lat="47.0068869553506374359130859375" lon="6.91824710927903652191162109375">
        <ele>749</ele>
        <time>2019-06-19T10:15:31.000Z</time>
        <extensions>
          <ns3:TrackPointExtension>
            <ns3:atemp>24.0</ns3:atemp>
            <ns3:hr>133</ns3:hr>
          </ns3:TrackPointExtension>
        </extensions>
      </trkpt>
      <trkpt lat="47.006877399981021881103515625" lon="6.91814619116485118865966796875">
        <ele>749.4000244140625</ele>
        <time>2019-06-19T10:15:33.000Z</time>
        <extensions>
          <ns3:TrackPointExtension>
            <ns3:atemp>24.0</ns3:atemp>
            <ns3:hr>138</ns3:hr>
          </ns3:TrackPointExtension>
        </extensions>
      </trkpt>
      <trkpt lat="47.006878741085529327392578125" lon="6.91810344345867633819580078125">
        <ele>749.5999755859375</ele>
        <time>2019-06-19T10:15:34.000Z</time>
        <extensions>
          <ns3:TrackPointExtension>
            <ns3:atemp>24.0</ns3:atemp>
            <ns3:hr>138</ns3:hr>
          </ns3:TrackPointExtension>
        </extensions>
      </trkpt>
      <trkpt lat="47.00686792843043804168701171875" lon="6.91789523698389530181884765625">
        <ele>750.4000244140625</ele>
        <time>2019-06-19T10:15:39.000Z</time>
        <extensions>
          <ns3:TrackPointExtension>
            <ns3:atemp>24.0</ns3:atemp>
            <ns3:hr>138</ns3:hr>
          </ns3:TrackPointExtension>
        </extensions>
      </trkpt>
      <trkpt lat="47.00686457566916942596435546875" lon="6.9178557582199573516845703125">
        <ele>750.79998779296875</ele>
        <time>2019-06-19T10:15:40.000Z</time>
        <extensions>
          <ns3:TrackPointExtension>
            <ns3:atemp>24.0</ns3:atemp>
            <ns3:hr>138</ns3:hr>
          </ns3:TrackPointExtension>
        </extensions>
      </trkpt>
      <trkpt lat="47.00686105526983737945556640625" lon="6.9177193008363246917724609375">
        <ele>752</ele>
        <time>2019-06-19T10:15:44.000Z</time>
        <extensions>
          <ns3:TrackPointExtension>
            <ns3:atemp>24.0</ns3:atemp>
            <ns3:hr>138</ns3:hr>
          </ns3:TrackPointExtension>
        </extensions>
      </trkpt>
      <trkpt lat="47.0068671740591526031494140625" lon="6.9177048839628696441650390625">
        <ele>752.4000244140625</ele>
        <time>2019-06-19T10:15:45.000Z</time>
        <extensions>
          <ns3:TrackPointExtension>
            <ns3:atemp>24.0</ns3:atemp>
            <ns3:hr>138</ns3:hr>
          </ns3:TrackPointExtension>
        </extensions>
      </trkpt>
      <trkpt lat="47.0068936608731746673583984375" lon="6.9176240824162960052490234375">
        <ele>753.20001220703125</ele>
        <time>2019-06-19T10:15:48.000Z</time>
        <extensions>
          <ns3:TrackPointExtension>
            <ns3:atemp>24.0</ns3:atemp>
            <ns3:hr>141</ns3:hr>
          </ns3:TrackPointExtension>
        </extensions>
      </trkpt>
      <trkpt lat="47.00689424760639667510986328125" lon="6.9175466336309909820556640625">
        <ele>753.5999755859375</ele>
        <time>2019-06-19T10:15:50.000Z</time>
        <extensions>
          <ns3:TrackPointExtension>
            <ns3:atemp>24.0</ns3:atemp>
            <ns3:hr>142</ns3:hr>
          </ns3:TrackPointExtension>
        </extensions>
      </trkpt>
      <trkpt lat="47.00686566531658172607421875" lon="6.9172981940209865570068359375">
        <ele>753.79998779296875</ele>
        <time>2019-06-19T10:15:57.000Z</time>
        <extensions>
          <ns3:TrackPointExtension>
            <ns3:atemp>24.0</ns3:atemp>
            <ns3:hr>141</ns3:hr>
          </ns3:TrackPointExtension>
        </extensions>
      </trkpt>
      <trkpt lat="47.00685418210923671722412109375" lon="6.91718160174787044525146484375">
        <ele>754.5999755859375</ele>
        <time>2019-06-19T10:16:00.000Z</time>
        <extensions>
          <ns3:TrackPointExtension>
            <ns3:atemp>24.0</ns3:atemp>
            <ns3:hr>142</ns3:hr>
          </ns3:TrackPointExtension>
        </extensions>
      </trkpt>
      <trkpt lat="47.0068470574915409088134765625" lon="6.917104907333850860595703125">
        <ele>755</ele>
        <time>2019-06-19T10:16:02.000Z</time>
        <extensions>
          <ns3:TrackPointExtension>
            <ns3:atemp>25.0</ns3:atemp>
            <ns3:hr>142</ns3:hr>
          </ns3:TrackPointExtension>
        </extensions>
      </trkpt>
      <trkpt lat="47.0068373344838619232177734375" lon="6.9169716350734233856201171875">
        <ele>755.5999755859375</ele>
        <time>2019-06-19T10:16:06.000Z</time>
        <extensions>
          <ns3:TrackPointExtension>
            <ns3:atemp>25.0</ns3:atemp>
            <ns3:hr>140</ns3:hr>
          </ns3:TrackPointExtension>
        </extensions>
      </trkpt>
      <trkpt lat="47.00683473609387874603271484375" lon="6.9169075973331928253173828125">
        <ele>756.20001220703125</ele>
        <time>2019-06-19T10:16:08.000Z</time>
        <extensions>
          <ns3:TrackPointExtension>
            <ns3:atemp>25.0</ns3:atemp>
            <ns3:hr>139</ns3:hr>
          </ns3:TrackPointExtension>
        </extensions>
      </trkpt>
      <trkpt lat="47.0068292878568172454833984375" lon="6.91681967116892337799072265625">
        <ele>756.79998779296875</ele>
        <time>2019-06-19T10:16:11.000Z</time>
        <extensions>
          <ns3:TrackPointExtension>
            <ns3:atemp>25.0</ns3:atemp>
            <ns3:hr>139</ns3:hr>
          </ns3:TrackPointExtension>
        </extensions>
      </trkpt>
      <trkpt lat="47.00683674775063991546630859375" lon="6.91670131869614124298095703125">
        <ele>757.20001220703125</ele>
        <time>2019-06-19T10:16:15.000Z</time>
        <extensions>
          <ns3:TrackPointExtension>
            <ns3:atemp>25.0</ns3:atemp>
            <ns3:hr>139</ns3:hr>
          </ns3:TrackPointExtension>
        </extensions>
      </trkpt>
      <trkpt lat="47.0068477280437946319580078125" lon="6.9165669567883014678955078125">
        <ele>758</ele>
        <time>2019-06-19T10:16:20.000Z</time>
        <extensions>
          <ns3:TrackPointExtension>
            <ns3:atemp>25.0</ns3:atemp>
            <ns3:hr>140</ns3:hr>
          </ns3:TrackPointExtension>
        </extensions>
      </trkpt>
      <trkpt lat="47.00686742551624774932861328125" lon="6.9164928607642650604248046875">
        <ele>758.79998779296875</ele>
        <time>2019-06-19T10:16:23.000Z</time>
        <extensions>
          <ns3:TrackPointExtension>
            <ns3:atemp>25.0</ns3:atemp>
            <ns3:hr>141</ns3:hr>
          </ns3:TrackPointExtension>
        </extensions>
      </trkpt>
      <trkpt lat="47.00685552321374416351318359375" lon="6.91642706282436847686767578125">
        <ele>759.20001220703125</ele>
        <time>2019-06-19T10:16:26.000Z</time>
        <extensions>
          <ns3:TrackPointExtension>
            <ns3:atemp>25.0</ns3:atemp>
            <ns3:hr>142</ns3:hr>
          </ns3:TrackPointExtension>
        </extensions>
      </trkpt>
      <trkpt lat="47.00684680603444576263427734375" lon="6.916354559361934661865234375">
        <ele>759.5999755859375</ele>
        <time>2019-06-19T10:16:29.000Z</time>
        <extensions>
          <ns3:TrackPointExtension>
            <ns3:atemp>25.0</ns3:atemp>
            <ns3:hr>141</ns3:hr>
          </ns3:TrackPointExtension>
        </extensions>
      </trkpt>
      <trkpt lat="47.00684957206249237060546875" lon="6.91628356464207172393798828125">
        <ele>760.20001220703125</ele>
        <time>2019-06-19T10:16:32.000Z</time>
        <extensions>
          <ns3:TrackPointExtension>
            <ns3:atemp>25.0</ns3:atemp>
            <ns3:hr>141</ns3:hr>
          </ns3:TrackPointExtension>
        </extensions>
      </trkpt>
      <trkpt lat="47.006855271756649017333984375" lon="6.91611492075026035308837890625">
        <ele>761</ele>
        <time>2019-06-19T10:16:37.000Z</time>
        <extensions>
          <ns3:TrackPointExtension>
            <ns3:atemp>25.0</ns3:atemp>
            <ns3:hr>141</ns3:hr>
          </ns3:TrackPointExtension>
        </extensions>
      </trkpt>
      <trkpt lat="47.00686206109821796417236328125" lon="6.91596387885510921478271484375">
        <ele>761.20001220703125</ele>
        <time>2019-06-19T10:16:41.000Z</time>
        <extensions>
          <ns3:TrackPointExtension>
            <ns3:atemp>25.0</ns3:atemp>
            <ns3:hr>142</ns3:hr>
          </ns3:TrackPointExtension>
        </extensions>
      </trkpt>
      <trkpt lat="47.00687999837100505828857421875" lon="6.91581669263541698455810546875">
        <ele>761.5999755859375</ele>
        <time>2019-06-19T10:16:45.000Z</time>
        <extensions>
          <ns3:TrackPointExtension>
            <ns3:atemp>25.0</ns3:atemp>
            <ns3:hr>142</ns3:hr>
          </ns3:TrackPointExtension>
        </extensions>
      </trkpt>
      <trkpt lat="47.00688955374062061309814453125" lon="6.9156910479068756103515625">
        <ele>762.4000244140625</ele>
        <time>2019-06-19T10:16:48.000Z</time>
        <extensions>
          <ns3:TrackPointExtension>
            <ns3:atemp>25.0</ns3:atemp>
            <ns3:hr>142</ns3:hr>
          </ns3:TrackPointExtension>
        </extensions>
      </trkpt>
      <trkpt lat="47.00690933503210544586181640625" lon="6.91557177342474460601806640625">
        <ele>762.5999755859375</ele>
        <time>2019-06-19T10:16:51.000Z</time>
        <extensions>
          <ns3:TrackPointExtension>
            <ns3:atemp>25.0</ns3:atemp>
            <ns3:hr>141</ns3:hr>
          </ns3:TrackPointExtension>
        </extensions>
      </trkpt>
      <trkpt lat="47.0069325529038906097412109375" lon="6.91533070988953113555908203125">
        <ele>763</ele>
        <time>2019-06-19T10:16:57.000Z</time>
        <extensions>
          <ns3:TrackPointExtension>
            <ns3:atemp>25.0</ns3:atemp>
            <ns3:hr>140</ns3:hr>
          </ns3:TrackPointExtension>
        </extensions>
      </trkpt>
      <trkpt lat="47.00697991065680980682373046875" lon="6.91507154144346714019775390625">
        <ele>763.4000244140625</ele>
        <time>2019-06-19T10:17:04.000Z</time>
        <extensions>
          <ns3:TrackPointExtension>
            <ns3:atemp>25.0</ns3:atemp>
            <ns3:hr>138</ns3:hr>
          </ns3:TrackPointExtension>
        </extensions>
      </trkpt>
      <trkpt lat="47.00706976465880870819091796875" lon="6.91495620645582675933837890625">
        <ele>764</ele>
        <time>2019-06-19T10:17:09.000Z</time>
        <extensions>
          <ns3:TrackPointExtension>
            <ns3:atemp>25.0</ns3:atemp>
            <ns3:hr>137</ns3:hr>
          </ns3:TrackPointExtension>
        </extensions>
      </trkpt>
      <trkpt lat="47.007140256464481353759765625" lon="6.91490675322711467742919921875">
        <ele>764.4000244140625</ele>
        <time>2019-06-19T10:17:12.000Z</time>
        <extensions>
          <ns3:TrackPointExtension>
            <ns3:atemp>25.0</ns3:atemp>
            <ns3:hr>137</ns3:hr>
          </ns3:TrackPointExtension>
        </extensions>
      </trkpt>
      <trkpt lat="47.00720136053860187530517578125" lon="6.91481086425483226776123046875">
        <ele>765</ele>
        <time>2019-06-19T10:17:16.000Z</time>
        <extensions>
          <ns3:TrackPointExtension>
            <ns3:atemp>25.0</ns3:atemp>
            <ns3:hr>139</ns3:hr>
          </ns3:TrackPointExtension>
        </extensions>
      </trkpt>
      <trkpt lat="47.00721560977399349212646484375" lon="6.91479510627686977386474609375">
        <ele>765.20001220703125</ele>
        <time>2019-06-19T10:17:17.000Z</time>
        <extensions>
          <ns3:TrackPointExtension>
            <ns3:atemp>25.0</ns3:atemp>
            <ns3:hr>139</ns3:hr>
          </ns3:TrackPointExtension>
        </extensions>
      </trkpt>
      <trkpt lat="47.0072265900671482086181640625" lon="6.9147749058902263641357421875">
        <ele>765.4000244140625</ele>
        <time>2019-06-19T10:17:18.000Z</time>
        <extensions>
          <ns3:TrackPointExtension>
            <ns3:atemp>25.0</ns3:atemp>
            <ns3:hr>140</ns3:hr>
          </ns3:TrackPointExtension>
        </extensions>
      </trkpt>
      <trkpt lat="47.00726640410721302032470703125" lon="6.9147048331797122955322265625">
        <ele>766.4000244140625</ele>
        <time>2019-06-19T10:17:21.000Z</time>
        <extensions>
          <ns3:TrackPointExtension>
            <ns3:atemp>25.0</ns3:atemp>
            <ns3:hr>140</ns3:hr>
          </ns3:TrackPointExtension>
        </extensions>
      </trkpt>
      <trkpt lat="47.00728601776063442230224609375" lon="6.91468454897403717041015625">
        <ele>766.5999755859375</ele>
        <time>2019-06-19T10:17:22.000Z</time>
        <extensions>
          <ns3:TrackPointExtension>
            <ns3:atemp>25.0</ns3:atemp>
            <ns3:hr>141</ns3:hr>
          </ns3:TrackPointExtension>
        </extensions>
      </trkpt>
      <trkpt lat="47.0073657296597957611083984375" lon="6.9146005623042583465576171875">
        <ele>767.4000244140625</ele>
        <time>2019-06-19T10:17:27.000Z</time>
        <extensions>
          <ns3:TrackPointExtension>
            <ns3:atemp>25.0</ns3:atemp>
            <ns3:hr>141</ns3:hr>
          </ns3:TrackPointExtension>
        </extensions>
      </trkpt>
      <trkpt lat="47.00737486593425273895263671875" lon="6.91457726061344146728515625">
        <ele>768</ele>
        <time>2019-06-19T10:17:28.000Z</time>
        <extensions>
          <ns3:TrackPointExtension>
            <ns3:atemp>25.0</ns3:atemp>
            <ns3:hr>141</ns3:hr>
          </ns3:TrackPointExtension>
        </extensions>
      </trkpt>
      <trkpt lat="47.00742348097264766693115234375" lon="6.9145164079964160919189453125">
        <ele>769</ele>
        <time>2019-06-19T10:17:31.000Z</time>
        <extensions>
          <ns3:TrackPointExtension>
            <ns3:atemp>25.0</ns3:atemp>
            <ns3:hr>142</ns3:hr>
          </ns3:TrackPointExtension>
        </extensions>
      </trkpt>
      <trkpt lat="47.00745332054793834686279296875" lon="6.91447474993765354156494140625">
        <ele>769.4000244140625</ele>
        <time>2019-06-19T10:17:33.000Z</time>
        <extensions>
          <ns3:TrackPointExtension>
            <ns3:atemp>25.0</ns3:atemp>
            <ns3:hr>143</ns3:hr>
          </ns3:TrackPointExtension>
        </extensions>
      </trkpt>
      <trkpt lat="47.007541917264461517333984375" lon="6.9143906794488430023193359375">
        <ele>770.20001220703125</ele>
        <time>2019-06-19T10:17:38.000Z</time>
        <extensions>
          <ns3:TrackPointExtension>
            <ns3:atemp>25.0</ns3:atemp>
            <ns3:hr>144</ns3:hr>
          </ns3:TrackPointExtension>
        </extensions>
      </trkpt>
      <trkpt lat="47.0076715014874935150146484375" lon="6.9142206944525241851806640625">
        <ele>770.79998779296875</ele>
        <time>2019-06-19T10:17:45.000Z</time>
        <extensions>
          <ns3:TrackPointExtension>
            <ns3:atemp>25.0</ns3:atemp>
            <ns3:hr>145</ns3:hr>
          </ns3:TrackPointExtension>
        </extensions>
      </trkpt>
      <trkpt lat="47.00772020034492015838623046875" lon="6.91415154375135898590087890625">
        <ele>771.20001220703125</ele>
        <time>2019-06-19T10:17:48.000Z</time>
        <extensions>
          <ns3:TrackPointExtension>
            <ns3:atemp>25.0</ns3:atemp>
            <ns3:hr>145</ns3:hr>
          </ns3:TrackPointExtension>
        </extensions>
      </trkpt>
      <trkpt lat="47.00775079429149627685546875" lon="6.9141447544097900390625">
        <ele>771.20001220703125</ele>
        <time>2019-06-19T10:17:49.000Z</time>
        <extensions>
          <ns3:TrackPointExtension>
            <ns3:atemp>26.0</ns3:atemp>
            <ns3:hr>145</ns3:hr>
          </ns3:TrackPointExtension>
        </extensions>
      </trkpt>
      <trkpt lat="47.00783193111419677734375" lon="6.91412807442247867584228515625">
        <ele>771.4000244140625</ele>
        <time>2019-06-19T10:17:51.000Z</time>
        <extensions>
          <ns3:TrackPointExtension>
            <ns3:atemp>26.0</ns3:atemp>
            <ns3:hr>144</ns3:hr>
          </ns3:TrackPointExtension>
        </extensions>
      </trkpt>
      <trkpt lat="47.00796763412654399871826171875" lon="6.9140694849193096160888671875">
        <ele>771.5999755859375</ele>
        <time>2019-06-19T10:17:56.000Z</time>
        <extensions>
          <ns3:TrackPointExtension>
            <ns3:atemp>26.0</ns3:atemp>
            <ns3:hr>144</ns3:hr>
          </ns3:TrackPointExtension>
        </extensions>
      </trkpt>
      <trkpt lat="47.0080493576824665069580078125" lon="6.91403721459209918975830078125">
        <ele>771.5999755859375</ele>
        <time>2019-06-19T10:18:01.000Z</time>
        <extensions>
          <ns3:TrackPointExtension>
            <ns3:atemp>26.0</ns3:atemp>
            <ns3:hr>144</ns3:hr>
          </ns3:TrackPointExtension>
        </extensions>
      </trkpt>
      <trkpt lat="47.00806796550750732421875" lon="6.91402799449861049652099609375">
        <ele>771.79998779296875</ele>
        <time>2019-06-19T10:18:02.000Z</time>
        <extensions>
          <ns3:TrackPointExtension>
            <ns3:atemp>26.0</ns3:atemp>
            <ns3:hr>144</ns3:hr>
          </ns3:TrackPointExtension>
        </extensions>
      </trkpt>
      <trkpt lat="47.008103169500827789306640625" lon="6.91402413882315158843994140625">
        <ele>772.20001220703125</ele>
        <time>2019-06-19T10:18:04.000Z</time>
        <extensions>
          <ns3:TrackPointExtension>
            <ns3:atemp>26.0</ns3:atemp>
            <ns3:hr>143</ns3:hr>
          </ns3:TrackPointExtension>
        </extensions>
      </trkpt>
      <trkpt lat="47.00815580785274505615234375" lon="6.91399530507624149322509765625">
        <ele>772.5999755859375</ele>
        <time>2019-06-19T10:18:07.000Z</time>
        <extensions>
          <ns3:TrackPointExtension>
            <ns3:atemp>26.0</ns3:atemp>
            <ns3:hr>143</ns3:hr>
          </ns3:TrackPointExtension>
        </extensions>
      </trkpt>
      <trkpt lat="47.0082297362387180328369140625" lon="6.913974769413471221923828125">
        <ele>773.20001220703125</ele>
        <time>2019-06-19T10:18:12.000Z</time>
        <extensions>
          <ns3:TrackPointExtension>
            <ns3:atemp>26.0</ns3:atemp>
            <ns3:hr>142</ns3:hr>
          </ns3:TrackPointExtension>
        </extensions>
      </trkpt>
      <trkpt lat="47.008256725966930389404296875" lon="6.91397510468959808349609375">
        <ele>773.20001220703125</ele>
        <time>2019-06-19T10:18:13.000Z</time>
        <extensions>
          <ns3:TrackPointExtension>
            <ns3:atemp>26.0</ns3:atemp>
            <ns3:hr>142</ns3:hr>
          </ns3:TrackPointExtension>
        </extensions>
      </trkpt>
      <trkpt lat="47.00832084752619266510009765625" lon="6.9139447622001171112060546875">
        <ele>773.79998779296875</ele>
        <time>2019-06-19T10:18:16.000Z</time>
        <extensions>
          <ns3:TrackPointExtension>
            <ns3:atemp>26.0</ns3:atemp>
            <ns3:hr>142</ns3:hr>
          </ns3:TrackPointExtension>
        </extensions>
      </trkpt>
      <trkpt lat="47.0083330012857913970947265625" lon="6.91394099034368991851806640625">
        <ele>773.79998779296875</ele>
        <time>2019-06-19T10:18:17.000Z</time>
        <extensions>
          <ns3:TrackPointExtension>
            <ns3:atemp>26.0</ns3:atemp>
            <ns3:hr>142</ns3:hr>
          </ns3:TrackPointExtension>
        </extensions>
      </trkpt>
      <trkpt lat="47.00843282975256443023681640625" lon="6.91389522515237331390380859375">
        <ele>774.4000244140625</ele>
        <time>2019-06-19T10:18:22.000Z</time>
        <extensions>
          <ns3:TrackPointExtension>
            <ns3:atemp>26.0</ns3:atemp>
            <ns3:hr>141</ns3:hr>
          </ns3:TrackPointExtension>
        </extensions>
      </trkpt>
      <trkpt lat="47.00863315723836421966552734375" lon="6.91382766701281070709228515625">
        <ele>775.4000244140625</ele>
        <time>2019-06-19T10:18:29.000Z</time>
        <extensions>
          <ns3:TrackPointExtension>
            <ns3:atemp>26.0</ns3:atemp>
            <ns3:hr>140</ns3:hr>
          </ns3:TrackPointExtension>
        </extensions>
      </trkpt>
      <trkpt lat="47.0086666010320186614990234375" lon="6.91380989737808704376220703125">
        <ele>775.79998779296875</ele>
        <time>2019-06-19T10:18:31.000Z</time>
        <extensions>
          <ns3:TrackPointExtension>
            <ns3:atemp>26.0</ns3:atemp>
            <ns3:hr>140</ns3:hr>
          </ns3:TrackPointExtension>
        </extensions>
      </trkpt>
      <trkpt lat="47.0086853764951229095458984375" lon="6.91375390626490116119384765625">
        <ele>776.20001220703125</ele>
        <time>2019-06-19T10:18:34.000Z</time>
        <extensions>
          <ns3:TrackPointExtension>
            <ns3:atemp>26.0</ns3:atemp>
            <ns3:hr>139</ns3:hr>
          </ns3:TrackPointExtension>
        </extensions>
      </trkpt>
      <trkpt lat="47.00869116000831127166748046875" lon="6.91373714245855808258056640625">
        <ele>776.5999755859375</ele>
        <time>2019-06-19T10:18:35.000Z</time>
        <extensions>
          <ns3:TrackPointExtension>
            <ns3:atemp>26.0</ns3:atemp>
            <ns3:hr>139</ns3:hr>
          </ns3:TrackPointExtension>
        </extensions>
      </trkpt>
      <trkpt lat="47.00869350694119930267333984375" lon="6.913719289004802703857421875">
        <ele>776.5999755859375</ele>
        <time>2019-06-19T10:18:36.000Z</time>
        <extensions>
          <ns3:TrackPointExtension>
            <ns3:atemp>26.0</ns3:atemp>
            <ns3:hr>139</ns3:hr>
          </ns3:TrackPointExtension>
        </extensions>
      </trkpt>
      <trkpt lat="47.008730135858058929443359375" lon="6.91361828707158565521240234375">
        <ele>777</ele>
        <time>2019-06-19T10:18:39.000Z</time>
        <extensions>
          <ns3:TrackPointExtension>
            <ns3:atemp>26.0</ns3:atemp>
            <ns3:hr>140</ns3:hr>
          </ns3:TrackPointExtension>
        </extensions>
      </trkpt>
      <trkpt lat="47.0087909884750843048095703125" lon="6.9134790636599063873291015625">
        <ele>777.20001220703125</ele>
        <time>2019-06-19T10:18:44.000Z</time>
        <extensions>
          <ns3:TrackPointExtension>
            <ns3:atemp>26.0</ns3:atemp>
            <ns3:hr>140</ns3:hr>
          </ns3:TrackPointExtension>
        </extensions>
      </trkpt>
      <trkpt lat="47.008873634040355682373046875" lon="6.913347132503986358642578125">
        <ele>777.5999755859375</ele>
        <time>2019-06-19T10:18:49.000Z</time>
        <extensions>
          <ns3:TrackPointExtension>
            <ns3:atemp>26.0</ns3:atemp>
            <ns3:hr>142</ns3:hr>
          </ns3:TrackPointExtension>
        </extensions>
      </trkpt>
      <trkpt lat="47.0089358277618885040283203125" lon="6.91325635649263858795166015625">
        <ele>778.79998779296875</ele>
        <time>2019-06-19T10:18:54.000Z</time>
        <extensions>
          <ns3:TrackPointExtension>
            <ns3:atemp>26.0</ns3:atemp>
            <ns3:hr>141</ns3:hr>
          </ns3:TrackPointExtension>
        </extensions>
      </trkpt>
      <trkpt lat="47.00897916220128536224365234375" lon="6.91322400234639644622802734375">
        <ele>779.4000244140625</ele>
        <time>2019-06-19T10:18:57.000Z</time>
        <extensions>
          <ns3:TrackPointExtension>
            <ns3:atemp>26.0</ns3:atemp>
            <ns3:hr>141</ns3:hr>
          </ns3:TrackPointExtension>
        </extensions>
      </trkpt>
      <trkpt lat="47.00904319994151592254638671875" lon="6.91319768317043781280517578125">
        <ele>779.79998779296875</ele>
        <time>2019-06-19T10:19:00.000Z</time>
        <extensions>
          <ns3:TrackPointExtension>
            <ns3:atemp>26.0</ns3:atemp>
            <ns3:hr>141</ns3:hr>
          </ns3:TrackPointExtension>
        </extensions>
      </trkpt>
      <trkpt lat="47.0090702734887599945068359375" lon="6.91319684498012065887451171875">
        <ele>780</ele>
        <time>2019-06-19T10:19:01.000Z</time>
        <extensions>
          <ns3:TrackPointExtension>
            <ns3:atemp>26.0</ns3:atemp>
            <ns3:hr>142</ns3:hr>
          </ns3:TrackPointExtension>
        </extensions>
      </trkpt>
      <trkpt lat="47.00915266759693622589111328125" lon="6.91316549666225910186767578125">
        <ele>781.20001220703125</ele>
        <time>2019-06-19T10:19:05.000Z</time>
        <extensions>
          <ns3:TrackPointExtension>
            <ns3:atemp>26.0</ns3:atemp>
            <ns3:hr>142</ns3:hr>
          </ns3:TrackPointExtension>
        </extensions>
      </trkpt>
      <trkpt lat="47.00919155962765216827392578125" lon="6.9131456315517425537109375">
        <ele>781.4000244140625</ele>
        <time>2019-06-19T10:19:07.000Z</time>
        <extensions>
          <ns3:TrackPointExtension>
            <ns3:atemp>26.0</ns3:atemp>
            <ns3:hr>145</ns3:hr>
          </ns3:TrackPointExtension>
        </extensions>
      </trkpt>
      <trkpt lat="47.0092114247381687164306640625" lon="6.91313364543020725250244140625">
        <ele>782.4000244140625</ele>
        <time>2019-06-19T10:19:09.000Z</time>
        <extensions>
          <ns3:TrackPointExtension>
            <ns3:atemp>26.0</ns3:atemp>
            <ns3:hr>146</ns3:hr>
          </ns3:TrackPointExtension>
        </extensions>
      </trkpt>
      <trkpt lat="47.009227015078067779541015625" lon="6.91312325187027454376220703125">
        <ele>782.79998779296875</ele>
        <time>2019-06-19T10:19:10.000Z</time>
        <extensions>
          <ns3:TrackPointExtension>
            <ns3:atemp>26.0</ns3:atemp>
            <ns3:hr>147</ns3:hr>
          </ns3:TrackPointExtension>
        </extensions>
      </trkpt>
      <trkpt lat="47.0092576928436756134033203125" lon="6.913132555782794952392578125">
        <ele>783.4000244140625</ele>
        <time>2019-06-19T10:19:12.000Z</time>
        <extensions>
          <ns3:TrackPointExtension>
            <ns3:atemp>26.0</ns3:atemp>
            <ns3:hr>148</ns3:hr>
          </ns3:TrackPointExtension>
        </extensions>
      </trkpt>
      <trkpt lat="47.009277306497097015380859375" lon="6.9131199829280376434326171875">
        <ele>783.5999755859375</ele>
        <time>2019-06-19T10:19:13.000Z</time>
        <extensions>
          <ns3:TrackPointExtension>
            <ns3:atemp>26.0</ns3:atemp>
            <ns3:hr>149</ns3:hr>
          </ns3:TrackPointExtension>
        </extensions>
      </trkpt>
      <trkpt lat="47.00931829400360584259033203125" lon="6.91308637149631977081298828125">
        <ele>784</ele>
        <time>2019-06-19T10:19:15.000Z</time>
        <extensions>
          <ns3:TrackPointExtension>
            <ns3:atemp>26.0</ns3:atemp>
            <ns3:hr>151</ns3:hr>
          </ns3:TrackPointExtension>
        </extensions>
      </trkpt>
      <trkpt lat="47.00934000313282012939453125" lon="6.91308620385825634002685546875">
        <ele>784.4000244140625</ele>
        <time>2019-06-19T10:19:17.000Z</time>
        <extensions>
          <ns3:TrackPointExtension>
            <ns3:atemp>26.0</ns3:atemp>
            <ns3:hr>146</ns3:hr>
          </ns3:TrackPointExtension>
        </extensions>
      </trkpt>
      <trkpt lat="47.00935265980660915374755859375" lon="6.913084276020526885986328125">
        <ele>784.79998779296875</ele>
        <time>2019-06-19T10:19:18.000Z</time>
        <extensions>
          <ns3:TrackPointExtension>
            <ns3:atemp>26.0</ns3:atemp>
            <ns3:hr>146</ns3:hr>
          </ns3:TrackPointExtension>
        </extensions>
      </trkpt>
      <trkpt lat="47.0093783922493457794189453125" lon="6.9130747206509113311767578125">
        <ele>785.4000244140625</ele>
        <time>2019-06-19T10:19:20.000Z</time>
        <extensions>
          <ns3:TrackPointExtension>
            <ns3:atemp>26.0</ns3:atemp>
            <ns3:hr>144</ns3:hr>
          </ns3:TrackPointExtension>
        </extensions>
      </trkpt>
      <trkpt lat="47.00940035283565521240234375" lon="6.91307161934673786163330078125">
        <ele>785.79998779296875</ele>
        <time>2019-06-19T10:19:21.000Z</time>
        <extensions>
          <ns3:TrackPointExtension>
            <ns3:atemp>26.0</ns3:atemp>
            <ns3:hr>144</ns3:hr>
          </ns3:TrackPointExtension>
        </extensions>
      </trkpt>
      <trkpt lat="47.00944754295051097869873046875" lon="6.913077570497989654541015625">
        <ele>787.20001220703125</ele>
        <time>2019-06-19T10:19:24.000Z</time>
        <extensions>
          <ns3:TrackPointExtension>
            <ns3:atemp>26.0</ns3:atemp>
            <ns3:hr>144</ns3:hr>
          </ns3:TrackPointExtension>
        </extensions>
      </trkpt>
      <trkpt lat="47.00948878191411495208740234375" lon="6.91306851804256439208984375">
        <ele>788.4000244140625</ele>
        <time>2019-06-19T10:19:27.000Z</time>
        <extensions>
          <ns3:TrackPointExtension>
            <ns3:atemp>26.0</ns3:atemp>
            <ns3:hr>144</ns3:hr>
          </ns3:TrackPointExtension>
        </extensions>
      </trkpt>
      <trkpt lat="47.0095403306186199188232421875" lon="6.9130123592913150787353515625">
        <ele>788.79998779296875</ele>
        <time>2019-06-19T10:19:33.000Z</time>
        <extensions>
          <ns3:TrackPointExtension>
            <ns3:atemp>26.0</ns3:atemp>
            <ns3:hr>143</ns3:hr>
          </ns3:TrackPointExtension>
        </extensions>
      </trkpt>
      <trkpt lat="47.00958735309541225433349609375" lon="6.91297992132604122161865234375">
        <ele>789</ele>
        <time>2019-06-19T10:19:38.000Z</time>
        <extensions>
          <ns3:TrackPointExtension>
            <ns3:atemp>26.0</ns3:atemp>
            <ns3:hr>142</ns3:hr>
          </ns3:TrackPointExtension>
        </extensions>
      </trkpt>
      <trkpt lat="47.00963177718222141265869140625" lon="6.9129717908799648284912109375">
        <ele>789.20001220703125</ele>
        <time>2019-06-19T10:19:42.000Z</time>
        <extensions>
          <ns3:TrackPointExtension>
            <ns3:atemp>26.0</ns3:atemp>
            <ns3:hr>145</ns3:hr>
          </ns3:TrackPointExtension>
        </extensions>
      </trkpt>
      <trkpt lat="47.0096409134566783905029296875" lon="6.91297086887061595916748046875">
        <ele>789.4000244140625</ele>
        <time>2019-06-19T10:19:43.000Z</time>
        <extensions>
          <ns3:TrackPointExtension>
            <ns3:atemp>26.0</ns3:atemp>
            <ns3:hr>149</ns3:hr>
          </ns3:TrackPointExtension>
        </extensions>
      </trkpt>
      <trkpt lat="47.00965541414916515350341796875" lon="6.912971623241901397705078125">
        <ele>789.4000244140625</ele>
        <time>2019-06-19T10:19:44.000Z</time>
        <extensions>
          <ns3:TrackPointExtension>
            <ns3:atemp>26.0</ns3:atemp>
            <ns3:hr>151</ns3:hr>
          </ns3:TrackPointExtension>
        </extensions>
      </trkpt>
      <trkpt lat="47.00967100448906421661376953125" lon="6.912977993488311767578125">
        <ele>789.5999755859375</ele>
        <time>2019-06-19T10:19:45.000Z</time>
        <extensions>
          <ns3:TrackPointExtension>
            <ns3:atemp>26.0</ns3:atemp>
            <ns3:hr>153</ns3:hr>
          </ns3:TrackPointExtension>
        </extensions>
      </trkpt>
      <trkpt lat="47.00971241109073162078857421875" lon="6.91298947669565677642822265625">
        <ele>789.79998779296875</ele>
        <time>2019-06-19T10:19:48.000Z</time>
        <extensions>
          <ns3:TrackPointExtension>
            <ns3:atemp>26.0</ns3:atemp>
            <ns3:hr>153</ns3:hr>
          </ns3:TrackPointExtension>
        </extensions>
      </trkpt>
      <trkpt lat="47.0097671449184417724609375" lon="6.91300037316977977752685546875">
        <ele>790</ele>
        <time>2019-06-19T10:19:52.000Z</time>
        <extensions>
          <ns3:TrackPointExtension>
            <ns3:atemp>26.0</ns3:atemp>
            <ns3:hr>151</ns3:hr>
          </ns3:TrackPointExtension>
        </extensions>
      </trkpt>
      <trkpt lat="47.009776532649993896484375" lon="6.9130069948732852935791015625">
        <ele>790.20001220703125</ele>
        <time>2019-06-19T10:19:53.000Z</time>
        <extensions>
          <ns3:TrackPointExtension>
            <ns3:atemp>26.0</ns3:atemp>
            <ns3:hr>151</ns3:hr>
          </ns3:TrackPointExtension>
        </extensions>
      </trkpt>
      <trkpt lat="47.009794972836971282958984375" lon="6.91300422884523868560791015625">
        <ele>790.5999755859375</ele>
        <time>2019-06-19T10:19:54.000Z</time>
        <extensions>
          <ns3:TrackPointExtension>
            <ns3:atemp>26.0</ns3:atemp>
            <ns3:hr>151</ns3:hr>
          </ns3:TrackPointExtension>
        </extensions>
      </trkpt>
      <trkpt lat="47.00985507108271121978759765625" lon="6.91299517638981342315673828125">
        <ele>791.4000244140625</ele>
        <time>2019-06-19T10:19:58.000Z</time>
        <extensions>
          <ns3:TrackPointExtension>
            <ns3:atemp>26.0</ns3:atemp>
            <ns3:hr>149</ns3:hr>
          </ns3:TrackPointExtension>
        </extensions>
      </trkpt>
      <trkpt lat="47.0098715834319591522216796875" lon="6.91299475729465484619140625">
        <ele>791.4000244140625</ele>
        <time>2019-06-19T10:19:59.000Z</time>
        <extensions>
          <ns3:TrackPointExtension>
            <ns3:atemp>26.0</ns3:atemp>
            <ns3:hr>149</ns3:hr>
          </ns3:TrackPointExtension>
        </extensions>
      </trkpt>
      <trkpt lat="47.00991399586200714111328125" lon="6.9129860401153564453125">
        <ele>791.5999755859375</ele>
        <time>2019-06-19T10:20:02.000Z</time>
        <extensions>
          <ns3:TrackPointExtension>
            <ns3:atemp>26.0</ns3:atemp>
            <ns3:hr>150</ns3:hr>
          </ns3:TrackPointExtension>
        </extensions>
      </trkpt>
      <trkpt lat="47.00996286235749721527099609375" lon="6.912984363734722137451171875">
        <ele>792.20001220703125</ele>
        <time>2019-06-19T10:20:05.000Z</time>
        <extensions>
          <ns3:TrackPointExtension>
            <ns3:atemp>26.0</ns3:atemp>
            <ns3:hr>152</ns3:hr>
          </ns3:TrackPointExtension>
        </extensions>
      </trkpt>
      <trkpt lat="47.01000276021659374237060546875" lon="6.9129533506929874420166015625">
        <ele>792.4000244140625</ele>
        <time>2019-06-19T10:20:08.000Z</time>
        <extensions>
          <ns3:TrackPointExtension>
            <ns3:atemp>26.0</ns3:atemp>
            <ns3:hr>149</ns3:hr>
          </ns3:TrackPointExtension>
        </extensions>
      </trkpt>
      <trkpt lat="47.01003025285899639129638671875" lon="6.91294790245592594146728515625">
        <ele>792.79998779296875</ele>
        <time>2019-06-19T10:20:10.000Z</time>
        <extensions>
          <ns3:TrackPointExtension>
            <ns3:atemp>26.0</ns3:atemp>
            <ns3:hr>150</ns3:hr>
          </ns3:TrackPointExtension>
        </extensions>
      </trkpt>
      <trkpt lat="47.0100600086152553558349609375" lon="6.9129444658756256103515625">
        <ele>793</ele>
        <time>2019-06-19T10:20:12.000Z</time>
        <extensions>
          <ns3:TrackPointExtension>
            <ns3:atemp>26.0</ns3:atemp>
            <ns3:hr>151</ns3:hr>
          </ns3:TrackPointExtension>
        </extensions>
      </trkpt>
      <trkpt lat="47.01012010686099529266357421875" lon="6.9129486568272113800048828125">
        <ele>793.79998779296875</ele>
        <time>2019-06-19T10:20:17.000Z</time>
        <extensions>
          <ns3:TrackPointExtension>
            <ns3:atemp>26.0</ns3:atemp>
            <ns3:hr>150</ns3:hr>
          </ns3:TrackPointExtension>
        </extensions>
      </trkpt>
      <trkpt lat="47.01013435609638690948486328125" lon="6.91295125521719455718994140625">
        <ele>794</ele>
        <time>2019-06-19T10:20:18.000Z</time>
        <extensions>
          <ns3:TrackPointExtension>
            <ns3:atemp>26.0</ns3:atemp>
            <ns3:hr>153</ns3:hr>
          </ns3:TrackPointExtension>
        </extensions>
      </trkpt>
      <trkpt lat="47.0101820491254329681396484375" lon="6.912956200540065765380859375">
        <ele>794.79998779296875</ele>
        <time>2019-06-19T10:20:22.000Z</time>
        <extensions>
          <ns3:TrackPointExtension>
            <ns3:atemp>26.0</ns3:atemp>
            <ns3:hr>152</ns3:hr>
          </ns3:TrackPointExtension>
        </extensions>
      </trkpt>
      <trkpt lat="47.010207362473011016845703125" lon="6.91295075230300426483154296875">
        <ele>795.20001220703125</ele>
        <time>2019-06-19T10:20:24.000Z</time>
        <extensions>
          <ns3:TrackPointExtension>
            <ns3:atemp>26.0</ns3:atemp>
            <ns3:hr>154</ns3:hr>
          </ns3:TrackPointExtension>
        </extensions>
      </trkpt>
      <trkpt lat="47.01023359782993793487548828125" lon="6.9129453040659427642822265625">
        <ele>796</ele>
        <time>2019-06-19T10:20:26.000Z</time>
        <extensions>
          <ns3:TrackPointExtension>
            <ns3:atemp>26.0</ns3:atemp>
            <ns3:hr>153</ns3:hr>
          </ns3:TrackPointExtension>
        </extensions>
      </trkpt>
      <trkpt lat="47.01026176102459430694580078125" lon="6.9129402749240398406982421875">
        <ele>797.20001220703125</ele>
        <time>2019-06-19T10:20:29.000Z</time>
        <extensions>
          <ns3:TrackPointExtension>
            <ns3:atemp>26.0</ns3:atemp>
            <ns3:hr>151</ns3:hr>
          </ns3:TrackPointExtension>
        </extensions>
      </trkpt>
      <trkpt lat="47.01027165167033672332763671875" lon="6.9129191525280475616455078125">
        <ele>797.4000244140625</ele>
        <time>2019-06-19T10:20:30.000Z</time>
        <extensions>
          <ns3:TrackPointExtension>
            <ns3:atemp>26.0</ns3:atemp>
            <ns3:hr>152</ns3:hr>
          </ns3:TrackPointExtension>
        </extensions>
      </trkpt>
      <trkpt lat="47.0102943666279315948486328125" lon="6.91289928741753101348876953125">
        <ele>798</ele>
        <time>2019-06-19T10:20:34.000Z</time>
        <extensions>
          <ns3:TrackPointExtension>
            <ns3:atemp>26.0</ns3:atemp>
            <ns3:hr>151</ns3:hr>
          </ns3:TrackPointExtension>
        </extensions>
      </trkpt>
      <trkpt lat="47.01030425727367401123046875" lon="6.9128963537514209747314453125">
        <ele>798.20001220703125</ele>
        <time>2019-06-19T10:20:35.000Z</time>
        <extensions>
          <ns3:TrackPointExtension>
            <ns3:atemp>26.0</ns3:atemp>
            <ns3:hr>149</ns3:hr>
          </ns3:TrackPointExtension>
        </extensions>
      </trkpt>
      <trkpt lat="47.0103342644870281219482421875" lon="6.912906579673290252685546875">
        <ele>798.5999755859375</ele>
        <time>2019-06-19T10:20:37.000Z</time>
        <extensions>
          <ns3:TrackPointExtension>
            <ns3:atemp>25.0</ns3:atemp>
            <ns3:hr>150</ns3:hr>
          </ns3:TrackPointExtension>
        </extensions>
      </trkpt>
      <trkpt lat="47.01040224172174930572509765625" lon="6.91291420720517635345458984375">
        <ele>799.20001220703125</ele>
        <time>2019-06-19T10:20:42.000Z</time>
        <extensions>
          <ns3:TrackPointExtension>
            <ns3:atemp>25.0</ns3:atemp>
            <ns3:hr>150</ns3:hr>
          </ns3:TrackPointExtension>
        </extensions>
      </trkpt>
      <trkpt lat="47.0104479230940341949462890625" lon="6.91290683113038539886474609375">
        <ele>799.4000244140625</ele>
        <time>2019-06-19T10:20:45.000Z</time>
        <extensions>
          <ns3:TrackPointExtension>
            <ns3:atemp>25.0</ns3:atemp>
            <ns3:hr>149</ns3:hr>
          </ns3:TrackPointExtension>
        </extensions>
      </trkpt>
      <trkpt lat="47.01051137410104274749755859375" lon="6.91289685666561126708984375">
        <ele>799.5999755859375</ele>
        <time>2019-06-19T10:20:48.000Z</time>
        <extensions>
          <ns3:TrackPointExtension>
            <ns3:atemp>25.0</ns3:atemp>
            <ns3:hr>151</ns3:hr>
          </ns3:TrackPointExtension>
        </extensions>
      </trkpt>
      <trkpt lat="47.01055747456848621368408203125" lon="6.91290146671235561370849609375">
        <ele>799.5999755859375</ele>
        <time>2019-06-19T10:20:50.000Z</time>
        <extensions>
          <ns3:TrackPointExtension>
            <ns3:atemp>25.0</ns3:atemp>
            <ns3:hr>154</ns3:hr>
          </ns3:TrackPointExtension>
        </extensions>
      </trkpt>
      <trkpt lat="47.0106138847768306732177734375" lon="6.91289819777011871337890625">
        <ele>799.5999755859375</ele>
        <time>2019-06-19T10:20:53.000Z</time>
        <extensions>
          <ns3:TrackPointExtension>
            <ns3:atemp>25.0</ns3:atemp>
            <ns3:hr>155</ns3:hr>
          </ns3:TrackPointExtension>
        </extensions>
      </trkpt>
      <trkpt lat="47.01064489781856536865234375" lon="6.91289224661886692047119140625">
        <ele>799.5999755859375</ele>
        <time>2019-06-19T10:20:55.000Z</time>
        <extensions>
          <ns3:TrackPointExtension>
            <ns3:atemp>25.0</ns3:atemp>
            <ns3:hr>154</ns3:hr>
          </ns3:TrackPointExtension>
        </extensions>
      </trkpt>
      <trkpt lat="47.010779343545436859130859375" lon="6.91287430934607982635498046875">
        <ele>800</ele>
        <time>2019-06-19T10:21:01.000Z</time>
        <extensions>
          <ns3:TrackPointExtension>
            <ns3:atemp>25.0</ns3:atemp>
            <ns3:hr>152</ns3:hr>
          </ns3:TrackPointExtension>
        </extensions>
      </trkpt>
      <trkpt lat="47.0108505897223949432373046875" lon="6.91287497989833354949951171875">
        <ele>800.4000244140625</ele>
        <time>2019-06-19T10:21:04.000Z</time>
        <extensions>
          <ns3:TrackPointExtension>
            <ns3:atemp>26.0</ns3:atemp>
            <ns3:hr>151</ns3:hr>
          </ns3:TrackPointExtension>
        </extensions>
      </trkpt>
      <trkpt lat="47.0108683593571186065673828125" lon="6.912876069545745849609375">
        <ele>800.4000244140625</ele>
        <time>2019-06-19T10:21:05.000Z</time>
        <extensions>
          <ns3:TrackPointExtension>
            <ns3:atemp>26.0</ns3:atemp>
            <ns3:hr>150</ns3:hr>
          </ns3:TrackPointExtension>
        </extensions>
      </trkpt>
      <trkpt lat="47.010905742645263671875" lon="6.912881098687648773193359375">
        <ele>800.79998779296875</ele>
        <time>2019-06-19T10:21:08.000Z</time>
        <extensions>
          <ns3:TrackPointExtension>
            <ns3:atemp>26.0</ns3:atemp>
            <ns3:hr>150</ns3:hr>
          </ns3:TrackPointExtension>
        </extensions>
      </trkpt>
      <trkpt lat="47.0109258592128753662109375" lon="6.91288889385759830474853515625">
        <ele>801</ele>
        <time>2019-06-19T10:21:10.000Z</time>
        <extensions>
          <ns3:TrackPointExtension>
            <ns3:atemp>26.0</ns3:atemp>
            <ns3:hr>149</ns3:hr>
          </ns3:TrackPointExtension>
        </extensions>
      </trkpt>
      <trkpt lat="47.0109515078365802764892578125" lon="6.91289006732404232025146484375">
        <ele>801.4000244140625</ele>
        <time>2019-06-19T10:21:12.000Z</time>
        <extensions>
          <ns3:TrackPointExtension>
            <ns3:atemp>26.0</ns3:atemp>
            <ns3:hr>149</ns3:hr>
          </ns3:TrackPointExtension>
        </extensions>
      </trkpt>
      <trkpt lat="47.010956704616546630859375" lon="6.9128908216953277587890625">
        <ele>801.5999755859375</ele>
        <time>2019-06-19T10:21:13.000Z</time>
        <extensions>
          <ns3:TrackPointExtension>
            <ns3:atemp>26.0</ns3:atemp>
            <ns3:hr>148</ns3:hr>
          </ns3:TrackPointExtension>
        </extensions>
      </trkpt>
      <trkpt lat="47.010970450937747955322265625" lon="6.91289526410400867462158203125">
        <ele>801.79998779296875</ele>
        <time>2019-06-19T10:21:14.000Z</time>
        <extensions>
          <ns3:TrackPointExtension>
            <ns3:atemp>26.0</ns3:atemp>
            <ns3:hr>148</ns3:hr>
          </ns3:TrackPointExtension>
        </extensions>
      </trkpt>
      <trkpt lat="47.0110494084656238555908203125" lon="6.91291588358581066131591796875">
        <ele>802.20001220703125</ele>
        <time>2019-06-19T10:21:18.000Z</time>
        <extensions>
          <ns3:TrackPointExtension>
            <ns3:atemp>26.0</ns3:atemp>
            <ns3:hr>147</ns3:hr>
          </ns3:TrackPointExtension>
        </extensions>
      </trkpt>
      <trkpt lat="47.0110789127647876739501953125" lon="6.91292275674641132354736328125">
        <ele>802.5999755859375</ele>
        <time>2019-06-19T10:21:20.000Z</time>
        <extensions>
          <ns3:TrackPointExtension>
            <ns3:atemp>26.0</ns3:atemp>
            <ns3:hr>147</ns3:hr>
          </ns3:TrackPointExtension>
        </extensions>
      </trkpt>
      <trkpt lat="47.0111667551100254058837890625" lon="6.91296516917645931243896484375">
        <ele>803.4000244140625</ele>
        <time>2019-06-19T10:21:26.000Z</time>
        <extensions>
          <ns3:TrackPointExtension>
            <ns3:atemp>26.0</ns3:atemp>
            <ns3:hr>147</ns3:hr>
          </ns3:TrackPointExtension>
        </extensions>
      </trkpt>
      <trkpt lat="47.01121495105326175689697265625" lon="6.91300204955041408538818359375">
        <ele>803.79998779296875</ele>
        <time>2019-06-19T10:21:28.000Z</time>
        <extensions>
          <ns3:TrackPointExtension>
            <ns3:atemp>26.0</ns3:atemp>
            <ns3:hr>147</ns3:hr>
          </ns3:TrackPointExtension>
        </extensions>
      </trkpt>
      <trkpt lat="47.011280246078968048095703125" lon="6.91308251582086086273193359375">
        <ele>805</ele>
        <time>2019-06-19T10:21:32.000Z</time>
        <extensions>
          <ns3:TrackPointExtension>
            <ns3:atemp>26.0</ns3:atemp>
            <ns3:hr>145</ns3:hr>
          </ns3:TrackPointExtension>
        </extensions>
      </trkpt>
      <trkpt lat="47.0113384164869785308837890625" lon="6.9131561927497386932373046875">
        <ele>806</ele>
        <time>2019-06-19T10:21:37.000Z</time>
        <extensions>
          <ns3:TrackPointExtension>
            <ns3:atemp>26.0</ns3:atemp>
            <ns3:hr>144</ns3:hr>
          </ns3:TrackPointExtension>
        </extensions>
      </trkpt>
      <trkpt lat="47.01135375536978244781494140625" lon="6.91317371092736721038818359375">
        <ele>806.20001220703125</ele>
        <time>2019-06-19T10:21:38.000Z</time>
        <extensions>
          <ns3:TrackPointExtension>
            <ns3:atemp>26.0</ns3:atemp>
            <ns3:hr>144</ns3:hr>
          </ns3:TrackPointExtension>
        </extensions>
      </trkpt>
      <trkpt lat="47.01139952056109905242919921875" lon="6.913231126964092254638671875">
        <ele>807.20001220703125</ele>
        <time>2019-06-19T10:21:42.000Z</time>
        <extensions>
          <ns3:TrackPointExtension>
            <ns3:atemp>26.0</ns3:atemp>
            <ns3:hr>148</ns3:hr>
          </ns3:TrackPointExtension>
        </extensions>
      </trkpt>
      <trkpt lat="47.0114074833691120147705078125" lon="6.91324126906692981719970703125">
        <ele>807.4000244140625</ele>
        <time>2019-06-19T10:21:43.000Z</time>
        <extensions>
          <ns3:TrackPointExtension>
            <ns3:atemp>26.0</ns3:atemp>
            <ns3:hr>147</ns3:hr>
          </ns3:TrackPointExtension>
        </extensions>
      </trkpt>
      <trkpt lat="47.01142005622386932373046875" lon="6.91325367428362369537353515625">
        <ele>807.5999755859375</ele>
        <time>2019-06-19T10:21:44.000Z</time>
        <extensions>
          <ns3:TrackPointExtension>
            <ns3:atemp>26.0</ns3:atemp>
            <ns3:hr>146</ns3:hr>
          </ns3:TrackPointExtension>
        </extensions>
      </trkpt>
      <trkpt lat="47.01144226826727390289306640625" lon="6.91328083164989948272705078125">
        <ele>808</ele>
        <time>2019-06-19T10:21:46.000Z</time>
        <extensions>
          <ns3:TrackPointExtension>
            <ns3:atemp>26.0</ns3:atemp>
            <ns3:hr>149</ns3:hr>
          </ns3:TrackPointExtension>
        </extensions>
      </trkpt>
      <trkpt lat="47.01145484112203121185302734375" lon="6.9132889620959758758544921875">
        <ele>808.20001220703125</ele>
        <time>2019-06-19T10:21:47.000Z</time>
        <extensions>
          <ns3:TrackPointExtension>
            <ns3:atemp>26.0</ns3:atemp>
            <ns3:hr>149</ns3:hr>
          </ns3:TrackPointExtension>
        </extensions>
      </trkpt>
      <trkpt lat="47.01148836873471736907958984375" lon="6.91331653855741024017333984375">
        <ele>808.4000244140625</ele>
        <time>2019-06-19T10:21:49.000Z</time>
        <extensions>
          <ns3:TrackPointExtension>
            <ns3:atemp>26.0</ns3:atemp>
            <ns3:hr>150</ns3:hr>
          </ns3:TrackPointExtension>
        </extensions>
      </trkpt>
      <trkpt lat="47.01150295324623584747314453125" lon="6.91333430819213390350341796875">
        <ele>808.5999755859375</ele>
        <time>2019-06-19T10:21:50.000Z</time>
        <extensions>
          <ns3:TrackPointExtension>
            <ns3:atemp>26.0</ns3:atemp>
            <ns3:hr>151</ns3:hr>
          </ns3:TrackPointExtension>
        </extensions>
      </trkpt>
      <trkpt lat="47.0115241594612598419189453125" lon="6.9133744575083255767822265625">
        <ele>809</ele>
        <time>2019-06-19T10:21:53.000Z</time>
        <extensions>
          <ns3:TrackPointExtension>
            <ns3:atemp>26.0</ns3:atemp>
            <ns3:hr>151</ns3:hr>
          </ns3:TrackPointExtension>
        </extensions>
      </trkpt>
      <trkpt lat="47.01153413392603397369384765625" lon="6.91341142170131206512451171875">
        <ele>809.20001220703125</ele>
        <time>2019-06-19T10:21:55.000Z</time>
        <extensions>
          <ns3:TrackPointExtension>
            <ns3:atemp>26.0</ns3:atemp>
            <ns3:hr>152</ns3:hr>
          </ns3:TrackPointExtension>
        </extensions>
      </trkpt>
      <trkpt lat="47.01155818998813629150390625" lon="6.91345735453069210052490234375">
        <ele>809.5999755859375</ele>
        <time>2019-06-19T10:21:59.000Z</time>
        <extensions>
          <ns3:TrackPointExtension>
            <ns3:atemp>26.0</ns3:atemp>
            <ns3:hr>151</ns3:hr>
          </ns3:TrackPointExtension>
        </extensions>
      </trkpt>
      <trkpt lat="47.01157168485224246978759765625" lon="6.9134787283837795257568359375">
        <ele>810</ele>
        <time>2019-06-19T10:22:01.000Z</time>
        <extensions>
          <ns3:TrackPointExtension>
            <ns3:atemp>26.0</ns3:atemp>
            <ns3:hr>150</ns3:hr>
          </ns3:TrackPointExtension>
        </extensions>
      </trkpt>
      <trkpt lat="47.011592723429203033447265625" lon="6.9135072268545627593994140625">
        <ele>810.20001220703125</ele>
        <time>2019-06-19T10:22:03.000Z</time>
        <extensions>
          <ns3:TrackPointExtension>
            <ns3:atemp>26.0</ns3:atemp>
            <ns3:hr>150</ns3:hr>
          </ns3:TrackPointExtension>
        </extensions>
      </trkpt>
      <trkpt lat="47.0116475410759449005126953125" lon="6.91360940225422382354736328125">
        <ele>810.5999755859375</ele>
        <time>2019-06-19T10:22:08.000Z</time>
        <extensions>
          <ns3:TrackPointExtension>
            <ns3:atemp>26.0</ns3:atemp>
            <ns3:hr>148</ns3:hr>
          </ns3:TrackPointExtension>
        </extensions>
      </trkpt>
      <trkpt lat="47.0116607844829559326171875" lon="6.91362532787024974822998046875">
        <ele>810.5999755859375</ele>
        <time>2019-06-19T10:22:09.000Z</time>
        <extensions>
          <ns3:TrackPointExtension>
            <ns3:atemp>26.0</ns3:atemp>
            <ns3:hr>148</ns3:hr>
          </ns3:TrackPointExtension>
        </extensions>
      </trkpt>
      <trkpt lat="47.01171987690031528472900390625" lon="6.913714595139026641845703125">
        <ele>811.79998779296875</ele>
        <time>2019-06-19T10:22:15.000Z</time>
        <extensions>
          <ns3:TrackPointExtension>
            <ns3:atemp>26.0</ns3:atemp>
            <ns3:hr>147</ns3:hr>
          </ns3:TrackPointExtension>
        </extensions>
      </trkpt>
      <trkpt lat="47.01172742061316967010498046875" lon="6.9137305207550525665283203125">
        <ele>811.79998779296875</ele>
        <time>2019-06-19T10:22:16.000Z</time>
        <extensions>
          <ns3:TrackPointExtension>
            <ns3:atemp>26.0</ns3:atemp>
            <ns3:hr>146</ns3:hr>
          </ns3:TrackPointExtension>
        </extensions>
      </trkpt>
      <trkpt lat="47.011793218553066253662109375" lon="6.91384325735270977020263671875">
        <ele>812.5999755859375</ele>
        <time>2019-06-19T10:22:22.000Z</time>
        <extensions>
          <ns3:TrackPointExtension>
            <ns3:atemp>26.0</ns3:atemp>
            <ns3:hr>148</ns3:hr>
          </ns3:TrackPointExtension>
        </extensions>
      </trkpt>
      <trkpt lat="47.011807970702648162841796875" lon="6.9138859212398529052734375">
        <ele>812.79998779296875</ele>
        <time>2019-06-19T10:22:25.000Z</time>
        <extensions>
          <ns3:TrackPointExtension>
            <ns3:atemp>26.0</ns3:atemp>
            <ns3:hr>149</ns3:hr>
          </ns3:TrackPointExtension>
        </extensions>
      </trkpt>
      <trkpt lat="47.01182506978511810302734375" lon="6.91392322070896625518798828125">
        <ele>813</ele>
        <time>2019-06-19T10:22:27.000Z</time>
        <extensions>
          <ns3:TrackPointExtension>
            <ns3:atemp>26.0</ns3:atemp>
            <ns3:hr>148</ns3:hr>
          </ns3:TrackPointExtension>
        </extensions>
      </trkpt>
      <trkpt lat="47.01190528459846973419189453125" lon="6.9140456803143024444580078125">
        <ele>813.79998779296875</ele>
        <time>2019-06-19T10:22:33.000Z</time>
        <extensions>
          <ns3:TrackPointExtension>
            <ns3:atemp>26.0</ns3:atemp>
            <ns3:hr>146</ns3:hr>
          </ns3:TrackPointExtension>
        </extensions>
      </trkpt>
      <trkpt lat="47.0120367966592311859130859375" lon="6.914165876805782318115234375">
        <ele>812.5999755859375</ele>
        <time>2019-06-19T10:22:38.000Z</time>
        <extensions>
          <ns3:TrackPointExtension>
            <ns3:atemp>26.0</ns3:atemp>
            <ns3:hr>145</ns3:hr>
          </ns3:TrackPointExtension>
        </extensions>
      </trkpt>
      <trkpt lat="47.01212924905121326446533203125" lon="6.91425262950360774993896484375">
        <ele>811.79998779296875</ele>
        <time>2019-06-19T10:22:40.000Z</time>
        <extensions>
          <ns3:TrackPointExtension>
            <ns3:atemp>26.0</ns3:atemp>
            <ns3:hr>145</ns3:hr>
          </ns3:TrackPointExtension>
        </extensions>
      </trkpt>
      <trkpt lat="47.01215925626456737518310546875" lon="6.91429655067622661590576171875">
        <ele>811.5999755859375</ele>
        <time>2019-06-19T10:22:41.000Z</time>
        <extensions>
          <ns3:TrackPointExtension>
            <ns3:atemp>26.0</ns3:atemp>
            <ns3:hr>145</ns3:hr>
          </ns3:TrackPointExtension>
        </extensions>
      </trkpt>
      <trkpt lat="47.012190520763397216796875" lon="6.91432722844183444976806640625">
        <ele>811.4000244140625</ele>
        <time>2019-06-19T10:22:42.000Z</time>
        <extensions>
          <ns3:TrackPointExtension>
            <ns3:atemp>26.0</ns3:atemp>
            <ns3:hr>144</ns3:hr>
          </ns3:TrackPointExtension>
        </extensions>
      </trkpt>
      <trkpt lat="47.012288086116313934326171875" lon="6.9143963791429996490478515625">
        <ele>811.20001220703125</ele>
        <time>2019-06-19T10:22:46.000Z</time>
        <extensions>
          <ns3:TrackPointExtension>
            <ns3:atemp>26.0</ns3:atemp>
            <ns3:hr>145</ns3:hr>
          </ns3:TrackPointExtension>
        </extensions>
      </trkpt>
      <trkpt lat="47.01236955821514129638671875" lon="6.9144706428050994873046875">
        <ele>811.5999755859375</ele>
        <time>2019-06-19T10:22:49.000Z</time>
        <extensions>
          <ns3:TrackPointExtension>
            <ns3:atemp>26.0</ns3:atemp>
            <ns3:hr>140</ns3:hr>
          </ns3:TrackPointExtension>
        </extensions>
      </trkpt>
      <trkpt lat="47.0123930275440216064453125" lon="6.9144939444959163665771484375">
        <ele>811.79998779296875</ele>
        <time>2019-06-19T10:22:50.000Z</time>
        <extensions>
          <ns3:TrackPointExtension>
            <ns3:atemp>25.0</ns3:atemp>
            <ns3:hr>138</ns3:hr>
          </ns3:TrackPointExtension>
        </extensions>
      </trkpt>
      <trkpt lat="47.01242999173700809478759765625" lon="6.9145321659743785858154296875">
        <ele>812.4000244140625</ele>
        <time>2019-06-19T10:22:52.000Z</time>
        <extensions>
          <ns3:TrackPointExtension>
            <ns3:atemp>25.0</ns3:atemp>
            <ns3:hr>142</ns3:hr>
          </ns3:TrackPointExtension>
        </extensions>
      </trkpt>
      <trkpt lat="47.01246050186455249786376953125" lon="6.91453962586820125579833984375">
        <ele>812.5999755859375</ele>
        <time>2019-06-19T10:22:53.000Z</time>
        <extensions>
          <ns3:TrackPointExtension>
            <ns3:atemp>25.0</ns3:atemp>
            <ns3:hr>148</ns3:hr>
          </ns3:TrackPointExtension>
        </extensions>
      </trkpt>
      <trkpt lat="47.01247944496572017669677734375" lon="6.9145430624485015869140625">
        <ele>812.5999755859375</ele>
        <time>2019-06-19T10:22:54.000Z</time>
        <extensions>
          <ns3:TrackPointExtension>
            <ns3:atemp>25.0</ns3:atemp>
            <ns3:hr>147</ns3:hr>
          </ns3:TrackPointExtension>
        </extensions>
      </trkpt>
      <trkpt lat="47.01249704696238040924072265625" lon="6.9145683757960796356201171875">
        <ele>812.5999755859375</ele>
        <time>2019-06-19T10:22:55.000Z</time>
        <extensions>
          <ns3:TrackPointExtension>
            <ns3:atemp>25.0</ns3:atemp>
            <ns3:hr>146</ns3:hr>
          </ns3:TrackPointExtension>
        </extensions>
      </trkpt>
      <trkpt lat="47.0125152356922626495361328125" lon="6.91457633860409259796142578125">
        <ele>812.5999755859375</ele>
        <time>2019-06-19T10:22:56.000Z</time>
        <extensions>
          <ns3:TrackPointExtension>
            <ns3:atemp>25.0</ns3:atemp>
            <ns3:hr>144</ns3:hr>
          </ns3:TrackPointExtension>
        </extensions>
      </trkpt>
      <trkpt lat="47.0125718973577022552490234375" lon="6.91457181237637996673583984375">
        <ele>812.5999755859375</ele>
        <time>2019-06-19T10:22:59.000Z</time>
        <extensions>
          <ns3:TrackPointExtension>
            <ns3:atemp>25.0</ns3:atemp>
            <ns3:hr>144</ns3:hr>
          </ns3:TrackPointExtension>
        </extensions>
      </trkpt>
      <trkpt lat="47.01268295757472515106201171875" lon="6.91463165916502475738525390625">
        <ele>812.79998779296875</ele>
        <time>2019-06-19T10:23:03.000Z</time>
        <extensions>
          <ns3:TrackPointExtension>
            <ns3:atemp>25.0</ns3:atemp>
            <ns3:hr>141</ns3:hr>
          </ns3:TrackPointExtension>
        </extensions>
      </trkpt>
      <trkpt lat="47.01274682767689228057861328125" lon="6.91467910073697566986083984375">
        <ele>812.79998779296875</ele>
        <time>2019-06-19T10:23:05.000Z</time>
        <extensions>
          <ns3:TrackPointExtension>
            <ns3:atemp>25.0</ns3:atemp>
            <ns3:hr>139</ns3:hr>
          </ns3:TrackPointExtension>
        </extensions>
      </trkpt>
      <trkpt lat="47.01286400668323040008544921875" lon="6.91474632360041141510009765625">
        <ele>813.20001220703125</ele>
        <time>2019-06-19T10:23:09.000Z</time>
        <extensions>
          <ns3:TrackPointExtension>
            <ns3:atemp>25.0</ns3:atemp>
            <ns3:hr>138</ns3:hr>
          </ns3:TrackPointExtension>
        </extensions>
      </trkpt>
      <trkpt lat="47.01312803663313388824462890625" lon="6.91481840796768665313720703125">
        <ele>813.5999755859375</ele>
        <time>2019-06-19T10:23:16.000Z</time>
        <extensions>
          <ns3:TrackPointExtension>
            <ns3:atemp>25.0</ns3:atemp>
            <ns3:hr>138</ns3:hr>
          </ns3:TrackPointExtension>
        </extensions>
      </trkpt>
      <trkpt lat="47.01327740214765071868896484375" lon="6.91484682261943817138671875">
        <ele>813.79998779296875</ele>
        <time>2019-06-19T10:23:21.000Z</time>
        <extensions>
          <ns3:TrackPointExtension>
            <ns3:atemp>25.0</ns3:atemp>
            <ns3:hr>137</ns3:hr>
          </ns3:TrackPointExtension>
        </extensions>
      </trkpt>
      <trkpt lat="47.0133222453296184539794921875" lon="6.91484523005783557891845703125">
        <ele>814</ele>
        <time>2019-06-19T10:23:23.000Z</time>
        <extensions>
          <ns3:TrackPointExtension>
            <ns3:atemp>25.0</ns3:atemp>
            <ns3:hr>137</ns3:hr>
          </ns3:TrackPointExtension>
        </extensions>
      </trkpt>
      <trkpt lat="47.013382427394390106201171875" lon="6.91485897637903690338134765625">
        <ele>814.5999755859375</ele>
        <time>2019-06-19T10:23:26.000Z</time>
        <extensions>
          <ns3:TrackPointExtension>
            <ns3:atemp>25.0</ns3:atemp>
            <ns3:hr>138</ns3:hr>
          </ns3:TrackPointExtension>
        </extensions>
      </trkpt>
      <trkpt lat="47.01342073269188404083251953125" lon="6.91487004049122333526611328125">
        <ele>814.79998779296875</ele>
        <time>2019-06-19T10:23:27.000Z</time>
        <extensions>
          <ns3:TrackPointExtension>
            <ns3:atemp>25.0</ns3:atemp>
            <ns3:hr>138</ns3:hr>
          </ns3:TrackPointExtension>
        </extensions>
      </trkpt>
      <trkpt lat="47.01351377181708812713623046875" lon="6.9148711301386356353759765625">
        <ele>815.79998779296875</ele>
        <time>2019-06-19T10:23:30.000Z</time>
        <extensions>
          <ns3:TrackPointExtension>
            <ns3:atemp>25.0</ns3:atemp>
            <ns3:hr>138</ns3:hr>
          </ns3:TrackPointExtension>
        </extensions>
      </trkpt>
      <trkpt lat="47.01354579068720340728759765625" lon="6.91486668772995471954345703125">
        <ele>816</ele>
        <time>2019-06-19T10:23:31.000Z</time>
        <extensions>
          <ns3:TrackPointExtension>
            <ns3:atemp>25.0</ns3:atemp>
            <ns3:hr>138</ns3:hr>
          </ns3:TrackPointExtension>
        </extensions>
      </trkpt>
      <trkpt lat="47.01368308626115322113037109375" lon="6.91479854285717010498046875">
        <ele>816</ele>
        <time>2019-06-19T10:23:36.000Z</time>
        <extensions>
          <ns3:TrackPointExtension>
            <ns3:atemp>25.0</ns3:atemp>
            <ns3:hr>137</ns3:hr>
          </ns3:TrackPointExtension>
        </extensions>
      </trkpt>
      <trkpt lat="47.01380412094295024871826171875" lon="6.914785467088222503662109375">
        <ele>816.20001220703125</ele>
        <time>2019-06-19T10:23:42.000Z</time>
        <extensions>
          <ns3:TrackPointExtension>
            <ns3:atemp>25.0</ns3:atemp>
            <ns3:hr>136</ns3:hr>
          </ns3:TrackPointExtension>
        </extensions>
      </trkpt>
      <trkpt lat="47.01390420086681842803955078125" lon="6.914790160953998565673828125">
        <ele>815.79998779296875</ele>
        <time>2019-06-19T10:23:47.000Z</time>
        <extensions>
          <ns3:TrackPointExtension>
            <ns3:atemp>25.0</ns3:atemp>
            <ns3:hr>134</ns3:hr>
          </ns3:TrackPointExtension>
        </extensions>
      </trkpt>
      <trkpt lat="47.01393135823309421539306640625" lon="6.91480097360908985137939453125">
        <ele>815.79998779296875</ele>
        <time>2019-06-19T10:23:48.000Z</time>
        <extensions>
          <ns3:TrackPointExtension>
            <ns3:atemp>25.0</ns3:atemp>
            <ns3:hr>134</ns3:hr>
          </ns3:TrackPointExtension>
        </extensions>
      </trkpt>
      <trkpt lat="47.0139813981950283050537109375" lon="6.91483885981142520904541015625">
        <ele>815.79998779296875</ele>
        <time>2019-06-19T10:23:51.000Z</time>
        <extensions>
          <ns3:TrackPointExtension>
            <ns3:atemp>25.0</ns3:atemp>
            <ns3:hr>133</ns3:hr>
          </ns3:TrackPointExtension>
        </extensions>
      </trkpt>
      <trkpt lat="47.0141171850264072418212890625" lon="6.914873979985713958740234375">
        <ele>815.5999755859375</ele>
        <time>2019-06-19T10:23:55.000Z</time>
        <extensions>
          <ns3:TrackPointExtension>
            <ns3:atemp>25.0</ns3:atemp>
            <ns3:hr>133</ns3:hr>
          </ns3:TrackPointExtension>
        </extensions>
      </trkpt>
      <trkpt lat="47.014338970184326171875" lon="6.914957128465175628662109375">
        <ele>815.20001220703125</ele>
        <time>2019-06-19T10:24:01.000Z</time>
        <extensions>
          <ns3:TrackPointExtension>
            <ns3:atemp>25.0</ns3:atemp>
            <ns3:hr>133</ns3:hr>
          </ns3:TrackPointExtension>
        </extensions>
      </trkpt>
      <trkpt lat="47.01436269097030162811279296875" lon="6.9149690307676792144775390625">
        <ele>815.20001220703125</ele>
        <time>2019-06-19T10:24:02.000Z</time>
        <extensions>
          <ns3:TrackPointExtension>
            <ns3:atemp>25.0</ns3:atemp>
            <ns3:hr>132</ns3:hr>
          </ns3:TrackPointExtension>
        </extensions>
      </trkpt>
      <trkpt lat="47.01447911560535430908203125" lon="6.91507472656667232513427734375">
        <ele>815</ele>
        <time>2019-06-19T10:24:06.000Z</time>
        <extensions>
          <ns3:TrackPointExtension>
            <ns3:atemp>25.0</ns3:atemp>
            <ns3:hr>133</ns3:hr>
          </ns3:TrackPointExtension>
        </extensions>
      </trkpt>
      <trkpt lat="47.014536447823047637939453125" lon="6.9150984473526477813720703125">
        <ele>814.20001220703125</ele>
        <time>2019-06-19T10:24:07.000Z</time>
        <extensions>
          <ns3:TrackPointExtension>
            <ns3:atemp>25.0</ns3:atemp>
            <ns3:hr>132</ns3:hr>
          </ns3:TrackPointExtension>
        </extensions>
      </trkpt>
      <trkpt lat="47.014652788639068603515625" lon="6.915194503962993621826171875">
        <ele>813.20001220703125</ele>
        <time>2019-06-19T10:24:09.000Z</time>
        <extensions>
          <ns3:TrackPointExtension>
            <ns3:atemp>25.0</ns3:atemp>
            <ns3:hr>132</ns3:hr>
          </ns3:TrackPointExtension>
        </extensions>
      </trkpt>
      <trkpt lat="47.014725543558597564697265625" lon="6.91526524722576141357421875">
        <ele>812.79998779296875</ele>
        <time>2019-06-19T10:24:10.000Z</time>
        <extensions>
          <ns3:TrackPointExtension>
            <ns3:atemp>25.0</ns3:atemp>
            <ns3:hr>131</ns3:hr>
          </ns3:TrackPointExtension>
        </extensions>
      </trkpt>
      <trkpt lat="47.0148162357509136199951171875" lon="6.91534009762108325958251953125">
        <ele>812.20001220703125</ele>
        <time>2019-06-19T10:24:11.000Z</time>
        <extensions>
          <ns3:TrackPointExtension>
            <ns3:atemp>25.0</ns3:atemp>
            <ns3:hr>131</ns3:hr>
          </ns3:TrackPointExtension>
        </extensions>
      </trkpt>
      <trkpt lat="47.01488924212753772735595703125" lon="6.9153958372771739959716796875">
        <ele>812</ele>
        <time>2019-06-19T10:24:12.000Z</time>
        <extensions>
          <ns3:TrackPointExtension>
            <ns3:atemp>25.0</ns3:atemp>
            <ns3:hr>130</ns3:hr>
          </ns3:TrackPointExtension>
        </extensions>
      </trkpt>
      <trkpt lat="47.01495847664773464202880859375" lon="6.91544705070555210113525390625">
        <ele>811.5999755859375</ele>
        <time>2019-06-19T10:24:13.000Z</time>
        <extensions>
          <ns3:TrackPointExtension>
            <ns3:atemp>25.0</ns3:atemp>
            <ns3:hr>130</ns3:hr>
          </ns3:TrackPointExtension>
        </extensions>
      </trkpt>
      <trkpt lat="47.01501865871250629425048828125" lon="6.91547689028084278106689453125">
        <ele>811.20001220703125</ele>
        <time>2019-06-19T10:24:14.000Z</time>
        <extensions>
          <ns3:TrackPointExtension>
            <ns3:atemp>25.0</ns3:atemp>
            <ns3:hr>131</ns3:hr>
          </ns3:TrackPointExtension>
        </extensions>
      </trkpt>
      <trkpt lat="47.01514472253620624542236328125" lon="6.91551142372190952301025390625">
        <ele>811</ele>
        <time>2019-06-19T10:24:15.000Z</time>
        <extensions>
          <ns3:TrackPointExtension>
            <ns3:atemp>25.0</ns3:atemp>
            <ns3:hr>132</ns3:hr>
          </ns3:TrackPointExtension>
        </extensions>
      </trkpt>
      <trkpt lat="47.01525553129613399505615234375" lon="6.91552097909152507781982421875">
        <ele>810.79998779296875</ele>
        <time>2019-06-19T10:24:16.000Z</time>
        <extensions>
          <ns3:TrackPointExtension>
            <ns3:atemp>25.0</ns3:atemp>
            <ns3:hr>131</ns3:hr>
          </ns3:TrackPointExtension>
        </extensions>
      </trkpt>
      <trkpt lat="47.01546323485672473907470703125" lon="6.91562944091856479644775390625">
        <ele>810</ele>
        <time>2019-06-19T10:24:19.000Z</time>
        <extensions>
          <ns3:TrackPointExtension>
            <ns3:atemp>25.0</ns3:atemp>
            <ns3:hr>130</ns3:hr>
          </ns3:TrackPointExtension>
        </extensions>
      </trkpt>
      <trkpt lat="47.015528194606304168701171875" lon="6.9156593643128871917724609375">
        <ele>809.5999755859375</ele>
        <time>2019-06-19T10:24:20.000Z</time>
        <extensions>
          <ns3:TrackPointExtension>
            <ns3:atemp>25.0</ns3:atemp>
            <ns3:hr>129</ns3:hr>
          </ns3:TrackPointExtension>
        </extensions>
      </trkpt>
      <trkpt lat="47.0157109200954437255859375" lon="6.91574159078299999237060546875">
        <ele>809</ele>
        <time>2019-06-19T10:24:22.000Z</time>
        <extensions>
          <ns3:TrackPointExtension>
            <ns3:atemp>25.0</ns3:atemp>
            <ns3:hr>127</ns3:hr>
          </ns3:TrackPointExtension>
        </extensions>
      </trkpt>
      <trkpt lat="47.0158113352954387664794921875" lon="6.915768496692180633544921875">
        <ele>808.79998779296875</ele>
        <time>2019-06-19T10:24:23.000Z</time>
        <extensions>
          <ns3:TrackPointExtension>
            <ns3:atemp>25.0</ns3:atemp>
            <ns3:hr>127</ns3:hr>
          </ns3:TrackPointExtension>
        </extensions>
      </trkpt>
      <trkpt lat="47.015901692211627960205078125" lon="6.91578098572790622711181640625">
        <ele>808.4000244140625</ele>
        <time>2019-06-19T10:24:24.000Z</time>
        <extensions>
          <ns3:TrackPointExtension>
            <ns3:atemp>25.0</ns3:atemp>
            <ns3:hr>127</ns3:hr>
          </ns3:TrackPointExtension>
        </extensions>
      </trkpt>
      <trkpt lat="47.016065977513790130615234375" lon="6.91580110229551792144775390625">
        <ele>807.4000244140625</ele>
        <time>2019-06-19T10:24:26.000Z</time>
        <extensions>
          <ns3:TrackPointExtension>
            <ns3:atemp>25.0</ns3:atemp>
            <ns3:hr>126</ns3:hr>
          </ns3:TrackPointExtension>
        </extensions>
      </trkpt>
      <trkpt lat="47.01617184095084667205810546875" lon="6.91582608036696910858154296875">
        <ele>806.79998779296875</ele>
        <time>2019-06-19T10:24:27.000Z</time>
        <extensions>
          <ns3:TrackPointExtension>
            <ns3:atemp>25.0</ns3:atemp>
            <ns3:hr>126</ns3:hr>
          </ns3:TrackPointExtension>
        </extensions>
      </trkpt>
      <trkpt lat="47.01628130860626697540283203125" lon="6.915867067873477935791015625">
        <ele>806.20001220703125</ele>
        <time>2019-06-19T10:24:28.000Z</time>
        <extensions>
          <ns3:TrackPointExtension>
            <ns3:atemp>25.0</ns3:atemp>
            <ns3:hr>126</ns3:hr>
          </ns3:TrackPointExtension>
        </extensions>
      </trkpt>
      <trkpt lat="47.01638608239591121673583984375" lon="6.9159057922661304473876953125">
        <ele>805</ele>
        <time>2019-06-19T10:24:29.000Z</time>
        <extensions>
          <ns3:TrackPointExtension>
            <ns3:atemp>25.0</ns3:atemp>
            <ns3:hr>125</ns3:hr>
          </ns3:TrackPointExtension>
        </extensions>
      </trkpt>
      <trkpt lat="47.01649940572679042816162109375" lon="6.9159691594541072845458984375">
        <ele>804.20001220703125</ele>
        <time>2019-06-19T10:24:30.000Z</time>
        <extensions>
          <ns3:TrackPointExtension>
            <ns3:atemp>25.0</ns3:atemp>
            <ns3:hr>125</ns3:hr>
          </ns3:TrackPointExtension>
        </extensions>
      </trkpt>
      <trkpt lat="47.01659747399389743804931640625" lon="6.9160217978060245513916015625">
        <ele>803.5999755859375</ele>
        <time>2019-06-19T10:24:31.000Z</time>
        <extensions>
          <ns3:TrackPointExtension>
            <ns3:atemp>25.0</ns3:atemp>
            <ns3:hr>125</ns3:hr>
          </ns3:TrackPointExtension>
        </extensions>
      </trkpt>
      <trkpt lat="47.01679117977619171142578125" lon="6.91612162627279758453369140625">
        <ele>802.4000244140625</ele>
        <time>2019-06-19T10:24:33.000Z</time>
        <extensions>
          <ns3:TrackPointExtension>
            <ns3:atemp>25.0</ns3:atemp>
            <ns3:hr>125</ns3:hr>
          </ns3:TrackPointExtension>
        </extensions>
      </trkpt>
      <trkpt lat="47.01687240041792392730712890625" lon="6.91618734039366245269775390625">
        <ele>802</ele>
        <time>2019-06-19T10:24:34.000Z</time>
        <extensions>
          <ns3:TrackPointExtension>
            <ns3:atemp>25.0</ns3:atemp>
            <ns3:hr>125</ns3:hr>
          </ns3:TrackPointExtension>
        </extensions>
      </trkpt>
      <trkpt lat="47.017029561102390289306640625" lon="6.91629345528781414031982421875">
        <ele>801.4000244140625</ele>
        <time>2019-06-19T10:24:36.000Z</time>
        <extensions>
          <ns3:TrackPointExtension>
            <ns3:atemp>25.0</ns3:atemp>
            <ns3:hr>126</ns3:hr>
          </ns3:TrackPointExtension>
        </extensions>
      </trkpt>
      <trkpt lat="47.01735301874577999114990234375" lon="6.9164325110614299774169921875">
        <ele>801.20001220703125</ele>
        <time>2019-06-19T10:24:39.000Z</time>
        <extensions>
          <ns3:TrackPointExtension>
            <ns3:atemp>25.0</ns3:atemp>
            <ns3:hr>126</ns3:hr>
          </ns3:TrackPointExtension>
        </extensions>
      </trkpt>
      <trkpt lat="47.01777152717113494873046875" lon="6.916689164936542510986328125">
        <ele>800.5999755859375</ele>
        <time>2019-06-19T10:24:44.000Z</time>
        <extensions>
          <ns3:TrackPointExtension>
            <ns3:atemp>24.0</ns3:atemp>
            <ns3:hr>127</ns3:hr>
          </ns3:TrackPointExtension>
        </extensions>
      </trkpt>
      <trkpt lat="47.01790966093540191650390625" lon="6.916804499924182891845703125">
        <ele>800.4000244140625</ele>
        <time>2019-06-19T10:24:46.000Z</time>
        <extensions>
          <ns3:TrackPointExtension>
            <ns3:atemp>24.0</ns3:atemp>
            <ns3:hr>127</ns3:hr>
          </ns3:TrackPointExtension>
        </extensions>
      </trkpt>
      <trkpt lat="47.0179993472993373870849609375" lon="6.91689058206975460052490234375">
        <ele>800.20001220703125</ele>
        <time>2019-06-19T10:24:47.000Z</time>
        <extensions>
          <ns3:TrackPointExtension>
            <ns3:atemp>24.0</ns3:atemp>
            <ns3:hr>126</ns3:hr>
          </ns3:TrackPointExtension>
        </extensions>
      </trkpt>
      <trkpt lat="47.018061541020870208740234375" lon="6.91695981658995151519775390625">
        <ele>800.20001220703125</ele>
        <time>2019-06-19T10:24:48.000Z</time>
        <extensions>
          <ns3:TrackPointExtension>
            <ns3:atemp>24.0</ns3:atemp>
            <ns3:hr>126</ns3:hr>
          </ns3:TrackPointExtension>
        </extensions>
      </trkpt>
      <trkpt lat="47.0183021016418933868408203125" lon="6.91719467751681804656982421875">
        <ele>800.20001220703125</ele>
        <time>2019-06-19T10:24:52.000Z</time>
        <extensions>
          <ns3:TrackPointExtension>
            <ns3:atemp>24.0</ns3:atemp>
            <ns3:hr>125</ns3:hr>
          </ns3:TrackPointExtension>
        </extensions>
      </trkpt>
      <trkpt lat="47.01842606998980045318603515625" lon="6.91729928366839885711669921875">
        <ele>800.20001220703125</ele>
        <time>2019-06-19T10:24:54.000Z</time>
        <extensions>
          <ns3:TrackPointExtension>
            <ns3:atemp>24.0</ns3:atemp>
            <ns3:hr>125</ns3:hr>
          </ns3:TrackPointExtension>
        </extensions>
      </trkpt>
      <trkpt lat="47.01868875883519649505615234375" lon="6.91752090118825435638427734375">
        <ele>799.5999755859375</ele>
        <time>2019-06-19T10:24:58.000Z</time>
        <extensions>
          <ns3:TrackPointExtension>
            <ns3:atemp>24.0</ns3:atemp>
            <ns3:hr>125</ns3:hr>
          </ns3:TrackPointExtension>
        </extensions>
      </trkpt>
      <trkpt lat="47.018824629485607147216796875" lon="6.91761083900928497314453125">
        <ele>799.20001220703125</ele>
        <time>2019-06-19T10:25:00.000Z</time>
        <extensions>
          <ns3:TrackPointExtension>
            <ns3:atemp>24.0</ns3:atemp>
            <ns3:hr>125</ns3:hr>
          </ns3:TrackPointExtension>
        </extensions>
      </trkpt>
      <trkpt lat="47.0190511085093021392822265625" lon="6.91776615567505359649658203125">
        <ele>797.79998779296875</ele>
        <time>2019-06-19T10:25:03.000Z</time>
        <extensions>
          <ns3:TrackPointExtension>
            <ns3:atemp>24.0</ns3:atemp>
            <ns3:hr>124</ns3:hr>
          </ns3:TrackPointExtension>
        </extensions>
      </trkpt>
      <trkpt lat="47.019355706870555877685546875" lon="6.91796614788472652435302734375">
        <ele>796.5999755859375</ele>
        <time>2019-06-19T10:25:07.000Z</time>
        <extensions>
          <ns3:TrackPointExtension>
            <ns3:atemp>24.0</ns3:atemp>
            <ns3:hr>125</ns3:hr>
          </ns3:TrackPointExtension>
        </extensions>
      </trkpt>
      <trkpt lat="47.0194257795810699462890625" lon="6.91800839267671108245849609375">
        <ele>796.4000244140625</ele>
        <time>2019-06-19T10:25:08.000Z</time>
        <extensions>
          <ns3:TrackPointExtension>
            <ns3:atemp>24.0</ns3:atemp>
            <ns3:hr>125</ns3:hr>
          </ns3:TrackPointExtension>
        </extensions>
      </trkpt>
      <trkpt lat="47.01973222196102142333984375" lon="6.9181189499795436859130859375">
        <ele>795.20001220703125</ele>
        <time>2019-06-19T10:25:12.000Z</time>
        <extensions>
          <ns3:TrackPointExtension>
            <ns3:atemp>24.0</ns3:atemp>
            <ns3:hr>123</ns3:hr>
          </ns3:TrackPointExtension>
        </extensions>
      </trkpt>
      <trkpt lat="47.01981428079307079315185546875" lon="6.9181491248309612274169921875">
        <ele>794.79998779296875</ele>
        <time>2019-06-19T10:25:13.000Z</time>
        <extensions>
          <ns3:TrackPointExtension>
            <ns3:atemp>24.0</ns3:atemp>
            <ns3:hr>123</ns3:hr>
          </ns3:TrackPointExtension>
        </extensions>
      </trkpt>
      <trkpt lat="47.0199032127857208251953125" lon="6.91820050589740276336669921875">
        <ele>794.20001220703125</ele>
        <time>2019-06-19T10:25:14.000Z</time>
        <extensions>
          <ns3:TrackPointExtension>
            <ns3:atemp>24.0</ns3:atemp>
            <ns3:hr>123</ns3:hr>
          </ns3:TrackPointExtension>
        </extensions>
      </trkpt>
      <trkpt lat="47.01996934600174427032470703125" lon="6.91824518144130706787109375">
        <ele>794</ele>
        <time>2019-06-19T10:25:15.000Z</time>
        <extensions>
          <ns3:TrackPointExtension>
            <ns3:atemp>24.0</ns3:atemp>
            <ns3:hr>126</ns3:hr>
          </ns3:TrackPointExtension>
        </extensions>
      </trkpt>
      <trkpt lat="47.02011653222143650054931640625" lon="6.91833444871008396148681640625">
        <ele>793.79998779296875</ele>
        <time>2019-06-19T10:25:17.000Z</time>
        <extensions>
          <ns3:TrackPointExtension>
            <ns3:atemp>24.0</ns3:atemp>
            <ns3:hr>126</ns3:hr>
          </ns3:TrackPointExtension>
        </extensions>
      </trkpt>
      <trkpt lat="47.020443342626094818115234375" lon="6.9186007417738437652587890625">
        <ele>794.79998779296875</ele>
        <time>2019-06-19T10:25:22.000Z</time>
        <extensions>
          <ns3:TrackPointExtension>
            <ns3:atemp>24.0</ns3:atemp>
            <ns3:hr>124</ns3:hr>
          </ns3:TrackPointExtension>
        </extensions>
      </trkpt>
      <trkpt lat="47.0206305943429470062255859375" lon="6.9187519513070583343505859375">
        <ele>795.20001220703125</ele>
        <time>2019-06-19T10:25:25.000Z</time>
        <extensions>
          <ns3:TrackPointExtension>
            <ns3:atemp>24.0</ns3:atemp>
            <ns3:hr>124</ns3:hr>
          </ns3:TrackPointExtension>
        </extensions>
      </trkpt>
      <trkpt lat="47.020690441131591796875" lon="6.91880978643894195556640625">
        <ele>795.20001220703125</ele>
        <time>2019-06-19T10:25:26.000Z</time>
        <extensions>
          <ns3:TrackPointExtension>
            <ns3:atemp>24.0</ns3:atemp>
            <ns3:hr>123</ns3:hr>
          </ns3:TrackPointExtension>
        </extensions>
      </trkpt>
      <trkpt lat="47.020924128592014312744140625" lon="6.91898521967232227325439453125">
        <ele>795.4000244140625</ele>
        <time>2019-06-19T10:25:30.000Z</time>
        <extensions>
          <ns3:TrackPointExtension>
            <ns3:atemp>24.0</ns3:atemp>
            <ns3:hr>124</ns3:hr>
          </ns3:TrackPointExtension>
        </extensions>
      </trkpt>
      <trkpt lat="47.020973749458789825439453125" lon="6.91901363432407379150390625">
        <ele>795.20001220703125</ele>
        <time>2019-06-19T10:25:31.000Z</time>
        <extensions>
          <ns3:TrackPointExtension>
            <ns3:atemp>24.0</ns3:atemp>
            <ns3:hr>123</ns3:hr>
          </ns3:TrackPointExtension>
        </extensions>
      </trkpt>
      <trkpt lat="47.02118673361837863922119140625" lon="6.91918856464326381683349609375">
        <ele>794.20001220703125</ele>
        <time>2019-06-19T10:25:35.000Z</time>
        <extensions>
          <ns3:TrackPointExtension>
            <ns3:atemp>24.0</ns3:atemp>
            <ns3:hr>122</ns3:hr>
          </ns3:TrackPointExtension>
        </extensions>
      </trkpt>
      <trkpt lat="47.0212421379983425140380859375" lon="6.9192476570606231689453125">
        <ele>794</ele>
        <time>2019-06-19T10:25:36.000Z</time>
        <extensions>
          <ns3:TrackPointExtension>
            <ns3:atemp>24.0</ns3:atemp>
            <ns3:hr>122</ns3:hr>
          </ns3:TrackPointExtension>
        </extensions>
      </trkpt>
      <trkpt lat="47.0214092731475830078125" lon="6.91940967924892902374267578125">
        <ele>792.79998779296875</ele>
        <time>2019-06-19T10:25:39.000Z</time>
        <extensions>
          <ns3:TrackPointExtension>
            <ns3:atemp>24.0</ns3:atemp>
            <ns3:hr>122</ns3:hr>
          </ns3:TrackPointExtension>
        </extensions>
      </trkpt>
      <trkpt lat="47.021566517651081085205078125" lon="6.91958217881619930267333984375">
        <ele>792.20001220703125</ele>
        <time>2019-06-19T10:25:42.000Z</time>
        <extensions>
          <ns3:TrackPointExtension>
            <ns3:atemp>24.0</ns3:atemp>
            <ns3:hr>123</ns3:hr>
          </ns3:TrackPointExtension>
        </extensions>
      </trkpt>
      <trkpt lat="47.02161991037428379058837890625" lon="6.91963481716811656951904296875">
        <ele>791.79998779296875</ele>
        <time>2019-06-19T10:25:43.000Z</time>
        <extensions>
          <ns3:TrackPointExtension>
            <ns3:atemp>24.0</ns3:atemp>
            <ns3:hr>124</ns3:hr>
          </ns3:TrackPointExtension>
        </extensions>
      </trkpt>
      <trkpt lat="47.02174698002636432647705078125" lon="6.91973506473004817962646484375">
        <ele>790.20001220703125</ele>
        <time>2019-06-19T10:25:45.000Z</time>
        <extensions>
          <ns3:TrackPointExtension>
            <ns3:atemp>23.0</ns3:atemp>
            <ns3:hr>124</ns3:hr>
          </ns3:TrackPointExtension>
        </extensions>
      </trkpt>
      <trkpt lat="47.02181763947010040283203125" lon="6.91979474388062953948974609375">
        <ele>789.20001220703125</ele>
        <time>2019-06-19T10:25:46.000Z</time>
        <extensions>
          <ns3:TrackPointExtension>
            <ns3:atemp>23.0</ns3:atemp>
            <ns3:hr>126</ns3:hr>
          </ns3:TrackPointExtension>
        </extensions>
      </trkpt>
      <trkpt lat="47.021873630583286285400390625" lon="6.9198377430438995361328125">
        <ele>788.20001220703125</ele>
        <time>2019-06-19T10:25:47.000Z</time>
        <extensions>
          <ns3:TrackPointExtension>
            <ns3:atemp>23.0</ns3:atemp>
            <ns3:hr>126</ns3:hr>
          </ns3:TrackPointExtension>
        </extensions>
      </trkpt>
      <trkpt lat="47.02201771549880504608154296875" lon="6.9199036248028278350830078125">
        <ele>786.4000244140625</ele>
        <time>2019-06-19T10:25:49.000Z</time>
        <extensions>
          <ns3:TrackPointExtension>
            <ns3:atemp>23.0</ns3:atemp>
            <ns3:hr>126</ns3:hr>
          </ns3:TrackPointExtension>
        </extensions>
      </trkpt>
      <trkpt lat="47.02221334911882877349853515625" lon="6.91999624483287334442138671875">
        <ele>784.5999755859375</ele>
        <time>2019-06-19T10:25:51.000Z</time>
        <extensions>
          <ns3:TrackPointExtension>
            <ns3:atemp>23.0</ns3:atemp>
            <ns3:hr>126</ns3:hr>
          </ns3:TrackPointExtension>
        </extensions>
      </trkpt>
      <trkpt lat="47.0223177038133144378662109375" lon="6.92005190066993236541748046875">
        <ele>783.20001220703125</ele>
        <time>2019-06-19T10:25:53.000Z</time>
        <extensions>
          <ns3:TrackPointExtension>
            <ns3:atemp>23.0</ns3:atemp>
            <ns3:hr>125</ns3:hr>
          </ns3:TrackPointExtension>
        </extensions>
      </trkpt>
      <trkpt lat="47.0223988406360149383544921875" lon="6.92008894868195056915283203125">
        <ele>782.79998779296875</ele>
        <time>2019-06-19T10:25:55.000Z</time>
        <extensions>
          <ns3:TrackPointExtension>
            <ns3:atemp>23.0</ns3:atemp>
            <ns3:hr>125</ns3:hr>
          </ns3:TrackPointExtension>
        </extensions>
      </trkpt>
      <trkpt lat="47.02248609624803066253662109375" lon="6.92010906524956226348876953125">
        <ele>782</ele>
        <time>2019-06-19T10:25:57.000Z</time>
        <extensions>
          <ns3:TrackPointExtension>
            <ns3:atemp>23.0</ns3:atemp>
            <ns3:hr>126</ns3:hr>
          </ns3:TrackPointExtension>
        </extensions>
      </trkpt>
      <trkpt lat="47.022511325776576995849609375" lon="6.92012406885623931884765625">
        <ele>781.4000244140625</ele>
        <time>2019-06-19T10:25:58.000Z</time>
        <extensions>
          <ns3:TrackPointExtension>
            <ns3:atemp>23.0</ns3:atemp>
            <ns3:hr>126</ns3:hr>
          </ns3:TrackPointExtension>
        </extensions>
      </trkpt>
      <trkpt lat="47.02255013398826122283935546875" lon="6.92012943327426910400390625">
        <ele>781</ele>
        <time>2019-06-19T10:25:59.000Z</time>
        <extensions>
          <ns3:TrackPointExtension>
            <ns3:atemp>23.0</ns3:atemp>
            <ns3:hr>126</ns3:hr>
          </ns3:TrackPointExtension>
        </extensions>
      </trkpt>
      <trkpt lat="47.022652812302112579345703125" lon="6.92010923288762569427490234375">
        <ele>779.79998779296875</ele>
        <time>2019-06-19T10:26:01.000Z</time>
        <extensions>
          <ns3:TrackPointExtension>
            <ns3:atemp>23.0</ns3:atemp>
            <ns3:hr>125</ns3:hr>
          </ns3:TrackPointExtension>
        </extensions>
      </trkpt>
      <trkpt lat="47.022687681019306182861328125" lon="6.92009456455707550048828125">
        <ele>779.20001220703125</ele>
        <time>2019-06-19T10:26:02.000Z</time>
        <extensions>
          <ns3:TrackPointExtension>
            <ns3:atemp>23.0</ns3:atemp>
            <ns3:hr>123</ns3:hr>
          </ns3:TrackPointExtension>
        </extensions>
      </trkpt>
      <trkpt lat="47.02272799797356128692626953125" lon="6.92008442245423793792724609375">
        <ele>778.79998779296875</ele>
        <time>2019-06-19T10:26:03.000Z</time>
        <extensions>
          <ns3:TrackPointExtension>
            <ns3:atemp>23.0</ns3:atemp>
            <ns3:hr>121</ns3:hr>
          </ns3:TrackPointExtension>
        </extensions>
      </trkpt>
      <trkpt lat="47.022799663245677947998046875" lon="6.920080147683620452880859375">
        <ele>778.20001220703125</ele>
        <time>2019-06-19T10:26:05.000Z</time>
        <extensions>
          <ns3:TrackPointExtension>
            <ns3:atemp>23.0</ns3:atemp>
            <ns3:hr>120</ns3:hr>
          </ns3:TrackPointExtension>
        </extensions>
      </trkpt>
      <trkpt lat="47.0228397287428379058837890625" lon="6.9200900383293628692626953125">
        <ele>777.79998779296875</ele>
        <time>2019-06-19T10:26:06.000Z</time>
        <extensions>
          <ns3:TrackPointExtension>
            <ns3:atemp>23.0</ns3:atemp>
            <ns3:hr>120</ns3:hr>
          </ns3:TrackPointExtension>
        </extensions>
      </trkpt>
      <trkpt lat="47.02285674400627613067626953125" lon="6.9201074726879596710205078125">
        <ele>777.5999755859375</ele>
        <time>2019-06-19T10:26:07.000Z</time>
        <extensions>
          <ns3:TrackPointExtension>
            <ns3:atemp>23.0</ns3:atemp>
            <ns3:hr>120</ns3:hr>
          </ns3:TrackPointExtension>
        </extensions>
      </trkpt>
      <trkpt lat="47.022888846695423126220703125" lon="6.92010319791734218597412109375">
        <ele>777.20001220703125</ele>
        <time>2019-06-19T10:26:08.000Z</time>
        <extensions>
          <ns3:TrackPointExtension>
            <ns3:atemp>23.0</ns3:atemp>
            <ns3:hr>119</ns3:hr>
          </ns3:TrackPointExtension>
        </extensions>
      </trkpt>
      <trkpt lat="47.0229155011475086212158203125" lon="6.920085847377777099609375">
        <ele>776.79998779296875</ele>
        <time>2019-06-19T10:26:09.000Z</time>
        <extensions>
          <ns3:TrackPointExtension>
            <ns3:atemp>23.0</ns3:atemp>
            <ns3:hr>118</ns3:hr>
          </ns3:TrackPointExtension>
        </extensions>
      </trkpt>
      <trkpt lat="47.02294953167438507080078125" lon="6.9200665690004825592041015625">
        <ele>776.4000244140625</ele>
        <time>2019-06-19T10:26:10.000Z</time>
        <extensions>
          <ns3:TrackPointExtension>
            <ns3:atemp>23.0</ns3:atemp>
            <ns3:hr>118</ns3:hr>
          </ns3:TrackPointExtension>
        </extensions>
      </trkpt>
      <trkpt lat="47.02299269847571849822998046875" lon="6.92005877383053302764892578125">
        <ele>776</ele>
        <time>2019-06-19T10:26:11.000Z</time>
        <extensions>
          <ns3:TrackPointExtension>
            <ns3:atemp>23.0</ns3:atemp>
            <ns3:hr>117</ns3:hr>
          </ns3:TrackPointExtension>
        </extensions>
      </trkpt>
      <trkpt lat="47.02306562103331089019775390625" lon="6.920083500444889068603515625">
        <ele>775.79998779296875</ele>
        <time>2019-06-19T10:26:13.000Z</time>
        <extensions>
          <ns3:TrackPointExtension>
            <ns3:atemp>23.0</ns3:atemp>
            <ns3:hr>116</ns3:hr>
          </ns3:TrackPointExtension>
        </extensions>
      </trkpt>
      <trkpt lat="47.02328883111476898193359375" lon="6.9202749431133270263671875">
        <ele>775.4000244140625</ele>
        <time>2019-06-19T10:26:19.000Z</time>
        <extensions>
          <ns3:TrackPointExtension>
            <ns3:atemp>23.0</ns3:atemp>
            <ns3:hr>117</ns3:hr>
          </ns3:TrackPointExtension>
        </extensions>
      </trkpt>
      <trkpt lat="47.0233325846493244171142578125" lon="6.92031324841082096099853515625">
        <ele>775.4000244140625</ele>
        <time>2019-06-19T10:26:20.000Z</time>
        <extensions>
          <ns3:TrackPointExtension>
            <ns3:atemp>23.0</ns3:atemp>
            <ns3:hr>117</ns3:hr>
          </ns3:TrackPointExtension>
        </extensions>
      </trkpt>
      <trkpt lat="47.02358831651508808135986328125" lon="6.92055883817374706268310546875">
        <ele>775</ele>
        <time>2019-06-19T10:26:26.000Z</time>
        <extensions>
          <ns3:TrackPointExtension>
            <ns3:atemp>23.0</ns3:atemp>
            <ns3:hr>118</ns3:hr>
          </ns3:TrackPointExtension>
        </extensions>
      </trkpt>
      <trkpt lat="47.0239002071321010589599609375" lon="6.92090400494635105133056640625">
        <ele>774.79998779296875</ele>
        <time>2019-06-19T10:26:33.000Z</time>
        <extensions>
          <ns3:TrackPointExtension>
            <ns3:atemp>23.0</ns3:atemp>
            <ns3:hr>117</ns3:hr>
          </ns3:TrackPointExtension>
        </extensions>
      </trkpt>
      <trkpt lat="47.02422768808901309967041015625" lon="6.92122067324817180633544921875">
        <ele>774.5999755859375</ele>
        <time>2019-06-19T10:26:41.000Z</time>
        <extensions>
          <ns3:TrackPointExtension>
            <ns3:atemp>23.0</ns3:atemp>
            <ns3:hr>115</ns3:hr>
          </ns3:TrackPointExtension>
        </extensions>
      </trkpt>
      <trkpt lat="47.024528682231903076171875" lon="6.92138009704649448394775390625">
        <ele>774.20001220703125</ele>
        <time>2019-06-19T10:26:47.000Z</time>
        <extensions>
          <ns3:TrackPointExtension>
            <ns3:atemp>23.0</ns3:atemp>
            <ns3:hr>117</ns3:hr>
          </ns3:TrackPointExtension>
        </extensions>
      </trkpt>
      <trkpt lat="47.02457888983190059661865234375" lon="6.9214002974331378936767578125">
        <ele>773.79998779296875</ele>
        <time>2019-06-19T10:26:48.000Z</time>
        <extensions>
          <ns3:TrackPointExtension>
            <ns3:atemp>23.0</ns3:atemp>
            <ns3:hr>117</ns3:hr>
          </ns3:TrackPointExtension>
        </extensions>
      </trkpt>
      <trkpt lat="47.02469908632338047027587890625" lon="6.92150004208087921142578125">
        <ele>773.20001220703125</ele>
        <time>2019-06-19T10:26:51.000Z</time>
        <extensions>
          <ns3:TrackPointExtension>
            <ns3:atemp>23.0</ns3:atemp>
            <ns3:hr>117</ns3:hr>
          </ns3:TrackPointExtension>
        </extensions>
      </trkpt>
      <trkpt lat="47.0247380621731281280517578125" lon="6.9215374253690242767333984375">
        <ele>773.20001220703125</ele>
        <time>2019-06-19T10:26:52.000Z</time>
        <extensions>
          <ns3:TrackPointExtension>
            <ns3:atemp>23.0</ns3:atemp>
            <ns3:hr>117</ns3:hr>
          </ns3:TrackPointExtension>
        </extensions>
      </trkpt>
      <trkpt lat="47.02477276325225830078125" lon="6.92157707177102565765380859375">
        <ele>773</ele>
        <time>2019-06-19T10:26:53.000Z</time>
        <extensions>
          <ns3:TrackPointExtension>
            <ns3:atemp>23.0</ns3:atemp>
            <ns3:hr>117</ns3:hr>
          </ns3:TrackPointExtension>
        </extensions>
      </trkpt>
      <trkpt lat="47.0250015892088413238525390625" lon="6.92179064266383647918701171875">
        <ele>772.79998779296875</ele>
        <time>2019-06-19T10:26:58.000Z</time>
        <extensions>
          <ns3:TrackPointExtension>
            <ns3:atemp>23.0</ns3:atemp>
            <ns3:hr>117</ns3:hr>
          </ns3:TrackPointExtension>
        </extensions>
      </trkpt>
      <trkpt lat="47.02529990114271640777587890625" lon="6.92203187383711338043212890625">
        <ele>772</ele>
        <time>2019-06-19T10:27:04.000Z</time>
        <extensions>
          <ns3:TrackPointExtension>
            <ns3:atemp>23.0</ns3:atemp>
            <ns3:hr>118</ns3:hr>
          </ns3:TrackPointExtension>
        </extensions>
      </trkpt>
      <trkpt lat="47.0254257135093212127685546875" lon="6.92212776280939579010009765625">
        <ele>771.4000244140625</ele>
        <time>2019-06-19T10:27:07.000Z</time>
        <extensions>
          <ns3:TrackPointExtension>
            <ns3:atemp>23.0</ns3:atemp>
            <ns3:hr>118</ns3:hr>
          </ns3:TrackPointExtension>
        </extensions>
      </trkpt>
      <trkpt lat="47.02546049840748310089111328125" lon="6.92223966121673583984375">
        <ele>771.5999755859375</ele>
        <time>2019-06-19T10:27:09.000Z</time>
        <extensions>
          <ns3:TrackPointExtension>
            <ns3:atemp>23.0</ns3:atemp>
            <ns3:hr>118</ns3:hr>
          </ns3:TrackPointExtension>
        </extensions>
      </trkpt>
      <trkpt lat="47.02543065883219242095947265625" lon="6.92237486131489276885986328125">
        <ele>772.79998779296875</ele>
        <time>2019-06-19T10:27:13.000Z</time>
        <extensions>
          <ns3:TrackPointExtension>
            <ns3:atemp>23.0</ns3:atemp>
            <ns3:hr>116</ns3:hr>
          </ns3:TrackPointExtension>
        </extensions>
      </trkpt>
      <trkpt lat="47.02540777623653411865234375" lon="6.92239330150187015533447265625">
        <ele>773.4000244140625</ele>
        <time>2019-06-19T10:27:14.000Z</time>
        <extensions>
          <ns3:TrackPointExtension>
            <ns3:atemp>23.0</ns3:atemp>
            <ns3:hr>115</ns3:hr>
          </ns3:TrackPointExtension>
        </extensions>
      </trkpt>
      <trkpt lat="47.02534415759146213531494140625" lon="6.92245432175695896148681640625">
        <ele>774.79998779296875</ele>
        <time>2019-06-19T10:27:17.000Z</time>
        <extensions>
          <ns3:TrackPointExtension>
            <ns3:atemp>23.0</ns3:atemp>
            <ns3:hr>114</ns3:hr>
          </ns3:TrackPointExtension>
        </extensions>
      </trkpt>
      <trkpt lat="47.0253132283687591552734375" lon="6.92252104170620441436767578125">
        <ele>775.79998779296875</ele>
        <time>2019-06-19T10:27:20.000Z</time>
        <extensions>
          <ns3:TrackPointExtension>
            <ns3:atemp>23.0</ns3:atemp>
            <ns3:hr>115</ns3:hr>
          </ns3:TrackPointExtension>
        </extensions>
      </trkpt>
      <trkpt lat="47.02528933994472026824951171875" lon="6.92263126373291015625">
        <ele>776.79998779296875</ele>
        <time>2019-06-19T10:27:24.000Z</time>
        <extensions>
          <ns3:TrackPointExtension>
            <ns3:atemp>23.0</ns3:atemp>
            <ns3:hr>113</ns3:hr>
          </ns3:TrackPointExtension>
        </extensions>
      </trkpt>
      <trkpt lat="47.02525698579847812652587890625" lon="6.92269840277731418609619140625">
        <ele>777.20001220703125</ele>
        <time>2019-06-19T10:27:27.000Z</time>
        <extensions>
          <ns3:TrackPointExtension>
            <ns3:atemp>24.0</ns3:atemp>
            <ns3:hr>113</ns3:hr>
          </ns3:TrackPointExtension>
        </extensions>
      </trkpt>
      <trkpt lat="47.02522295527160167694091796875" lon="6.92278557457029819488525390625">
        <ele>778</ele>
        <time>2019-06-19T10:27:31.000Z</time>
        <extensions>
          <ns3:TrackPointExtension>
            <ns3:atemp>24.0</ns3:atemp>
            <ns3:hr>115</ns3:hr>
          </ns3:TrackPointExtension>
        </extensions>
      </trkpt>
      <trkpt lat="47.025203593075275421142578125" lon="6.92285061813890933990478515625">
        <ele>778.79998779296875</ele>
        <time>2019-06-19T10:27:34.000Z</time>
        <extensions>
          <ns3:TrackPointExtension>
            <ns3:atemp>24.0</ns3:atemp>
            <ns3:hr>113</ns3:hr>
          </ns3:TrackPointExtension>
        </extensions>
      </trkpt>
      <trkpt lat="47.02519596554338932037353515625" lon="6.92287492565810680389404296875">
        <ele>779</ele>
        <time>2019-06-19T10:27:35.000Z</time>
        <extensions>
          <ns3:TrackPointExtension>
            <ns3:atemp>24.0</ns3:atemp>
            <ns3:hr>118</ns3:hr>
          </ns3:TrackPointExtension>
        </extensions>
      </trkpt>
      <trkpt lat="47.02517702244222164154052734375" lon="6.92292337305843830108642578125">
        <ele>779.4000244140625</ele>
        <time>2019-06-19T10:27:37.000Z</time>
        <extensions>
          <ns3:TrackPointExtension>
            <ns3:atemp>24.0</ns3:atemp>
            <ns3:hr>122</ns3:hr>
          </ns3:TrackPointExtension>
        </extensions>
      </trkpt>
      <trkpt lat="47.02517098747193813323974609375" lon="6.92294265143573284149169921875">
        <ele>779.79998779296875</ele>
        <time>2019-06-19T10:27:38.000Z</time>
        <extensions>
          <ns3:TrackPointExtension>
            <ns3:atemp>24.0</ns3:atemp>
            <ns3:hr>125</ns3:hr>
          </ns3:TrackPointExtension>
        </extensions>
      </trkpt>
      <trkpt lat="47.02516076155006885528564453125" lon="6.922994367778301239013671875">
        <ele>780.4000244140625</ele>
        <time>2019-06-19T10:27:40.000Z</time>
        <extensions>
          <ns3:TrackPointExtension>
            <ns3:atemp>24.0</ns3:atemp>
            <ns3:hr>128</ns3:hr>
          </ns3:TrackPointExtension>
        </extensions>
      </trkpt>
      <trkpt lat="47.025153636932373046875" lon="6.92301725037395954132080078125">
        <ele>780.5999755859375</ele>
        <time>2019-06-19T10:27:41.000Z</time>
        <extensions>
          <ns3:TrackPointExtension>
            <ns3:atemp>24.0</ns3:atemp>
            <ns3:hr>128</ns3:hr>
          </ns3:TrackPointExtension>
        </extensions>
      </trkpt>
      <trkpt lat="47.02511684037744998931884765625" lon="6.92310643382370471954345703125">
        <ele>781.5999755859375</ele>
        <time>2019-06-19T10:27:45.000Z</time>
        <extensions>
          <ns3:TrackPointExtension>
            <ns3:atemp>24.0</ns3:atemp>
            <ns3:hr>129</ns3:hr>
          </ns3:TrackPointExtension>
        </extensions>
      </trkpt>
      <trkpt lat="47.025103680789470672607421875" lon="6.92315018735826015472412109375">
        <ele>782</ele>
        <time>2019-06-19T10:27:47.000Z</time>
        <extensions>
          <ns3:TrackPointExtension>
            <ns3:atemp>24.0</ns3:atemp>
            <ns3:hr>130</ns3:hr>
          </ns3:TrackPointExtension>
        </extensions>
      </trkpt>
      <trkpt lat="47.02510007657110691070556640625" lon="6.92317365668714046478271484375">
        <ele>782.20001220703125</ele>
        <time>2019-06-19T10:27:48.000Z</time>
        <extensions>
          <ns3:TrackPointExtension>
            <ns3:atemp>24.0</ns3:atemp>
            <ns3:hr>131</ns3:hr>
          </ns3:TrackPointExtension>
        </extensions>
      </trkpt>
      <trkpt lat="47.0250867493450641632080078125" lon="6.92322093062102794647216796875">
        <ele>782.5999755859375</ele>
        <time>2019-06-19T10:27:50.000Z</time>
        <extensions>
          <ns3:TrackPointExtension>
            <ns3:atemp>24.0</ns3:atemp>
            <ns3:hr>132</ns3:hr>
          </ns3:TrackPointExtension>
        </extensions>
      </trkpt>
      <trkpt lat="47.02503897249698638916015625" lon="6.92332101054489612579345703125">
        <ele>783.5999755859375</ele>
        <time>2019-06-19T10:27:56.000Z</time>
        <extensions>
          <ns3:TrackPointExtension>
            <ns3:atemp>25.0</ns3:atemp>
            <ns3:hr>135</ns3:hr>
          </ns3:TrackPointExtension>
        </extensions>
      </trkpt>
      <trkpt lat="47.02500812709331512451171875" lon="6.92342125810682773590087890625">
        <ele>784.79998779296875</ele>
        <time>2019-06-19T10:28:02.000Z</time>
        <extensions>
          <ns3:TrackPointExtension>
            <ns3:atemp>25.0</ns3:atemp>
            <ns3:hr>137</ns3:hr>
          </ns3:TrackPointExtension>
        </extensions>
      </trkpt>
      <trkpt lat="47.02500217594206333160400390625" lon="6.92344472743570804595947265625">
        <ele>785</ele>
        <time>2019-06-19T10:28:03.000Z</time>
        <extensions>
          <ns3:TrackPointExtension>
            <ns3:atemp>25.0</ns3:atemp>
            <ns3:hr>137</ns3:hr>
          </ns3:TrackPointExtension>
        </extensions>
      </trkpt>
      <trkpt lat="47.02497786842286586761474609375" lon="6.9235410355031490325927734375">
        <ele>786</ele>
        <time>2019-06-19T10:28:08.000Z</time>
        <extensions>
          <ns3:TrackPointExtension>
            <ns3:atemp>25.0</ns3:atemp>
            <ns3:hr>139</ns3:hr>
          </ns3:TrackPointExtension>
        </extensions>
      </trkpt>
      <trkpt lat="47.02496848069131374359130859375" lon="6.9235668517649173736572265625">
        <ele>786.20001220703125</ele>
        <time>2019-06-19T10:28:09.000Z</time>
        <extensions>
          <ns3:TrackPointExtension>
            <ns3:atemp>25.0</ns3:atemp>
            <ns3:hr>139</ns3:hr>
          </ns3:TrackPointExtension>
        </extensions>
      </trkpt>
      <trkpt lat="47.0249499566853046417236328125" lon="6.92368629388511180877685546875">
        <ele>787.20001220703125</ele>
        <time>2019-06-19T10:28:14.000Z</time>
        <extensions>
          <ns3:TrackPointExtension>
            <ns3:atemp>25.0</ns3:atemp>
            <ns3:hr>140</ns3:hr>
          </ns3:TrackPointExtension>
        </extensions>
      </trkpt>
      <trkpt lat="47.02494165860116481781005859375" lon="6.9237334839999675750732421875">
        <ele>787.79998779296875</ele>
        <time>2019-06-19T10:28:16.000Z</time>
        <extensions>
          <ns3:TrackPointExtension>
            <ns3:atemp>25.0</ns3:atemp>
            <ns3:hr>140</ns3:hr>
          </ns3:TrackPointExtension>
        </extensions>
      </trkpt>
      <trkpt lat="47.0249345339834690093994140625" lon="6.923771537840366363525390625">
        <ele>788.20001220703125</ele>
        <time>2019-06-19T10:28:18.000Z</time>
        <extensions>
          <ns3:TrackPointExtension>
            <ns3:atemp>25.0</ns3:atemp>
            <ns3:hr>140</ns3:hr>
          </ns3:TrackPointExtension>
        </extensions>
      </trkpt>
      <trkpt lat="47.0249311812222003936767578125" lon="6.92379467189311981201171875">
        <ele>788.4000244140625</ele>
        <time>2019-06-19T10:28:19.000Z</time>
        <extensions>
          <ns3:TrackPointExtension>
            <ns3:atemp>25.0</ns3:atemp>
            <ns3:hr>140</ns3:hr>
          </ns3:TrackPointExtension>
        </extensions>
      </trkpt>
      <trkpt lat="47.024900503456592559814453125" lon="6.92388092167675495147705078125">
        <ele>789.4000244140625</ele>
        <time>2019-06-19T10:28:24.000Z</time>
        <extensions>
          <ns3:TrackPointExtension>
            <ns3:atemp>26.0</ns3:atemp>
            <ns3:hr>142</ns3:hr>
          </ns3:TrackPointExtension>
        </extensions>
      </trkpt>
      <trkpt lat="47.02489103190600872039794921875" lon="6.92388544790446758270263671875">
        <ele>789.5999755859375</ele>
        <time>2019-06-19T10:28:25.000Z</time>
        <extensions>
          <ns3:TrackPointExtension>
            <ns3:atemp>26.0</ns3:atemp>
            <ns3:hr>142</ns3:hr>
          </ns3:TrackPointExtension>
        </extensions>
      </trkpt>
      <trkpt lat="47.0248500443994998931884765625" lon="6.9239084981381893157958984375">
        <ele>790.5999755859375</ele>
        <time>2019-06-19T10:28:29.000Z</time>
        <extensions>
          <ns3:TrackPointExtension>
            <ns3:atemp>26.0</ns3:atemp>
            <ns3:hr>142</ns3:hr>
          </ns3:TrackPointExtension>
        </extensions>
      </trkpt>
      <trkpt lat="47.02482732944190502166748046875" lon="6.92390103824436664581298828125">
        <ele>791.20001220703125</ele>
        <time>2019-06-19T10:28:31.000Z</time>
        <extensions>
          <ns3:TrackPointExtension>
            <ns3:atemp>26.0</ns3:atemp>
            <ns3:hr>143</ns3:hr>
          </ns3:TrackPointExtension>
        </extensions>
      </trkpt>
      <trkpt lat="47.02479028142988681793212890625" lon="6.9239038042724132537841796875">
        <ele>791.79998779296875</ele>
        <time>2019-06-19T10:28:34.000Z</time>
        <extensions>
          <ns3:TrackPointExtension>
            <ns3:atemp>26.0</ns3:atemp>
            <ns3:hr>146</ns3:hr>
          </ns3:TrackPointExtension>
        </extensions>
      </trkpt>
      <trkpt lat="47.02474527060985565185546875" lon="6.92392953671514987945556640625">
        <ele>792.4000244140625</ele>
        <time>2019-06-19T10:28:37.000Z</time>
        <extensions>
          <ns3:TrackPointExtension>
            <ns3:atemp>26.0</ns3:atemp>
            <ns3:hr>146</ns3:hr>
          </ns3:TrackPointExtension>
        </extensions>
      </trkpt>
      <trkpt lat="47.02472238801419734954833984375" lon="6.92393523640930652618408203125">
        <ele>792.5999755859375</ele>
        <time>2019-06-19T10:28:39.000Z</time>
        <extensions>
          <ns3:TrackPointExtension>
            <ns3:atemp>26.0</ns3:atemp>
            <ns3:hr>146</ns3:hr>
          </ns3:TrackPointExtension>
        </extensions>
      </trkpt>
      <trkpt lat="47.02467561699450016021728515625" lon="6.92395183257758617401123046875">
        <ele>792.79998779296875</ele>
        <time>2019-06-19T10:28:42.000Z</time>
        <extensions>
          <ns3:TrackPointExtension>
            <ns3:atemp>26.0</ns3:atemp>
            <ns3:hr>145</ns3:hr>
          </ns3:TrackPointExtension>
        </extensions>
      </trkpt>
      <trkpt lat="47.024673521518707275390625" lon="6.9239497371017932891845703125">
        <ele>793</ele>
        <time>2019-06-19T10:28:43.000Z</time>
        <extensions>
          <ns3:TrackPointExtension>
            <ns3:atemp>26.0</ns3:atemp>
            <ns3:hr>146</ns3:hr>
          </ns3:TrackPointExtension>
        </extensions>
      </trkpt>
      <trkpt lat="47.02463957481086254119873046875" lon="6.92390003241598606109619140625">
        <ele>793.20001220703125</ele>
        <time>2019-06-19T10:28:51.000Z</time>
        <extensions>
          <ns3:TrackPointExtension>
            <ns3:atemp>26.0</ns3:atemp>
            <ns3:hr>145</ns3:hr>
          </ns3:TrackPointExtension>
        </extensions>
      </trkpt>
      <trkpt lat="47.0246344618499279022216796875" lon="6.92389315925538539886474609375">
        <ele>793.20001220703125</ele>
        <time>2019-06-19T10:28:55.000Z</time>
        <extensions>
          <ns3:TrackPointExtension>
            <ns3:atemp>26.0</ns3:atemp>
            <ns3:hr>144</ns3:hr>
          </ns3:TrackPointExtension>
        </extensions>
      </trkpt>
      <trkpt lat="47.02464334666728973388671875" lon="6.92388863302767276763916015625">
        <ele>793.20001220703125</ele>
        <time>2019-06-19T10:28:58.000Z</time>
        <extensions>
          <ns3:TrackPointExtension>
            <ns3:atemp>26.0</ns3:atemp>
            <ns3:hr>143</ns3:hr>
          </ns3:TrackPointExtension>
        </extensions>
      </trkpt>
      <trkpt lat="47.02462457120418548583984375" lon="6.9238085858523845672607421875">
        <ele>793.20001220703125</ele>
        <time>2019-06-19T10:29:06.000Z</time>
        <extensions>
          <ns3:TrackPointExtension>
            <ns3:atemp>26.0</ns3:atemp>
            <ns3:hr>143</ns3:hr>
          </ns3:TrackPointExtension>
        </extensions>
      </trkpt>
      <trkpt lat="47.02455609105527400970458984375" lon="6.92380649037659168243408203125">
        <ele>793.20001220703125</ele>
        <time>2019-06-19T10:29:12.000Z</time>
        <extensions>
          <ns3:TrackPointExtension>
            <ns3:atemp>27.0</ns3:atemp>
            <ns3:hr>142</ns3:hr>
          </ns3:TrackPointExtension>
        </extensions>
      </trkpt>
      <trkpt lat="47.02453815378248691558837890625" lon="6.92380984313786029815673828125">
        <ele>793.20001220703125</ele>
        <time>2019-06-19T10:29:13.000Z</time>
        <extensions>
          <ns3:TrackPointExtension>
            <ns3:atemp>27.0</ns3:atemp>
            <ns3:hr>142</ns3:hr>
          </ns3:TrackPointExtension>
        </extensions>
      </trkpt>
      <trkpt lat="47.02449590899050235748291015625" lon="6.92379198968410491943359375">
        <ele>793.5999755859375</ele>
        <time>2019-06-19T10:29:18.000Z</time>
        <extensions>
          <ns3:TrackPointExtension>
            <ns3:atemp>27.0</ns3:atemp>
            <ns3:hr>142</ns3:hr>
          </ns3:TrackPointExtension>
        </extensions>
      </trkpt>
      <trkpt lat="47.024497501552104949951171875" lon="6.92377966828644275665283203125">
        <ele>794</ele>
        <time>2019-06-19T10:29:20.000Z</time>
        <extensions>
          <ns3:TrackPointExtension>
            <ns3:atemp>27.0</ns3:atemp>
            <ns3:hr>143</ns3:hr>
          </ns3:TrackPointExtension>
        </extensions>
      </trkpt>
      <trkpt lat="47.02445634640753269195556640625" lon="6.92380271852016448974609375">
        <ele>795.20001220703125</ele>
        <time>2019-06-19T10:29:24.000Z</time>
        <extensions>
          <ns3:TrackPointExtension>
            <ns3:atemp>27.0</ns3:atemp>
            <ns3:hr>142</ns3:hr>
          </ns3:TrackPointExtension>
        </extensions>
      </trkpt>
      <trkpt lat="47.0243883691728115081787109375" lon="6.923777572810649871826171875">
        <ele>796.20001220703125</ele>
        <time>2019-06-19T10:29:31.000Z</time>
        <extensions>
          <ns3:TrackPointExtension>
            <ns3:atemp>27.0</ns3:atemp>
            <ns3:hr>141</ns3:hr>
          </ns3:TrackPointExtension>
        </extensions>
      </trkpt>
      <trkpt lat="47.024347968399524688720703125" lon="6.92376114428043365478515625">
        <ele>796.79998779296875</ele>
        <time>2019-06-19T10:29:35.000Z</time>
        <extensions>
          <ns3:TrackPointExtension>
            <ns3:atemp>27.0</ns3:atemp>
            <ns3:hr>141</ns3:hr>
          </ns3:TrackPointExtension>
        </extensions>
      </trkpt>
      <trkpt lat="47.02431133948266506195068359375" lon="6.92375988699495792388916015625">
        <ele>797</ele>
        <time>2019-06-19T10:29:38.000Z</time>
        <extensions>
          <ns3:TrackPointExtension>
            <ns3:atemp>27.0</ns3:atemp>
            <ns3:hr>141</ns3:hr>
          </ns3:TrackPointExtension>
        </extensions>
      </trkpt>
      <trkpt lat="47.02427362091839313507080078125" lon="6.92376248538494110107421875">
        <ele>797.5999755859375</ele>
        <time>2019-06-19T10:29:40.000Z</time>
        <extensions>
          <ns3:TrackPointExtension>
            <ns3:atemp>27.0</ns3:atemp>
            <ns3:hr>142</ns3:hr>
          </ns3:TrackPointExtension>
        </extensions>
      </trkpt>
      <trkpt lat="47.0242482237517833709716796875" lon="6.923742704093456268310546875">
        <ele>798</ele>
        <time>2019-06-19T10:29:42.000Z</time>
        <extensions>
          <ns3:TrackPointExtension>
            <ns3:atemp>27.0</ns3:atemp>
            <ns3:hr>141</ns3:hr>
          </ns3:TrackPointExtension>
        </extensions>
      </trkpt>
      <trkpt lat="47.02421159483492374420166015625" lon="6.923718564212322235107421875">
        <ele>798.4000244140625</ele>
        <time>2019-06-19T10:29:44.000Z</time>
        <extensions>
          <ns3:TrackPointExtension>
            <ns3:atemp>27.0</ns3:atemp>
            <ns3:hr>141</ns3:hr>
          </ns3:TrackPointExtension>
        </extensions>
      </trkpt>
      <trkpt lat="47.0241905562579631805419921875" lon="6.9237029738724231719970703125">
        <ele>798.5999755859375</ele>
        <time>2019-06-19T10:29:45.000Z</time>
        <extensions>
          <ns3:TrackPointExtension>
            <ns3:atemp>27.0</ns3:atemp>
            <ns3:hr>140</ns3:hr>
          </ns3:TrackPointExtension>
        </extensions>
      </trkpt>
      <trkpt lat="47.02409341000020503997802734375" lon="6.92364170216023921966552734375">
        <ele>799.4000244140625</ele>
        <time>2019-06-19T10:29:51.000Z</time>
        <extensions>
          <ns3:TrackPointExtension>
            <ns3:atemp>27.0</ns3:atemp>
            <ns3:hr>140</ns3:hr>
          </ns3:TrackPointExtension>
        </extensions>
      </trkpt>
      <trkpt lat="47.02408703975379467010498046875" lon="6.92363667301833629608154296875">
        <ele>799.5999755859375</ele>
        <time>2019-06-19T10:29:52.000Z</time>
        <extensions>
          <ns3:TrackPointExtension>
            <ns3:atemp>27.0</ns3:atemp>
            <ns3:hr>137</ns3:hr>
          </ns3:TrackPointExtension>
        </extensions>
      </trkpt>
      <trkpt lat="47.02407463453710079193115234375" lon="6.92362627945840358734130859375">
        <ele>799.79998779296875</ele>
        <time>2019-06-19T10:29:53.000Z</time>
        <extensions>
          <ns3:TrackPointExtension>
            <ns3:atemp>27.0</ns3:atemp>
            <ns3:hr>137</ns3:hr>
          </ns3:TrackPointExtension>
        </extensions>
      </trkpt>
      <trkpt lat="47.02402417548000812530517578125" lon="6.9236117787659168243408203125">
        <ele>800.5999755859375</ele>
        <time>2019-06-19T10:29:58.000Z</time>
        <extensions>
          <ns3:TrackPointExtension>
            <ns3:atemp>27.0</ns3:atemp>
            <ns3:hr>137</ns3:hr>
          </ns3:TrackPointExtension>
        </extensions>
      </trkpt>
      <trkpt lat="47.0240135304629802703857421875" lon="6.92361068911850452423095703125">
        <ele>800.79998779296875</ele>
        <time>2019-06-19T10:29:59.000Z</time>
        <extensions>
          <ns3:TrackPointExtension>
            <ns3:atemp>27.0</ns3:atemp>
            <ns3:hr>140</ns3:hr>
          </ns3:TrackPointExtension>
        </extensions>
      </trkpt>
      <trkpt lat="47.02396742999553680419921875" lon="6.9235732220113277435302734375">
        <ele>802</ele>
        <time>2019-06-19T10:30:05.000Z</time>
        <extensions>
          <ns3:TrackPointExtension>
            <ns3:atemp>27.0</ns3:atemp>
            <ns3:hr>140</ns3:hr>
          </ns3:TrackPointExtension>
        </extensions>
      </trkpt>
      <trkpt lat="47.02395661734044551849365234375" lon="6.92355997860431671142578125">
        <ele>802</ele>
        <time>2019-06-19T10:30:06.000Z</time>
        <extensions>
          <ns3:TrackPointExtension>
            <ns3:atemp>27.0</ns3:atemp>
            <ns3:hr>141</ns3:hr>
          </ns3:TrackPointExtension>
        </extensions>
      </trkpt>
      <trkpt lat="47.02388302423059940338134765625" lon="6.9235081784427165985107421875">
        <ele>803</ele>
        <time>2019-06-19T10:30:12.000Z</time>
        <extensions>
          <ns3:TrackPointExtension>
            <ns3:atemp>27.0</ns3:atemp>
            <ns3:hr>141</ns3:hr>
          </ns3:TrackPointExtension>
        </extensions>
      </trkpt>
      <trkpt lat="47.0238737203180789947509765625" lon="6.92349962890148162841796875">
        <ele>803.20001220703125</ele>
        <time>2019-06-19T10:30:13.000Z</time>
        <extensions>
          <ns3:TrackPointExtension>
            <ns3:atemp>27.0</ns3:atemp>
            <ns3:hr>141</ns3:hr>
          </ns3:TrackPointExtension>
        </extensions>
      </trkpt>
      <trkpt lat="47.0237986184656620025634765625" lon="6.92347037605941295623779296875">
        <ele>804.20001220703125</ele>
        <time>2019-06-19T10:30:18.000Z</time>
        <extensions>
          <ns3:TrackPointExtension>
            <ns3:atemp>27.0</ns3:atemp>
            <ns3:hr>142</ns3:hr>
          </ns3:TrackPointExtension>
        </extensions>
      </trkpt>
      <trkpt lat="47.023781351745128631591796875" lon="6.9234614074230194091796875">
        <ele>804.20001220703125</ele>
        <time>2019-06-19T10:30:19.000Z</time>
        <extensions>
          <ns3:TrackPointExtension>
            <ns3:atemp>27.0</ns3:atemp>
            <ns3:hr>143</ns3:hr>
          </ns3:TrackPointExtension>
        </extensions>
      </trkpt>
      <trkpt lat="47.02371454797685146331787109375" lon="6.92341488786041736602783203125">
        <ele>805.20001220703125</ele>
        <time>2019-06-19T10:30:24.000Z</time>
        <extensions>
          <ns3:TrackPointExtension>
            <ns3:atemp>27.0</ns3:atemp>
            <ns3:hr>143</ns3:hr>
          </ns3:TrackPointExtension>
        </extensions>
      </trkpt>
      <trkpt lat="47.02370432205498218536376953125" lon="6.9234029017388820648193359375">
        <ele>805.20001220703125</ele>
        <time>2019-06-19T10:30:25.000Z</time>
        <extensions>
          <ns3:TrackPointExtension>
            <ns3:atemp>27.0</ns3:atemp>
            <ns3:hr>143</ns3:hr>
          </ns3:TrackPointExtension>
        </extensions>
      </trkpt>
      <trkpt lat="47.02367917634546756744384765625" lon="6.92336074076592922210693359375">
        <ele>806.4000244140625</ele>
        <time>2019-06-19T10:30:29.000Z</time>
        <extensions>
          <ns3:TrackPointExtension>
            <ns3:atemp>27.0</ns3:atemp>
            <ns3:hr>141</ns3:hr>
          </ns3:TrackPointExtension>
        </extensions>
      </trkpt>
      <trkpt lat="47.02365822158753871917724609375" lon="6.9233522750437259674072265625">
        <ele>806.5999755859375</ele>
        <time>2019-06-19T10:30:31.000Z</time>
        <extensions>
          <ns3:TrackPointExtension>
            <ns3:atemp>27.0</ns3:atemp>
            <ns3:hr>141</ns3:hr>
          </ns3:TrackPointExtension>
        </extensions>
      </trkpt>
      <trkpt lat="47.02360357157886028289794921875" lon="6.923322938382625579833984375">
        <ele>807.20001220703125</ele>
        <time>2019-06-19T10:30:36.000Z</time>
        <extensions>
          <ns3:TrackPointExtension>
            <ns3:atemp>27.0</ns3:atemp>
            <ns3:hr>139</ns3:hr>
          </ns3:TrackPointExtension>
        </extensions>
      </trkpt>
      <trkpt lat="47.02357825823128223419189453125" lon="6.92329452373087406158447265625">
        <ele>807.4000244140625</ele>
        <time>2019-06-19T10:30:38.000Z</time>
        <extensions>
          <ns3:TrackPointExtension>
            <ns3:atemp>27.0</ns3:atemp>
            <ns3:hr>139</ns3:hr>
          </ns3:TrackPointExtension>
        </extensions>
      </trkpt>
      <trkpt lat="47.02356300316751003265380859375" lon="6.92328371107578277587890625">
        <ele>807.4000244140625</ele>
        <time>2019-06-19T10:30:39.000Z</time>
        <extensions>
          <ns3:TrackPointExtension>
            <ns3:atemp>27.0</ns3:atemp>
            <ns3:hr>139</ns3:hr>
          </ns3:TrackPointExtension>
        </extensions>
      </trkpt>
      <trkpt lat="47.0235220156610012054443359375" lon="6.92324691452085971832275390625">
        <ele>808.4000244140625</ele>
        <time>2019-06-19T10:30:43.000Z</time>
        <extensions>
          <ns3:TrackPointExtension>
            <ns3:atemp>27.0</ns3:atemp>
            <ns3:hr>140</ns3:hr>
          </ns3:TrackPointExtension>
        </extensions>
      </trkpt>
      <trkpt lat="47.0235039107501506805419921875" lon="6.9232366047799587249755859375">
        <ele>808.5999755859375</ele>
        <time>2019-06-19T10:30:45.000Z</time>
        <extensions>
          <ns3:TrackPointExtension>
            <ns3:atemp>27.0</ns3:atemp>
            <ns3:hr>141</ns3:hr>
          </ns3:TrackPointExtension>
        </extensions>
      </trkpt>
      <trkpt lat="47.0234834589064121246337890625" lon="6.92320919595658779144287109375">
        <ele>809</ele>
        <time>2019-06-19T10:30:47.000Z</time>
        <extensions>
          <ns3:TrackPointExtension>
            <ns3:atemp>27.0</ns3:atemp>
            <ns3:hr>145</ns3:hr>
          </ns3:TrackPointExtension>
        </extensions>
      </trkpt>
      <trkpt lat="47.02345957048237323760986328125" lon="6.9231953658163547515869140625">
        <ele>809.20001220703125</ele>
        <time>2019-06-19T10:30:49.000Z</time>
        <extensions>
          <ns3:TrackPointExtension>
            <ns3:atemp>27.0</ns3:atemp>
            <ns3:hr>142</ns3:hr>
          </ns3:TrackPointExtension>
        </extensions>
      </trkpt>
      <trkpt lat="47.02343844808638095855712890625" lon="6.92317768000066280364990234375">
        <ele>809.4000244140625</ele>
        <time>2019-06-19T10:30:51.000Z</time>
        <extensions>
          <ns3:TrackPointExtension>
            <ns3:atemp>27.0</ns3:atemp>
            <ns3:hr>142</ns3:hr>
          </ns3:TrackPointExtension>
        </extensions>
      </trkpt>
      <trkpt lat="47.0234264619648456573486328125" lon="6.9231718964874744415283203125">
        <ele>809.79998779296875</ele>
        <time>2019-06-19T10:30:52.000Z</time>
        <extensions>
          <ns3:TrackPointExtension>
            <ns3:atemp>27.0</ns3:atemp>
            <ns3:hr>141</ns3:hr>
          </ns3:TrackPointExtension>
        </extensions>
      </trkpt>
      <trkpt lat="47.023416571319103240966796875" lon="6.92315991036593914031982421875">
        <ele>810</ele>
        <time>2019-06-19T10:30:53.000Z</time>
        <extensions>
          <ns3:TrackPointExtension>
            <ns3:atemp>27.0</ns3:atemp>
            <ns3:hr>144</ns3:hr>
          </ns3:TrackPointExtension>
        </extensions>
      </trkpt>
      <trkpt lat="47.0233979634940624237060546875" lon="6.9231449067592620849609375">
        <ele>810.4000244140625</ele>
        <time>2019-06-19T10:30:55.000Z</time>
        <extensions>
          <ns3:TrackPointExtension>
            <ns3:atemp>27.0</ns3:atemp>
            <ns3:hr>141</ns3:hr>
          </ns3:TrackPointExtension>
        </extensions>
      </trkpt>
      <trkpt lat="47.02338933013379573822021484375" lon="6.92313476465642452239990234375">
        <ele>810.5999755859375</ele>
        <time>2019-06-19T10:30:56.000Z</time>
        <extensions>
          <ns3:TrackPointExtension>
            <ns3:atemp>27.0</ns3:atemp>
            <ns3:hr>142</ns3:hr>
          </ns3:TrackPointExtension>
        </extensions>
      </trkpt>
      <trkpt lat="47.02336435206234455108642578125" lon="6.9230790250003337860107421875">
        <ele>811</ele>
        <time>2019-06-19T10:31:00.000Z</time>
        <extensions>
          <ns3:TrackPointExtension>
            <ns3:atemp>27.0</ns3:atemp>
            <ns3:hr>140</ns3:hr>
          </ns3:TrackPointExtension>
        </extensions>
      </trkpt>
      <trkpt lat="47.0233547128736972808837890625" lon="6.9230696372687816619873046875">
        <ele>811.4000244140625</ele>
        <time>2019-06-19T10:31:01.000Z</time>
        <extensions>
          <ns3:TrackPointExtension>
            <ns3:atemp>27.0</ns3:atemp>
            <ns3:hr>139</ns3:hr>
          </ns3:TrackPointExtension>
        </extensions>
      </trkpt>
      <trkpt lat="47.02333711087703704833984375" lon="6.923048011958599090576171875">
        <ele>811.79998779296875</ele>
        <time>2019-06-19T10:31:03.000Z</time>
        <extensions>
          <ns3:TrackPointExtension>
            <ns3:atemp>27.0</ns3:atemp>
            <ns3:hr>138</ns3:hr>
          </ns3:TrackPointExtension>
        </extensions>
      </trkpt>
      <trkpt lat="47.023327052593231201171875" lon="6.9230414740741252899169921875">
        <ele>812</ele>
        <time>2019-06-19T10:31:04.000Z</time>
        <extensions>
          <ns3:TrackPointExtension>
            <ns3:atemp>27.0</ns3:atemp>
            <ns3:hr>142</ns3:hr>
          </ns3:TrackPointExtension>
        </extensions>
      </trkpt>
      <trkpt lat="47.0232977159321308135986328125" lon="6.9230133108794689178466796875">
        <ele>812.4000244140625</ele>
        <time>2019-06-19T10:31:07.000Z</time>
        <extensions>
          <ns3:TrackPointExtension>
            <ns3:atemp>27.0</ns3:atemp>
            <ns3:hr>144</ns3:hr>
          </ns3:TrackPointExtension>
        </extensions>
      </trkpt>
      <trkpt lat="47.02325806953012943267822265625" lon="6.9229767657816410064697265625">
        <ele>812.79998779296875</ele>
        <time>2019-06-19T10:31:11.000Z</time>
        <extensions>
          <ns3:TrackPointExtension>
            <ns3:atemp>27.0</ns3:atemp>
            <ns3:hr>147</ns3:hr>
          </ns3:TrackPointExtension>
        </extensions>
      </trkpt>
      <trkpt lat="47.02325035817921161651611328125" lon="6.9229730777442455291748046875">
        <ele>813</ele>
        <time>2019-06-19T10:31:12.000Z</time>
        <extensions>
          <ns3:TrackPointExtension>
            <ns3:atemp>27.0</ns3:atemp>
            <ns3:hr>147</ns3:hr>
          </ns3:TrackPointExtension>
        </extensions>
      </trkpt>
      <trkpt lat="47.02323853969573974609375" lon="6.9229673780500888824462890625">
        <ele>813.4000244140625</ele>
        <time>2019-06-19T10:31:14.000Z</time>
        <extensions>
          <ns3:TrackPointExtension>
            <ns3:atemp>27.0</ns3:atemp>
            <ns3:hr>147</ns3:hr>
          </ns3:TrackPointExtension>
        </extensions>
      </trkpt>
      <trkpt lat="47.02321766875684261322021484375" lon="6.92294583655893802642822265625">
        <ele>814</ele>
        <time>2019-06-19T10:31:17.000Z</time>
        <extensions>
          <ns3:TrackPointExtension>
            <ns3:atemp>27.0</ns3:atemp>
            <ns3:hr>148</ns3:hr>
          </ns3:TrackPointExtension>
        </extensions>
      </trkpt>
      <trkpt lat="47.0232078619301319122314453125" lon="6.92291851155459880828857421875">
        <ele>814.4000244140625</ele>
        <time>2019-06-19T10:31:20.000Z</time>
        <extensions>
          <ns3:TrackPointExtension>
            <ns3:atemp>27.0</ns3:atemp>
            <ns3:hr>149</ns3:hr>
          </ns3:TrackPointExtension>
        </extensions>
      </trkpt>
      <trkpt lat="47.02318095602095127105712890625" lon="6.92289940081536769866943359375">
        <ele>815.20001220703125</ele>
        <time>2019-06-19T10:31:23.000Z</time>
        <extensions>
          <ns3:TrackPointExtension>
            <ns3:atemp>27.0</ns3:atemp>
            <ns3:hr>149</ns3:hr>
          </ns3:TrackPointExtension>
        </extensions>
      </trkpt>
      <trkpt lat="47.02314759604632854461669921875" lon="6.9228802062571048736572265625">
        <ele>815.5999755859375</ele>
        <time>2019-06-19T10:31:26.000Z</time>
        <extensions>
          <ns3:TrackPointExtension>
            <ns3:atemp>27.0</ns3:atemp>
            <ns3:hr>149</ns3:hr>
          </ns3:TrackPointExtension>
        </extensions>
      </trkpt>
      <trkpt lat="47.0231129787862300872802734375" lon="6.9228738360106945037841796875">
        <ele>815.79998779296875</ele>
        <time>2019-06-19T10:31:29.000Z</time>
        <extensions>
          <ns3:TrackPointExtension>
            <ns3:atemp>27.0</ns3:atemp>
            <ns3:hr>148</ns3:hr>
          </ns3:TrackPointExtension>
        </extensions>
      </trkpt>
      <trkpt lat="47.02308137901127338409423828125" lon="6.92286855541169643402099609375">
        <ele>816.20001220703125</ele>
        <time>2019-06-19T10:31:31.000Z</time>
        <extensions>
          <ns3:TrackPointExtension>
            <ns3:atemp>27.0</ns3:atemp>
            <ns3:hr>147</ns3:hr>
          </ns3:TrackPointExtension>
        </extensions>
      </trkpt>
      <trkpt lat="47.02306143008172512054443359375" lon="6.9228557310998439788818359375">
        <ele>816.5999755859375</ele>
        <time>2019-06-19T10:31:33.000Z</time>
        <extensions>
          <ns3:TrackPointExtension>
            <ns3:atemp>27.0</ns3:atemp>
            <ns3:hr>147</ns3:hr>
          </ns3:TrackPointExtension>
        </extensions>
      </trkpt>
      <trkpt lat="47.02301734127104282379150390625" lon="6.922826059162616729736328125">
        <ele>817.4000244140625</ele>
        <time>2019-06-19T10:31:37.000Z</time>
        <extensions>
          <ns3:TrackPointExtension>
            <ns3:atemp>27.0</ns3:atemp>
            <ns3:hr>146</ns3:hr>
          </ns3:TrackPointExtension>
        </extensions>
      </trkpt>
      <trkpt lat="47.02298440039157867431640625" lon="6.92281298339366912841796875">
        <ele>817.79998779296875</ele>
        <time>2019-06-19T10:31:40.000Z</time>
        <extensions>
          <ns3:TrackPointExtension>
            <ns3:atemp>27.0</ns3:atemp>
            <ns3:hr>145</ns3:hr>
          </ns3:TrackPointExtension>
        </extensions>
      </trkpt>
      <trkpt lat="47.02295087277889251708984375" lon="6.92278825677931308746337890625">
        <ele>818.20001220703125</ele>
        <time>2019-06-19T10:31:42.000Z</time>
        <extensions>
          <ns3:TrackPointExtension>
            <ns3:atemp>27.0</ns3:atemp>
            <ns3:hr>146</ns3:hr>
          </ns3:TrackPointExtension>
        </extensions>
      </trkpt>
      <trkpt lat="47.0229352824389934539794921875" lon="6.9227668829262256622314453125">
        <ele>818.4000244140625</ele>
        <time>2019-06-19T10:31:44.000Z</time>
        <extensions>
          <ns3:TrackPointExtension>
            <ns3:atemp>27.0</ns3:atemp>
            <ns3:hr>146</ns3:hr>
          </ns3:TrackPointExtension>
        </extensions>
      </trkpt>
      <trkpt lat="47.02287937514483928680419921875" lon="6.922732852399349212646484375">
        <ele>819.4000244140625</ele>
        <time>2019-06-19T10:31:49.000Z</time>
        <extensions>
          <ns3:TrackPointExtension>
            <ns3:atemp>27.0</ns3:atemp>
            <ns3:hr>146</ns3:hr>
          </ns3:TrackPointExtension>
        </extensions>
      </trkpt>
      <trkpt lat="47.0227892696857452392578125" lon="6.92266806028783321380615234375">
        <ele>820.5999755859375</ele>
        <time>2019-06-19T10:31:57.000Z</time>
        <extensions>
          <ns3:TrackPointExtension>
            <ns3:atemp>27.0</ns3:atemp>
            <ns3:hr>147</ns3:hr>
          </ns3:TrackPointExtension>
        </extensions>
      </trkpt>
      <trkpt lat="47.0227726735174655914306640625" lon="6.92267082631587982177734375">
        <ele>820.79998779296875</ele>
        <time>2019-06-19T10:31:58.000Z</time>
        <extensions>
          <ns3:TrackPointExtension>
            <ns3:atemp>27.0</ns3:atemp>
            <ns3:hr>147</ns3:hr>
          </ns3:TrackPointExtension>
        </extensions>
      </trkpt>
      <trkpt lat="47.02271190471947193145751953125" lon="6.92267795093357563018798828125">
        <ele>821.5999755859375</ele>
        <time>2019-06-19T10:32:03.000Z</time>
        <extensions>
          <ns3:TrackPointExtension>
            <ns3:atemp>27.0</ns3:atemp>
            <ns3:hr>150</ns3:hr>
          </ns3:TrackPointExtension>
        </extensions>
      </trkpt>
      <trkpt lat="47.02269866131246089935302734375" lon="6.92267753183841705322265625">
        <ele>821.79998779296875</ele>
        <time>2019-06-19T10:32:04.000Z</time>
        <extensions>
          <ns3:TrackPointExtension>
            <ns3:atemp>27.0</ns3:atemp>
            <ns3:hr>147</ns3:hr>
          </ns3:TrackPointExtension>
        </extensions>
      </trkpt>
      <trkpt lat="47.02264350838959217071533203125" lon="6.9226746819913387298583984375">
        <ele>823</ele>
        <time>2019-06-19T10:32:08.000Z</time>
        <extensions>
          <ns3:TrackPointExtension>
            <ns3:atemp>27.0</ns3:atemp>
            <ns3:hr>148</ns3:hr>
          </ns3:TrackPointExtension>
        </extensions>
      </trkpt>
      <trkpt lat="47.02262439765036106109619140625" lon="6.9226652942597866058349609375">
        <ele>823.20001220703125</ele>
        <time>2019-06-19T10:32:10.000Z</time>
        <extensions>
          <ns3:TrackPointExtension>
            <ns3:atemp>27.0</ns3:atemp>
            <ns3:hr>148</ns3:hr>
          </ns3:TrackPointExtension>
        </extensions>
      </trkpt>
      <trkpt lat="47.02258475124835968017578125" lon="6.92263252101838588714599609375">
        <ele>823.79998779296875</ele>
        <time>2019-06-19T10:32:14.000Z</time>
        <extensions>
          <ns3:TrackPointExtension>
            <ns3:atemp>27.0</ns3:atemp>
            <ns3:hr>148</ns3:hr>
          </ns3:TrackPointExtension>
        </extensions>
      </trkpt>
      <trkpt lat="47.02256622724235057830810546875" lon="6.922620199620723724365234375">
        <ele>824</ele>
        <time>2019-06-19T10:32:16.000Z</time>
        <extensions>
          <ns3:TrackPointExtension>
            <ns3:atemp>27.0</ns3:atemp>
            <ns3:hr>148</ns3:hr>
          </ns3:TrackPointExtension>
        </extensions>
      </trkpt>
      <trkpt lat="47.0225423388183116912841796875" lon="6.92262011580169200897216796875">
        <ele>824.20001220703125</ele>
        <time>2019-06-19T10:32:18.000Z</time>
        <extensions>
          <ns3:TrackPointExtension>
            <ns3:atemp>27.0</ns3:atemp>
            <ns3:hr>148</ns3:hr>
          </ns3:TrackPointExtension>
        </extensions>
      </trkpt>
      <trkpt lat="47.02247880399227142333984375" lon="6.92261056043207645416259765625">
        <ele>825.20001220703125</ele>
        <time>2019-06-19T10:32:23.000Z</time>
        <extensions>
          <ns3:TrackPointExtension>
            <ns3:atemp>27.0</ns3:atemp>
            <ns3:hr>149</ns3:hr>
          </ns3:TrackPointExtension>
        </extensions>
      </trkpt>
      <trkpt lat="47.02244133688509464263916015625" lon="6.92260033451020717620849609375">
        <ele>825.79998779296875</ele>
        <time>2019-06-19T10:32:26.000Z</time>
        <extensions>
          <ns3:TrackPointExtension>
            <ns3:atemp>27.0</ns3:atemp>
            <ns3:hr>148</ns3:hr>
          </ns3:TrackPointExtension>
        </extensions>
      </trkpt>
      <trkpt lat="47.02238903380930423736572265625" lon="6.922592036426067352294921875">
        <ele>826.4000244140625</ele>
        <time>2019-06-19T10:32:31.000Z</time>
        <extensions>
          <ns3:TrackPointExtension>
            <ns3:atemp>27.0</ns3:atemp>
            <ns3:hr>148</ns3:hr>
          </ns3:TrackPointExtension>
        </extensions>
      </trkpt>
      <trkpt lat="47.02236338518559932708740234375" lon="6.92259094677865505218505859375">
        <ele>827.4000244140625</ele>
        <time>2019-06-19T10:32:34.000Z</time>
        <extensions>
          <ns3:TrackPointExtension>
            <ns3:atemp>27.0</ns3:atemp>
            <ns3:hr>148</ns3:hr>
          </ns3:TrackPointExtension>
        </extensions>
      </trkpt>
      <trkpt lat="47.022351734340190887451171875" lon="6.92258675582706928253173828125">
        <ele>827.5999755859375</ele>
        <time>2019-06-19T10:32:35.000Z</time>
        <extensions>
          <ns3:TrackPointExtension>
            <ns3:atemp>27.0</ns3:atemp>
            <ns3:hr>149</ns3:hr>
          </ns3:TrackPointExtension>
        </extensions>
      </trkpt>
      <trkpt lat="47.02227453701198101043701171875" lon="6.92258072085678577423095703125">
        <ele>828.20001220703125</ele>
        <time>2019-06-19T10:32:41.000Z</time>
        <extensions>
          <ns3:TrackPointExtension>
            <ns3:atemp>27.0</ns3:atemp>
            <ns3:hr>148</ns3:hr>
          </ns3:TrackPointExtension>
        </extensions>
      </trkpt>
      <trkpt lat="47.02224654145538806915283203125" lon="6.92257485352456569671630859375">
        <ele>828.5999755859375</ele>
        <time>2019-06-19T10:32:43.000Z</time>
        <extensions>
          <ns3:TrackPointExtension>
            <ns3:atemp>27.0</ns3:atemp>
            <ns3:hr>148</ns3:hr>
          </ns3:TrackPointExtension>
        </extensions>
      </trkpt>
      <trkpt lat="47.02216020785272121429443359375" lon="6.92255255766212940216064453125">
        <ele>829.79998779296875</ele>
        <time>2019-06-19T10:32:49.000Z</time>
        <extensions>
          <ns3:TrackPointExtension>
            <ns3:atemp>27.0</ns3:atemp>
            <ns3:hr>149</ns3:hr>
          </ns3:TrackPointExtension>
        </extensions>
      </trkpt>
      <trkpt lat="47.02210002578794956207275390625" lon="6.92252540029585361480712890625">
        <ele>830.79998779296875</ele>
        <time>2019-06-19T10:32:54.000Z</time>
        <extensions>
          <ns3:TrackPointExtension>
            <ns3:atemp>27.0</ns3:atemp>
            <ns3:hr>148</ns3:hr>
          </ns3:TrackPointExtension>
        </extensions>
      </trkpt>
      <trkpt lat="47.0220622234046459197998046875" lon="6.92250846885144710540771484375">
        <ele>831.20001220703125</ele>
        <time>2019-06-19T10:32:58.000Z</time>
        <extensions>
          <ns3:TrackPointExtension>
            <ns3:atemp>27.0</ns3:atemp>
            <ns3:hr>149</ns3:hr>
          </ns3:TrackPointExtension>
        </extensions>
      </trkpt>
      <trkpt lat="47.02203012071549892425537109375" lon="6.922493465244770050048828125">
        <ele>831.79998779296875</ele>
        <time>2019-06-19T10:33:01.000Z</time>
        <extensions>
          <ns3:TrackPointExtension>
            <ns3:atemp>27.0</ns3:atemp>
            <ns3:hr>149</ns3:hr>
          </ns3:TrackPointExtension>
        </extensions>
      </trkpt>
      <trkpt lat="47.0220253430306911468505859375" lon="6.92247929982841014862060546875">
        <ele>831.79998779296875</ele>
        <time>2019-06-19T10:33:02.000Z</time>
        <extensions>
          <ns3:TrackPointExtension>
            <ns3:atemp>27.0</ns3:atemp>
            <ns3:hr>149</ns3:hr>
          </ns3:TrackPointExtension>
        </extensions>
      </trkpt>
      <trkpt lat="47.02200028114020824432373046875" lon="6.92245951853692531585693359375">
        <ele>832.4000244140625</ele>
        <time>2019-06-19T10:33:05.000Z</time>
        <extensions>
          <ns3:TrackPointExtension>
            <ns3:atemp>27.0</ns3:atemp>
            <ns3:hr>149</ns3:hr>
          </ns3:TrackPointExtension>
        </extensions>
      </trkpt>
      <trkpt lat="47.0219807513058185577392578125" lon="6.92244208417832851409912109375">
        <ele>833</ele>
        <time>2019-06-19T10:33:08.000Z</time>
        <extensions>
          <ns3:TrackPointExtension>
            <ns3:atemp>27.0</ns3:atemp>
            <ns3:hr>149</ns3:hr>
          </ns3:TrackPointExtension>
        </extensions>
      </trkpt>
      <trkpt lat="47.02194060198962688446044921875" lon="6.9224443472921848297119140625">
        <ele>833.79998779296875</ele>
        <time>2019-06-19T10:33:12.000Z</time>
        <extensions>
          <ns3:TrackPointExtension>
            <ns3:atemp>27.0</ns3:atemp>
            <ns3:hr>147</ns3:hr>
          </ns3:TrackPointExtension>
        </extensions>
      </trkpt>
      <trkpt lat="47.021926939487457275390625" lon="6.92243487574160099029541015625">
        <ele>834</ele>
        <time>2019-06-19T10:33:13.000Z</time>
        <extensions>
          <ns3:TrackPointExtension>
            <ns3:atemp>27.0</ns3:atemp>
            <ns3:hr>147</ns3:hr>
          </ns3:TrackPointExtension>
        </extensions>
      </trkpt>
      <trkpt lat="47.02191042713820934295654296875" lon="6.92242280580103397369384765625">
        <ele>834</ele>
        <time>2019-06-19T10:33:15.000Z</time>
        <extensions>
          <ns3:TrackPointExtension>
            <ns3:atemp>27.0</ns3:atemp>
            <ns3:hr>147</ns3:hr>
          </ns3:TrackPointExtension>
        </extensions>
      </trkpt>
      <trkpt lat="47.02189986594021320343017578125" lon="6.9224118255078792572021484375">
        <ele>834.20001220703125</ele>
        <time>2019-06-19T10:33:16.000Z</time>
        <extensions>
          <ns3:TrackPointExtension>
            <ns3:atemp>27.0</ns3:atemp>
            <ns3:hr>147</ns3:hr>
          </ns3:TrackPointExtension>
        </extensions>
      </trkpt>
      <trkpt lat="47.0218748040497303009033203125" lon="6.922402940690517425537109375">
        <ele>834.79998779296875</ele>
        <time>2019-06-19T10:33:18.000Z</time>
        <extensions>
          <ns3:TrackPointExtension>
            <ns3:atemp>27.0</ns3:atemp>
            <ns3:hr>148</ns3:hr>
          </ns3:TrackPointExtension>
        </extensions>
      </trkpt>
      <trkpt lat="47.02185527421534061431884765625" lon="6.9223933853209018707275390625">
        <ele>835.20001220703125</ele>
        <time>2019-06-19T10:33:19.000Z</time>
        <extensions>
          <ns3:TrackPointExtension>
            <ns3:atemp>27.0</ns3:atemp>
            <ns3:hr>148</ns3:hr>
          </ns3:TrackPointExtension>
        </extensions>
      </trkpt>
      <trkpt lat="47.02180682681500911712646484375" lon="6.9223692454397678375244140625">
        <ele>835.79998779296875</ele>
        <time>2019-06-19T10:33:25.000Z</time>
        <extensions>
          <ns3:TrackPointExtension>
            <ns3:atemp>27.0</ns3:atemp>
            <ns3:hr>149</ns3:hr>
          </ns3:TrackPointExtension>
        </extensions>
      </trkpt>
      <trkpt lat="47.02179190702736377716064453125" lon="6.922372095286846160888671875">
        <ele>836</ele>
        <time>2019-06-19T10:33:26.000Z</time>
        <extensions>
          <ns3:TrackPointExtension>
            <ns3:atemp>27.0</ns3:atemp>
            <ns3:hr>147</ns3:hr>
          </ns3:TrackPointExtension>
        </extensions>
      </trkpt>
      <trkpt lat="47.02178318984806537628173828125" lon="6.92237385548651218414306640625">
        <ele>836.20001220703125</ele>
        <time>2019-06-19T10:33:27.000Z</time>
        <extensions>
          <ns3:TrackPointExtension>
            <ns3:atemp>27.0</ns3:atemp>
            <ns3:hr>148</ns3:hr>
          </ns3:TrackPointExtension>
        </extensions>
      </trkpt>
      <trkpt lat="47.0217661745846271514892578125" lon="6.92237469367682933807373046875">
        <ele>836.4000244140625</ele>
        <time>2019-06-19T10:33:29.000Z</time>
        <extensions>
          <ns3:TrackPointExtension>
            <ns3:atemp>27.0</ns3:atemp>
            <ns3:hr>147</ns3:hr>
          </ns3:TrackPointExtension>
        </extensions>
      </trkpt>
      <trkpt lat="47.02175402082502841949462890625" lon="6.9223702512681484222412109375">
        <ele>836.5999755859375</ele>
        <time>2019-06-19T10:33:30.000Z</time>
        <extensions>
          <ns3:TrackPointExtension>
            <ns3:atemp>27.0</ns3:atemp>
            <ns3:hr>147</ns3:hr>
          </ns3:TrackPointExtension>
        </extensions>
      </trkpt>
      <trkpt lat="47.0217189006507396697998046875" lon="6.9223471172153949737548828125">
        <ele>837.4000244140625</ele>
        <time>2019-06-19T10:33:33.000Z</time>
        <extensions>
          <ns3:TrackPointExtension>
            <ns3:atemp>27.0</ns3:atemp>
            <ns3:hr>147</ns3:hr>
          </ns3:TrackPointExtension>
        </extensions>
      </trkpt>
      <trkpt lat="47.02167506329715251922607421875" lon="6.92233211360871791839599609375">
        <ele>838.20001220703125</ele>
        <time>2019-06-19T10:33:37.000Z</time>
        <extensions>
          <ns3:TrackPointExtension>
            <ns3:atemp>27.0</ns3:atemp>
            <ns3:hr>147</ns3:hr>
          </ns3:TrackPointExtension>
        </extensions>
      </trkpt>
      <trkpt lat="47.02163633890450000762939453125" lon="6.9222998432815074920654296875">
        <ele>838.4000244140625</ele>
        <time>2019-06-19T10:33:40.000Z</time>
        <extensions>
          <ns3:TrackPointExtension>
            <ns3:atemp>27.0</ns3:atemp>
            <ns3:hr>149</ns3:hr>
          </ns3:TrackPointExtension>
        </extensions>
      </trkpt>
      <trkpt lat="47.02161856926977634429931640625" lon="6.92226187326014041900634765625">
        <ele>839</ele>
        <time>2019-06-19T10:33:43.000Z</time>
        <extensions>
          <ns3:TrackPointExtension>
            <ns3:atemp>27.0</ns3:atemp>
            <ns3:hr>151</ns3:hr>
          </ns3:TrackPointExtension>
        </extensions>
      </trkpt>
      <trkpt lat="47.02157431282103061676025390625" lon="6.9222515635192394256591796875">
        <ele>839.4000244140625</ele>
        <time>2019-06-19T10:33:46.000Z</time>
        <extensions>
          <ns3:TrackPointExtension>
            <ns3:atemp>27.0</ns3:atemp>
            <ns3:hr>148</ns3:hr>
          </ns3:TrackPointExtension>
        </extensions>
      </trkpt>
      <trkpt lat="47.021561153233051300048828125" lon="6.92225181497633457183837890625">
        <ele>839.4000244140625</ele>
        <time>2019-06-19T10:33:47.000Z</time>
        <extensions>
          <ns3:TrackPointExtension>
            <ns3:atemp>27.0</ns3:atemp>
            <ns3:hr>147</ns3:hr>
          </ns3:TrackPointExtension>
        </extensions>
      </trkpt>
      <trkpt lat="47.02155117876827716827392578125" lon="6.922252066433429718017578125">
        <ele>839.5999755859375</ele>
        <time>2019-06-19T10:33:48.000Z</time>
        <extensions>
          <ns3:TrackPointExtension>
            <ns3:atemp>27.0</ns3:atemp>
            <ns3:hr>147</ns3:hr>
          </ns3:TrackPointExtension>
        </extensions>
      </trkpt>
      <trkpt lat="47.02152502723038196563720703125" lon="6.92224879749119281768798828125">
        <ele>840.20001220703125</ele>
        <time>2019-06-19T10:33:50.000Z</time>
        <extensions>
          <ns3:TrackPointExtension>
            <ns3:atemp>27.0</ns3:atemp>
            <ns3:hr>147</ns3:hr>
          </ns3:TrackPointExtension>
        </extensions>
      </trkpt>
      <trkpt lat="47.02150021679699420928955078125" lon="6.92224301397800445556640625">
        <ele>840.5999755859375</ele>
        <time>2019-06-19T10:33:52.000Z</time>
        <extensions>
          <ns3:TrackPointExtension>
            <ns3:atemp>27.0</ns3:atemp>
            <ns3:hr>147</ns3:hr>
          </ns3:TrackPointExtension>
        </extensions>
      </trkpt>
      <trkpt lat="47.02144489623606204986572265625" lon="6.92224376834928989410400390625">
        <ele>841.4000244140625</ele>
        <time>2019-06-19T10:33:57.000Z</time>
        <extensions>
          <ns3:TrackPointExtension>
            <ns3:atemp>27.0</ns3:atemp>
            <ns3:hr>149</ns3:hr>
          </ns3:TrackPointExtension>
        </extensions>
      </trkpt>
      <trkpt lat="47.02143366448581218719482421875" lon="6.92224091850221157073974609375">
        <ele>841.79998779296875</ele>
        <time>2019-06-19T10:33:59.000Z</time>
        <extensions>
          <ns3:TrackPointExtension>
            <ns3:atemp>27.0</ns3:atemp>
            <ns3:hr>149</ns3:hr>
          </ns3:TrackPointExtension>
        </extensions>
      </trkpt>
      <trkpt lat="47.02139711938798427581787109375" lon="6.92220923490822315216064453125">
        <ele>842.5999755859375</ele>
        <time>2019-06-19T10:34:03.000Z</time>
        <extensions>
          <ns3:TrackPointExtension>
            <ns3:atemp>27.0</ns3:atemp>
            <ns3:hr>148</ns3:hr>
          </ns3:TrackPointExtension>
        </extensions>
      </trkpt>
      <trkpt lat="47.0213886536657810211181640625" lon="6.92220403812825679779052734375">
        <ele>842.79998779296875</ele>
        <time>2019-06-19T10:34:04.000Z</time>
        <extensions>
          <ns3:TrackPointExtension>
            <ns3:atemp>27.0</ns3:atemp>
            <ns3:hr>148</ns3:hr>
          </ns3:TrackPointExtension>
        </extensions>
      </trkpt>
      <trkpt lat="47.02137046493589878082275390625" lon="6.92218626849353313446044921875">
        <ele>843</ele>
        <time>2019-06-19T10:34:06.000Z</time>
        <extensions>
          <ns3:TrackPointExtension>
            <ns3:atemp>27.0</ns3:atemp>
            <ns3:hr>148</ns3:hr>
          </ns3:TrackPointExtension>
        </extensions>
      </trkpt>
      <trkpt lat="47.02132822014391422271728515625" lon="6.92217621020972728729248046875">
        <ele>843.79998779296875</ele>
        <time>2019-06-19T10:34:10.000Z</time>
        <extensions>
          <ns3:TrackPointExtension>
            <ns3:atemp>27.0</ns3:atemp>
            <ns3:hr>150</ns3:hr>
          </ns3:TrackPointExtension>
        </extensions>
      </trkpt>
      <trkpt lat="47.02130039222538471221923828125" lon="6.92217369563877582550048828125">
        <ele>844.20001220703125</ele>
        <time>2019-06-19T10:34:12.000Z</time>
        <extensions>
          <ns3:TrackPointExtension>
            <ns3:atemp>27.0</ns3:atemp>
            <ns3:hr>149</ns3:hr>
          </ns3:TrackPointExtension>
        </extensions>
      </trkpt>
      <trkpt lat="47.0212870649993419647216796875" lon="6.92217101342976093292236328125">
        <ele>844.4000244140625</ele>
        <time>2019-06-19T10:34:13.000Z</time>
        <extensions>
          <ns3:TrackPointExtension>
            <ns3:atemp>27.0</ns3:atemp>
            <ns3:hr>149</ns3:hr>
          </ns3:TrackPointExtension>
        </extensions>
      </trkpt>
      <trkpt lat="47.02123266644775867462158203125" lon="6.922141425311565399169921875">
        <ele>845</ele>
        <time>2019-06-19T10:34:17.000Z</time>
        <extensions>
          <ns3:TrackPointExtension>
            <ns3:atemp>27.0</ns3:atemp>
            <ns3:hr>149</ns3:hr>
          </ns3:TrackPointExtension>
        </extensions>
      </trkpt>
      <trkpt lat="47.02121858485043048858642578125" lon="6.92213681526482105255126953125">
        <ele>845</ele>
        <time>2019-06-19T10:34:18.000Z</time>
        <extensions>
          <ns3:TrackPointExtension>
            <ns3:atemp>27.0</ns3:atemp>
            <ns3:hr>149</ns3:hr>
          </ns3:TrackPointExtension>
        </extensions>
      </trkpt>
      <trkpt lat="47.02119042165577411651611328125" lon="6.92212994210422039031982421875">
        <ele>845.20001220703125</ele>
        <time>2019-06-19T10:34:20.000Z</time>
        <extensions>
          <ns3:TrackPointExtension>
            <ns3:atemp>27.0</ns3:atemp>
            <ns3:hr>149</ns3:hr>
          </ns3:TrackPointExtension>
        </extensions>
      </trkpt>
      <trkpt lat="47.02111129648983478546142578125" lon="6.92211938090622425079345703125">
        <ele>846.20001220703125</ele>
        <time>2019-06-19T10:34:25.000Z</time>
        <extensions>
          <ns3:TrackPointExtension>
            <ns3:atemp>27.0</ns3:atemp>
            <ns3:hr>148</ns3:hr>
          </ns3:TrackPointExtension>
        </extensions>
      </trkpt>
      <trkpt lat="47.02109822072088718414306640625" lon="6.922118961811065673828125">
        <ele>846.4000244140625</ele>
        <time>2019-06-19T10:34:26.000Z</time>
        <extensions>
          <ns3:TrackPointExtension>
            <ns3:atemp>27.0</ns3:atemp>
            <ns3:hr>149</ns3:hr>
          </ns3:TrackPointExtension>
        </extensions>
      </trkpt>
      <trkpt lat="47.0210436545312404632568359375" lon="6.9221184588968753814697265625">
        <ele>847.4000244140625</ele>
        <time>2019-06-19T10:34:31.000Z</time>
        <extensions>
          <ns3:TrackPointExtension>
            <ns3:atemp>27.0</ns3:atemp>
            <ns3:hr>148</ns3:hr>
          </ns3:TrackPointExtension>
        </extensions>
      </trkpt>
      <trkpt lat="47.02103753574192523956298828125" lon="6.92211418412625789642333984375">
        <ele>847.4000244140625</ele>
        <time>2019-06-19T10:34:32.000Z</time>
        <extensions>
          <ns3:TrackPointExtension>
            <ns3:atemp>27.0</ns3:atemp>
            <ns3:hr>148</ns3:hr>
          </ns3:TrackPointExtension>
        </extensions>
      </trkpt>
      <trkpt lat="47.0210128091275691986083984375" lon="6.9221023656427860260009765625">
        <ele>847.79998779296875</ele>
        <time>2019-06-19T10:34:36.000Z</time>
        <extensions>
          <ns3:TrackPointExtension>
            <ns3:atemp>27.0</ns3:atemp>
            <ns3:hr>151</ns3:hr>
          </ns3:TrackPointExtension>
        </extensions>
      </trkpt>
      <trkpt lat="47.0209987275302410125732421875" lon="6.9221006892621517181396484375">
        <ele>848.4000244140625</ele>
        <time>2019-06-19T10:34:38.000Z</time>
        <extensions>
          <ns3:TrackPointExtension>
            <ns3:atemp>27.0</ns3:atemp>
            <ns3:hr>151</ns3:hr>
          </ns3:TrackPointExtension>
        </extensions>
      </trkpt>
      <trkpt lat="47.0209910161793231964111328125" lon="6.92209825851023197174072265625">
        <ele>848.5999755859375</ele>
        <time>2019-06-19T10:34:39.000Z</time>
        <extensions>
          <ns3:TrackPointExtension>
            <ns3:atemp>27.0</ns3:atemp>
            <ns3:hr>151</ns3:hr>
          </ns3:TrackPointExtension>
        </extensions>
      </trkpt>
      <trkpt lat="47.0209018327295780181884765625" lon="6.92207110114395618438720703125">
        <ele>849.4000244140625</ele>
        <time>2019-06-19T10:34:46.000Z</time>
        <extensions>
          <ns3:TrackPointExtension>
            <ns3:atemp>27.0</ns3:atemp>
            <ns3:hr>149</ns3:hr>
          </ns3:TrackPointExtension>
        </extensions>
      </trkpt>
      <trkpt lat="47.020885907113552093505859375" lon="6.92207311280071735382080078125">
        <ele>849.5999755859375</ele>
        <time>2019-06-19T10:34:47.000Z</time>
        <extensions>
          <ns3:TrackPointExtension>
            <ns3:atemp>27.0</ns3:atemp>
            <ns3:hr>149</ns3:hr>
          </ns3:TrackPointExtension>
        </extensions>
      </trkpt>
      <trkpt lat="47.02083653770387172698974609375" lon="6.9220346398651599884033203125">
        <ele>850.5999755859375</ele>
        <time>2019-06-19T10:34:53.000Z</time>
        <extensions>
          <ns3:TrackPointExtension>
            <ns3:atemp>27.0</ns3:atemp>
            <ns3:hr>148</ns3:hr>
          </ns3:TrackPointExtension>
        </extensions>
      </trkpt>
      <trkpt lat="47.02082798816263675689697265625" lon="6.92202952690422534942626953125">
        <ele>851</ele>
        <time>2019-06-19T10:34:54.000Z</time>
        <extensions>
          <ns3:TrackPointExtension>
            <ns3:atemp>27.0</ns3:atemp>
            <ns3:hr>148</ns3:hr>
          </ns3:TrackPointExtension>
        </extensions>
      </trkpt>
      <trkpt lat="47.02078892849385738372802734375" lon="6.92199088633060455322265625">
        <ele>851.79998779296875</ele>
        <time>2019-06-19T10:34:59.000Z</time>
        <extensions>
          <ns3:TrackPointExtension>
            <ns3:atemp>27.0</ns3:atemp>
            <ns3:hr>144</ns3:hr>
          </ns3:TrackPointExtension>
        </extensions>
      </trkpt>
      <trkpt lat="47.02076965011656284332275390625" lon="6.92198677919805049896240234375">
        <ele>852</ele>
        <time>2019-06-19T10:35:01.000Z</time>
        <extensions>
          <ns3:TrackPointExtension>
            <ns3:atemp>27.0</ns3:atemp>
            <ns3:hr>141</ns3:hr>
          </ns3:TrackPointExtension>
        </extensions>
      </trkpt>
      <trkpt lat="47.02075221575796604156494140625" lon="6.9219840131700038909912109375">
        <ele>852.79998779296875</ele>
        <time>2019-06-19T10:35:03.000Z</time>
        <extensions>
          <ns3:TrackPointExtension>
            <ns3:atemp>27.0</ns3:atemp>
            <ns3:hr>138</ns3:hr>
          </ns3:TrackPointExtension>
        </extensions>
      </trkpt>
      <trkpt lat="47.0207159221172332763671875" lon="6.92195258103311061859130859375">
        <ele>853</ele>
        <time>2019-06-19T10:35:07.000Z</time>
        <extensions>
          <ns3:TrackPointExtension>
            <ns3:atemp>27.0</ns3:atemp>
            <ns3:hr>138</ns3:hr>
          </ns3:TrackPointExtension>
        </extensions>
      </trkpt>
      <trkpt lat="47.020693123340606689453125" lon="6.92194051109254360198974609375">
        <ele>853.5999755859375</ele>
        <time>2019-06-19T10:35:10.000Z</time>
        <extensions>
          <ns3:TrackPointExtension>
            <ns3:atemp>27.0</ns3:atemp>
            <ns3:hr>137</ns3:hr>
          </ns3:TrackPointExtension>
        </extensions>
      </trkpt>
      <trkpt lat="47.020679377019405364990234375" lon="6.921941936016082763671875">
        <ele>853.79998779296875</ele>
        <time>2019-06-19T10:35:11.000Z</time>
        <extensions>
          <ns3:TrackPointExtension>
            <ns3:atemp>27.0</ns3:atemp>
            <ns3:hr>137</ns3:hr>
          </ns3:TrackPointExtension>
        </extensions>
      </trkpt>
      <trkpt lat="47.02065314166247844696044921875" lon="6.92193916998803615570068359375">
        <ele>854.20001220703125</ele>
        <time>2019-06-19T10:35:13.000Z</time>
        <extensions>
          <ns3:TrackPointExtension>
            <ns3:atemp>27.0</ns3:atemp>
            <ns3:hr>141</ns3:hr>
          </ns3:TrackPointExtension>
        </extensions>
      </trkpt>
      <trkpt lat="47.0206443406641483306884765625" lon="6.92193967290222644805908203125">
        <ele>854.5999755859375</ele>
        <time>2019-06-19T10:35:14.000Z</time>
        <extensions>
          <ns3:TrackPointExtension>
            <ns3:atemp>27.0</ns3:atemp>
            <ns3:hr>144</ns3:hr>
          </ns3:TrackPointExtension>
        </extensions>
      </trkpt>
      <trkpt lat="47.0206342823803424835205078125" lon="6.9219370745122432708740234375">
        <ele>854.79998779296875</ele>
        <time>2019-06-19T10:35:15.000Z</time>
        <extensions>
          <ns3:TrackPointExtension>
            <ns3:atemp>27.0</ns3:atemp>
            <ns3:hr>147</ns3:hr>
          </ns3:TrackPointExtension>
        </extensions>
      </trkpt>
      <trkpt lat="47.020622380077838897705078125" lon="6.92193447612226009368896484375">
        <ele>855</ele>
        <time>2019-06-19T10:35:16.000Z</time>
        <extensions>
          <ns3:TrackPointExtension>
            <ns3:atemp>27.0</ns3:atemp>
            <ns3:hr>148</ns3:hr>
          </ns3:TrackPointExtension>
        </extensions>
      </trkpt>
      <trkpt lat="47.02057535760104656219482421875" lon="6.92190765403211116790771484375">
        <ele>855.4000244140625</ele>
        <time>2019-06-19T10:35:20.000Z</time>
        <extensions>
          <ns3:TrackPointExtension>
            <ns3:atemp>27.0</ns3:atemp>
            <ns3:hr>150</ns3:hr>
          </ns3:TrackPointExtension>
        </extensions>
      </trkpt>
      <trkpt lat="47.02053260989487171173095703125" lon="6.9219068996608257293701171875">
        <ele>855.79998779296875</ele>
        <time>2019-06-19T10:35:23.000Z</time>
        <extensions>
          <ns3:TrackPointExtension>
            <ns3:atemp>27.0</ns3:atemp>
            <ns3:hr>155</ns3:hr>
          </ns3:TrackPointExtension>
        </extensions>
      </trkpt>
      <trkpt lat="47.02051081694662570953369140625" lon="6.92190379835665225982666015625">
        <ele>856.20001220703125</ele>
        <time>2019-06-19T10:35:25.000Z</time>
        <extensions>
          <ns3:TrackPointExtension>
            <ns3:atemp>27.0</ns3:atemp>
            <ns3:hr>155</ns3:hr>
          </ns3:TrackPointExtension>
        </extensions>
      </trkpt>
      <trkpt lat="47.020478211343288421630859375" lon="6.92188971675932407379150390625">
        <ele>857</ele>
        <time>2019-06-19T10:35:28.000Z</time>
        <extensions>
          <ns3:TrackPointExtension>
            <ns3:atemp>27.0</ns3:atemp>
            <ns3:hr>155</ns3:hr>
          </ns3:TrackPointExtension>
        </extensions>
      </trkpt>
      <trkpt lat="47.0204676501452922821044921875" lon="6.92188167013227939605712890625">
        <ele>857.20001220703125</ele>
        <time>2019-06-19T10:35:29.000Z</time>
        <extensions>
          <ns3:TrackPointExtension>
            <ns3:atemp>27.0</ns3:atemp>
            <ns3:hr>155</ns3:hr>
          </ns3:TrackPointExtension>
        </extensions>
      </trkpt>
      <trkpt lat="47.0204317755997180938720703125" lon="6.92182584665715694427490234375">
        <ele>858.20001220703125</ele>
        <time>2019-06-19T10:35:35.000Z</time>
        <extensions>
          <ns3:TrackPointExtension>
            <ns3:atemp>27.0</ns3:atemp>
            <ns3:hr>157</ns3:hr>
          </ns3:TrackPointExtension>
        </extensions>
      </trkpt>
      <trkpt lat="47.020426578819751739501953125" lon="6.92182433791458606719970703125">
        <ele>858.4000244140625</ele>
        <time>2019-06-19T10:35:36.000Z</time>
        <extensions>
          <ns3:TrackPointExtension>
            <ns3:atemp>27.0</ns3:atemp>
            <ns3:hr>158</ns3:hr>
          </ns3:TrackPointExtension>
        </extensions>
      </trkpt>
      <trkpt lat="47.02040889300405979156494140625" lon="6.9218150340020656585693359375">
        <ele>858.79998779296875</ele>
        <time>2019-06-19T10:35:39.000Z</time>
        <extensions>
          <ns3:TrackPointExtension>
            <ns3:atemp>27.0</ns3:atemp>
            <ns3:hr>157</ns3:hr>
          </ns3:TrackPointExtension>
        </extensions>
      </trkpt>
      <trkpt lat="47.02037637121975421905517578125" lon="6.92180556245148181915283203125">
        <ele>859.20001220703125</ele>
        <time>2019-06-19T10:35:42.000Z</time>
        <extensions>
          <ns3:TrackPointExtension>
            <ns3:atemp>27.0</ns3:atemp>
            <ns3:hr>154</ns3:hr>
          </ns3:TrackPointExtension>
        </extensions>
      </trkpt>
      <trkpt lat="47.02036656439304351806640625" lon="6.92180053330957889556884765625">
        <ele>859.20001220703125</ele>
        <time>2019-06-19T10:35:43.000Z</time>
        <extensions>
          <ns3:TrackPointExtension>
            <ns3:atemp>27.0</ns3:atemp>
            <ns3:hr>153</ns3:hr>
          </ns3:TrackPointExtension>
        </extensions>
      </trkpt>
      <trkpt lat="47.0203563384711742401123046875" lon="6.9217955879867076873779296875">
        <ele>859.4000244140625</ele>
        <time>2019-06-19T10:35:44.000Z</time>
        <extensions>
          <ns3:TrackPointExtension>
            <ns3:atemp>27.0</ns3:atemp>
            <ns3:hr>152</ns3:hr>
          </ns3:TrackPointExtension>
        </extensions>
      </trkpt>
      <trkpt lat="47.02033664099872112274169921875" lon="6.92178410477936267852783203125">
        <ele>859.79998779296875</ele>
        <time>2019-06-19T10:35:46.000Z</time>
        <extensions>
          <ns3:TrackPointExtension>
            <ns3:atemp>27.0</ns3:atemp>
            <ns3:hr>149</ns3:hr>
          </ns3:TrackPointExtension>
        </extensions>
      </trkpt>
      <trkpt lat="47.0202869363129138946533203125" lon="6.92174588330090045928955078125">
        <ele>860.5999755859375</ele>
        <time>2019-06-19T10:35:50.000Z</time>
        <extensions>
          <ns3:TrackPointExtension>
            <ns3:atemp>27.0</ns3:atemp>
            <ns3:hr>148</ns3:hr>
          </ns3:TrackPointExtension>
        </extensions>
      </trkpt>
      <trkpt lat="47.0202720165252685546875" lon="6.921739764511585235595703125">
        <ele>860.79998779296875</ele>
        <time>2019-06-19T10:35:51.000Z</time>
        <extensions>
          <ns3:TrackPointExtension>
            <ns3:atemp>27.0</ns3:atemp>
            <ns3:hr>149</ns3:hr>
          </ns3:TrackPointExtension>
        </extensions>
      </trkpt>
      <trkpt lat="47.02022063545882701873779296875" lon="6.92170078866183757781982421875">
        <ele>861.5999755859375</ele>
        <time>2019-06-19T10:35:56.000Z</time>
        <extensions>
          <ns3:TrackPointExtension>
            <ns3:atemp>27.0</ns3:atemp>
            <ns3:hr>149</ns3:hr>
          </ns3:TrackPointExtension>
        </extensions>
      </trkpt>
      <trkpt lat="47.02020169235765933990478515625" lon="6.92167681641876697540283203125">
        <ele>861.79998779296875</ele>
        <time>2019-06-19T10:35:58.000Z</time>
        <extensions>
          <ns3:TrackPointExtension>
            <ns3:atemp>27.0</ns3:atemp>
            <ns3:hr>149</ns3:hr>
          </ns3:TrackPointExtension>
        </extensions>
      </trkpt>
      <trkpt lat="47.02014486305415630340576171875" lon="6.9216212444007396697998046875">
        <ele>862.4000244140625</ele>
        <time>2019-06-19T10:36:03.000Z</time>
        <extensions>
          <ns3:TrackPointExtension>
            <ns3:atemp>27.0</ns3:atemp>
            <ns3:hr>149</ns3:hr>
          </ns3:TrackPointExtension>
        </extensions>
      </trkpt>
      <trkpt lat="47.020136229693889617919921875" lon="6.9215930812060832977294921875">
        <ele>862.79998779296875</ele>
        <time>2019-06-19T10:36:05.000Z</time>
        <extensions>
          <ns3:TrackPointExtension>
            <ns3:atemp>27.0</ns3:atemp>
            <ns3:hr>149</ns3:hr>
          </ns3:TrackPointExtension>
        </extensions>
      </trkpt>
      <trkpt lat="47.020120806992053985595703125" lon="6.9215763173997402191162109375">
        <ele>863.20001220703125</ele>
        <time>2019-06-19T10:36:07.000Z</time>
        <extensions>
          <ns3:TrackPointExtension>
            <ns3:atemp>27.0</ns3:atemp>
            <ns3:hr>150</ns3:hr>
          </ns3:TrackPointExtension>
        </extensions>
      </trkpt>
      <trkpt lat="47.0200941525399684906005859375" lon="6.92154421471059322357177734375">
        <ele>863.79998779296875</ele>
        <time>2019-06-19T10:36:10.000Z</time>
        <extensions>
          <ns3:TrackPointExtension>
            <ns3:atemp>27.0</ns3:atemp>
            <ns3:hr>149</ns3:hr>
          </ns3:TrackPointExtension>
        </extensions>
      </trkpt>
      <trkpt lat="47.02008627355098724365234375" lon="6.921533904969692230224609375">
        <ele>864</ele>
        <time>2019-06-19T10:36:11.000Z</time>
        <extensions>
          <ns3:TrackPointExtension>
            <ns3:atemp>27.0</ns3:atemp>
            <ns3:hr>149</ns3:hr>
          </ns3:TrackPointExtension>
        </extensions>
      </trkpt>
      <trkpt lat="47.0200374908745288848876953125" lon="6.92147858440876007080078125">
        <ele>864.79998779296875</ele>
        <time>2019-06-19T10:36:17.000Z</time>
        <extensions>
          <ns3:TrackPointExtension>
            <ns3:atemp>28.0</ns3:atemp>
            <ns3:hr>149</ns3:hr>
          </ns3:TrackPointExtension>
        </extensions>
      </trkpt>
      <trkpt lat="47.02001611702144145965576171875" lon="6.92146860994398593902587890625">
        <ele>865</ele>
        <time>2019-06-19T10:36:19.000Z</time>
        <extensions>
          <ns3:TrackPointExtension>
            <ns3:atemp>28.0</ns3:atemp>
            <ns3:hr>149</ns3:hr>
          </ns3:TrackPointExtension>
        </extensions>
      </trkpt>
      <trkpt lat="47.019959203898906707763671875" lon="6.92145050503313541412353515625">
        <ele>865.5999755859375</ele>
        <time>2019-06-19T10:36:24.000Z</time>
        <extensions>
          <ns3:TrackPointExtension>
            <ns3:atemp>28.0</ns3:atemp>
            <ns3:hr>150</ns3:hr>
          </ns3:TrackPointExtension>
        </extensions>
      </trkpt>
      <trkpt lat="47.0199302025139331817626953125" lon="6.921455450356006622314453125">
        <ele>866.20001220703125</ele>
        <time>2019-06-19T10:36:26.000Z</time>
        <extensions>
          <ns3:TrackPointExtension>
            <ns3:atemp>28.0</ns3:atemp>
            <ns3:hr>151</ns3:hr>
          </ns3:TrackPointExtension>
        </extensions>
      </trkpt>
      <trkpt lat="47.01987278647720813751220703125" lon="6.92148537375032901763916015625">
        <ele>866.79998779296875</ele>
        <time>2019-06-19T10:36:30.000Z</time>
        <extensions>
          <ns3:TrackPointExtension>
            <ns3:atemp>28.0</ns3:atemp>
            <ns3:hr>151</ns3:hr>
          </ns3:TrackPointExtension>
        </extensions>
      </trkpt>
      <trkpt lat="47.01985199935734272003173828125" lon="6.9214832782745361328125">
        <ele>867.20001220703125</ele>
        <time>2019-06-19T10:36:32.000Z</time>
        <extensions>
          <ns3:TrackPointExtension>
            <ns3:atemp>28.0</ns3:atemp>
            <ns3:hr>150</ns3:hr>
          </ns3:TrackPointExtension>
        </extensions>
      </trkpt>
      <trkpt lat="47.01983858831226825714111328125" lon="6.92147715948522090911865234375">
        <ele>867.4000244140625</ele>
        <time>2019-06-19T10:36:33.000Z</time>
        <extensions>
          <ns3:TrackPointExtension>
            <ns3:atemp>28.0</ns3:atemp>
            <ns3:hr>150</ns3:hr>
          </ns3:TrackPointExtension>
        </extensions>
      </trkpt>
      <trkpt lat="47.01981847174465656280517578125" lon="6.921476237475872039794921875">
        <ele>868</ele>
        <time>2019-06-19T10:36:35.000Z</time>
        <extensions>
          <ns3:TrackPointExtension>
            <ns3:atemp>28.0</ns3:atemp>
            <ns3:hr>150</ns3:hr>
          </ns3:TrackPointExtension>
        </extensions>
      </trkpt>
      <trkpt lat="47.01979349367320537567138671875" lon="6.92146860994398593902587890625">
        <ele>868.20001220703125</ele>
        <time>2019-06-19T10:36:38.000Z</time>
        <extensions>
          <ns3:TrackPointExtension>
            <ns3:atemp>28.0</ns3:atemp>
            <ns3:hr>150</ns3:hr>
          </ns3:TrackPointExtension>
        </extensions>
      </trkpt>
      <trkpt lat="47.01975745148956775665283203125" lon="6.92146073095500469207763671875">
        <ele>869</ele>
        <time>2019-06-19T10:36:42.000Z</time>
        <extensions>
          <ns3:TrackPointExtension>
            <ns3:atemp>28.0</ns3:atemp>
            <ns3:hr>149</ns3:hr>
          </ns3:TrackPointExtension>
        </extensions>
      </trkpt>
      <trkpt lat="47.01972149312496185302734375" lon="6.9214549474418163299560546875">
        <ele>869.4000244140625</ele>
        <time>2019-06-19T10:36:45.000Z</time>
        <extensions>
          <ns3:TrackPointExtension>
            <ns3:atemp>28.0</ns3:atemp>
            <ns3:hr>148</ns3:hr>
          </ns3:TrackPointExtension>
        </extensions>
      </trkpt>
      <trkpt lat="47.019673883914947509765625" lon="6.92143944092094898223876953125">
        <ele>869.79998779296875</ele>
        <time>2019-06-19T10:36:49.000Z</time>
        <extensions>
          <ns3:TrackPointExtension>
            <ns3:atemp>28.0</ns3:atemp>
            <ns3:hr>148</ns3:hr>
          </ns3:TrackPointExtension>
        </extensions>
      </trkpt>
      <trkpt lat="47.0196537673473358154296875" lon="6.92144430242478847503662109375">
        <ele>870.4000244140625</ele>
        <time>2019-06-19T10:36:51.000Z</time>
        <extensions>
          <ns3:TrackPointExtension>
            <ns3:atemp>28.0</ns3:atemp>
            <ns3:hr>150</ns3:hr>
          </ns3:TrackPointExtension>
        </extensions>
      </trkpt>
      <trkpt lat="47.01961328275501728057861328125" lon="6.92144966684281826019287109375">
        <ele>871.4000244140625</ele>
        <time>2019-06-19T10:36:56.000Z</time>
        <extensions>
          <ns3:TrackPointExtension>
            <ns3:atemp>28.0</ns3:atemp>
            <ns3:hr>150</ns3:hr>
          </ns3:TrackPointExtension>
        </extensions>
      </trkpt>
      <trkpt lat="47.01960171572864055633544921875" lon="6.9214499182999134063720703125">
        <ele>871.4000244140625</ele>
        <time>2019-06-19T10:36:57.000Z</time>
        <extensions>
          <ns3:TrackPointExtension>
            <ns3:atemp>28.0</ns3:atemp>
            <ns3:hr>150</ns3:hr>
          </ns3:TrackPointExtension>
        </extensions>
      </trkpt>
      <trkpt lat="47.01949861831963062286376953125" lon="6.92146693356335163116455078125">
        <ele>872</ele>
        <time>2019-06-19T10:37:04.000Z</time>
        <extensions>
          <ns3:TrackPointExtension>
            <ns3:atemp>28.0</ns3:atemp>
            <ns3:hr>151</ns3:hr>
          </ns3:TrackPointExtension>
        </extensions>
      </trkpt>
      <trkpt lat="47.0194718800485134124755859375" lon="6.9214519299566745758056640625">
        <ele>872.5999755859375</ele>
        <time>2019-06-19T10:37:07.000Z</time>
        <extensions>
          <ns3:TrackPointExtension>
            <ns3:atemp>28.0</ns3:atemp>
            <ns3:hr>151</ns3:hr>
          </ns3:TrackPointExtension>
        </extensions>
      </trkpt>
      <trkpt lat="47.0194323174655437469482421875" lon="6.9214482419192790985107421875">
        <ele>873.5999755859375</ele>
        <time>2019-06-19T10:37:11.000Z</time>
        <extensions>
          <ns3:TrackPointExtension>
            <ns3:atemp>28.0</ns3:atemp>
            <ns3:hr>151</ns3:hr>
          </ns3:TrackPointExtension>
        </extensions>
      </trkpt>
      <trkpt lat="47.0194229297339916229248046875" lon="6.9214462302625179290771484375">
        <ele>873.79998779296875</ele>
        <time>2019-06-19T10:37:12.000Z</time>
        <extensions>
          <ns3:TrackPointExtension>
            <ns3:atemp>28.0</ns3:atemp>
            <ns3:hr>151</ns3:hr>
          </ns3:TrackPointExtension>
        </extensions>
      </trkpt>
      <trkpt lat="47.01939602382481098175048828125" lon="6.92143089137971401214599609375">
        <ele>874.4000244140625</ele>
        <time>2019-06-19T10:37:15.000Z</time>
        <extensions>
          <ns3:TrackPointExtension>
            <ns3:atemp>28.0</ns3:atemp>
            <ns3:hr>151</ns3:hr>
          </ns3:TrackPointExtension>
        </extensions>
      </trkpt>
      <trkpt lat="47.01937339268624782562255859375" lon="6.92141563631594181060791015625">
        <ele>874.5999755859375</ele>
        <time>2019-06-19T10:37:17.000Z</time>
        <extensions>
          <ns3:TrackPointExtension>
            <ns3:atemp>28.0</ns3:atemp>
            <ns3:hr>150</ns3:hr>
          </ns3:TrackPointExtension>
        </extensions>
      </trkpt>
      <trkpt lat="47.0193310640752315521240234375" lon="6.92141345702111721038818359375">
        <ele>875</ele>
        <time>2019-06-19T10:37:20.000Z</time>
        <extensions>
          <ns3:TrackPointExtension>
            <ns3:atemp>28.0</ns3:atemp>
            <ns3:hr>150</ns3:hr>
          </ns3:TrackPointExtension>
        </extensions>
      </trkpt>
      <trkpt lat="47.0192901603877544403076171875" lon="6.9213959388434886932373046875">
        <ele>875.79998779296875</ele>
        <time>2019-06-19T10:37:25.000Z</time>
        <extensions>
          <ns3:TrackPointExtension>
            <ns3:atemp>28.0</ns3:atemp>
            <ns3:hr>148</ns3:hr>
          </ns3:TrackPointExtension>
        </extensions>
      </trkpt>
      <trkpt lat="47.01927096582949161529541015625" lon="6.92138076759874820709228515625">
        <ele>876</ele>
        <time>2019-06-19T10:37:27.000Z</time>
        <extensions>
          <ns3:TrackPointExtension>
            <ns3:atemp>28.0</ns3:atemp>
            <ns3:hr>149</ns3:hr>
          </ns3:TrackPointExtension>
        </extensions>
      </trkpt>
      <trkpt lat="47.0192224346101284027099609375" lon="6.9213344156742095947265625">
        <ele>877.20001220703125</ele>
        <time>2019-06-19T10:37:32.000Z</time>
        <extensions>
          <ns3:TrackPointExtension>
            <ns3:atemp>28.0</ns3:atemp>
            <ns3:hr>150</ns3:hr>
          </ns3:TrackPointExtension>
        </extensions>
      </trkpt>
      <trkpt lat="47.01920793391764163970947265625" lon="6.9213292188942432403564453125">
        <ele>877.4000244140625</ele>
        <time>2019-06-19T10:37:34.000Z</time>
        <extensions>
          <ns3:TrackPointExtension>
            <ns3:atemp>28.0</ns3:atemp>
            <ns3:hr>149</ns3:hr>
          </ns3:TrackPointExtension>
        </extensions>
      </trkpt>
      <trkpt lat="47.0191674493253231048583984375" lon="6.9213121198117733001708984375">
        <ele>877.79998779296875</ele>
        <time>2019-06-19T10:37:38.000Z</time>
        <extensions>
          <ns3:TrackPointExtension>
            <ns3:atemp>28.0</ns3:atemp>
            <ns3:hr>150</ns3:hr>
          </ns3:TrackPointExtension>
        </extensions>
      </trkpt>
      <trkpt lat="47.01913006603717803955078125" lon="6.92130315117537975311279296875">
        <ele>878.20001220703125</ele>
        <time>2019-06-19T10:37:41.000Z</time>
        <extensions>
          <ns3:TrackPointExtension>
            <ns3:atemp>28.0</ns3:atemp>
            <ns3:hr>150</ns3:hr>
          </ns3:TrackPointExtension>
        </extensions>
      </trkpt>
      <trkpt lat="47.019094526767730712890625" lon="6.92130030132830142974853515625">
        <ele>878.79998779296875</ele>
        <time>2019-06-19T10:37:44.000Z</time>
        <extensions>
          <ns3:TrackPointExtension>
            <ns3:atemp>28.0</ns3:atemp>
            <ns3:hr>150</ns3:hr>
          </ns3:TrackPointExtension>
        </extensions>
      </trkpt>
      <trkpt lat="47.019084803760051727294921875" lon="6.92130130715668201446533203125">
        <ele>878.79998779296875</ele>
        <time>2019-06-19T10:37:45.000Z</time>
        <extensions>
          <ns3:TrackPointExtension>
            <ns3:atemp>28.0</ns3:atemp>
            <ns3:hr>150</ns3:hr>
          </ns3:TrackPointExtension>
        </extensions>
      </trkpt>
      <trkpt lat="47.019049264490604400634765625" lon="6.92129711620509624481201171875">
        <ele>879</ele>
        <time>2019-06-19T10:37:48.000Z</time>
        <extensions>
          <ns3:TrackPointExtension>
            <ns3:atemp>28.0</ns3:atemp>
            <ns3:hr>150</ns3:hr>
          </ns3:TrackPointExtension>
        </extensions>
      </trkpt>
      <trkpt lat="47.01902420260012149810791015625" lon="6.92129661329090595245361328125">
        <ele>879.4000244140625</ele>
        <time>2019-06-19T10:37:50.000Z</time>
        <extensions>
          <ns3:TrackPointExtension>
            <ns3:atemp>28.0</ns3:atemp>
            <ns3:hr>149</ns3:hr>
          </ns3:TrackPointExtension>
        </extensions>
      </trkpt>
      <trkpt lat="47.0190127193927764892578125" lon="6.921295858919620513916015625">
        <ele>879.5999755859375</ele>
        <time>2019-06-19T10:37:51.000Z</time>
        <extensions>
          <ns3:TrackPointExtension>
            <ns3:atemp>28.0</ns3:atemp>
            <ns3:hr>149</ns3:hr>
          </ns3:TrackPointExtension>
        </extensions>
      </trkpt>
      <trkpt lat="47.01898790895938873291015625" lon="6.92127741873264312744140625">
        <ele>880</ele>
        <time>2019-06-19T10:37:54.000Z</time>
        <extensions>
          <ns3:TrackPointExtension>
            <ns3:atemp>28.0</ns3:atemp>
            <ns3:hr>149</ns3:hr>
          </ns3:TrackPointExtension>
        </extensions>
      </trkpt>
      <trkpt lat="47.0189703069627285003662109375" lon="6.9212795980274677276611328125">
        <ele>880.4000244140625</ele>
        <time>2019-06-19T10:37:56.000Z</time>
        <extensions>
          <ns3:TrackPointExtension>
            <ns3:atemp>28.0</ns3:atemp>
            <ns3:hr>149</ns3:hr>
          </ns3:TrackPointExtension>
        </extensions>
      </trkpt>
      <trkpt lat="47.0189644396305084228515625" lon="6.9212802685797214508056640625">
        <ele>880.5999755859375</ele>
        <time>2019-06-19T10:37:57.000Z</time>
        <extensions>
          <ns3:TrackPointExtension>
            <ns3:atemp>28.0</ns3:atemp>
            <ns3:hr>149</ns3:hr>
          </ns3:TrackPointExtension>
        </extensions>
      </trkpt>
      <trkpt lat="47.01891188509762287139892578125" lon="6.92125654779374599456787109375">
        <ele>881.20001220703125</ele>
        <time>2019-06-19T10:38:02.000Z</time>
        <extensions>
          <ns3:TrackPointExtension>
            <ns3:atemp>28.0</ns3:atemp>
            <ns3:hr>148</ns3:hr>
          </ns3:TrackPointExtension>
        </extensions>
      </trkpt>
      <trkpt lat="47.0188643597066402435302734375" lon="6.92125436849892139434814453125">
        <ele>881.5999755859375</ele>
        <time>2019-06-19T10:38:05.000Z</time>
        <extensions>
          <ns3:TrackPointExtension>
            <ns3:atemp>28.0</ns3:atemp>
            <ns3:hr>149</ns3:hr>
          </ns3:TrackPointExtension>
        </extensions>
      </trkpt>
      <trkpt lat="47.018844746053218841552734375" lon="6.921249590814113616943359375">
        <ele>881.5999755859375</ele>
        <time>2019-06-19T10:38:06.000Z</time>
        <extensions>
          <ns3:TrackPointExtension>
            <ns3:atemp>28.0</ns3:atemp>
            <ns3:hr>149</ns3:hr>
          </ns3:TrackPointExtension>
        </extensions>
      </trkpt>
      <trkpt lat="47.01882169581949710845947265625" lon="6.921233832836151123046875">
        <ele>881.79998779296875</ele>
        <time>2019-06-19T10:38:08.000Z</time>
        <extensions>
          <ns3:TrackPointExtension>
            <ns3:atemp>28.0</ns3:atemp>
            <ns3:hr>149</ns3:hr>
          </ns3:TrackPointExtension>
        </extensions>
      </trkpt>
      <trkpt lat="47.01880820095539093017578125" lon="6.9212236069142818450927734375">
        <ele>882</ele>
        <time>2019-06-19T10:38:09.000Z</time>
        <extensions>
          <ns3:TrackPointExtension>
            <ns3:atemp>28.0</ns3:atemp>
            <ns3:hr>150</ns3:hr>
          </ns3:TrackPointExtension>
        </extensions>
      </trkpt>
      <trkpt lat="47.01877333223819732666015625" lon="6.921218074858188629150390625">
        <ele>882.5999755859375</ele>
        <time>2019-06-19T10:38:13.000Z</time>
        <extensions>
          <ns3:TrackPointExtension>
            <ns3:atemp>28.0</ns3:atemp>
            <ns3:hr>149</ns3:hr>
          </ns3:TrackPointExtension>
        </extensions>
      </trkpt>
      <trkpt lat="47.018766961991786956787109375" lon="6.92121799103915691375732421875">
        <ele>882.79998779296875</ele>
        <time>2019-06-19T10:38:14.000Z</time>
        <extensions>
          <ns3:TrackPointExtension>
            <ns3:atemp>28.0</ns3:atemp>
            <ns3:hr>149</ns3:hr>
          </ns3:TrackPointExtension>
        </extensions>
      </trkpt>
      <trkpt lat="47.018723376095294952392578125" lon="6.92118999548256397247314453125">
        <ele>883.4000244140625</ele>
        <time>2019-06-19T10:38:19.000Z</time>
        <extensions>
          <ns3:TrackPointExtension>
            <ns3:atemp>28.0</ns3:atemp>
            <ns3:hr>147</ns3:hr>
          </ns3:TrackPointExtension>
        </extensions>
      </trkpt>
      <trkpt lat="47.0187067799270153045654296875" lon="6.92117926664650440216064453125">
        <ele>883.4000244140625</ele>
        <time>2019-06-19T10:38:20.000Z</time>
        <extensions>
          <ns3:TrackPointExtension>
            <ns3:atemp>28.0</ns3:atemp>
            <ns3:hr>146</ns3:hr>
          </ns3:TrackPointExtension>
        </extensions>
      </trkpt>
      <trkpt lat="47.0186755992472171783447265625" lon="6.92117759026587009429931640625">
        <ele>883.79998779296875</ele>
        <time>2019-06-19T10:38:22.000Z</time>
        <extensions>
          <ns3:TrackPointExtension>
            <ns3:atemp>28.0</ns3:atemp>
            <ns3:hr>146</ns3:hr>
          </ns3:TrackPointExtension>
        </extensions>
      </trkpt>
      <trkpt lat="47.018648944795131683349609375" lon="6.9211719743907451629638671875">
        <ele>884.20001220703125</ele>
        <time>2019-06-19T10:38:24.000Z</time>
        <extensions>
          <ns3:TrackPointExtension>
            <ns3:atemp>28.0</ns3:atemp>
            <ns3:hr>147</ns3:hr>
          </ns3:TrackPointExtension>
        </extensions>
      </trkpt>
      <trkpt lat="47.01862170360982418060302734375" lon="6.92117004655301570892333984375">
        <ele>884.5999755859375</ele>
        <time>2019-06-19T10:38:28.000Z</time>
        <extensions>
          <ns3:TrackPointExtension>
            <ns3:atemp>28.0</ns3:atemp>
            <ns3:hr>148</ns3:hr>
          </ns3:TrackPointExtension>
        </extensions>
      </trkpt>
      <trkpt lat="47.0185988210141658782958984375" lon="6.92115529440343379974365234375">
        <ele>885</ele>
        <time>2019-06-19T10:38:31.000Z</time>
        <extensions>
          <ns3:TrackPointExtension>
            <ns3:atemp>28.0</ns3:atemp>
            <ns3:hr>147</ns3:hr>
          </ns3:TrackPointExtension>
        </extensions>
      </trkpt>
      <trkpt lat="47.01858364976942539215087890625" lon="6.9211495108902454376220703125">
        <ele>885</ele>
        <time>2019-06-19T10:38:32.000Z</time>
        <extensions>
          <ns3:TrackPointExtension>
            <ns3:atemp>28.0</ns3:atemp>
            <ns3:hr>147</ns3:hr>
          </ns3:TrackPointExtension>
        </extensions>
      </trkpt>
      <trkpt lat="47.0185411535203456878662109375" lon="6.92112813703715801239013671875">
        <ele>885.4000244140625</ele>
        <time>2019-06-19T10:38:35.000Z</time>
        <extensions>
          <ns3:TrackPointExtension>
            <ns3:atemp>28.0</ns3:atemp>
            <ns3:hr>146</ns3:hr>
          </ns3:TrackPointExtension>
        </extensions>
      </trkpt>
      <trkpt lat="47.01850268058478832244873046875" lon="6.9211225211620330810546875">
        <ele>886</ele>
        <time>2019-06-19T10:38:38.000Z</time>
        <extensions>
          <ns3:TrackPointExtension>
            <ns3:atemp>28.0</ns3:atemp>
            <ns3:hr>146</ns3:hr>
          </ns3:TrackPointExtension>
        </extensions>
      </trkpt>
      <trkpt lat="47.0184486173093318939208984375" lon="6.9211112894117832183837890625">
        <ele>886.4000244140625</ele>
        <time>2019-06-19T10:38:42.000Z</time>
        <extensions>
          <ns3:TrackPointExtension>
            <ns3:atemp>28.0</ns3:atemp>
            <ns3:hr>145</ns3:hr>
          </ns3:TrackPointExtension>
        </extensions>
      </trkpt>
      <trkpt lat="47.0184003375470638275146484375" lon="6.92107650451362133026123046875">
        <ele>887</ele>
        <time>2019-06-19T10:38:46.000Z</time>
        <extensions>
          <ns3:TrackPointExtension>
            <ns3:atemp>28.0</ns3:atemp>
            <ns3:hr>147</ns3:hr>
          </ns3:TrackPointExtension>
        </extensions>
      </trkpt>
      <trkpt lat="47.0183421671390533447265625" lon="6.9210366904735565185546875">
        <ele>887.79998779296875</ele>
        <time>2019-06-19T10:38:50.000Z</time>
        <extensions>
          <ns3:TrackPointExtension>
            <ns3:atemp>28.0</ns3:atemp>
            <ns3:hr>147</ns3:hr>
          </ns3:TrackPointExtension>
        </extensions>
      </trkpt>
      <trkpt lat="47.01829497702419757843017578125" lon="6.9210365228354930877685546875">
        <ele>888.20001220703125</ele>
        <time>2019-06-19T10:38:53.000Z</time>
        <extensions>
          <ns3:TrackPointExtension>
            <ns3:atemp>28.0</ns3:atemp>
            <ns3:hr>146</ns3:hr>
          </ns3:TrackPointExtension>
        </extensions>
      </trkpt>
      <trkpt lat="47.01824200339615345001220703125" lon="6.92102956585586071014404296875">
        <ele>888.5999755859375</ele>
        <time>2019-06-19T10:38:57.000Z</time>
        <extensions>
          <ns3:TrackPointExtension>
            <ns3:atemp>28.0</ns3:atemp>
            <ns3:hr>146</ns3:hr>
          </ns3:TrackPointExtension>
        </extensions>
      </trkpt>
      <trkpt lat="47.0182035304605960845947265625" lon="6.92102638073265552520751953125">
        <ele>889.20001220703125</ele>
        <time>2019-06-19T10:39:01.000Z</time>
        <extensions>
          <ns3:TrackPointExtension>
            <ns3:atemp>28.0</ns3:atemp>
            <ns3:hr>145</ns3:hr>
          </ns3:TrackPointExtension>
        </extensions>
      </trkpt>
      <trkpt lat="47.01817327179014682769775390625" lon="6.9210345111787319183349609375">
        <ele>890</ele>
        <time>2019-06-19T10:39:05.000Z</time>
        <extensions>
          <ns3:TrackPointExtension>
            <ns3:atemp>28.0</ns3:atemp>
            <ns3:hr>145</ns3:hr>
          </ns3:TrackPointExtension>
        </extensions>
      </trkpt>
      <trkpt lat="47.01816380023956298828125" lon="6.921035349369049072265625">
        <ele>890.20001220703125</ele>
        <time>2019-06-19T10:39:06.000Z</time>
        <extensions>
          <ns3:TrackPointExtension>
            <ns3:atemp>28.0</ns3:atemp>
            <ns3:hr>145</ns3:hr>
          </ns3:TrackPointExtension>
        </extensions>
      </trkpt>
      <trkpt lat="47.01813437975943088531494140625" lon="6.92102185450494289398193359375">
        <ele>890.4000244140625</ele>
        <time>2019-06-19T10:39:09.000Z</time>
        <extensions>
          <ns3:TrackPointExtension>
            <ns3:atemp>28.0</ns3:atemp>
            <ns3:hr>146</ns3:hr>
          </ns3:TrackPointExtension>
        </extensions>
      </trkpt>
      <trkpt lat="47.0180831663310527801513671875" lon="6.9210197590291500091552734375">
        <ele>890.79998779296875</ele>
        <time>2019-06-19T10:39:12.000Z</time>
        <extensions>
          <ns3:TrackPointExtension>
            <ns3:atemp>28.0</ns3:atemp>
            <ns3:hr>146</ns3:hr>
          </ns3:TrackPointExtension>
        </extensions>
      </trkpt>
      <trkpt lat="47.01805341057479381561279296875" lon="6.9210179150104522705078125">
        <ele>891.4000244140625</ele>
        <time>2019-06-19T10:39:14.000Z</time>
        <extensions>
          <ns3:TrackPointExtension>
            <ns3:atemp>28.0</ns3:atemp>
            <ns3:hr>145</ns3:hr>
          </ns3:TrackPointExtension>
        </extensions>
      </trkpt>
      <trkpt lat="47.01799976639449596405029296875" lon="6.920981369912624359130859375">
        <ele>892</ele>
        <time>2019-06-19T10:39:19.000Z</time>
        <extensions>
          <ns3:TrackPointExtension>
            <ns3:atemp>28.0</ns3:atemp>
            <ns3:hr>145</ns3:hr>
          </ns3:TrackPointExtension>
        </extensions>
      </trkpt>
      <trkpt lat="47.0179762132465839385986328125" lon="6.92096787504851818084716796875">
        <ele>892.4000244140625</ele>
        <time>2019-06-19T10:39:21.000Z</time>
        <extensions>
          <ns3:TrackPointExtension>
            <ns3:atemp>28.0</ns3:atemp>
            <ns3:hr>145</ns3:hr>
          </ns3:TrackPointExtension>
        </extensions>
      </trkpt>
      <trkpt lat="47.0179262571036815643310546875" lon="6.9209292344748973846435546875">
        <ele>893.4000244140625</ele>
        <time>2019-06-19T10:39:26.000Z</time>
        <extensions>
          <ns3:TrackPointExtension>
            <ns3:atemp>28.0</ns3:atemp>
            <ns3:hr>145</ns3:hr>
          </ns3:TrackPointExtension>
        </extensions>
      </trkpt>
      <trkpt lat="47.01789499260485172271728515625" lon="6.92092395387589931488037109375">
        <ele>893.4000244140625</ele>
        <time>2019-06-19T10:39:28.000Z</time>
        <extensions>
          <ns3:TrackPointExtension>
            <ns3:atemp>28.0</ns3:atemp>
            <ns3:hr>144</ns3:hr>
          </ns3:TrackPointExtension>
        </extensions>
      </trkpt>
      <trkpt lat="47.017837576568126678466796875" lon="6.92090383730828762054443359375">
        <ele>894</ele>
        <time>2019-06-19T10:39:33.000Z</time>
        <extensions>
          <ns3:TrackPointExtension>
            <ns3:atemp>28.0</ns3:atemp>
            <ns3:hr>144</ns3:hr>
          </ns3:TrackPointExtension>
        </extensions>
      </trkpt>
      <trkpt lat="47.01780966483056545257568359375" lon="6.92089629359543323516845703125">
        <ele>894.5999755859375</ele>
        <time>2019-06-19T10:39:36.000Z</time>
        <extensions>
          <ns3:TrackPointExtension>
            <ns3:atemp>28.0</ns3:atemp>
            <ns3:hr>145</ns3:hr>
          </ns3:TrackPointExtension>
        </extensions>
      </trkpt>
      <trkpt lat="47.01779759488999843597412109375" lon="6.92089126445353031158447265625">
        <ele>894.5999755859375</ele>
        <time>2019-06-19T10:39:37.000Z</time>
        <extensions>
          <ns3:TrackPointExtension>
            <ns3:atemp>28.0</ns3:atemp>
            <ns3:hr>145</ns3:hr>
          </ns3:TrackPointExtension>
        </extensions>
      </trkpt>
      <trkpt lat="47.01777496375143527984619140625" lon="6.92087911069393157958984375">
        <ele>894.79998779296875</ele>
        <time>2019-06-19T10:39:39.000Z</time>
        <extensions>
          <ns3:TrackPointExtension>
            <ns3:atemp>28.0</ns3:atemp>
            <ns3:hr>145</ns3:hr>
          </ns3:TrackPointExtension>
        </extensions>
      </trkpt>
      <trkpt lat="47.01771360822021961212158203125" lon="6.92086259834468364715576171875">
        <ele>895.5999755859375</ele>
        <time>2019-06-19T10:39:44.000Z</time>
        <extensions>
          <ns3:TrackPointExtension>
            <ns3:atemp>28.0</ns3:atemp>
            <ns3:hr>146</ns3:hr>
          </ns3:TrackPointExtension>
        </extensions>
      </trkpt>
      <trkpt lat="47.01769868843257427215576171875" lon="6.92085740156471729278564453125">
        <ele>896</ele>
        <time>2019-06-19T10:39:45.000Z</time>
        <extensions>
          <ns3:TrackPointExtension>
            <ns3:atemp>28.0</ns3:atemp>
            <ns3:hr>146</ns3:hr>
          </ns3:TrackPointExtension>
        </extensions>
      </trkpt>
      <trkpt lat="47.01763339340686798095703125" lon="6.9208474270999431610107421875">
        <ele>896.79998779296875</ele>
        <time>2019-06-19T10:39:50.000Z</time>
        <extensions>
          <ns3:TrackPointExtension>
            <ns3:atemp>28.0</ns3:atemp>
            <ns3:hr>145</ns3:hr>
          </ns3:TrackPointExtension>
        </extensions>
      </trkpt>
      <trkpt lat="47.017606906592845916748046875" lon="6.92083745263516902923583984375">
        <ele>897.20001220703125</ele>
        <time>2019-06-19T10:39:52.000Z</time>
        <extensions>
          <ns3:TrackPointExtension>
            <ns3:atemp>28.0</ns3:atemp>
            <ns3:hr>145</ns3:hr>
          </ns3:TrackPointExtension>
        </extensions>
      </trkpt>
      <trkpt lat="47.0175577886402606964111328125" lon="6.92082722671329975128173828125">
        <ele>898</ele>
        <time>2019-06-19T10:39:56.000Z</time>
        <extensions>
          <ns3:TrackPointExtension>
            <ns3:atemp>28.0</ns3:atemp>
            <ns3:hr>145</ns3:hr>
          </ns3:TrackPointExtension>
        </extensions>
      </trkpt>
      <trkpt lat="47.01753817498683929443359375" lon="6.9208239577710628509521484375">
        <ele>898.20001220703125</ele>
        <time>2019-06-19T10:39:58.000Z</time>
        <extensions>
          <ns3:TrackPointExtension>
            <ns3:atemp>28.0</ns3:atemp>
            <ns3:hr>145</ns3:hr>
          </ns3:TrackPointExtension>
        </extensions>
      </trkpt>
      <trkpt lat="47.0175276137888431549072265625" lon="6.92082722671329975128173828125">
        <ele>898.4000244140625</ele>
        <time>2019-06-19T10:39:59.000Z</time>
        <extensions>
          <ns3:TrackPointExtension>
            <ns3:atemp>28.0</ns3:atemp>
            <ns3:hr>144</ns3:hr>
          </ns3:TrackPointExtension>
        </extensions>
      </trkpt>
      <trkpt lat="47.0174914039671421051025390625" lon="6.92083611153066158294677734375">
        <ele>899</ele>
        <time>2019-06-19T10:40:02.000Z</time>
        <extensions>
          <ns3:TrackPointExtension>
            <ns3:atemp>28.0</ns3:atemp>
            <ns3:hr>144</ns3:hr>
          </ns3:TrackPointExtension>
        </extensions>
      </trkpt>
      <trkpt lat="47.0174417831003665924072265625" lon="6.9208194315433502197265625">
        <ele>899.20001220703125</ele>
        <time>2019-06-19T10:40:06.000Z</time>
        <extensions>
          <ns3:TrackPointExtension>
            <ns3:atemp>28.0</ns3:atemp>
            <ns3:hr>145</ns3:hr>
          </ns3:TrackPointExtension>
        </extensions>
      </trkpt>
      <trkpt lat="47.01739693991839885711669921875" lon="6.92080912180244922637939453125">
        <ele>900</ele>
        <time>2019-06-19T10:40:10.000Z</time>
        <extensions>
          <ns3:TrackPointExtension>
            <ns3:atemp>28.0</ns3:atemp>
            <ns3:hr>146</ns3:hr>
          </ns3:TrackPointExtension>
        </extensions>
      </trkpt>
      <trkpt lat="47.017364837229251861572265625" lon="6.92079755477607250213623046875">
        <ele>900.5999755859375</ele>
        <time>2019-06-19T10:40:13.000Z</time>
        <extensions>
          <ns3:TrackPointExtension>
            <ns3:atemp>28.0</ns3:atemp>
            <ns3:hr>147</ns3:hr>
          </ns3:TrackPointExtension>
        </extensions>
      </trkpt>
      <trkpt lat="47.0173187367618083953857421875" lon="6.9207746721804141998291015625">
        <ele>901.20001220703125</ele>
        <time>2019-06-19T10:40:17.000Z</time>
        <extensions>
          <ns3:TrackPointExtension>
            <ns3:atemp>28.0</ns3:atemp>
            <ns3:hr>147</ns3:hr>
          </ns3:TrackPointExtension>
        </extensions>
      </trkpt>
      <trkpt lat="47.01727909035980701446533203125" lon="6.92076235078275203704833984375">
        <ele>901.79998779296875</ele>
        <time>2019-06-19T10:40:20.000Z</time>
        <extensions>
          <ns3:TrackPointExtension>
            <ns3:atemp>28.0</ns3:atemp>
            <ns3:hr>146</ns3:hr>
          </ns3:TrackPointExtension>
        </extensions>
      </trkpt>
      <trkpt lat="47.0172370970249176025390625" lon="6.9207605905830860137939453125">
        <ele>902.20001220703125</ele>
        <time>2019-06-19T10:40:23.000Z</time>
        <extensions>
          <ns3:TrackPointExtension>
            <ns3:atemp>28.0</ns3:atemp>
            <ns3:hr>146</ns3:hr>
          </ns3:TrackPointExtension>
        </extensions>
      </trkpt>
      <trkpt lat="47.01722293160855770111083984375" lon="6.92075866274535655975341796875">
        <ele>902.4000244140625</ele>
        <time>2019-06-19T10:40:24.000Z</time>
        <extensions>
          <ns3:TrackPointExtension>
            <ns3:atemp>28.0</ns3:atemp>
            <ns3:hr>147</ns3:hr>
          </ns3:TrackPointExtension>
        </extensions>
      </trkpt>
      <trkpt lat="47.01718152500689029693603515625" lon="6.920746006071567535400390625">
        <ele>902.79998779296875</ele>
        <time>2019-06-19T10:40:27.000Z</time>
        <extensions>
          <ns3:TrackPointExtension>
            <ns3:atemp>28.0</ns3:atemp>
            <ns3:hr>146</ns3:hr>
          </ns3:TrackPointExtension>
        </extensions>
      </trkpt>
      <trkpt lat="47.0171554572880268096923828125" lon="6.9207282364368438720703125">
        <ele>903.4000244140625</ele>
        <time>2019-06-19T10:40:30.000Z</time>
        <extensions>
          <ns3:TrackPointExtension>
            <ns3:atemp>28.0</ns3:atemp>
            <ns3:hr>146</ns3:hr>
          </ns3:TrackPointExtension>
        </extensions>
      </trkpt>
      <trkpt lat="47.01710575260221958160400390625" lon="6.9207096286118030548095703125">
        <ele>903.79998779296875</ele>
        <time>2019-06-19T10:40:34.000Z</time>
        <extensions>
          <ns3:TrackPointExtension>
            <ns3:atemp>28.0</ns3:atemp>
            <ns3:hr>148</ns3:hr>
          </ns3:TrackPointExtension>
        </extensions>
      </trkpt>
      <trkpt lat="47.01707373373210430145263671875" lon="6.92069043405354022979736328125">
        <ele>904.4000244140625</ele>
        <time>2019-06-19T10:40:37.000Z</time>
        <extensions>
          <ns3:TrackPointExtension>
            <ns3:atemp>28.0</ns3:atemp>
            <ns3:hr>147</ns3:hr>
          </ns3:TrackPointExtension>
        </extensions>
      </trkpt>
      <trkpt lat="47.01705227605998516082763671875" lon="6.92068909294903278350830078125">
        <ele>904.5999755859375</ele>
        <time>2019-06-19T10:40:39.000Z</time>
        <extensions>
          <ns3:TrackPointExtension>
            <ns3:atemp>28.0</ns3:atemp>
            <ns3:hr>147</ns3:hr>
          </ns3:TrackPointExtension>
        </extensions>
      </trkpt>
      <trkpt lat="47.01698371209204196929931640625" lon="6.92066679708659648895263671875">
        <ele>905.4000244140625</ele>
        <time>2019-06-19T10:40:45.000Z</time>
        <extensions>
          <ns3:TrackPointExtension>
            <ns3:atemp>28.0</ns3:atemp>
            <ns3:hr>147</ns3:hr>
          </ns3:TrackPointExtension>
        </extensions>
      </trkpt>
      <trkpt lat="47.01697013340890407562255859375" lon="6.92067132331430912017822265625">
        <ele>905.5999755859375</ele>
        <time>2019-06-19T10:40:46.000Z</time>
        <extensions>
          <ns3:TrackPointExtension>
            <ns3:atemp>28.0</ns3:atemp>
            <ns3:hr>147</ns3:hr>
          </ns3:TrackPointExtension>
        </extensions>
      </trkpt>
      <trkpt lat="47.01692705042660236358642578125" lon="6.9206781126558780670166015625">
        <ele>906.5999755859375</ele>
        <time>2019-06-19T10:40:50.000Z</time>
        <extensions>
          <ns3:TrackPointExtension>
            <ns3:atemp>28.0</ns3:atemp>
            <ns3:hr>147</ns3:hr>
          </ns3:TrackPointExtension>
        </extensions>
      </trkpt>
      <trkpt lat="47.01687910594046115875244140625" lon="6.920664198696613311767578125">
        <ele>907</ele>
        <time>2019-06-19T10:40:54.000Z</time>
        <extensions>
          <ns3:TrackPointExtension>
            <ns3:atemp>28.0</ns3:atemp>
            <ns3:hr>149</ns3:hr>
          </ns3:TrackPointExtension>
        </extensions>
      </trkpt>
      <trkpt lat="47.01678573153913021087646484375" lon="6.92061751149594783782958984375">
        <ele>907.5999755859375</ele>
        <time>2019-06-19T10:41:02.000Z</time>
        <extensions>
          <ns3:TrackPointExtension>
            <ns3:atemp>28.0</ns3:atemp>
            <ns3:hr>148</ns3:hr>
          </ns3:TrackPointExtension>
        </extensions>
      </trkpt>
      <trkpt lat="47.0167742483317852020263671875" lon="6.920612566173076629638671875">
        <ele>907.79998779296875</ele>
        <time>2019-06-19T10:41:03.000Z</time>
        <extensions>
          <ns3:TrackPointExtension>
            <ns3:atemp>28.0</ns3:atemp>
            <ns3:hr>148</ns3:hr>
          </ns3:TrackPointExtension>
        </extensions>
      </trkpt>
      <trkpt lat="47.0166872441768646240234375" lon="6.92061298526823520660400390625">
        <ele>908.5999755859375</ele>
        <time>2019-06-19T10:41:10.000Z</time>
        <extensions>
          <ns3:TrackPointExtension>
            <ns3:atemp>28.0</ns3:atemp>
            <ns3:hr>147</ns3:hr>
          </ns3:TrackPointExtension>
        </extensions>
      </trkpt>
      <trkpt lat="47.016678191721439361572265625" lon="6.92061700858175754547119140625">
        <ele>908.79998779296875</ele>
        <time>2019-06-19T10:41:11.000Z</time>
        <extensions>
          <ns3:TrackPointExtension>
            <ns3:atemp>28.0</ns3:atemp>
            <ns3:hr>147</ns3:hr>
          </ns3:TrackPointExtension>
        </extensions>
      </trkpt>
      <trkpt lat="47.01662060804665088653564453125" lon="6.92063394002616405487060546875">
        <ele>909.79998779296875</ele>
        <time>2019-06-19T10:41:16.000Z</time>
        <extensions>
          <ns3:TrackPointExtension>
            <ns3:atemp>28.0</ns3:atemp>
            <ns3:hr>148</ns3:hr>
          </ns3:TrackPointExtension>
        </extensions>
      </trkpt>
      <trkpt lat="47.0165933668613433837890625" lon="6.92063075490295886993408203125">
        <ele>910</ele>
        <time>2019-06-19T10:41:18.000Z</time>
        <extensions>
          <ns3:TrackPointExtension>
            <ns3:atemp>28.0</ns3:atemp>
            <ns3:hr>148</ns3:hr>
          </ns3:TrackPointExtension>
        </extensions>
      </trkpt>
      <trkpt lat="47.01651717536151409149169921875" lon="6.92061332054436206817626953125">
        <ele>910.79998779296875</ele>
        <time>2019-06-19T10:41:24.000Z</time>
        <extensions>
          <ns3:TrackPointExtension>
            <ns3:atemp>28.0</ns3:atemp>
            <ns3:hr>147</ns3:hr>
          </ns3:TrackPointExtension>
        </extensions>
      </trkpt>
      <trkpt lat="47.01650611124932765960693359375" lon="6.92061667330563068389892578125">
        <ele>911</ele>
        <time>2019-06-19T10:41:25.000Z</time>
        <extensions>
          <ns3:TrackPointExtension>
            <ns3:atemp>28.0</ns3:atemp>
            <ns3:hr>148</ns3:hr>
          </ns3:TrackPointExtension>
        </extensions>
      </trkpt>
      <trkpt lat="47.01643712818622589111328125" lon="6.9206129014492034912109375">
        <ele>912</ele>
        <time>2019-06-19T10:41:31.000Z</time>
        <extensions>
          <ns3:TrackPointExtension>
            <ns3:atemp>28.0</ns3:atemp>
            <ns3:hr>147</ns3:hr>
          </ns3:TrackPointExtension>
        </extensions>
      </trkpt>
      <trkpt lat="47.0163558237254619598388671875" lon="6.92057174630463123321533203125">
        <ele>913</ele>
        <time>2019-06-19T10:41:37.000Z</time>
        <extensions>
          <ns3:TrackPointExtension>
            <ns3:atemp>28.0</ns3:atemp>
            <ns3:hr>146</ns3:hr>
          </ns3:TrackPointExtension>
        </extensions>
      </trkpt>
      <trkpt lat="47.01633394695818424224853515625" lon="6.9205671362578868865966796875">
        <ele>913.4000244140625</ele>
        <time>2019-06-19T10:41:39.000Z</time>
        <extensions>
          <ns3:TrackPointExtension>
            <ns3:atemp>28.0</ns3:atemp>
            <ns3:hr>146</ns3:hr>
          </ns3:TrackPointExtension>
        </extensions>
      </trkpt>
      <trkpt lat="47.0162766985595226287841796875" lon="6.9205423258244991302490234375">
        <ele>914.20001220703125</ele>
        <time>2019-06-19T10:41:43.000Z</time>
        <extensions>
          <ns3:TrackPointExtension>
            <ns3:atemp>28.0</ns3:atemp>
            <ns3:hr>147</ns3:hr>
          </ns3:TrackPointExtension>
        </extensions>
      </trkpt>
      <trkpt lat="47.01624040491878986358642578125" lon="6.92053972743451595306396484375">
        <ele>914.5999755859375</ele>
        <time>2019-06-19T10:41:46.000Z</time>
        <extensions>
          <ns3:TrackPointExtension>
            <ns3:atemp>28.0</ns3:atemp>
            <ns3:hr>149</ns3:hr>
          </ns3:TrackPointExtension>
        </extensions>
      </trkpt>
      <trkpt lat="47.01621207408607006072998046875" lon="6.92053386010229587554931640625">
        <ele>915</ele>
        <time>2019-06-19T10:41:48.000Z</time>
        <extensions>
          <ns3:TrackPointExtension>
            <ns3:atemp>28.0</ns3:atemp>
            <ns3:hr>149</ns3:hr>
          </ns3:TrackPointExtension>
        </extensions>
      </trkpt>
      <trkpt lat="47.01616798527538776397705078125" lon="6.920521371066570281982421875">
        <ele>915.20001220703125</ele>
        <time>2019-06-19T10:41:51.000Z</time>
        <extensions>
          <ns3:TrackPointExtension>
            <ns3:atemp>28.0</ns3:atemp>
            <ns3:hr>148</ns3:hr>
          </ns3:TrackPointExtension>
        </extensions>
      </trkpt>
      <trkpt lat="47.01615289784967899322509765625" lon="6.9205238856375217437744140625">
        <ele>915.4000244140625</ele>
        <time>2019-06-19T10:41:52.000Z</time>
        <extensions>
          <ns3:TrackPointExtension>
            <ns3:atemp>28.0</ns3:atemp>
            <ns3:hr>149</ns3:hr>
          </ns3:TrackPointExtension>
        </extensions>
      </trkpt>
      <trkpt lat="47.0160480402410030364990234375" lon="6.9205235503613948822021484375">
        <ele>916.4000244140625</ele>
        <time>2019-06-19T10:41:59.000Z</time>
        <extensions>
          <ns3:TrackPointExtension>
            <ns3:atemp>28.0</ns3:atemp>
            <ns3:hr>148</ns3:hr>
          </ns3:TrackPointExtension>
        </extensions>
      </trkpt>
      <trkpt lat="47.016011662781238555908203125" lon="6.9205176830291748046875">
        <ele>916.79998779296875</ele>
        <time>2019-06-19T10:42:01.000Z</time>
        <extensions>
          <ns3:TrackPointExtension>
            <ns3:atemp>28.0</ns3:atemp>
            <ns3:hr>148</ns3:hr>
          </ns3:TrackPointExtension>
        </extensions>
      </trkpt>
      <trkpt lat="47.01592155732214450836181640625" lon="6.9205188564956188201904296875">
        <ele>917.4000244140625</ele>
        <time>2019-06-19T10:42:06.000Z</time>
        <extensions>
          <ns3:TrackPointExtension>
            <ns3:atemp>28.0</ns3:atemp>
            <ns3:hr>149</ns3:hr>
          </ns3:TrackPointExtension>
        </extensions>
      </trkpt>
      <trkpt lat="47.0159109123051166534423828125" lon="6.92051525227725505828857421875">
        <ele>917.5999755859375</ele>
        <time>2019-06-19T10:42:07.000Z</time>
        <extensions>
          <ns3:TrackPointExtension>
            <ns3:atemp>28.0</ns3:atemp>
            <ns3:hr>149</ns3:hr>
          </ns3:TrackPointExtension>
        </extensions>
      </trkpt>
      <trkpt lat="47.01589724980294704437255859375" lon="6.9205155037343502044677734375">
        <ele>917.79998779296875</ele>
        <time>2019-06-19T10:42:08.000Z</time>
        <extensions>
          <ns3:TrackPointExtension>
            <ns3:atemp>28.0</ns3:atemp>
            <ns3:hr>149</ns3:hr>
          </ns3:TrackPointExtension>
        </extensions>
      </trkpt>
      <trkpt lat="47.01584327034652233123779296875" lon="6.92053151316940784454345703125">
        <ele>918.4000244140625</ele>
        <time>2019-06-19T10:42:14.000Z</time>
        <extensions>
          <ns3:TrackPointExtension>
            <ns3:atemp>28.0</ns3:atemp>
            <ns3:hr>149</ns3:hr>
          </ns3:TrackPointExtension>
        </extensions>
      </trkpt>
      <trkpt lat="47.01583203859627246856689453125" lon="6.92053184844553470611572265625">
        <ele>918.5999755859375</ele>
        <time>2019-06-19T10:42:15.000Z</time>
        <extensions>
          <ns3:TrackPointExtension>
            <ns3:atemp>28.0</ns3:atemp>
            <ns3:hr>148</ns3:hr>
          </ns3:TrackPointExtension>
        </extensions>
      </trkpt>
      <trkpt lat="47.015752829611301422119140625" lon="6.92052564583718776702880859375">
        <ele>919</ele>
        <time>2019-06-19T10:42:20.000Z</time>
        <extensions>
          <ns3:TrackPointExtension>
            <ns3:atemp>28.0</ns3:atemp>
            <ns3:hr>147</ns3:hr>
          </ns3:TrackPointExtension>
        </extensions>
      </trkpt>
      <trkpt lat="47.01563456095755100250244140625" lon="6.92055590450763702392578125">
        <ele>919.5999755859375</ele>
        <time>2019-06-19T10:42:28.000Z</time>
        <extensions>
          <ns3:TrackPointExtension>
            <ns3:atemp>28.0</ns3:atemp>
            <ns3:hr>145</ns3:hr>
          </ns3:TrackPointExtension>
        </extensions>
      </trkpt>
      <trkpt lat="47.015496678650379180908203125" lon="6.9205946289002895355224609375">
        <ele>920.79998779296875</ele>
        <time>2019-06-19T10:42:37.000Z</time>
        <extensions>
          <ns3:TrackPointExtension>
            <ns3:atemp>28.0</ns3:atemp>
            <ns3:hr>145</ns3:hr>
          </ns3:TrackPointExtension>
        </extensions>
      </trkpt>
      <trkpt lat="47.01540087349712848663330078125" lon="6.920605860650539398193359375">
        <ele>921.5999755859375</ele>
        <time>2019-06-19T10:42:43.000Z</time>
        <extensions>
          <ns3:TrackPointExtension>
            <ns3:atemp>28.0</ns3:atemp>
            <ns3:hr>145</ns3:hr>
          </ns3:TrackPointExtension>
        </extensions>
      </trkpt>
      <trkpt lat="47.01538662426173686981201171875" lon="6.9206080399453639984130859375">
        <ele>921.79998779296875</ele>
        <time>2019-06-19T10:42:44.000Z</time>
        <extensions>
          <ns3:TrackPointExtension>
            <ns3:atemp>28.0</ns3:atemp>
            <ns3:hr>145</ns3:hr>
          </ns3:TrackPointExtension>
        </extensions>
      </trkpt>
      <trkpt lat="47.015299536287784576416015625" lon="6.92055883817374706268310546875">
        <ele>922</ele>
        <time>2019-06-19T10:42:50.000Z</time>
        <extensions>
          <ns3:TrackPointExtension>
            <ns3:atemp>28.0</ns3:atemp>
            <ns3:hr>143</ns3:hr>
          </ns3:TrackPointExtension>
        </extensions>
      </trkpt>
      <trkpt lat="47.01522015966475009918212890625" lon="6.920530758798122406005859375">
        <ele>923</ele>
        <time>2019-06-19T10:42:55.000Z</time>
        <extensions>
          <ns3:TrackPointExtension>
            <ns3:atemp>28.0</ns3:atemp>
            <ns3:hr>143</ns3:hr>
          </ns3:TrackPointExtension>
        </extensions>
      </trkpt>
      <trkpt lat="47.015205323696136474609375" lon="6.92052916623651981353759765625">
        <ele>923.4000244140625</ele>
        <time>2019-06-19T10:42:56.000Z</time>
        <extensions>
          <ns3:TrackPointExtension>
            <ns3:atemp>28.0</ns3:atemp>
            <ns3:hr>143</ns3:hr>
          </ns3:TrackPointExtension>
        </extensions>
      </trkpt>
      <trkpt lat="47.01508571393787860870361328125" lon="6.92050619982182979583740234375">
        <ele>924</ele>
        <time>2019-06-19T10:43:03.000Z</time>
        <extensions>
          <ns3:TrackPointExtension>
            <ns3:atemp>28.0</ns3:atemp>
            <ns3:hr>144</ns3:hr>
          </ns3:TrackPointExtension>
        </extensions>
      </trkpt>
      <trkpt lat="47.01504766009747982025146484375" lon="6.92051508463919162750244140625">
        <ele>924.20001220703125</ele>
        <time>2019-06-19T10:43:05.000Z</time>
        <extensions>
          <ns3:TrackPointExtension>
            <ns3:atemp>28.0</ns3:atemp>
            <ns3:hr>144</ns3:hr>
          </ns3:TrackPointExtension>
        </extensions>
      </trkpt>
      <trkpt lat="47.01495361514389514923095703125" lon="6.92051122896373271942138671875">
        <ele>924.5999755859375</ele>
        <time>2019-06-19T10:43:10.000Z</time>
        <extensions>
          <ns3:TrackPointExtension>
            <ns3:atemp>28.0</ns3:atemp>
            <ns3:hr>144</ns3:hr>
          </ns3:TrackPointExtension>
        </extensions>
      </trkpt>
      <trkpt lat="47.01491707004606723785400390625" lon="6.92047820426523685455322265625">
        <ele>925.20001220703125</ele>
        <time>2019-06-19T10:43:13.000Z</time>
        <extensions>
          <ns3:TrackPointExtension>
            <ns3:atemp>28.0</ns3:atemp>
            <ns3:hr>144</ns3:hr>
          </ns3:TrackPointExtension>
        </extensions>
      </trkpt>
      <trkpt lat="47.01487231068313121795654296875" lon="6.92045708186924457550048828125">
        <ele>925.79998779296875</ele>
        <time>2019-06-19T10:43:16.000Z</time>
        <extensions>
          <ns3:TrackPointExtension>
            <ns3:atemp>28.0</ns3:atemp>
            <ns3:hr>143</ns3:hr>
          </ns3:TrackPointExtension>
        </extensions>
      </trkpt>
      <trkpt lat="47.01483048498630523681640625" lon="6.9204528070986270904541015625">
        <ele>926.20001220703125</ele>
        <time>2019-06-19T10:43:21.000Z</time>
        <extensions>
          <ns3:TrackPointExtension>
            <ns3:atemp>28.0</ns3:atemp>
            <ns3:hr>143</ns3:hr>
          </ns3:TrackPointExtension>
        </extensions>
      </trkpt>
      <trkpt lat="47.01481732539832592010498046875" lon="6.9204680621623992919921875">
        <ele>926.4000244140625</ele>
        <time>2019-06-19T10:43:23.000Z</time>
        <extensions>
          <ns3:TrackPointExtension>
            <ns3:atemp>28.0</ns3:atemp>
            <ns3:hr>144</ns3:hr>
          </ns3:TrackPointExtension>
        </extensions>
      </trkpt>
      <trkpt lat="47.0147193409502506256103515625" lon="6.920656822621822357177734375">
        <ele>927.4000244140625</ele>
        <time>2019-06-19T10:43:29.000Z</time>
        <extensions>
          <ns3:TrackPointExtension>
            <ns3:atemp>28.0</ns3:atemp>
            <ns3:hr>143</ns3:hr>
          </ns3:TrackPointExtension>
        </extensions>
      </trkpt>
      <trkpt lat="47.0147186703979969024658203125" lon="6.92068054340779781341552734375">
        <ele>927.5999755859375</ele>
        <time>2019-06-19T10:43:30.000Z</time>
        <extensions>
          <ns3:TrackPointExtension>
            <ns3:atemp>28.0</ns3:atemp>
            <ns3:hr>143</ns3:hr>
          </ns3:TrackPointExtension>
        </extensions>
      </trkpt>
      <trkpt lat="47.01474037952721118927001953125" lon="6.920749358832836151123046875">
        <ele>928.5999755859375</ele>
        <time>2019-06-19T10:43:34.000Z</time>
        <extensions>
          <ns3:TrackPointExtension>
            <ns3:atemp>29.0</ns3:atemp>
            <ns3:hr>143</ns3:hr>
          </ns3:TrackPointExtension>
        </extensions>
      </trkpt>
      <trkpt lat="47.01475194655358791351318359375" lon="6.92076687701046466827392578125">
        <ele>928.79998779296875</ele>
        <time>2019-06-19T10:43:36.000Z</time>
        <extensions>
          <ns3:TrackPointExtension>
            <ns3:atemp>29.0</ns3:atemp>
            <ns3:hr>144</ns3:hr>
          </ns3:TrackPointExtension>
        </extensions>
      </trkpt>
      <trkpt lat="47.01481346972286701202392578125" lon="6.920793950557708740234375">
        <ele>929.79998779296875</ele>
        <time>2019-06-19T10:43:43.000Z</time>
        <extensions>
          <ns3:TrackPointExtension>
            <ns3:atemp>29.0</ns3:atemp>
            <ns3:hr>146</ns3:hr>
          </ns3:TrackPointExtension>
        </extensions>
      </trkpt>
      <trkpt lat="47.01482570730149745941162109375" lon="6.92079939879477024078369140625">
        <ele>930</ele>
        <time>2019-06-19T10:43:44.000Z</time>
        <extensions>
          <ns3:TrackPointExtension>
            <ns3:atemp>29.0</ns3:atemp>
            <ns3:hr>145</ns3:hr>
          </ns3:TrackPointExtension>
        </extensions>
      </trkpt>
      <trkpt lat="47.0148725621402263641357421875" lon="6.92082487978041172027587890625">
        <ele>930.4000244140625</ele>
        <time>2019-06-19T10:43:48.000Z</time>
        <extensions>
          <ns3:TrackPointExtension>
            <ns3:atemp>29.0</ns3:atemp>
            <ns3:hr>144</ns3:hr>
          </ns3:TrackPointExtension>
        </extensions>
      </trkpt>
      <trkpt lat="47.01490868814289569854736328125" lon="6.92085203714668750762939453125">
        <ele>930.79998779296875</ele>
        <time>2019-06-19T10:43:52.000Z</time>
        <extensions>
          <ns3:TrackPointExtension>
            <ns3:atemp>29.0</ns3:atemp>
            <ns3:hr>144</ns3:hr>
          </ns3:TrackPointExtension>
        </extensions>
      </trkpt>
      <trkpt lat="47.0149526931345462799072265625" lon="6.9208836369216442108154296875">
        <ele>931.4000244140625</ele>
        <time>2019-06-19T10:43:56.000Z</time>
        <extensions>
          <ns3:TrackPointExtension>
            <ns3:atemp>29.0</ns3:atemp>
            <ns3:hr>145</ns3:hr>
          </ns3:TrackPointExtension>
        </extensions>
      </trkpt>
      <trkpt lat="47.01497691683471202850341796875" lon="6.92090383730828762054443359375">
        <ele>931.79998779296875</ele>
        <time>2019-06-19T10:43:58.000Z</time>
        <extensions>
          <ns3:TrackPointExtension>
            <ns3:atemp>29.0</ns3:atemp>
            <ns3:hr>144</ns3:hr>
          </ns3:TrackPointExtension>
        </extensions>
      </trkpt>
      <trkpt lat="47.01503827236592769622802734375" lon="6.92098597995936870574951171875">
        <ele>932.5999755859375</ele>
        <time>2019-06-19T10:44:03.000Z</time>
        <extensions>
          <ns3:TrackPointExtension>
            <ns3:atemp>29.0</ns3:atemp>
            <ns3:hr>144</ns3:hr>
          </ns3:TrackPointExtension>
        </extensions>
      </trkpt>
      <trkpt lat="47.01506341807544231414794921875" lon="6.92101833410561084747314453125">
        <ele>933</ele>
        <time>2019-06-19T10:44:05.000Z</time>
        <extensions>
          <ns3:TrackPointExtension>
            <ns3:atemp>29.0</ns3:atemp>
            <ns3:hr>143</ns3:hr>
          </ns3:TrackPointExtension>
        </extensions>
      </trkpt>
      <trkpt lat="47.0151235163211822509765625" lon="6.9211022369563579559326171875">
        <ele>934</ele>
        <time>2019-06-19T10:44:10.000Z</time>
        <extensions>
          <ns3:TrackPointExtension>
            <ns3:atemp>29.0</ns3:atemp>
            <ns3:hr>143</ns3:hr>
          </ns3:TrackPointExtension>
        </extensions>
      </trkpt>
      <trkpt lat="47.01513416133821010589599609375" lon="6.9211230240762233734130859375">
        <ele>934.20001220703125</ele>
        <time>2019-06-19T10:44:11.000Z</time>
        <extensions>
          <ns3:TrackPointExtension>
            <ns3:atemp>29.0</ns3:atemp>
            <ns3:hr>144</ns3:hr>
          </ns3:TrackPointExtension>
        </extensions>
      </trkpt>
      <trkpt lat="47.01518118381500244140625" lon="6.921211369335651397705078125">
        <ele>935</ele>
        <time>2019-06-19T10:44:16.000Z</time>
        <extensions>
          <ns3:TrackPointExtension>
            <ns3:atemp>29.0</ns3:atemp>
            <ns3:hr>145</ns3:hr>
          </ns3:TrackPointExtension>
        </extensions>
      </trkpt>
      <trkpt lat="47.01520171947777271270751953125" lon="6.921250261366367340087890625">
        <ele>935.4000244140625</ele>
        <time>2019-06-19T10:44:18.000Z</time>
        <extensions>
          <ns3:TrackPointExtension>
            <ns3:atemp>29.0</ns3:atemp>
            <ns3:hr>145</ns3:hr>
          </ns3:TrackPointExtension>
        </extensions>
      </trkpt>
      <trkpt lat="47.01521404087543487548828125" lon="6.9212906621396541595458984375">
        <ele>936</ele>
        <time>2019-06-19T10:44:20.000Z</time>
        <extensions>
          <ns3:TrackPointExtension>
            <ns3:atemp>29.0</ns3:atemp>
            <ns3:hr>145</ns3:hr>
          </ns3:TrackPointExtension>
        </extensions>
      </trkpt>
      <trkpt lat="47.0152286253869533538818359375" lon="6.921317316591739654541015625">
        <ele>936.4000244140625</ele>
        <time>2019-06-19T10:44:22.000Z</time>
        <extensions>
          <ns3:TrackPointExtension>
            <ns3:atemp>29.0</ns3:atemp>
            <ns3:hr>144</ns3:hr>
          </ns3:TrackPointExtension>
        </extensions>
      </trkpt>
      <trkpt lat="47.01523373834788799285888671875" lon="6.9213330745697021484375">
        <ele>936.5999755859375</ele>
        <time>2019-06-19T10:44:23.000Z</time>
        <extensions>
          <ns3:TrackPointExtension>
            <ns3:atemp>29.0</ns3:atemp>
            <ns3:hr>144</ns3:hr>
          </ns3:TrackPointExtension>
        </extensions>
      </trkpt>
      <trkpt lat="47.015241868793964385986328125" lon="6.92141714505851268768310546875">
        <ele>937.20001220703125</ele>
        <time>2019-06-19T10:44:28.000Z</time>
        <extensions>
          <ns3:TrackPointExtension>
            <ns3:atemp>29.0</ns3:atemp>
            <ns3:hr>144</ns3:hr>
          </ns3:TrackPointExtension>
        </extensions>
      </trkpt>
      <trkpt lat="47.01523952186107635498046875" lon="6.9214626587927341461181640625">
        <ele>937.4000244140625</ele>
        <time>2019-06-19T10:44:30.000Z</time>
        <extensions>
          <ns3:TrackPointExtension>
            <ns3:atemp>29.0</ns3:atemp>
            <ns3:hr>147</ns3:hr>
          </ns3:TrackPointExtension>
        </extensions>
      </trkpt>
      <trkpt lat="47.01524932868778705596923828125" lon="6.9215194880962371826171875">
        <ele>937.5999755859375</ele>
        <time>2019-06-19T10:44:33.000Z</time>
        <extensions>
          <ns3:TrackPointExtension>
            <ns3:atemp>29.0</ns3:atemp>
            <ns3:hr>150</ns3:hr>
          </ns3:TrackPointExtension>
        </extensions>
      </trkpt>
      <trkpt lat="47.015258632600307464599609375" lon="6.921560056507587432861328125">
        <ele>937.5999755859375</ele>
        <time>2019-06-19T10:44:35.000Z</time>
        <extensions>
          <ns3:TrackPointExtension>
            <ns3:atemp>29.0</ns3:atemp>
            <ns3:hr>150</ns3:hr>
          </ns3:TrackPointExtension>
        </extensions>
      </trkpt>
      <trkpt lat="47.01529023237526416778564453125" lon="6.9217017106711864471435546875">
        <ele>938.79998779296875</ele>
        <time>2019-06-19T10:44:41.000Z</time>
        <extensions>
          <ns3:TrackPointExtension>
            <ns3:atemp>29.0</ns3:atemp>
            <ns3:hr>147</ns3:hr>
          </ns3:TrackPointExtension>
        </extensions>
      </trkpt>
      <trkpt lat="47.01530682854354381561279296875" lon="6.92173381336033344268798828125">
        <ele>939.20001220703125</ele>
        <time>2019-06-19T10:44:43.000Z</time>
        <extensions>
          <ns3:TrackPointExtension>
            <ns3:atemp>29.0</ns3:atemp>
            <ns3:hr>147</ns3:hr>
          </ns3:TrackPointExtension>
        </extensions>
      </trkpt>
      <trkpt lat="47.01532660983502864837646484375" lon="6.92177094519138336181640625">
        <ele>939.5999755859375</ele>
        <time>2019-06-19T10:44:45.000Z</time>
        <extensions>
          <ns3:TrackPointExtension>
            <ns3:atemp>29.0</ns3:atemp>
            <ns3:hr>147</ns3:hr>
          </ns3:TrackPointExtension>
        </extensions>
      </trkpt>
      <trkpt lat="47.01533851213753223419189453125" lon="6.92178695462644100189208984375">
        <ele>939.79998779296875</ele>
        <time>2019-06-19T10:44:46.000Z</time>
        <extensions>
          <ns3:TrackPointExtension>
            <ns3:atemp>29.0</ns3:atemp>
            <ns3:hr>148</ns3:hr>
          </ns3:TrackPointExtension>
        </extensions>
      </trkpt>
      <trkpt lat="47.01535611413419246673583984375" lon="6.92181377671658992767333984375">
        <ele>940</ele>
        <time>2019-06-19T10:44:48.000Z</time>
        <extensions>
          <ns3:TrackPointExtension>
            <ns3:atemp>29.0</ns3:atemp>
            <ns3:hr>148</ns3:hr>
          </ns3:TrackPointExtension>
        </extensions>
      </trkpt>
      <trkpt lat="47.0153979398310184478759765625" lon="6.921910755336284637451171875">
        <ele>940.79998779296875</ele>
        <time>2019-06-19T10:44:54.000Z</time>
        <extensions>
          <ns3:TrackPointExtension>
            <ns3:atemp>29.0</ns3:atemp>
            <ns3:hr>149</ns3:hr>
          </ns3:TrackPointExtension>
        </extensions>
      </trkpt>
      <trkpt lat="47.0154301263391971588134765625" lon="6.92197806201875209808349609375">
        <ele>941.5999755859375</ele>
        <time>2019-06-19T10:44:59.000Z</time>
        <extensions>
          <ns3:TrackPointExtension>
            <ns3:atemp>29.0</ns3:atemp>
            <ns3:hr>148</ns3:hr>
          </ns3:TrackPointExtension>
        </extensions>
      </trkpt>
      <trkpt lat="47.015446387231349945068359375" lon="6.92199415527284145355224609375">
        <ele>942</ele>
        <time>2019-06-19T10:45:01.000Z</time>
        <extensions>
          <ns3:TrackPointExtension>
            <ns3:atemp>29.0</ns3:atemp>
            <ns3:hr>148</ns3:hr>
          </ns3:TrackPointExtension>
        </extensions>
      </trkpt>
      <trkpt lat="47.01548687182366847991943359375" lon="6.92200941033661365509033203125">
        <ele>942.79998779296875</ele>
        <time>2019-06-19T10:45:05.000Z</time>
        <extensions>
          <ns3:TrackPointExtension>
            <ns3:atemp>29.0</ns3:atemp>
            <ns3:hr>149</ns3:hr>
          </ns3:TrackPointExtension>
        </extensions>
      </trkpt>
      <trkpt lat="47.01549558900296688079833984375" lon="6.9220138527452945709228515625">
        <ele>943</ele>
        <time>2019-06-19T10:45:06.000Z</time>
        <extensions>
          <ns3:TrackPointExtension>
            <ns3:atemp>29.0</ns3:atemp>
            <ns3:hr>149</ns3:hr>
          </ns3:TrackPointExtension>
        </extensions>
      </trkpt>
      <trkpt lat="47.015546299517154693603515625" lon="6.9220192171633243560791015625">
        <ele>943.5999755859375</ele>
        <time>2019-06-19T10:45:10.000Z</time>
        <extensions>
          <ns3:TrackPointExtension>
            <ns3:atemp>29.0</ns3:atemp>
            <ns3:hr>148</ns3:hr>
          </ns3:TrackPointExtension>
        </extensions>
      </trkpt>
      <trkpt lat="47.01555828563868999481201171875" lon="6.92202550359070301055908203125">
        <ele>943.5999755859375</ele>
        <time>2019-06-19T10:45:11.000Z</time>
        <extensions>
          <ns3:TrackPointExtension>
            <ns3:atemp>29.0</ns3:atemp>
            <ns3:hr>149</ns3:hr>
          </ns3:TrackPointExtension>
        </extensions>
      </trkpt>
      <trkpt lat="47.01558879576623439788818359375" lon="6.92204989492893218994140625">
        <ele>944.20001220703125</ele>
        <time>2019-06-19T10:45:14.000Z</time>
        <extensions>
          <ns3:TrackPointExtension>
            <ns3:atemp>29.0</ns3:atemp>
            <ns3:hr>149</ns3:hr>
          </ns3:TrackPointExtension>
        </extensions>
      </trkpt>
      <trkpt lat="47.01563246548175811767578125" lon="6.9220773875713348388671875">
        <ele>945</ele>
        <time>2019-06-19T10:45:18.000Z</time>
        <extensions>
          <ns3:TrackPointExtension>
            <ns3:atemp>29.0</ns3:atemp>
            <ns3:hr>148</ns3:hr>
          </ns3:TrackPointExtension>
        </extensions>
      </trkpt>
      <trkpt lat="47.0156574435532093048095703125" lon="6.92208149470388889312744140625">
        <ele>945.20001220703125</ele>
        <time>2019-06-19T10:45:20.000Z</time>
        <extensions>
          <ns3:TrackPointExtension>
            <ns3:atemp>29.0</ns3:atemp>
            <ns3:hr>149</ns3:hr>
          </ns3:TrackPointExtension>
        </extensions>
      </trkpt>
      <trkpt lat="47.01571318320930004119873046875" lon="6.92211686633527278900146484375">
        <ele>946</ele>
        <time>2019-06-19T10:45:25.000Z</time>
        <extensions>
          <ns3:TrackPointExtension>
            <ns3:atemp>29.0</ns3:atemp>
            <ns3:hr>151</ns3:hr>
          </ns3:TrackPointExtension>
        </extensions>
      </trkpt>
      <trkpt lat="47.01573799364268779754638671875" lon="6.92213379777967929840087890625">
        <ele>946.4000244140625</ele>
        <time>2019-06-19T10:45:27.000Z</time>
        <extensions>
          <ns3:TrackPointExtension>
            <ns3:atemp>29.0</ns3:atemp>
            <ns3:hr>151</ns3:hr>
          </ns3:TrackPointExtension>
        </extensions>
      </trkpt>
      <trkpt lat="47.01579364947974681854248046875" lon="6.922166906297206878662109375">
        <ele>947</ele>
        <time>2019-06-19T10:45:32.000Z</time>
        <extensions>
          <ns3:TrackPointExtension>
            <ns3:atemp>29.0</ns3:atemp>
            <ns3:hr>150</ns3:hr>
          </ns3:TrackPointExtension>
        </extensions>
      </trkpt>
      <trkpt lat="47.01581695117056369781494140625" lon="6.9221710972487926483154296875">
        <ele>947.4000244140625</ele>
        <time>2019-06-19T10:45:34.000Z</time>
        <extensions>
          <ns3:TrackPointExtension>
            <ns3:atemp>29.0</ns3:atemp>
            <ns3:hr>150</ns3:hr>
          </ns3:TrackPointExtension>
        </extensions>
      </trkpt>
      <trkpt lat="47.01587009243667125701904296875" lon="6.92220387049019336700439453125">
        <ele>948.5999755859375</ele>
        <time>2019-06-19T10:45:38.000Z</time>
        <extensions>
          <ns3:TrackPointExtension>
            <ns3:atemp>29.0</ns3:atemp>
            <ns3:hr>150</ns3:hr>
          </ns3:TrackPointExtension>
        </extensions>
      </trkpt>
      <trkpt lat="47.01588056981563568115234375" lon="6.922206468880176544189453125">
        <ele>948.5999755859375</ele>
        <time>2019-06-19T10:45:39.000Z</time>
        <extensions>
          <ns3:TrackPointExtension>
            <ns3:atemp>29.0</ns3:atemp>
            <ns3:hr>150</ns3:hr>
          </ns3:TrackPointExtension>
        </extensions>
      </trkpt>
      <trkpt lat="47.015933878719806671142578125" lon="6.92223940975964069366455078125">
        <ele>949.5999755859375</ele>
        <time>2019-06-19T10:45:44.000Z</time>
        <extensions>
          <ns3:TrackPointExtension>
            <ns3:atemp>29.0</ns3:atemp>
            <ns3:hr>151</ns3:hr>
          </ns3:TrackPointExtension>
        </extensions>
      </trkpt>
      <trkpt lat="47.01599498279392719268798828125" lon="6.92228483967483043670654296875">
        <ele>950</ele>
        <time>2019-06-19T10:45:48.000Z</time>
        <extensions>
          <ns3:TrackPointExtension>
            <ns3:atemp>29.0</ns3:atemp>
            <ns3:hr>151</ns3:hr>
          </ns3:TrackPointExtension>
        </extensions>
      </trkpt>
      <trkpt lat="47.0160193741321563720703125" lon="6.92233211360871791839599609375">
        <ele>950.79998779296875</ele>
        <time>2019-06-19T10:45:52.000Z</time>
        <extensions>
          <ns3:TrackPointExtension>
            <ns3:atemp>29.0</ns3:atemp>
            <ns3:hr>153</ns3:hr>
          </ns3:TrackPointExtension>
        </extensions>
      </trkpt>
      <trkpt lat="47.01602540910243988037109375" lon="6.9223497994244098663330078125">
        <ele>950.79998779296875</ele>
        <time>2019-06-19T10:45:54.000Z</time>
        <extensions>
          <ns3:TrackPointExtension>
            <ns3:atemp>29.0</ns3:atemp>
            <ns3:hr>150</ns3:hr>
          </ns3:TrackPointExtension>
        </extensions>
      </trkpt>
      <trkpt lat="47.01603270135819911956787109375" lon="6.92236346192657947540283203125">
        <ele>950.79998779296875</ele>
        <time>2019-06-19T10:45:55.000Z</time>
        <extensions>
          <ns3:TrackPointExtension>
            <ns3:atemp>29.0</ns3:atemp>
            <ns3:hr>150</ns3:hr>
          </ns3:TrackPointExtension>
        </extensions>
      </trkpt>
      <trkpt lat="47.01605332084000110626220703125" lon="6.92238190211355686187744140625">
        <ele>951.20001220703125</ele>
        <time>2019-06-19T10:45:57.000Z</time>
        <extensions>
          <ns3:TrackPointExtension>
            <ns3:atemp>29.0</ns3:atemp>
            <ns3:hr>150</ns3:hr>
          </ns3:TrackPointExtension>
        </extensions>
      </trkpt>
      <trkpt lat="47.01608500443398952484130859375" lon="6.922408975660800933837890625">
        <ele>951.79998779296875</ele>
        <time>2019-06-19T10:46:00.000Z</time>
        <extensions>
          <ns3:TrackPointExtension>
            <ns3:atemp>29.0</ns3:atemp>
            <ns3:hr>151</ns3:hr>
          </ns3:TrackPointExtension>
        </extensions>
      </trkpt>
      <trkpt lat="47.0160946436226367950439453125" lon="6.922417692840099334716796875">
        <ele>952</ele>
        <time>2019-06-19T10:46:01.000Z</time>
        <extensions>
          <ns3:TrackPointExtension>
            <ns3:atemp>29.0</ns3:atemp>
            <ns3:hr>151</ns3:hr>
          </ns3:TrackPointExtension>
        </extensions>
      </trkpt>
      <trkpt lat="47.016106881201267242431640625" lon="6.9224260747432708740234375">
        <ele>952</ele>
        <time>2019-06-19T10:46:03.000Z</time>
        <extensions>
          <ns3:TrackPointExtension>
            <ns3:atemp>29.0</ns3:atemp>
            <ns3:hr>150</ns3:hr>
          </ns3:TrackPointExtension>
        </extensions>
      </trkpt>
      <trkpt lat="47.01613328419625759124755859375" lon="6.92244543693959712982177734375">
        <ele>952.4000244140625</ele>
        <time>2019-06-19T10:46:07.000Z</time>
        <extensions>
          <ns3:TrackPointExtension>
            <ns3:atemp>29.0</ns3:atemp>
            <ns3:hr>150</ns3:hr>
          </ns3:TrackPointExtension>
        </extensions>
      </trkpt>
      <trkpt lat="47.01615189202129840850830078125" lon="6.92245549522340297698974609375">
        <ele>953.20001220703125</ele>
        <time>2019-06-19T10:46:09.000Z</time>
        <extensions>
          <ns3:TrackPointExtension>
            <ns3:atemp>29.0</ns3:atemp>
            <ns3:hr>150</ns3:hr>
          </ns3:TrackPointExtension>
        </extensions>
      </trkpt>
      <trkpt lat="47.0161600224673748016357421875" lon="6.9224634580314159393310546875">
        <ele>953.4000244140625</ele>
        <time>2019-06-19T10:46:10.000Z</time>
        <extensions>
          <ns3:TrackPointExtension>
            <ns3:atemp>29.0</ns3:atemp>
            <ns3:hr>150</ns3:hr>
          </ns3:TrackPointExtension>
        </extensions>
      </trkpt>
      <trkpt lat="47.0162002556025981903076171875" lon="6.9225006736814975738525390625">
        <ele>953.79998779296875</ele>
        <time>2019-06-19T10:46:14.000Z</time>
        <extensions>
          <ns3:TrackPointExtension>
            <ns3:atemp>29.0</ns3:atemp>
            <ns3:hr>149</ns3:hr>
          </ns3:TrackPointExtension>
        </extensions>
      </trkpt>
      <trkpt lat="47.01622498221695423126220703125" lon="6.9225285016000270843505859375">
        <ele>954.20001220703125</ele>
        <time>2019-06-19T10:46:17.000Z</time>
        <extensions>
          <ns3:TrackPointExtension>
            <ns3:atemp>29.0</ns3:atemp>
            <ns3:hr>149</ns3:hr>
          </ns3:TrackPointExtension>
        </extensions>
      </trkpt>
      <trkpt lat="47.016318105161190032958984375" lon="6.9225787930190563201904296875">
        <ele>955.20001220703125</ele>
        <time>2019-06-19T10:46:24.000Z</time>
        <extensions>
          <ns3:TrackPointExtension>
            <ns3:atemp>29.0</ns3:atemp>
            <ns3:hr>149</ns3:hr>
          </ns3:TrackPointExtension>
        </extensions>
      </trkpt>
      <trkpt lat="47.0163290016353130340576171875" lon="6.9225895218551158905029296875">
        <ele>955.4000244140625</ele>
        <time>2019-06-19T10:46:25.000Z</time>
        <extensions>
          <ns3:TrackPointExtension>
            <ns3:atemp>29.0</ns3:atemp>
            <ns3:hr>148</ns3:hr>
          </ns3:TrackPointExtension>
        </extensions>
      </trkpt>
      <trkpt lat="47.01634400524199008941650390625" lon="6.92260435782372951507568359375">
        <ele>955.4000244140625</ele>
        <time>2019-06-19T10:46:26.000Z</time>
        <extensions>
          <ns3:TrackPointExtension>
            <ns3:atemp>29.0</ns3:atemp>
            <ns3:hr>148</ns3:hr>
          </ns3:TrackPointExtension>
        </extensions>
      </trkpt>
      <trkpt lat="47.016408629715442657470703125" lon="6.9226703234016895294189453125">
        <ele>956</ele>
        <time>2019-06-19T10:46:30.000Z</time>
        <extensions>
          <ns3:TrackPointExtension>
            <ns3:atemp>29.0</ns3:atemp>
            <ns3:hr>148</ns3:hr>
          </ns3:TrackPointExtension>
        </extensions>
      </trkpt>
      <trkpt lat="47.0164292491972446441650390625" lon="6.92271902225911617279052734375">
        <ele>956.4000244140625</ele>
        <time>2019-06-19T10:46:33.000Z</time>
        <extensions>
          <ns3:TrackPointExtension>
            <ns3:atemp>29.0</ns3:atemp>
            <ns3:hr>148</ns3:hr>
          </ns3:TrackPointExtension>
        </extensions>
      </trkpt>
      <trkpt lat="47.01644509099423885345458984375" lon="6.9227383844554424285888671875">
        <ele>956.5999755859375</ele>
        <time>2019-06-19T10:46:35.000Z</time>
        <extensions>
          <ns3:TrackPointExtension>
            <ns3:atemp>29.0</ns3:atemp>
            <ns3:hr>147</ns3:hr>
          </ns3:TrackPointExtension>
        </extensions>
      </trkpt>
      <trkpt lat="47.01647937297821044921875" lon="6.922756992280483245849609375">
        <ele>957.20001220703125</ele>
        <time>2019-06-19T10:46:38.000Z</time>
        <extensions>
          <ns3:TrackPointExtension>
            <ns3:atemp>29.0</ns3:atemp>
            <ns3:hr>147</ns3:hr>
          </ns3:TrackPointExtension>
        </extensions>
      </trkpt>
      <trkpt lat="47.01649345457553863525390625" lon="6.9227809645235538482666015625">
        <ele>957.4000244140625</ele>
        <time>2019-06-19T10:46:40.000Z</time>
        <extensions>
          <ns3:TrackPointExtension>
            <ns3:atemp>29.0</ns3:atemp>
            <ns3:hr>147</ns3:hr>
          </ns3:TrackPointExtension>
        </extensions>
      </trkpt>
      <trkpt lat="47.01655087061226367950439453125" lon="6.92282178439199924468994140625">
        <ele>958</ele>
        <time>2019-06-19T10:46:46.000Z</time>
        <extensions>
          <ns3:TrackPointExtension>
            <ns3:atemp>29.0</ns3:atemp>
            <ns3:hr>147</ns3:hr>
          </ns3:TrackPointExtension>
        </extensions>
      </trkpt>
      <trkpt lat="47.01657123863697052001953125" lon="6.922837458550930023193359375">
        <ele>958.4000244140625</ele>
        <time>2019-06-19T10:46:48.000Z</time>
        <extensions>
          <ns3:TrackPointExtension>
            <ns3:atemp>29.0</ns3:atemp>
            <ns3:hr>147</ns3:hr>
          </ns3:TrackPointExtension>
        </extensions>
      </trkpt>
      <trkpt lat="47.016601748764514923095703125" lon="6.9228751771152019500732421875">
        <ele>959.4000244140625</ele>
        <time>2019-06-19T10:46:52.000Z</time>
        <extensions>
          <ns3:TrackPointExtension>
            <ns3:atemp>29.0</ns3:atemp>
            <ns3:hr>150</ns3:hr>
          </ns3:TrackPointExtension>
        </extensions>
      </trkpt>
      <trkpt lat="47.016609124839305877685546875" lon="6.922883726656436920166015625">
        <ele>959.4000244140625</ele>
        <time>2019-06-19T10:46:53.000Z</time>
        <extensions>
          <ns3:TrackPointExtension>
            <ns3:atemp>29.0</ns3:atemp>
            <ns3:hr>151</ns3:hr>
          </ns3:TrackPointExtension>
        </extensions>
      </trkpt>
      <trkpt lat="47.0166156627237796783447265625" lon="6.92289487458765506744384765625">
        <ele>959.5999755859375</ele>
        <time>2019-06-19T10:46:54.000Z</time>
        <extensions>
          <ns3:TrackPointExtension>
            <ns3:atemp>29.0</ns3:atemp>
            <ns3:hr>155</ns3:hr>
          </ns3:TrackPointExtension>
        </extensions>
      </trkpt>
      <trkpt lat="47.0166577398777008056640625" lon="6.92292437888681888580322265625">
        <ele>960</ele>
        <time>2019-06-19T10:46:58.000Z</time>
        <extensions>
          <ns3:TrackPointExtension>
            <ns3:atemp>29.0</ns3:atemp>
            <ns3:hr>153</ns3:hr>
          </ns3:TrackPointExtension>
        </extensions>
      </trkpt>
      <trkpt lat="47.01670509763062000274658203125" lon="6.92298120819032192230224609375">
        <ele>960.4000244140625</ele>
        <time>2019-06-19T10:47:02.000Z</time>
        <extensions>
          <ns3:TrackPointExtension>
            <ns3:atemp>29.0</ns3:atemp>
            <ns3:hr>150</ns3:hr>
          </ns3:TrackPointExtension>
        </extensions>
      </trkpt>
      <trkpt lat="47.01672278344631195068359375" lon="6.92299428395926952362060546875">
        <ele>960.5999755859375</ele>
        <time>2019-06-19T10:47:03.000Z</time>
        <extensions>
          <ns3:TrackPointExtension>
            <ns3:atemp>29.0</ns3:atemp>
            <ns3:hr>151</ns3:hr>
          </ns3:TrackPointExtension>
        </extensions>
      </trkpt>
      <trkpt lat="47.01677902601659297943115234375" lon="6.923048682510852813720703125">
        <ele>961.5999755859375</ele>
        <time>2019-06-19T10:47:09.000Z</time>
        <extensions>
          <ns3:TrackPointExtension>
            <ns3:atemp>29.0</ns3:atemp>
            <ns3:hr>149</ns3:hr>
          </ns3:TrackPointExtension>
        </extensions>
      </trkpt>
      <trkpt lat="47.016851194202899932861328125" lon="6.92311380989849567413330078125">
        <ele>962.79998779296875</ele>
        <time>2019-06-19T10:47:16.000Z</time>
        <extensions>
          <ns3:TrackPointExtension>
            <ns3:atemp>29.0</ns3:atemp>
            <ns3:hr>146</ns3:hr>
          </ns3:TrackPointExtension>
        </extensions>
      </trkpt>
      <trkpt lat="47.01690123416483402252197265625" lon="6.92316996864974498748779296875">
        <ele>963.79998779296875</ele>
        <time>2019-06-19T10:47:21.000Z</time>
        <extensions>
          <ns3:TrackPointExtension>
            <ns3:atemp>29.0</ns3:atemp>
            <ns3:hr>148</ns3:hr>
          </ns3:TrackPointExtension>
        </extensions>
      </trkpt>
      <trkpt lat="47.01692721806466579437255859375" lon="6.92318052984774112701416015625">
        <ele>964.20001220703125</ele>
        <time>2019-06-19T10:47:24.000Z</time>
        <extensions>
          <ns3:TrackPointExtension>
            <ns3:atemp>29.0</ns3:atemp>
            <ns3:hr>149</ns3:hr>
          </ns3:TrackPointExtension>
        </extensions>
      </trkpt>
      <trkpt lat="47.01694431714713573455810546875" lon="6.92320819012820720672607421875">
        <ele>964.79998779296875</ele>
        <time>2019-06-19T10:47:27.000Z</time>
        <extensions>
          <ns3:TrackPointExtension>
            <ns3:atemp>29.0</ns3:atemp>
            <ns3:hr>147</ns3:hr>
          </ns3:TrackPointExtension>
        </extensions>
      </trkpt>
      <trkpt lat="47.01695538125932216644287109375" lon="6.923218667507171630859375">
        <ele>965</ele>
        <time>2019-06-19T10:47:28.000Z</time>
        <extensions>
          <ns3:TrackPointExtension>
            <ns3:atemp>29.0</ns3:atemp>
            <ns3:hr>147</ns3:hr>
          </ns3:TrackPointExtension>
        </extensions>
      </trkpt>
      <trkpt lat="47.01698354445397853851318359375" lon="6.92323585040867328643798828125">
        <ele>965</ele>
        <time>2019-06-19T10:47:30.000Z</time>
        <extensions>
          <ns3:TrackPointExtension>
            <ns3:atemp>29.0</ns3:atemp>
            <ns3:hr>147</ns3:hr>
          </ns3:TrackPointExtension>
        </extensions>
      </trkpt>
      <trkpt lat="47.01701053418219089508056640625" lon="6.9232503511011600494384765625">
        <ele>965.20001220703125</ele>
        <time>2019-06-19T10:47:32.000Z</time>
        <extensions>
          <ns3:TrackPointExtension>
            <ns3:atemp>29.0</ns3:atemp>
            <ns3:hr>150</ns3:hr>
          </ns3:TrackPointExtension>
        </extensions>
      </trkpt>
      <trkpt lat="47.01705864630639553070068359375" lon="6.92329871468245983123779296875">
        <ele>966</ele>
        <time>2019-06-19T10:47:37.000Z</time>
        <extensions>
          <ns3:TrackPointExtension>
            <ns3:atemp>29.0</ns3:atemp>
            <ns3:hr>151</ns3:hr>
          </ns3:TrackPointExtension>
        </extensions>
      </trkpt>
      <trkpt lat="47.01708865351974964141845703125" lon="6.9233341701328754425048828125">
        <ele>966.4000244140625</ele>
        <time>2019-06-19T10:47:41.000Z</time>
        <extensions>
          <ns3:TrackPointExtension>
            <ns3:atemp>29.0</ns3:atemp>
            <ns3:hr>148</ns3:hr>
          </ns3:TrackPointExtension>
        </extensions>
      </trkpt>
      <trkpt lat="47.0171299763023853302001953125" lon="6.92333492450416088104248046875">
        <ele>966.79998779296875</ele>
        <time>2019-06-19T10:47:44.000Z</time>
        <extensions>
          <ns3:TrackPointExtension>
            <ns3:atemp>29.0</ns3:atemp>
            <ns3:hr>148</ns3:hr>
          </ns3:TrackPointExtension>
        </extensions>
      </trkpt>
      <trkpt lat="47.01716174371540546417236328125" lon="6.92337046377360820770263671875">
        <ele>967</ele>
        <time>2019-06-19T10:47:47.000Z</time>
        <extensions>
          <ns3:TrackPointExtension>
            <ns3:atemp>29.0</ns3:atemp>
            <ns3:hr>148</ns3:hr>
          </ns3:TrackPointExtension>
        </extensions>
      </trkpt>
      <trkpt lat="47.0172161422669887542724609375" lon="6.9234525226056575775146484375">
        <ele>968</ele>
        <time>2019-06-19T10:47:53.000Z</time>
        <extensions>
          <ns3:TrackPointExtension>
            <ns3:atemp>29.0</ns3:atemp>
            <ns3:hr>148</ns3:hr>
          </ns3:TrackPointExtension>
        </extensions>
      </trkpt>
      <trkpt lat="47.0172245241701602935791015625" lon="6.923466436564922332763671875">
        <ele>968.20001220703125</ele>
        <time>2019-06-19T10:47:54.000Z</time>
        <extensions>
          <ns3:TrackPointExtension>
            <ns3:atemp>29.0</ns3:atemp>
            <ns3:hr>148</ns3:hr>
          </ns3:TrackPointExtension>
        </extensions>
      </trkpt>
      <trkpt lat="47.0172714628279209136962890625" lon="6.923527456820011138916015625">
        <ele>969</ele>
        <time>2019-06-19T10:47:59.000Z</time>
        <extensions>
          <ns3:TrackPointExtension>
            <ns3:atemp>29.0</ns3:atemp>
            <ns3:hr>149</ns3:hr>
          </ns3:TrackPointExtension>
        </extensions>
      </trkpt>
      <trkpt lat="47.0172781683504581451416015625" lon="6.92354547791182994842529296875">
        <ele>969.20001220703125</ele>
        <time>2019-06-19T10:48:00.000Z</time>
        <extensions>
          <ns3:TrackPointExtension>
            <ns3:atemp>29.0</ns3:atemp>
            <ns3:hr>149</ns3:hr>
          </ns3:TrackPointExtension>
        </extensions>
      </trkpt>
      <trkpt lat="47.017329297959804534912109375" lon="6.923634074628353118896484375">
        <ele>970.4000244140625</ele>
        <time>2019-06-19T10:48:07.000Z</time>
        <extensions>
          <ns3:TrackPointExtension>
            <ns3:atemp>29.0</ns3:atemp>
            <ns3:hr>148</ns3:hr>
          </ns3:TrackPointExtension>
        </extensions>
      </trkpt>
      <trkpt lat="47.01734078116714954376220703125" lon="6.92363717593252658843994140625">
        <ele>970.5999755859375</ele>
        <time>2019-06-19T10:48:08.000Z</time>
        <extensions>
          <ns3:TrackPointExtension>
            <ns3:atemp>29.0</ns3:atemp>
            <ns3:hr>147</ns3:hr>
          </ns3:TrackPointExtension>
        </extensions>
      </trkpt>
      <trkpt lat="47.01738872565329074859619140625" lon="6.92373842932283878326416015625">
        <ele>971.5999755859375</ele>
        <time>2019-06-19T10:48:16.000Z</time>
        <extensions>
          <ns3:TrackPointExtension>
            <ns3:atemp>29.0</ns3:atemp>
            <ns3:hr>148</ns3:hr>
          </ns3:TrackPointExtension>
        </extensions>
      </trkpt>
      <trkpt lat="47.0173926651477813720703125" lon="6.92375619895756244659423828125">
        <ele>971.79998779296875</ele>
        <time>2019-06-19T10:48:17.000Z</time>
        <extensions>
          <ns3:TrackPointExtension>
            <ns3:atemp>29.0</ns3:atemp>
            <ns3:hr>149</ns3:hr>
          </ns3:TrackPointExtension>
        </extensions>
      </trkpt>
      <trkpt lat="47.01742812059819698333740234375" lon="6.9238315522670745849609375">
        <ele>972.5999755859375</ele>
        <time>2019-06-19T10:48:23.000Z</time>
        <extensions>
          <ns3:TrackPointExtension>
            <ns3:atemp>29.0</ns3:atemp>
            <ns3:hr>148</ns3:hr>
          </ns3:TrackPointExtension>
        </extensions>
      </trkpt>
      <trkpt lat="47.0174632407724857330322265625" lon="6.92392802797257900238037109375">
        <ele>973.5999755859375</ele>
        <time>2019-06-19T10:48:30.000Z</time>
        <extensions>
          <ns3:TrackPointExtension>
            <ns3:atemp>29.0</ns3:atemp>
            <ns3:hr>150</ns3:hr>
          </ns3:TrackPointExtension>
        </extensions>
      </trkpt>
      <trkpt lat="47.01753951609134674072265625" lon="6.924004219472408294677734375">
        <ele>974.79998779296875</ele>
        <time>2019-06-19T10:48:37.000Z</time>
        <extensions>
          <ns3:TrackPointExtension>
            <ns3:atemp>29.0</ns3:atemp>
            <ns3:hr>150</ns3:hr>
          </ns3:TrackPointExtension>
        </extensions>
      </trkpt>
      <trkpt lat="47.017571367323398590087890625" lon="6.9240838475525379180908203125">
        <ele>975.79998779296875</ele>
        <time>2019-06-19T10:48:42.000Z</time>
        <extensions>
          <ns3:TrackPointExtension>
            <ns3:atemp>29.0</ns3:atemp>
            <ns3:hr>150</ns3:hr>
          </ns3:TrackPointExtension>
        </extensions>
      </trkpt>
      <trkpt lat="47.0175775699317455291748046875" lon="6.9241026230156421661376953125">
        <ele>976</ele>
        <time>2019-06-19T10:48:43.000Z</time>
        <extensions>
          <ns3:TrackPointExtension>
            <ns3:atemp>29.0</ns3:atemp>
            <ns3:hr>150</ns3:hr>
          </ns3:TrackPointExtension>
        </extensions>
      </trkpt>
      <trkpt lat="47.01761755160987377166748046875" lon="6.924168504774570465087890625">
        <ele>976.5999755859375</ele>
        <time>2019-06-19T10:48:48.000Z</time>
        <extensions>
          <ns3:TrackPointExtension>
            <ns3:atemp>29.0</ns3:atemp>
            <ns3:hr>149</ns3:hr>
          </ns3:TrackPointExtension>
        </extensions>
      </trkpt>
      <trkpt lat="47.01764278113842010498046875" lon="6.9241757132112979888916015625">
        <ele>976.79998779296875</ele>
        <time>2019-06-19T10:48:50.000Z</time>
        <extensions>
          <ns3:TrackPointExtension>
            <ns3:atemp>29.0</ns3:atemp>
            <ns3:hr>149</ns3:hr>
          </ns3:TrackPointExtension>
        </extensions>
      </trkpt>
      <trkpt lat="47.01767203398048877716064453125" lon="6.924244947731494903564453125">
        <ele>977.4000244140625</ele>
        <time>2019-06-19T10:48:55.000Z</time>
        <extensions>
          <ns3:TrackPointExtension>
            <ns3:atemp>29.0</ns3:atemp>
            <ns3:hr>151</ns3:hr>
          </ns3:TrackPointExtension>
        </extensions>
      </trkpt>
      <trkpt lat="47.01767438091337680816650390625" lon="6.92426347173750400543212890625">
        <ele>977.4000244140625</ele>
        <time>2019-06-19T10:48:56.000Z</time>
        <extensions>
          <ns3:TrackPointExtension>
            <ns3:atemp>29.0</ns3:atemp>
            <ns3:hr>151</ns3:hr>
          </ns3:TrackPointExtension>
        </extensions>
      </trkpt>
      <trkpt lat="47.0176841877400875091552734375" lon="6.924309991300106048583984375">
        <ele>978</ele>
        <time>2019-06-19T10:48:59.000Z</time>
        <extensions>
          <ns3:TrackPointExtension>
            <ns3:atemp>29.0</ns3:atemp>
            <ns3:hr>150</ns3:hr>
          </ns3:TrackPointExtension>
        </extensions>
      </trkpt>
      <trkpt lat="47.0176984369754791259765625" lon="6.92435659468173980712890625">
        <ele>978.79998779296875</ele>
        <time>2019-06-19T10:49:02.000Z</time>
        <extensions>
          <ns3:TrackPointExtension>
            <ns3:atemp>29.0</ns3:atemp>
            <ns3:hr>150</ns3:hr>
          </ns3:TrackPointExtension>
        </extensions>
      </trkpt>
      <trkpt lat="47.01770774088799953460693359375" lon="6.92437629215419292449951171875">
        <ele>979</ele>
        <time>2019-06-19T10:49:04.000Z</time>
        <extensions>
          <ns3:TrackPointExtension>
            <ns3:atemp>29.0</ns3:atemp>
            <ns3:hr>152</ns3:hr>
          </ns3:TrackPointExtension>
        </extensions>
      </trkpt>
      <trkpt lat="47.01777865178883075714111328125" lon="6.9244214706122875213623046875">
        <ele>980</ele>
        <time>2019-06-19T10:49:10.000Z</time>
        <extensions>
          <ns3:TrackPointExtension>
            <ns3:atemp>29.0</ns3:atemp>
            <ns3:hr>151</ns3:hr>
          </ns3:TrackPointExtension>
        </extensions>
      </trkpt>
      <trkpt lat="47.0177908055484294891357421875" lon="6.9244281761348247528076171875">
        <ele>980.20001220703125</ele>
        <time>2019-06-19T10:49:11.000Z</time>
        <extensions>
          <ns3:TrackPointExtension>
            <ns3:atemp>29.0</ns3:atemp>
            <ns3:hr>151</ns3:hr>
          </ns3:TrackPointExtension>
        </extensions>
      </trkpt>
      <trkpt lat="47.01785408891737461090087890625" lon="6.92446329630911350250244140625">
        <ele>981.20001220703125</ele>
        <time>2019-06-19T10:49:18.000Z</time>
        <extensions>
          <ns3:TrackPointExtension>
            <ns3:atemp>29.0</ns3:atemp>
            <ns3:hr>149</ns3:hr>
          </ns3:TrackPointExtension>
        </extensions>
      </trkpt>
      <trkpt lat="47.0178618840873241424560546875" lon="6.92447033710777759552001953125">
        <ele>981.20001220703125</ele>
        <time>2019-06-19T10:49:19.000Z</time>
        <extensions>
          <ns3:TrackPointExtension>
            <ns3:atemp>29.0</ns3:atemp>
            <ns3:hr>148</ns3:hr>
          </ns3:TrackPointExtension>
        </extensions>
      </trkpt>
      <trkpt lat="47.01788342557847499847412109375" lon="6.92448056302964687347412109375">
        <ele>981.79998779296875</ele>
        <time>2019-06-19T10:49:21.000Z</time>
        <extensions>
          <ns3:TrackPointExtension>
            <ns3:atemp>29.0</ns3:atemp>
            <ns3:hr>148</ns3:hr>
          </ns3:TrackPointExtension>
        </extensions>
      </trkpt>
      <trkpt lat="47.01789733953773975372314453125" lon="6.92448961548507213592529296875">
        <ele>982.20001220703125</ele>
        <time>2019-06-19T10:49:22.000Z</time>
        <extensions>
          <ns3:TrackPointExtension>
            <ns3:atemp>29.0</ns3:atemp>
            <ns3:hr>151</ns3:hr>
          </ns3:TrackPointExtension>
        </extensions>
      </trkpt>
      <trkpt lat="47.0179242454469203948974609375" lon="6.92451207898557186126708984375">
        <ele>982.4000244140625</ele>
        <time>2019-06-19T10:49:24.000Z</time>
        <extensions>
          <ns3:TrackPointExtension>
            <ns3:atemp>29.0</ns3:atemp>
            <ns3:hr>150</ns3:hr>
          </ns3:TrackPointExtension>
        </extensions>
      </trkpt>
      <trkpt lat="47.017936147749423980712890625" lon="6.92453051917254924774169921875">
        <ele>982.4000244140625</ele>
        <time>2019-06-19T10:49:26.000Z</time>
        <extensions>
          <ns3:TrackPointExtension>
            <ns3:atemp>29.0</ns3:atemp>
            <ns3:hr>149</ns3:hr>
          </ns3:TrackPointExtension>
        </extensions>
      </trkpt>
      <trkpt lat="47.01794327236711978912353515625" lon="6.92453001625835895538330078125">
        <ele>982.5999755859375</ele>
        <time>2019-06-19T10:49:27.000Z</time>
        <extensions>
          <ns3:TrackPointExtension>
            <ns3:atemp>29.0</ns3:atemp>
            <ns3:hr>153</ns3:hr>
          </ns3:TrackPointExtension>
        </extensions>
      </trkpt>
      <trkpt lat="47.0179681666195392608642578125" lon="6.924528591334819793701171875">
        <ele>982.79998779296875</ele>
        <time>2019-06-19T10:49:29.000Z</time>
        <extensions>
          <ns3:TrackPointExtension>
            <ns3:atemp>29.0</ns3:atemp>
            <ns3:hr>152</ns3:hr>
          </ns3:TrackPointExtension>
        </extensions>
      </trkpt>
      <trkpt lat="47.01797998510301113128662109375" lon="6.9245461933314800262451171875">
        <ele>983.5999755859375</ele>
        <time>2019-06-19T10:49:31.000Z</time>
        <extensions>
          <ns3:TrackPointExtension>
            <ns3:atemp>29.0</ns3:atemp>
            <ns3:hr>150</ns3:hr>
          </ns3:TrackPointExtension>
        </extensions>
      </trkpt>
      <trkpt lat="47.0179939828813076019287109375" lon="6.924554742872714996337890625">
        <ele>984</ele>
        <time>2019-06-19T10:49:33.000Z</time>
        <extensions>
          <ns3:TrackPointExtension>
            <ns3:atemp>29.0</ns3:atemp>
            <ns3:hr>150</ns3:hr>
          </ns3:TrackPointExtension>
        </extensions>
      </trkpt>
      <trkpt lat="47.0180040411651134490966796875" lon="6.92456706427037715911865234375">
        <ele>984.20001220703125</ele>
        <time>2019-06-19T10:49:34.000Z</time>
        <extensions>
          <ns3:TrackPointExtension>
            <ns3:atemp>29.0</ns3:atemp>
            <ns3:hr>150</ns3:hr>
          </ns3:TrackPointExtension>
        </extensions>
      </trkpt>
      <trkpt lat="47.0180241577327251434326171875" lon="6.9245906174182891845703125">
        <ele>984.4000244140625</ele>
        <time>2019-06-19T10:49:36.000Z</time>
        <extensions>
          <ns3:TrackPointExtension>
            <ns3:atemp>29.0</ns3:atemp>
            <ns3:hr>151</ns3:hr>
          </ns3:TrackPointExtension>
        </extensions>
      </trkpt>
      <trkpt lat="47.01804838143289089202880859375" lon="6.92460293881595134735107421875">
        <ele>984.4000244140625</ele>
        <time>2019-06-19T10:49:38.000Z</time>
        <extensions>
          <ns3:TrackPointExtension>
            <ns3:atemp>29.0</ns3:atemp>
            <ns3:hr>150</ns3:hr>
          </ns3:TrackPointExtension>
        </extensions>
      </trkpt>
      <trkpt lat="47.01806279830634593963623046875" lon="6.924622468650341033935546875">
        <ele>984.5999755859375</ele>
        <time>2019-06-19T10:49:40.000Z</time>
        <extensions>
          <ns3:TrackPointExtension>
            <ns3:atemp>29.0</ns3:atemp>
            <ns3:hr>149</ns3:hr>
          </ns3:TrackPointExtension>
        </extensions>
      </trkpt>
      <trkpt lat="47.018101103603839874267578125" lon="6.92467569373548030853271484375">
        <ele>985.20001220703125</ele>
        <time>2019-06-19T10:49:45.000Z</time>
        <extensions>
          <ns3:TrackPointExtension>
            <ns3:atemp>29.0</ns3:atemp>
            <ns3:hr>148</ns3:hr>
          </ns3:TrackPointExtension>
        </extensions>
      </trkpt>
      <trkpt lat="47.01811694540083408355712890625" lon="6.92469321191310882568359375">
        <ele>985.5999755859375</ele>
        <time>2019-06-19T10:49:47.000Z</time>
        <extensions>
          <ns3:TrackPointExtension>
            <ns3:atemp>29.0</ns3:atemp>
            <ns3:hr>149</ns3:hr>
          </ns3:TrackPointExtension>
        </extensions>
      </trkpt>
      <trkpt lat="47.01812566258013248443603515625" lon="6.92470050416886806488037109375">
        <ele>985.79998779296875</ele>
        <time>2019-06-19T10:49:48.000Z</time>
        <extensions>
          <ns3:TrackPointExtension>
            <ns3:atemp>29.0</ns3:atemp>
            <ns3:hr>147</ns3:hr>
          </ns3:TrackPointExtension>
        </extensions>
      </trkpt>
      <trkpt lat="47.01813538558781147003173828125" lon="6.92471240647137165069580078125">
        <ele>986</ele>
        <time>2019-06-19T10:49:49.000Z</time>
        <extensions>
          <ns3:TrackPointExtension>
            <ns3:atemp>29.0</ns3:atemp>
            <ns3:hr>150</ns3:hr>
          </ns3:TrackPointExtension>
        </extensions>
      </trkpt>
      <trkpt lat="47.01816539280116558074951171875" lon="6.92475196905434131622314453125">
        <ele>986.5999755859375</ele>
        <time>2019-06-19T10:49:52.000Z</time>
        <extensions>
          <ns3:TrackPointExtension>
            <ns3:atemp>29.0</ns3:atemp>
            <ns3:hr>149</ns3:hr>
          </ns3:TrackPointExtension>
        </extensions>
      </trkpt>
      <trkpt lat="47.01818852685391902923583984375" lon="6.92476831376552581787109375">
        <ele>987</ele>
        <time>2019-06-19T10:49:54.000Z</time>
        <extensions>
          <ns3:TrackPointExtension>
            <ns3:atemp>29.0</ns3:atemp>
            <ns3:hr>148</ns3:hr>
          </ns3:TrackPointExtension>
        </extensions>
      </trkpt>
      <trkpt lat="47.01821316964924335479736328125" lon="6.92478264681994915008544921875">
        <ele>987.20001220703125</ele>
        <time>2019-06-19T10:49:56.000Z</time>
        <extensions>
          <ns3:TrackPointExtension>
            <ns3:atemp>29.0</ns3:atemp>
            <ns3:hr>148</ns3:hr>
          </ns3:TrackPointExtension>
        </extensions>
      </trkpt>
      <trkpt lat="47.01822289265692234039306640625" lon="6.9247966445982456207275390625">
        <ele>987.4000244140625</ele>
        <time>2019-06-19T10:49:57.000Z</time>
        <extensions>
          <ns3:TrackPointExtension>
            <ns3:atemp>29.0</ns3:atemp>
            <ns3:hr>148</ns3:hr>
          </ns3:TrackPointExtension>
        </extensions>
      </trkpt>
      <trkpt lat="47.0182625390589237213134765625" lon="6.92485012114048004150390625">
        <ele>987.79998779296875</ele>
        <time>2019-06-19T10:50:01.000Z</time>
        <extensions>
          <ns3:TrackPointExtension>
            <ns3:atemp>29.0</ns3:atemp>
            <ns3:hr>151</ns3:hr>
          </ns3:TrackPointExtension>
        </extensions>
      </trkpt>
      <trkpt lat="47.0182863436639308929443359375" lon="6.9248878397047519683837890625">
        <ele>988.20001220703125</ele>
        <time>2019-06-19T10:50:04.000Z</time>
        <extensions>
          <ns3:TrackPointExtension>
            <ns3:atemp>29.0</ns3:atemp>
            <ns3:hr>152</ns3:hr>
          </ns3:TrackPointExtension>
        </extensions>
      </trkpt>
      <trkpt lat="47.01831744052469730377197265625" lon="6.92493100650608539581298828125">
        <ele>989</ele>
        <time>2019-06-19T10:50:07.000Z</time>
        <extensions>
          <ns3:TrackPointExtension>
            <ns3:atemp>29.0</ns3:atemp>
            <ns3:hr>152</ns3:hr>
          </ns3:TrackPointExtension>
        </extensions>
      </trkpt>
      <trkpt lat="47.0183346234261989593505859375" lon="6.92495397292077541351318359375">
        <ele>989.4000244140625</ele>
        <time>2019-06-19T10:50:09.000Z</time>
        <extensions>
          <ns3:TrackPointExtension>
            <ns3:atemp>29.0</ns3:atemp>
            <ns3:hr>152</ns3:hr>
          </ns3:TrackPointExtension>
        </extensions>
      </trkpt>
      <trkpt lat="47.01835063286125659942626953125" lon="6.924989931285381317138671875">
        <ele>990</ele>
        <time>2019-06-19T10:50:12.000Z</time>
        <extensions>
          <ns3:TrackPointExtension>
            <ns3:atemp>29.0</ns3:atemp>
            <ns3:hr>151</ns3:hr>
          </ns3:TrackPointExtension>
        </extensions>
      </trkpt>
      <trkpt lat="47.01835767365992069244384765625" lon="6.92499889992177486419677734375">
        <ele>990</ele>
        <time>2019-06-19T10:50:13.000Z</time>
        <extensions>
          <ns3:TrackPointExtension>
            <ns3:atemp>29.0</ns3:atemp>
            <ns3:hr>151</ns3:hr>
          </ns3:TrackPointExtension>
        </extensions>
      </trkpt>
      <trkpt lat="47.01839438639581203460693359375" lon="6.92504282109439373016357421875">
        <ele>990.5999755859375</ele>
        <time>2019-06-19T10:50:18.000Z</time>
        <extensions>
          <ns3:TrackPointExtension>
            <ns3:atemp>29.0</ns3:atemp>
            <ns3:hr>150</ns3:hr>
          </ns3:TrackPointExtension>
        </extensions>
      </trkpt>
      <trkpt lat="47.018423974514007568359375" lon="6.92508749663829803466796875">
        <ele>991.20001220703125</ele>
        <time>2019-06-19T10:50:22.000Z</time>
        <extensions>
          <ns3:TrackPointExtension>
            <ns3:atemp>29.0</ns3:atemp>
            <ns3:hr>150</ns3:hr>
          </ns3:TrackPointExtension>
        </extensions>
      </trkpt>
      <trkpt lat="47.01844417490065097808837890625" lon="6.92512764595448970794677734375">
        <ele>991.5999755859375</ele>
        <time>2019-06-19T10:50:25.000Z</time>
        <extensions>
          <ns3:TrackPointExtension>
            <ns3:atemp>29.0</ns3:atemp>
            <ns3:hr>150</ns3:hr>
          </ns3:TrackPointExtension>
        </extensions>
      </trkpt>
      <trkpt lat="47.01849681325256824493408203125" lon="6.92517600953578948974609375">
        <ele>992.20001220703125</ele>
        <time>2019-06-19T10:50:30.000Z</time>
        <extensions>
          <ns3:TrackPointExtension>
            <ns3:atemp>29.0</ns3:atemp>
            <ns3:hr>151</ns3:hr>
          </ns3:TrackPointExtension>
        </extensions>
      </trkpt>
      <trkpt lat="47.01850485987961292266845703125" lon="6.92518715746700763702392578125">
        <ele>992.20001220703125</ele>
        <time>2019-06-19T10:50:31.000Z</time>
        <extensions>
          <ns3:TrackPointExtension>
            <ns3:atemp>29.0</ns3:atemp>
            <ns3:hr>151</ns3:hr>
          </ns3:TrackPointExtension>
        </extensions>
      </trkpt>
      <trkpt lat="47.01856353320181369781494140625" lon="6.9252485968172550201416015625">
        <ele>993.20001220703125</ele>
        <time>2019-06-19T10:50:37.000Z</time>
        <extensions>
          <ns3:TrackPointExtension>
            <ns3:atemp>29.0</ns3:atemp>
            <ns3:hr>150</ns3:hr>
          </ns3:TrackPointExtension>
        </extensions>
      </trkpt>
      <trkpt lat="47.0185730047523975372314453125" lon="6.9252606667578220367431640625">
        <ele>993.5999755859375</ele>
        <time>2019-06-19T10:50:38.000Z</time>
        <extensions>
          <ns3:TrackPointExtension>
            <ns3:atemp>29.0</ns3:atemp>
            <ns3:hr>149</ns3:hr>
          </ns3:TrackPointExtension>
        </extensions>
      </trkpt>
      <trkpt lat="47.018604688346385955810546875" lon="6.9253072701394557952880859375">
        <ele>994.5999755859375</ele>
        <time>2019-06-19T10:50:43.000Z</time>
        <extensions>
          <ns3:TrackPointExtension>
            <ns3:atemp>29.0</ns3:atemp>
            <ns3:hr>149</ns3:hr>
          </ns3:TrackPointExtension>
        </extensions>
      </trkpt>
      <trkpt lat="47.01861550100147724151611328125" lon="6.92533166147768497467041015625">
        <ele>994.79998779296875</ele>
        <time>2019-06-19T10:50:45.000Z</time>
        <extensions>
          <ns3:TrackPointExtension>
            <ns3:atemp>29.0</ns3:atemp>
            <ns3:hr>149</ns3:hr>
          </ns3:TrackPointExtension>
        </extensions>
      </trkpt>
      <trkpt lat="47.018660008907318115234375" lon="6.925383545458316802978515625">
        <ele>995.20001220703125</ele>
        <time>2019-06-19T10:50:49.000Z</time>
        <extensions>
          <ns3:TrackPointExtension>
            <ns3:atemp>29.0</ns3:atemp>
            <ns3:hr>148</ns3:hr>
          </ns3:TrackPointExtension>
        </extensions>
      </trkpt>
      <trkpt lat="47.0187074504792690277099609375" lon="6.92541631869971752166748046875">
        <ele>995.79998779296875</ele>
        <time>2019-06-19T10:50:53.000Z</time>
        <extensions>
          <ns3:TrackPointExtension>
            <ns3:atemp>29.0</ns3:atemp>
            <ns3:hr>149</ns3:hr>
          </ns3:TrackPointExtension>
        </extensions>
      </trkpt>
      <trkpt lat="47.01874139718711376190185546875" lon="6.9254668615758419036865234375">
        <ele>996.79998779296875</ele>
        <time>2019-06-19T10:50:58.000Z</time>
        <extensions>
          <ns3:TrackPointExtension>
            <ns3:atemp>29.0</ns3:atemp>
            <ns3:hr>148</ns3:hr>
          </ns3:TrackPointExtension>
        </extensions>
      </trkpt>
      <trkpt lat="47.01880912296473979949951171875" lon="6.92551891319453716278076171875">
        <ele>997.4000244140625</ele>
        <time>2019-06-19T10:51:04.000Z</time>
        <extensions>
          <ns3:TrackPointExtension>
            <ns3:atemp>29.0</ns3:atemp>
            <ns3:hr>150</ns3:hr>
          </ns3:TrackPointExtension>
        </extensions>
      </trkpt>
      <trkpt lat="47.01883628033101558685302734375" lon="6.9255349226295948028564453125">
        <ele>998</ele>
        <time>2019-06-19T10:51:06.000Z</time>
        <extensions>
          <ns3:TrackPointExtension>
            <ns3:atemp>29.0</ns3:atemp>
            <ns3:hr>151</ns3:hr>
          </ns3:TrackPointExtension>
        </extensions>
      </trkpt>
      <trkpt lat="47.01887701638042926788330078125" lon="6.92557121627032756805419921875">
        <ele>998.4000244140625</ele>
        <time>2019-06-19T10:51:10.000Z</time>
        <extensions>
          <ns3:TrackPointExtension>
            <ns3:atemp>29.0</ns3:atemp>
            <ns3:hr>152</ns3:hr>
          </ns3:TrackPointExtension>
        </extensions>
      </trkpt>
      <trkpt lat="47.0188985578715801239013671875" lon="6.9256348349153995513916015625">
        <ele>999</ele>
        <time>2019-06-19T10:51:14.000Z</time>
        <extensions>
          <ns3:TrackPointExtension>
            <ns3:atemp>29.0</ns3:atemp>
            <ns3:hr>152</ns3:hr>
          </ns3:TrackPointExtension>
        </extensions>
      </trkpt>
      <trkpt lat="47.01892429031431674957275390625" lon="6.92567816935479640960693359375">
        <ele>999.5999755859375</ele>
        <time>2019-06-19T10:51:17.000Z</time>
        <extensions>
          <ns3:TrackPointExtension>
            <ns3:atemp>29.0</ns3:atemp>
            <ns3:hr>151</ns3:hr>
          </ns3:TrackPointExtension>
        </extensions>
      </trkpt>
      <trkpt lat="47.0189488492906093597412109375" lon="6.925723850727081298828125">
        <ele>1000</ele>
        <time>2019-06-19T10:51:20.000Z</time>
        <extensions>
          <ns3:TrackPointExtension>
            <ns3:atemp>29.0</ns3:atemp>
            <ns3:hr>150</ns3:hr>
          </ns3:TrackPointExtension>
        </extensions>
      </trkpt>
      <trkpt lat="47.01897676102817058563232421875" lon="6.92576249130070209503173828125">
        <ele>1000.5999755859375</ele>
        <time>2019-06-19T10:51:23.000Z</time>
        <extensions>
          <ns3:TrackPointExtension>
            <ns3:atemp>29.0</ns3:atemp>
            <ns3:hr>149</ns3:hr>
          </ns3:TrackPointExtension>
        </extensions>
      </trkpt>
      <trkpt lat="47.01899251900613307952880859375" lon="6.9258152134716510772705078125">
        <ele>1001</ele>
        <time>2019-06-19T10:51:27.000Z</time>
        <extensions>
          <ns3:TrackPointExtension>
            <ns3:atemp>29.0</ns3:atemp>
            <ns3:hr>149</ns3:hr>
          </ns3:TrackPointExtension>
        </extensions>
      </trkpt>
      <trkpt lat="47.0189984701573848724365234375" lon="6.9258363358676433563232421875">
        <ele>1001.20001220703125</ele>
        <time>2019-06-19T10:51:29.000Z</time>
        <extensions>
          <ns3:TrackPointExtension>
            <ns3:atemp>29.0</ns3:atemp>
            <ns3:hr>149</ns3:hr>
          </ns3:TrackPointExtension>
        </extensions>
      </trkpt>
      <trkpt lat="47.01900743879377841949462890625" lon="6.92590129561722278594970703125">
        <ele>1002</ele>
        <time>2019-06-19T10:51:33.000Z</time>
        <extensions>
          <ns3:TrackPointExtension>
            <ns3:atemp>29.0</ns3:atemp>
            <ns3:hr>149</ns3:hr>
          </ns3:TrackPointExtension>
        </extensions>
      </trkpt>
      <trkpt lat="47.01901565305888652801513671875" lon="6.92594069056212902069091796875">
        <ele>1002</ele>
        <time>2019-06-19T10:51:35.000Z</time>
        <extensions>
          <ns3:TrackPointExtension>
            <ns3:atemp>29.0</ns3:atemp>
            <ns3:hr>149</ns3:hr>
          </ns3:TrackPointExtension>
        </extensions>
      </trkpt>
      <trkpt lat="47.01902856118977069854736328125" lon="6.925978995859622955322265625">
        <ele>1002</ele>
        <time>2019-06-19T10:51:37.000Z</time>
        <extensions>
          <ns3:TrackPointExtension>
            <ns3:atemp>29.0</ns3:atemp>
            <ns3:hr>149</ns3:hr>
          </ns3:TrackPointExtension>
        </extensions>
      </trkpt>
      <trkpt lat="47.01902302913367748260498046875" lon="6.926014535129070281982421875">
        <ele>1002.20001220703125</ele>
        <time>2019-06-19T10:51:39.000Z</time>
        <extensions>
          <ns3:TrackPointExtension>
            <ns3:atemp>29.0</ns3:atemp>
            <ns3:hr>149</ns3:hr>
          </ns3:TrackPointExtension>
        </extensions>
      </trkpt>
      <trkpt lat="47.01902470551431179046630859375" lon="6.926067173480987548828125">
        <ele>1002.20001220703125</ele>
        <time>2019-06-19T10:51:41.000Z</time>
        <extensions>
          <ns3:TrackPointExtension>
            <ns3:atemp>29.0</ns3:atemp>
            <ns3:hr>148</ns3:hr>
          </ns3:TrackPointExtension>
        </extensions>
      </trkpt>
      <trkpt lat="47.019039206206798553466796875" lon="6.926205642521381378173828125">
        <ele>1003</ele>
        <time>2019-06-19T10:51:48.000Z</time>
        <extensions>
          <ns3:TrackPointExtension>
            <ns3:atemp>29.0</ns3:atemp>
            <ns3:hr>149</ns3:hr>
          </ns3:TrackPointExtension>
        </extensions>
      </trkpt>
      <trkpt lat="47.019033171236515045166015625" lon="6.9262777268886566162109375">
        <ele>1003.4000244140625</ele>
        <time>2019-06-19T10:51:51.000Z</time>
        <extensions>
          <ns3:TrackPointExtension>
            <ns3:atemp>29.0</ns3:atemp>
            <ns3:hr>149</ns3:hr>
          </ns3:TrackPointExtension>
        </extensions>
      </trkpt>
      <trkpt lat="47.01903845183551311492919921875" lon="6.9263583607971668243408203125">
        <ele>1004</ele>
        <time>2019-06-19T10:51:55.000Z</time>
        <extensions>
          <ns3:TrackPointExtension>
            <ns3:atemp>29.0</ns3:atemp>
            <ns3:hr>147</ns3:hr>
          </ns3:TrackPointExtension>
        </extensions>
      </trkpt>
      <trkpt lat="47.019051611423492431640625" lon="6.92640622146427631378173828125">
        <ele>1004.20001220703125</ele>
        <time>2019-06-19T10:51:58.000Z</time>
        <extensions>
          <ns3:TrackPointExtension>
            <ns3:atemp>29.0</ns3:atemp>
            <ns3:hr>146</ns3:hr>
          </ns3:TrackPointExtension>
        </extensions>
      </trkpt>
      <trkpt lat="47.01905437745153903961181640625" lon="6.92643337883055210113525390625">
        <ele>1004.4000244140625</ele>
        <time>2019-06-19T10:52:00.000Z</time>
        <extensions>
          <ns3:TrackPointExtension>
            <ns3:atemp>29.0</ns3:atemp>
            <ns3:hr>146</ns3:hr>
          </ns3:TrackPointExtension>
        </extensions>
      </trkpt>
      <trkpt lat="47.01908069662749767303466796875" lon="6.92650529555976390838623046875">
        <ele>1005</ele>
        <time>2019-06-19T10:52:05.000Z</time>
        <extensions>
          <ns3:TrackPointExtension>
            <ns3:atemp>29.0</ns3:atemp>
            <ns3:hr>149</ns3:hr>
          </ns3:TrackPointExtension>
        </extensions>
      </trkpt>
      <trkpt lat="47.0191087760031223297119140625" lon="6.926528848707675933837890625">
        <ele>1005.20001220703125</ele>
        <time>2019-06-19T10:52:07.000Z</time>
        <extensions>
          <ns3:TrackPointExtension>
            <ns3:atemp>29.0</ns3:atemp>
            <ns3:hr>148</ns3:hr>
          </ns3:TrackPointExtension>
        </extensions>
      </trkpt>
      <trkpt lat="47.01912336051464080810546875" lon="6.92654502578079700469970703125">
        <ele>1005.4000244140625</ele>
        <time>2019-06-19T10:52:08.000Z</time>
        <extensions>
          <ns3:TrackPointExtension>
            <ns3:atemp>29.0</ns3:atemp>
            <ns3:hr>147</ns3:hr>
          </ns3:TrackPointExtension>
        </extensions>
      </trkpt>
      <trkpt lat="47.019131742417812347412109375" lon="6.92656271159648895263671875">
        <ele>1005.4000244140625</ele>
        <time>2019-06-19T10:52:09.000Z</time>
        <extensions>
          <ns3:TrackPointExtension>
            <ns3:atemp>29.0</ns3:atemp>
            <ns3:hr>147</ns3:hr>
          </ns3:TrackPointExtension>
        </extensions>
      </trkpt>
      <trkpt lat="47.01915227808058261871337890625" lon="6.926605962216854095458984375">
        <ele>1006.20001220703125</ele>
        <time>2019-06-19T10:52:12.000Z</time>
        <extensions>
          <ns3:TrackPointExtension>
            <ns3:atemp>29.0</ns3:atemp>
            <ns3:hr>146</ns3:hr>
          </ns3:TrackPointExtension>
        </extensions>
      </trkpt>
      <trkpt lat="47.01918161474168300628662109375" lon="6.9266570918262004852294921875">
        <ele>1006.5999755859375</ele>
        <time>2019-06-19T10:52:15.000Z</time>
        <extensions>
          <ns3:TrackPointExtension>
            <ns3:atemp>29.0</ns3:atemp>
            <ns3:hr>146</ns3:hr>
          </ns3:TrackPointExtension>
        </extensions>
      </trkpt>
      <trkpt lat="47.01920692808926105499267578125" lon="6.9267214648425579071044921875">
        <ele>1006.5999755859375</ele>
        <time>2019-06-19T10:52:18.000Z</time>
        <extensions>
          <ns3:TrackPointExtension>
            <ns3:atemp>29.0</ns3:atemp>
            <ns3:hr>146</ns3:hr>
          </ns3:TrackPointExtension>
        </extensions>
      </trkpt>
      <trkpt lat="47.01923492364585399627685546875" lon="6.92678659223020076751708984375">
        <ele>1007.4000244140625</ele>
        <time>2019-06-19T10:52:23.000Z</time>
        <extensions>
          <ns3:TrackPointExtension>
            <ns3:atemp>29.0</ns3:atemp>
            <ns3:hr>146</ns3:hr>
          </ns3:TrackPointExtension>
        </extensions>
      </trkpt>
      <trkpt lat="47.01921044848859310150146484375" lon="6.9268314354121685028076171875">
        <ele>1007.5999755859375</ele>
        <time>2019-06-19T10:52:26.000Z</time>
        <extensions>
          <ns3:TrackPointExtension>
            <ns3:atemp>29.0</ns3:atemp>
            <ns3:hr>147</ns3:hr>
          </ns3:TrackPointExtension>
        </extensions>
      </trkpt>
      <trkpt lat="47.019185386598110198974609375" lon="6.9268624484539031982421875">
        <ele>1007.79998779296875</ele>
        <time>2019-06-19T10:52:28.000Z</time>
        <extensions>
          <ns3:TrackPointExtension>
            <ns3:atemp>29.0</ns3:atemp>
            <ns3:hr>148</ns3:hr>
          </ns3:TrackPointExtension>
        </extensions>
      </trkpt>
      <trkpt lat="47.019163928925991058349609375" lon="6.9268746860325336456298828125">
        <ele>1008</ele>
        <time>2019-06-19T10:52:30.000Z</time>
        <extensions>
          <ns3:TrackPointExtension>
            <ns3:atemp>29.0</ns3:atemp>
            <ns3:hr>148</ns3:hr>
          </ns3:TrackPointExtension>
        </extensions>
      </trkpt>
      <trkpt lat="47.0191361010074615478515625" lon="6.92688457667827606201171875">
        <ele>1008.5999755859375</ele>
        <time>2019-06-19T10:52:32.000Z</time>
        <extensions>
          <ns3:TrackPointExtension>
            <ns3:atemp>29.0</ns3:atemp>
            <ns3:hr>148</ns3:hr>
          </ns3:TrackPointExtension>
        </extensions>
      </trkpt>
      <trkpt lat="47.01912562362849712371826171875" lon="6.92689052782952785491943359375">
        <ele>1008.79998779296875</ele>
        <time>2019-06-19T10:52:33.000Z</time>
        <extensions>
          <ns3:TrackPointExtension>
            <ns3:atemp>29.0</ns3:atemp>
            <ns3:hr>148</ns3:hr>
          </ns3:TrackPointExtension>
        </extensions>
      </trkpt>
      <trkpt lat="47.01909008435904979705810546875" lon="6.92688097245991230010986328125">
        <ele>1009.20001220703125</ele>
        <time>2019-06-19T10:52:36.000Z</time>
        <extensions>
          <ns3:TrackPointExtension>
            <ns3:atemp>29.0</ns3:atemp>
            <ns3:hr>147</ns3:hr>
          </ns3:TrackPointExtension>
        </extensions>
      </trkpt>
      <trkpt lat="47.01900509186089038848876953125" lon="6.92685666494071483612060546875">
        <ele>1009.79998779296875</ele>
        <time>2019-06-19T10:52:42.000Z</time>
        <extensions>
          <ns3:TrackPointExtension>
            <ns3:atemp>29.0</ns3:atemp>
            <ns3:hr>147</ns3:hr>
          </ns3:TrackPointExtension>
        </extensions>
      </trkpt>
      <trkpt lat="47.0189585722982883453369140625" lon="6.92684828303754329681396484375">
        <ele>1010.4000244140625</ele>
        <time>2019-06-19T10:52:45.000Z</time>
        <extensions>
          <ns3:TrackPointExtension>
            <ns3:atemp>29.0</ns3:atemp>
            <ns3:hr>147</ns3:hr>
          </ns3:TrackPointExtension>
        </extensions>
      </trkpt>
      <trkpt lat="47.01894759200513362884521484375" lon="6.9268391467630863189697265625">
        <ele>1010.79998779296875</ele>
        <time>2019-06-19T10:52:46.000Z</time>
        <extensions>
          <ns3:TrackPointExtension>
            <ns3:atemp>29.0</ns3:atemp>
            <ns3:hr>147</ns3:hr>
          </ns3:TrackPointExtension>
        </extensions>
      </trkpt>
      <trkpt lat="47.0189039222896099090576171875" lon="6.926807127892971038818359375">
        <ele>1011.20001220703125</ele>
        <time>2019-06-19T10:52:50.000Z</time>
        <extensions>
          <ns3:TrackPointExtension>
            <ns3:atemp>29.0</ns3:atemp>
            <ns3:hr>146</ns3:hr>
          </ns3:TrackPointExtension>
        </extensions>
      </trkpt>
      <trkpt lat="47.01883577741682529449462890625" lon="6.92677318118512630462646484375">
        <ele>1011.79998779296875</ele>
        <time>2019-06-19T10:52:55.000Z</time>
        <extensions>
          <ns3:TrackPointExtension>
            <ns3:atemp>29.0</ns3:atemp>
            <ns3:hr>146</ns3:hr>
          </ns3:TrackPointExtension>
        </extensions>
      </trkpt>
      <trkpt lat="47.01881130225956439971923828125" lon="6.92676446400582790374755859375">
        <ele>1012.4000244140625</ele>
        <time>2019-06-19T10:52:57.000Z</time>
        <extensions>
          <ns3:TrackPointExtension>
            <ns3:atemp>29.0</ns3:atemp>
            <ns3:hr>147</ns3:hr>
          </ns3:TrackPointExtension>
        </extensions>
      </trkpt>
      <trkpt lat="47.01877526007592678070068359375" lon="6.9267539866268634796142578125">
        <ele>1012.79998779296875</ele>
        <time>2019-06-19T10:53:00.000Z</time>
        <extensions>
          <ns3:TrackPointExtension>
            <ns3:atemp>29.0</ns3:atemp>
            <ns3:hr>146</ns3:hr>
          </ns3:TrackPointExtension>
        </extensions>
      </trkpt>
      <trkpt lat="47.0187289081513881683349609375" lon="6.9267600215971469879150390625">
        <ele>1013</ele>
        <time>2019-06-19T10:53:04.000Z</time>
        <extensions>
          <ns3:TrackPointExtension>
            <ns3:atemp>29.0</ns3:atemp>
            <ns3:hr>148</ns3:hr>
          </ns3:TrackPointExtension>
        </extensions>
      </trkpt>
      <trkpt lat="47.0186645351350307464599609375" lon="6.926775276660919189453125">
        <ele>1014.20001220703125</ele>
        <time>2019-06-19T10:53:09.000Z</time>
        <extensions>
          <ns3:TrackPointExtension>
            <ns3:atemp>29.0</ns3:atemp>
            <ns3:hr>150</ns3:hr>
          </ns3:TrackPointExtension>
        </extensions>
      </trkpt>
      <trkpt lat="47.018640898168087005615234375" lon="6.926769912242889404296875">
        <ele>1015</ele>
        <time>2019-06-19T10:53:11.000Z</time>
        <extensions>
          <ns3:TrackPointExtension>
            <ns3:atemp>29.0</ns3:atemp>
            <ns3:hr>150</ns3:hr>
          </ns3:TrackPointExtension>
        </extensions>
      </trkpt>
      <trkpt lat="47.01862857677042484283447265625" lon="6.92676655948162078857421875">
        <ele>1015.20001220703125</ele>
        <time>2019-06-19T10:53:12.000Z</time>
        <extensions>
          <ns3:TrackPointExtension>
            <ns3:atemp>29.0</ns3:atemp>
            <ns3:hr>150</ns3:hr>
          </ns3:TrackPointExtension>
        </extensions>
      </trkpt>
      <trkpt lat="47.0185512118041515350341796875" lon="6.926756836473941802978515625">
        <ele>1016</ele>
        <time>2019-06-19T10:53:18.000Z</time>
        <extensions>
          <ns3:TrackPointExtension>
            <ns3:atemp>29.0</ns3:atemp>
            <ns3:hr>149</ns3:hr>
          </ns3:TrackPointExtension>
        </extensions>
      </trkpt>
      <trkpt lat="47.01852095313370227813720703125" lon="6.92676764912903308868408203125">
        <ele>1016.20001220703125</ele>
        <time>2019-06-19T10:53:20.000Z</time>
        <extensions>
          <ns3:TrackPointExtension>
            <ns3:atemp>29.0</ns3:atemp>
            <ns3:hr>151</ns3:hr>
          </ns3:TrackPointExtension>
        </extensions>
      </trkpt>
      <trkpt lat="47.01850913465023040771484375" lon="6.9267734326422214508056640625">
        <ele>1016.4000244140625</ele>
        <time>2019-06-19T10:53:21.000Z</time>
        <extensions>
          <ns3:TrackPointExtension>
            <ns3:atemp>29.0</ns3:atemp>
            <ns3:hr>155</ns3:hr>
          </ns3:TrackPointExtension>
        </extensions>
      </trkpt>
      <trkpt lat="47.018490694463253021240234375" lon="6.92678491584956645965576171875">
        <ele>1016.5999755859375</ele>
        <time>2019-06-19T10:53:22.000Z</time>
        <extensions>
          <ns3:TrackPointExtension>
            <ns3:atemp>29.0</ns3:atemp>
            <ns3:hr>156</ns3:hr>
          </ns3:TrackPointExtension>
        </extensions>
      </trkpt>
      <trkpt lat="47.01846621930599212646484375" lon="6.92679631523787975311279296875">
        <ele>1017</ele>
        <time>2019-06-19T10:53:24.000Z</time>
        <extensions>
          <ns3:TrackPointExtension>
            <ns3:atemp>29.0</ns3:atemp>
            <ns3:hr>157</ns3:hr>
          </ns3:TrackPointExtension>
        </extensions>
      </trkpt>
      <trkpt lat="47.0184494554996490478515625" lon="6.9268200360238552093505859375">
        <ele>1017.4000244140625</ele>
        <time>2019-06-19T10:53:27.000Z</time>
        <extensions>
          <ns3:TrackPointExtension>
            <ns3:atemp>29.0</ns3:atemp>
            <ns3:hr>157</ns3:hr>
          </ns3:TrackPointExtension>
        </extensions>
      </trkpt>
      <trkpt lat="47.01843713410198688507080078125" lon="6.926829256117343902587890625">
        <ele>1017.5999755859375</ele>
        <time>2019-06-19T10:53:28.000Z</time>
        <extensions>
          <ns3:TrackPointExtension>
            <ns3:atemp>29.0</ns3:atemp>
            <ns3:hr>157</ns3:hr>
          </ns3:TrackPointExtension>
        </extensions>
      </trkpt>
      <trkpt lat="47.01841617934405803680419921875" lon="6.92683923058211803436279296875">
        <ele>1018</ele>
        <time>2019-06-19T10:53:30.000Z</time>
        <extensions>
          <ns3:TrackPointExtension>
            <ns3:atemp>29.0</ns3:atemp>
            <ns3:hr>158</ns3:hr>
          </ns3:TrackPointExtension>
        </extensions>
      </trkpt>
      <trkpt lat="47.0183792151510715484619140625" lon="6.92685733549296855926513671875">
        <ele>1018.4000244140625</ele>
        <time>2019-06-19T10:53:33.000Z</time>
        <extensions>
          <ns3:TrackPointExtension>
            <ns3:atemp>29.0</ns3:atemp>
            <ns3:hr>157</ns3:hr>
          </ns3:TrackPointExtension>
        </extensions>
      </trkpt>
      <trkpt lat="47.01834878884255886077880859375" lon="6.9268807210028171539306640625">
        <ele>1019</ele>
        <time>2019-06-19T10:53:35.000Z</time>
        <extensions>
          <ns3:TrackPointExtension>
            <ns3:atemp>29.0</ns3:atemp>
            <ns3:hr>154</ns3:hr>
          </ns3:TrackPointExtension>
        </extensions>
      </trkpt>
      <trkpt lat="47.0183178596198558807373046875" lon="6.926885582506656646728515625">
        <ele>1019.4000244140625</ele>
        <time>2019-06-19T10:53:38.000Z</time>
        <extensions>
          <ns3:TrackPointExtension>
            <ns3:atemp>29.0</ns3:atemp>
            <ns3:hr>152</ns3:hr>
          </ns3:TrackPointExtension>
        </extensions>
      </trkpt>
      <trkpt lat="47.01829413883388042449951171875" lon="6.92690276540815830230712890625">
        <ele>1019.5999755859375</ele>
        <time>2019-06-19T10:53:41.000Z</time>
        <extensions>
          <ns3:TrackPointExtension>
            <ns3:atemp>29.0</ns3:atemp>
            <ns3:hr>155</ns3:hr>
          </ns3:TrackPointExtension>
        </extensions>
      </trkpt>
      <trkpt lat="47.01826572418212890625" lon="6.92689857445657253265380859375">
        <ele>1019.79998779296875</ele>
        <time>2019-06-19T10:53:43.000Z</time>
        <extensions>
          <ns3:TrackPointExtension>
            <ns3:atemp>29.0</ns3:atemp>
            <ns3:hr>156</ns3:hr>
          </ns3:TrackPointExtension>
        </extensions>
      </trkpt>
      <trkpt lat="47.0182549953460693359375" lon="6.926895640790462493896484375">
        <ele>1020.4000244140625</ele>
        <time>2019-06-19T10:53:44.000Z</time>
        <extensions>
          <ns3:TrackPointExtension>
            <ns3:atemp>29.0</ns3:atemp>
            <ns3:hr>156</ns3:hr>
          </ns3:TrackPointExtension>
        </extensions>
      </trkpt>
      <trkpt lat="47.01824619434773921966552734375" lon="6.92689572460949420928955078125">
        <ele>1020.79998779296875</ele>
        <time>2019-06-19T10:53:45.000Z</time>
        <extensions>
          <ns3:TrackPointExtension>
            <ns3:atemp>29.0</ns3:atemp>
            <ns3:hr>157</ns3:hr>
          </ns3:TrackPointExtension>
        </extensions>
      </trkpt>
      <trkpt lat="47.01822037808597087860107421875" lon="6.926901675760746002197265625">
        <ele>1021.20001220703125</ele>
        <time>2019-06-19T10:53:48.000Z</time>
        <extensions>
          <ns3:TrackPointExtension>
            <ns3:atemp>29.0</ns3:atemp>
            <ns3:hr>155</ns3:hr>
          </ns3:TrackPointExtension>
        </extensions>
      </trkpt>
      <trkpt lat="47.01819858513772487640380859375" lon="6.926929168403148651123046875">
        <ele>1021.20001220703125</ele>
        <time>2019-06-19T10:53:50.000Z</time>
        <extensions>
          <ns3:TrackPointExtension>
            <ns3:atemp>29.0</ns3:atemp>
            <ns3:hr>153</ns3:hr>
          </ns3:TrackPointExtension>
        </extensions>
      </trkpt>
      <trkpt lat="47.01818752102553844451904296875" lon="6.92693612538278102874755859375">
        <ele>1021.4000244140625</ele>
        <time>2019-06-19T10:53:51.000Z</time>
        <extensions>
          <ns3:TrackPointExtension>
            <ns3:atemp>29.0</ns3:atemp>
            <ns3:hr>155</ns3:hr>
          </ns3:TrackPointExtension>
        </extensions>
      </trkpt>
      <trkpt lat="47.0181529037654399871826171875" lon="6.92695138044655323028564453125">
        <ele>1021.5999755859375</ele>
        <time>2019-06-19T10:53:54.000Z</time>
        <extensions>
          <ns3:TrackPointExtension>
            <ns3:atemp>29.0</ns3:atemp>
            <ns3:hr>154</ns3:hr>
          </ns3:TrackPointExtension>
        </extensions>
      </trkpt>
      <trkpt lat="47.01814108528196811676025390625" lon="6.9269517995417118072509765625">
        <ele>1021.79998779296875</ele>
        <time>2019-06-19T10:53:55.000Z</time>
        <extensions>
          <ns3:TrackPointExtension>
            <ns3:atemp>29.0</ns3:atemp>
            <ns3:hr>154</ns3:hr>
          </ns3:TrackPointExtension>
        </extensions>
      </trkpt>
      <trkpt lat="47.018119208514690399169921875" lon="6.926974095404148101806640625">
        <ele>1022.4000244140625</ele>
        <time>2019-06-19T10:53:58.000Z</time>
        <extensions>
          <ns3:TrackPointExtension>
            <ns3:atemp>29.0</ns3:atemp>
            <ns3:hr>153</ns3:hr>
          </ns3:TrackPointExtension>
        </extensions>
      </trkpt>
      <trkpt lat="47.0180999301373958587646484375" lon="6.92699295468628406524658203125">
        <ele>1022.79998779296875</ele>
        <time>2019-06-19T10:54:00.000Z</time>
        <extensions>
          <ns3:TrackPointExtension>
            <ns3:atemp>29.0</ns3:atemp>
            <ns3:hr>155</ns3:hr>
          </ns3:TrackPointExtension>
        </extensions>
      </trkpt>
      <trkpt lat="47.01808844693005084991455078125" lon="6.9269977323710918426513671875">
        <ele>1023</ele>
        <time>2019-06-19T10:54:01.000Z</time>
        <extensions>
          <ns3:TrackPointExtension>
            <ns3:atemp>29.0</ns3:atemp>
            <ns3:hr>154</ns3:hr>
          </ns3:TrackPointExtension>
        </extensions>
      </trkpt>
      <trkpt lat="47.01805290766060352325439453125" lon="6.92701457999646663665771484375">
        <ele>1023.20001220703125</ele>
        <time>2019-06-19T10:54:04.000Z</time>
        <extensions>
          <ns3:TrackPointExtension>
            <ns3:atemp>29.0</ns3:atemp>
            <ns3:hr>153</ns3:hr>
          </ns3:TrackPointExtension>
        </extensions>
      </trkpt>
      <trkpt lat="47.01798073947429656982421875" lon="6.927049197256565093994140625">
        <ele>1024</ele>
        <time>2019-06-19T10:54:10.000Z</time>
        <extensions>
          <ns3:TrackPointExtension>
            <ns3:atemp>29.0</ns3:atemp>
            <ns3:hr>151</ns3:hr>
          </ns3:TrackPointExtension>
        </extensions>
      </trkpt>
      <trkpt lat="47.01787152327597141265869140625" lon="6.92710208706557750701904296875">
        <ele>1024.5999755859375</ele>
        <time>2019-06-19T10:54:18.000Z</time>
        <extensions>
          <ns3:TrackPointExtension>
            <ns3:atemp>29.0</ns3:atemp>
            <ns3:hr>151</ns3:hr>
          </ns3:TrackPointExtension>
        </extensions>
      </trkpt>
      <trkpt lat="47.01781653799116611480712890625" lon="6.92712924443185329437255859375">
        <ele>1025.199951171875</ele>
        <time>2019-06-19T10:54:22.000Z</time>
        <extensions>
          <ns3:TrackPointExtension>
            <ns3:atemp>29.0</ns3:atemp>
            <ns3:hr>150</ns3:hr>
          </ns3:TrackPointExtension>
        </extensions>
      </trkpt>
      <trkpt lat="47.01778468675911426544189453125" lon="6.92714869044721126556396484375">
        <ele>1025.5999755859375</ele>
        <time>2019-06-19T10:54:25.000Z</time>
        <extensions>
          <ns3:TrackPointExtension>
            <ns3:atemp>29.0</ns3:atemp>
            <ns3:hr>149</ns3:hr>
          </ns3:TrackPointExtension>
        </extensions>
      </trkpt>
      <trkpt lat="47.017741687595844268798828125" lon="6.9271709024906158447265625">
        <ele>1026</ele>
        <time>2019-06-19T10:54:29.000Z</time>
        <extensions>
          <ns3:TrackPointExtension>
            <ns3:atemp>29.0</ns3:atemp>
            <ns3:hr>149</ns3:hr>
          </ns3:TrackPointExtension>
        </extensions>
      </trkpt>
      <trkpt lat="47.0177279412746429443359375" lon="6.92718020640313625335693359375">
        <ele>1026.199951171875</ele>
        <time>2019-06-19T10:54:30.000Z</time>
        <extensions>
          <ns3:TrackPointExtension>
            <ns3:atemp>29.0</ns3:atemp>
            <ns3:hr>148</ns3:hr>
          </ns3:TrackPointExtension>
        </extensions>
      </trkpt>
      <trkpt lat="47.01771059073507785797119140625" lon="6.9271935336291790008544921875">
        <ele>1026.4000244140625</ele>
        <time>2019-06-19T10:54:31.000Z</time>
        <extensions>
          <ns3:TrackPointExtension>
            <ns3:atemp>29.0</ns3:atemp>
            <ns3:hr>148</ns3:hr>
          </ns3:TrackPointExtension>
        </extensions>
      </trkpt>
      <trkpt lat="47.0176442898809909820556640625" lon="6.92724826745688915252685546875">
        <ele>1026.800048828125</ele>
        <time>2019-06-19T10:54:36.000Z</time>
        <extensions>
          <ns3:TrackPointExtension>
            <ns3:atemp>29.0</ns3:atemp>
            <ns3:hr>148</ns3:hr>
          </ns3:TrackPointExtension>
        </extensions>
      </trkpt>
      <trkpt lat="47.017608247697353363037109375" lon="6.92731331102550029754638671875">
        <ele>1027.199951171875</ele>
        <time>2019-06-19T10:54:40.000Z</time>
        <extensions>
          <ns3:TrackPointExtension>
            <ns3:atemp>29.0</ns3:atemp>
            <ns3:hr>148</ns3:hr>
          </ns3:TrackPointExtension>
        </extensions>
      </trkpt>
      <trkpt lat="47.01759424991905689239501953125" lon="6.9273497723042964935302734375">
        <ele>1027.800048828125</ele>
        <time>2019-06-19T10:54:42.000Z</time>
        <extensions>
          <ns3:TrackPointExtension>
            <ns3:atemp>29.0</ns3:atemp>
            <ns3:hr>148</ns3:hr>
          </ns3:TrackPointExtension>
        </extensions>
      </trkpt>
      <trkpt lat="47.01757865957915782928466796875" lon="6.92738749086856842041015625">
        <ele>1028</ele>
        <time>2019-06-19T10:54:44.000Z</time>
        <extensions>
          <ns3:TrackPointExtension>
            <ns3:atemp>29.0</ns3:atemp>
            <ns3:hr>149</ns3:hr>
          </ns3:TrackPointExtension>
        </extensions>
      </trkpt>
      <trkpt lat="47.017528116703033447265625" lon="6.9274708069860935211181640625">
        <ele>1028.199951171875</ele>
        <time>2019-06-19T10:54:49.000Z</time>
        <extensions>
          <ns3:TrackPointExtension>
            <ns3:atemp>29.0</ns3:atemp>
            <ns3:hr>149</ns3:hr>
          </ns3:TrackPointExtension>
        </extensions>
      </trkpt>
      <trkpt lat="47.01752082444727420806884765625" lon="6.92748681642115116119384765625">
        <ele>1028.4000244140625</ele>
        <time>2019-06-19T10:54:50.000Z</time>
        <extensions>
          <ns3:TrackPointExtension>
            <ns3:atemp>29.0</ns3:atemp>
            <ns3:hr>149</ns3:hr>
          </ns3:TrackPointExtension>
        </extensions>
      </trkpt>
      <trkpt lat="47.01745879836380481719970703125" lon="6.9275697134435176849365234375">
        <ele>1029</ele>
        <time>2019-06-19T10:54:56.000Z</time>
        <extensions>
          <ns3:TrackPointExtension>
            <ns3:atemp>29.0</ns3:atemp>
            <ns3:hr>149</ns3:hr>
          </ns3:TrackPointExtension>
        </extensions>
      </trkpt>
      <trkpt lat="47.0174431242048740386962890625" lon="6.9275898300111293792724609375">
        <ele>1029.5999755859375</ele>
        <time>2019-06-19T10:54:58.000Z</time>
        <extensions>
          <ns3:TrackPointExtension>
            <ns3:atemp>29.0</ns3:atemp>
            <ns3:hr>149</ns3:hr>
          </ns3:TrackPointExtension>
        </extensions>
      </trkpt>
      <trkpt lat="47.0173780806362628936767578125" lon="6.9276857189834117889404296875">
        <ele>1030.4000244140625</ele>
        <time>2019-06-19T10:55:02.000Z</time>
        <extensions>
          <ns3:TrackPointExtension>
            <ns3:atemp>29.0</ns3:atemp>
            <ns3:hr>150</ns3:hr>
          </ns3:TrackPointExtension>
        </extensions>
      </trkpt>
      <trkpt lat="47.01735000126063823699951171875" lon="6.92771815694868564605712890625">
        <ele>1030.800048828125</ele>
        <time>2019-06-19T10:55:04.000Z</time>
        <extensions>
          <ns3:TrackPointExtension>
            <ns3:atemp>29.0</ns3:atemp>
            <ns3:hr>149</ns3:hr>
          </ns3:TrackPointExtension>
        </extensions>
      </trkpt>
      <trkpt lat="47.01728914864361286163330078125" lon="6.9277916662395000457763671875">
        <ele>1031.5999755859375</ele>
        <time>2019-06-19T10:55:09.000Z</time>
        <extensions>
          <ns3:TrackPointExtension>
            <ns3:atemp>29.0</ns3:atemp>
            <ns3:hr>148</ns3:hr>
          </ns3:TrackPointExtension>
        </extensions>
      </trkpt>
      <trkpt lat="47.01728068292140960693359375" lon="6.9278013892471790313720703125">
        <ele>1031.800048828125</ele>
        <time>2019-06-19T10:55:10.000Z</time>
        <extensions>
          <ns3:TrackPointExtension>
            <ns3:atemp>29.0</ns3:atemp>
            <ns3:hr>148</ns3:hr>
          </ns3:TrackPointExtension>
        </extensions>
      </trkpt>
      <trkpt lat="47.0172255299985408782958984375" lon="6.9278432987630367279052734375">
        <ele>1032.5999755859375</ele>
        <time>2019-06-19T10:55:16.000Z</time>
        <extensions>
          <ns3:TrackPointExtension>
            <ns3:atemp>29.0</ns3:atemp>
            <ns3:hr>148</ns3:hr>
          </ns3:TrackPointExtension>
        </extensions>
      </trkpt>
      <trkpt lat="47.01721555553376674652099609375" lon="6.9278603978455066680908203125">
        <ele>1032.5999755859375</ele>
        <time>2019-06-19T10:55:17.000Z</time>
        <extensions>
          <ns3:TrackPointExtension>
            <ns3:atemp>29.0</ns3:atemp>
            <ns3:hr>149</ns3:hr>
          </ns3:TrackPointExtension>
        </extensions>
      </trkpt>
      <trkpt lat="47.01719845645129680633544921875" lon="6.9278771616518497467041015625">
        <ele>1032.5999755859375</ele>
        <time>2019-06-19T10:55:19.000Z</time>
        <extensions>
          <ns3:TrackPointExtension>
            <ns3:atemp>29.0</ns3:atemp>
            <ns3:hr>149</ns3:hr>
          </ns3:TrackPointExtension>
        </extensions>
      </trkpt>
      <trkpt lat="47.0171470753848552703857421875" lon="6.92790457047522068023681640625">
        <ele>1032.199951171875</ele>
        <time>2019-06-19T10:55:23.000Z</time>
        <extensions>
          <ns3:TrackPointExtension>
            <ns3:atemp>29.0</ns3:atemp>
            <ns3:hr>146</ns3:hr>
          </ns3:TrackPointExtension>
        </extensions>
      </trkpt>
      <trkpt lat="47.01706870459020137786865234375" lon="6.9279452227056026458740234375">
        <ele>1031.4000244140625</ele>
        <time>2019-06-19T10:55:28.000Z</time>
        <extensions>
          <ns3:TrackPointExtension>
            <ns3:atemp>29.0</ns3:atemp>
            <ns3:hr>146</ns3:hr>
          </ns3:TrackPointExtension>
        </extensions>
      </trkpt>
      <trkpt lat="47.01698672957718372344970703125" lon="6.92797916941344738006591796875">
        <ele>1031.4000244140625</ele>
        <time>2019-06-19T10:55:33.000Z</time>
        <extensions>
          <ns3:TrackPointExtension>
            <ns3:atemp>29.0</ns3:atemp>
            <ns3:hr>147</ns3:hr>
          </ns3:TrackPointExtension>
        </extensions>
      </trkpt>
      <trkpt lat="47.01693601906299591064453125" lon="6.9280357472598552703857421875">
        <ele>1031.199951171875</ele>
        <time>2019-06-19T10:55:36.000Z</time>
        <extensions>
          <ns3:TrackPointExtension>
            <ns3:atemp>29.0</ns3:atemp>
            <ns3:hr>144</ns3:hr>
          </ns3:TrackPointExtension>
        </extensions>
      </trkpt>
      <trkpt lat="47.01690106652677059173583984375" lon="6.928078830242156982421875">
        <ele>1031</ele>
        <time>2019-06-19T10:55:39.000Z</time>
        <extensions>
          <ns3:TrackPointExtension>
            <ns3:atemp>29.0</ns3:atemp>
            <ns3:hr>143</ns3:hr>
          </ns3:TrackPointExtension>
        </extensions>
      </trkpt>
      <trkpt lat="47.0168597437441349029541015625" lon="6.9281338155269622802734375">
        <ele>1030.800048828125</ele>
        <time>2019-06-19T10:55:41.000Z</time>
        <extensions>
          <ns3:TrackPointExtension>
            <ns3:atemp>29.0</ns3:atemp>
            <ns3:hr>142</ns3:hr>
          </ns3:TrackPointExtension>
        </extensions>
      </trkpt>
      <trkpt lat="47.0167957060039043426513671875" lon="6.92831360734999179840087890625">
        <ele>1029.5999755859375</ele>
        <time>2019-06-19T10:55:45.000Z</time>
        <extensions>
          <ns3:TrackPointExtension>
            <ns3:atemp>28.0</ns3:atemp>
            <ns3:hr>143</ns3:hr>
          </ns3:TrackPointExtension>
        </extensions>
      </trkpt>
      <trkpt lat="47.01679578982293605804443359375" lon="6.928350739181041717529296875">
        <ele>1029.5999755859375</ele>
        <time>2019-06-19T10:55:46.000Z</time>
        <extensions>
          <ns3:TrackPointExtension>
            <ns3:atemp>28.0</ns3:atemp>
            <ns3:hr>144</ns3:hr>
          </ns3:TrackPointExtension>
        </extensions>
      </trkpt>
      <trkpt lat="47.0168077759444713592529296875" lon="6.92837496288120746612548828125">
        <ele>1029.4000244140625</ele>
        <time>2019-06-19T10:55:47.000Z</time>
        <extensions>
          <ns3:TrackPointExtension>
            <ns3:atemp>28.0</ns3:atemp>
            <ns3:hr>144</ns3:hr>
          </ns3:TrackPointExtension>
        </extensions>
      </trkpt>
      <trkpt lat="47.01681942678987979888916015625" lon="6.9284011982381343841552734375">
        <ele>1029.4000244140625</ele>
        <time>2019-06-19T10:55:48.000Z</time>
        <extensions>
          <ns3:TrackPointExtension>
            <ns3:atemp>28.0</ns3:atemp>
            <ns3:hr>143</ns3:hr>
          </ns3:TrackPointExtension>
        </extensions>
      </trkpt>
      <trkpt lat="47.016849517822265625" lon="6.928497590124607086181640625">
        <ele>1030.800048828125</ele>
        <time>2019-06-19T10:55:52.000Z</time>
        <extensions>
          <ns3:TrackPointExtension>
            <ns3:atemp>28.0</ns3:atemp>
            <ns3:hr>142</ns3:hr>
          </ns3:TrackPointExtension>
        </extensions>
      </trkpt>
      <trkpt lat="47.016853205859661102294921875" lon="6.92851929925382137298583984375">
        <ele>1031</ele>
        <time>2019-06-19T10:55:53.000Z</time>
        <extensions>
          <ns3:TrackPointExtension>
            <ns3:atemp>28.0</ns3:atemp>
            <ns3:hr>143</ns3:hr>
          </ns3:TrackPointExtension>
        </extensions>
      </trkpt>
      <trkpt lat="47.01687969267368316650390625" lon="6.928590796887874603271484375">
        <ele>1031.800048828125</ele>
        <time>2019-06-19T10:55:57.000Z</time>
        <extensions>
          <ns3:TrackPointExtension>
            <ns3:atemp>28.0</ns3:atemp>
            <ns3:hr>144</ns3:hr>
          </ns3:TrackPointExtension>
        </extensions>
      </trkpt>
      <trkpt lat="47.01688681729137897491455078125" lon="6.92865709774196147918701171875">
        <ele>1032.800048828125</ele>
        <time>2019-06-19T10:56:01.000Z</time>
        <extensions>
          <ns3:TrackPointExtension>
            <ns3:atemp>28.0</ns3:atemp>
            <ns3:hr>145</ns3:hr>
          </ns3:TrackPointExtension>
        </extensions>
      </trkpt>
      <trkpt lat="47.01688639819622039794921875" lon="6.92867922596633434295654296875">
        <ele>1033</ele>
        <time>2019-06-19T10:56:02.000Z</time>
        <extensions>
          <ns3:TrackPointExtension>
            <ns3:atemp>28.0</ns3:atemp>
            <ns3:hr>146</ns3:hr>
          </ns3:TrackPointExtension>
        </extensions>
      </trkpt>
      <trkpt lat="47.0168983004987239837646484375" lon="6.92872214131057262420654296875">
        <ele>1033.5999755859375</ele>
        <time>2019-06-19T10:56:04.000Z</time>
        <extensions>
          <ns3:TrackPointExtension>
            <ns3:atemp>28.0</ns3:atemp>
            <ns3:hr>143</ns3:hr>
          </ns3:TrackPointExtension>
        </extensions>
      </trkpt>
      <trkpt lat="47.01692403294146060943603515625" lon="6.9287797249853610992431640625">
        <ele>1034</ele>
        <time>2019-06-19T10:56:07.000Z</time>
        <extensions>
          <ns3:TrackPointExtension>
            <ns3:atemp>28.0</ns3:atemp>
            <ns3:hr>143</ns3:hr>
          </ns3:TrackPointExtension>
        </extensions>
      </trkpt>
      <trkpt lat="47.01699242927134037017822265625" lon="6.92889832891523838043212890625">
        <ele>1034.800048828125</ele>
        <time>2019-06-19T10:56:14.000Z</time>
        <extensions>
          <ns3:TrackPointExtension>
            <ns3:atemp>28.0</ns3:atemp>
            <ns3:hr>142</ns3:hr>
          </ns3:TrackPointExtension>
        </extensions>
      </trkpt>
      <trkpt lat="47.01701405458152294158935546875" lon="6.92893906496465206146240234375">
        <ele>1035.199951171875</ele>
        <time>2019-06-19T10:56:16.000Z</time>
        <extensions>
          <ns3:TrackPointExtension>
            <ns3:atemp>28.0</ns3:atemp>
            <ns3:hr>140</ns3:hr>
          </ns3:TrackPointExtension>
        </extensions>
      </trkpt>
      <trkpt lat="47.0170444808900356292724609375" lon="6.92902942188084125518798828125">
        <ele>1036</ele>
        <time>2019-06-19T10:56:21.000Z</time>
        <extensions>
          <ns3:TrackPointExtension>
            <ns3:atemp>28.0</ns3:atemp>
            <ns3:hr>141</ns3:hr>
          </ns3:TrackPointExtension>
        </extensions>
      </trkpt>
      <trkpt lat="47.01704758219420909881591796875" lon="6.929066888988018035888671875">
        <ele>1036.199951171875</ele>
        <time>2019-06-19T10:56:23.000Z</time>
        <extensions>
          <ns3:TrackPointExtension>
            <ns3:atemp>28.0</ns3:atemp>
            <ns3:hr>143</ns3:hr>
          </ns3:TrackPointExtension>
        </extensions>
      </trkpt>
      <trkpt lat="47.017036937177181243896484375" lon="6.929177530109882354736328125">
        <ele>1037.4000244140625</ele>
        <time>2019-06-19T10:56:28.000Z</time>
        <extensions>
          <ns3:TrackPointExtension>
            <ns3:atemp>28.0</ns3:atemp>
            <ns3:hr>145</ns3:hr>
          </ns3:TrackPointExtension>
        </extensions>
      </trkpt>
      <trkpt lat="47.0170099474489688873291015625" lon="6.92942538298666477203369140625">
        <ele>1038.4000244140625</ele>
        <time>2019-06-19T10:56:35.000Z</time>
        <extensions>
          <ns3:TrackPointExtension>
            <ns3:atemp>28.0</ns3:atemp>
            <ns3:hr>145</ns3:hr>
          </ns3:TrackPointExtension>
        </extensions>
      </trkpt>
      <trkpt lat="47.016982622444629669189453125" lon="6.92963786423206329345703125">
        <ele>1038.800048828125</ele>
        <time>2019-06-19T10:56:41.000Z</time>
        <extensions>
          <ns3:TrackPointExtension>
            <ns3:atemp>28.0</ns3:atemp>
            <ns3:hr>146</ns3:hr>
          </ns3:TrackPointExtension>
        </extensions>
      </trkpt>
      <trkpt lat="47.0169713906943798065185546875" lon="6.9297865591943264007568359375">
        <ele>1039.4000244140625</ele>
        <time>2019-06-19T10:56:45.000Z</time>
        <extensions>
          <ns3:TrackPointExtension>
            <ns3:atemp>29.0</ns3:atemp>
            <ns3:hr>148</ns3:hr>
          </ns3:TrackPointExtension>
        </extensions>
      </trkpt>
      <trkpt lat="47.01697130687534809112548828125" lon="6.92982469685375690460205078125">
        <ele>1039.4000244140625</ele>
        <time>2019-06-19T10:56:46.000Z</time>
        <extensions>
          <ns3:TrackPointExtension>
            <ns3:atemp>29.0</ns3:atemp>
            <ns3:hr>148</ns3:hr>
          </ns3:TrackPointExtension>
        </extensions>
      </trkpt>
      <trkpt lat="47.016964517533779144287109375" lon="6.9299344159662723541259765625">
        <ele>1040</ele>
        <time>2019-06-19T10:56:51.000Z</time>
        <extensions>
          <ns3:TrackPointExtension>
            <ns3:atemp>29.0</ns3:atemp>
            <ns3:hr>149</ns3:hr>
          </ns3:TrackPointExtension>
        </extensions>
      </trkpt>
      <trkpt lat="47.0169412158429622650146484375" lon="6.9300346635282039642333984375">
        <ele>1040.4000244140625</ele>
        <time>2019-06-19T10:56:56.000Z</time>
        <extensions>
          <ns3:TrackPointExtension>
            <ns3:atemp>29.0</ns3:atemp>
            <ns3:hr>149</ns3:hr>
          </ns3:TrackPointExtension>
        </extensions>
      </trkpt>
      <trkpt lat="47.01694280840456485748291015625" lon="6.93005855195224285125732421875">
        <ele>1040.5999755859375</ele>
        <time>2019-06-19T10:56:57.000Z</time>
        <extensions>
          <ns3:TrackPointExtension>
            <ns3:atemp>29.0</ns3:atemp>
            <ns3:hr>149</ns3:hr>
          </ns3:TrackPointExtension>
        </extensions>
      </trkpt>
      <trkpt lat="47.0169313251972198486328125" lon="6.93017899990081787109375">
        <ele>1041.5999755859375</ele>
        <time>2019-06-19T10:57:02.000Z</time>
        <extensions>
          <ns3:TrackPointExtension>
            <ns3:atemp>29.0</ns3:atemp>
            <ns3:hr>149</ns3:hr>
          </ns3:TrackPointExtension>
        </extensions>
      </trkpt>
      <trkpt lat="47.01693543232977390289306640625" lon="6.9301976077258586883544921875">
        <ele>1041.800048828125</ele>
        <time>2019-06-19T10:57:03.000Z</time>
        <extensions>
          <ns3:TrackPointExtension>
            <ns3:atemp>29.0</ns3:atemp>
            <ns3:hr>150</ns3:hr>
          </ns3:TrackPointExtension>
        </extensions>
      </trkpt>
      <trkpt lat="47.01697013340890407562255859375" lon="6.9302834384143352508544921875">
        <ele>1042</ele>
        <time>2019-06-19T10:57:07.000Z</time>
        <extensions>
          <ns3:TrackPointExtension>
            <ns3:atemp>29.0</ns3:atemp>
            <ns3:hr>147</ns3:hr>
          </ns3:TrackPointExtension>
        </extensions>
      </trkpt>
      <trkpt lat="47.01700198464095592498779296875" lon="6.9303488172590732574462890625">
        <ele>1042.4000244140625</ele>
        <time>2019-06-19T10:57:10.000Z</time>
        <extensions>
          <ns3:TrackPointExtension>
            <ns3:atemp>29.0</ns3:atemp>
            <ns3:hr>143</ns3:hr>
          </ns3:TrackPointExtension>
        </extensions>
      </trkpt>
      <trkpt lat="47.01700751669704914093017578125" lon="6.9303860329091548919677734375">
        <ele>1042.5999755859375</ele>
        <time>2019-06-19T10:57:11.000Z</time>
        <extensions>
          <ns3:TrackPointExtension>
            <ns3:atemp>29.0</ns3:atemp>
            <ns3:hr>144</ns3:hr>
          </ns3:TrackPointExtension>
        </extensions>
      </trkpt>
      <trkpt lat="47.01701003126800060272216796875" lon="6.93041847087442874908447265625">
        <ele>1042.800048828125</ele>
        <time>2019-06-19T10:57:12.000Z</time>
        <extensions>
          <ns3:TrackPointExtension>
            <ns3:atemp>29.0</ns3:atemp>
            <ns3:hr>148</ns3:hr>
          </ns3:TrackPointExtension>
        </extensions>
      </trkpt>
      <trkpt lat="47.01700969599187374114990234375" lon="6.9304638169705867767333984375">
        <ele>1042.800048828125</ele>
        <time>2019-06-19T10:57:13.000Z</time>
        <extensions>
          <ns3:TrackPointExtension>
            <ns3:atemp>29.0</ns3:atemp>
            <ns3:hr>148</ns3:hr>
          </ns3:TrackPointExtension>
        </extensions>
      </trkpt>
      <trkpt lat="47.0170206762850284576416015625" lon="6.9305459596216678619384765625">
        <ele>1043.5999755859375</ele>
        <time>2019-06-19T10:57:16.000Z</time>
        <extensions>
          <ns3:TrackPointExtension>
            <ns3:atemp>29.0</ns3:atemp>
            <ns3:hr>149</ns3:hr>
          </ns3:TrackPointExtension>
        </extensions>
      </trkpt>
      <trkpt lat="47.017026208341121673583984375" lon="6.930567920207977294921875">
        <ele>1043.800048828125</ele>
        <time>2019-06-19T10:57:17.000Z</time>
        <extensions>
          <ns3:TrackPointExtension>
            <ns3:atemp>29.0</ns3:atemp>
            <ns3:hr>148</ns3:hr>
          </ns3:TrackPointExtension>
        </extensions>
      </trkpt>
      <trkpt lat="47.01703584752976894378662109375" lon="6.93060815334320068359375">
        <ele>1044.199951171875</ele>
        <time>2019-06-19T10:57:19.000Z</time>
        <extensions>
          <ns3:TrackPointExtension>
            <ns3:atemp>29.0</ns3:atemp>
            <ns3:hr>148</ns3:hr>
          </ns3:TrackPointExtension>
        </extensions>
      </trkpt>
      <trkpt lat="47.01703450642526149749755859375" lon="6.930664479732513427734375">
        <ele>1044.5999755859375</ele>
        <time>2019-06-19T10:57:21.000Z</time>
        <extensions>
          <ns3:TrackPointExtension>
            <ns3:atemp>29.0</ns3:atemp>
            <ns3:hr>149</ns3:hr>
          </ns3:TrackPointExtension>
        </extensions>
      </trkpt>
      <trkpt lat="47.01703794300556182861328125" lon="6.930706389248371124267578125">
        <ele>1045</ele>
        <time>2019-06-19T10:57:23.000Z</time>
        <extensions>
          <ns3:TrackPointExtension>
            <ns3:atemp>29.0</ns3:atemp>
            <ns3:hr>149</ns3:hr>
          </ns3:TrackPointExtension>
        </extensions>
      </trkpt>
      <trkpt lat="47.01705495826900005340576171875" lon="6.93079884164035320281982421875">
        <ele>1045.5999755859375</ele>
        <time>2019-06-19T10:57:27.000Z</time>
        <extensions>
          <ns3:TrackPointExtension>
            <ns3:atemp>29.0</ns3:atemp>
            <ns3:hr>150</ns3:hr>
          </ns3:TrackPointExtension>
        </extensions>
      </trkpt>
      <trkpt lat="47.01705847866833209991455078125" lon="6.93081401288509368896484375">
        <ele>1045.800048828125</ele>
        <time>2019-06-19T10:57:28.000Z</time>
        <extensions>
          <ns3:TrackPointExtension>
            <ns3:atemp>29.0</ns3:atemp>
            <ns3:hr>150</ns3:hr>
          </ns3:TrackPointExtension>
        </extensions>
      </trkpt>
      <trkpt lat="47.017063759267330169677734375" lon="6.93083052523434162139892578125">
        <ele>1046</ele>
        <time>2019-06-19T10:57:29.000Z</time>
        <extensions>
          <ns3:TrackPointExtension>
            <ns3:atemp>29.0</ns3:atemp>
            <ns3:hr>150</ns3:hr>
          </ns3:TrackPointExtension>
        </extensions>
      </trkpt>
      <trkpt lat="47.01707155443727970123291015625" lon="6.93090763874351978302001953125">
        <ele>1046.800048828125</ele>
        <time>2019-06-19T10:57:33.000Z</time>
        <extensions>
          <ns3:TrackPointExtension>
            <ns3:atemp>29.0</ns3:atemp>
            <ns3:hr>150</ns3:hr>
          </ns3:TrackPointExtension>
        </extensions>
      </trkpt>
      <trkpt lat="47.01707038097083568572998046875" lon="6.9309305213391780853271484375">
        <ele>1046.800048828125</ele>
        <time>2019-06-19T10:57:34.000Z</time>
        <extensions>
          <ns3:TrackPointExtension>
            <ns3:atemp>29.0</ns3:atemp>
            <ns3:hr>150</ns3:hr>
          </ns3:TrackPointExtension>
        </extensions>
      </trkpt>
      <trkpt lat="47.01708043925464153289794921875" lon="6.9309984147548675537109375">
        <ele>1047.199951171875</ele>
        <time>2019-06-19T10:57:37.000Z</time>
        <extensions>
          <ns3:TrackPointExtension>
            <ns3:atemp>29.0</ns3:atemp>
            <ns3:hr>151</ns3:hr>
          </ns3:TrackPointExtension>
        </extensions>
      </trkpt>
      <trkpt lat="47.0170815289020538330078125" lon="6.931066475808620452880859375">
        <ele>1048</ele>
        <time>2019-06-19T10:57:40.000Z</time>
        <extensions>
          <ns3:TrackPointExtension>
            <ns3:atemp>29.0</ns3:atemp>
            <ns3:hr>151</ns3:hr>
          </ns3:TrackPointExtension>
        </extensions>
      </trkpt>
      <trkpt lat="47.017083205282688140869140625" lon="6.93108516745269298553466796875">
        <ele>1048.4000244140625</ele>
        <time>2019-06-19T10:57:41.000Z</time>
        <extensions>
          <ns3:TrackPointExtension>
            <ns3:atemp>29.0</ns3:atemp>
            <ns3:hr>151</ns3:hr>
          </ns3:TrackPointExtension>
        </extensions>
      </trkpt>
      <trkpt lat="47.01707658357918262481689453125" lon="6.93119379691779613494873046875">
        <ele>1049.199951171875</ele>
        <time>2019-06-19T10:57:46.000Z</time>
        <extensions>
          <ns3:TrackPointExtension>
            <ns3:atemp>29.0</ns3:atemp>
            <ns3:hr>151</ns3:hr>
          </ns3:TrackPointExtension>
        </extensions>
      </trkpt>
      <trkpt lat="47.01707281172275543212890625" lon="6.9312128238379955291748046875">
        <ele>1049.199951171875</ele>
        <time>2019-06-19T10:57:47.000Z</time>
        <extensions>
          <ns3:TrackPointExtension>
            <ns3:atemp>29.0</ns3:atemp>
            <ns3:hr>151</ns3:hr>
          </ns3:TrackPointExtension>
        </extensions>
      </trkpt>
      <trkpt lat="47.0170708000659942626953125" lon="6.93123386241495609283447265625">
        <ele>1049.4000244140625</ele>
        <time>2019-06-19T10:57:48.000Z</time>
        <extensions>
          <ns3:TrackPointExtension>
            <ns3:atemp>29.0</ns3:atemp>
            <ns3:hr>151</ns3:hr>
          </ns3:TrackPointExtension>
        </extensions>
      </trkpt>
      <trkpt lat="47.01706216670572757720947265625" lon="6.931318938732147216796875">
        <ele>1049.800048828125</ele>
        <time>2019-06-19T10:57:52.000Z</time>
        <extensions>
          <ns3:TrackPointExtension>
            <ns3:atemp>29.0</ns3:atemp>
            <ns3:hr>152</ns3:hr>
          </ns3:TrackPointExtension>
        </extensions>
      </trkpt>
      <trkpt lat="47.01706149615347385406494140625" lon="6.93134215660393238067626953125">
        <ele>1050</ele>
        <time>2019-06-19T10:57:53.000Z</time>
        <extensions>
          <ns3:TrackPointExtension>
            <ns3:atemp>29.0</ns3:atemp>
            <ns3:hr>152</ns3:hr>
          </ns3:TrackPointExtension>
        </extensions>
      </trkpt>
      <trkpt lat="47.0170682854950428009033203125" lon="6.9313620217144489288330078125">
        <ele>1050.199951171875</ele>
        <time>2019-06-19T10:57:54.000Z</time>
        <extensions>
          <ns3:TrackPointExtension>
            <ns3:atemp>29.0</ns3:atemp>
            <ns3:hr>152</ns3:hr>
          </ns3:TrackPointExtension>
        </extensions>
      </trkpt>
      <trkpt lat="47.01707054860889911651611328125" lon="6.931385658681392669677734375">
        <ele>1050.4000244140625</ele>
        <time>2019-06-19T10:57:55.000Z</time>
        <extensions>
          <ns3:TrackPointExtension>
            <ns3:atemp>29.0</ns3:atemp>
            <ns3:hr>152</ns3:hr>
          </ns3:TrackPointExtension>
        </extensions>
      </trkpt>
      <trkpt lat="47.0170850493013858795166015625" lon="6.93144877441227436065673828125">
        <ele>1051</ele>
        <time>2019-06-19T10:57:58.000Z</time>
        <extensions>
          <ns3:TrackPointExtension>
            <ns3:atemp>29.0</ns3:atemp>
            <ns3:hr>153</ns3:hr>
          </ns3:TrackPointExtension>
        </extensions>
      </trkpt>
      <trkpt lat="47.01706945896148681640625" lon="6.93156159482896327972412109375">
        <ele>1051.5999755859375</ele>
        <time>2019-06-19T10:58:01.000Z</time>
        <extensions>
          <ns3:TrackPointExtension>
            <ns3:atemp>29.0</ns3:atemp>
            <ns3:hr>153</ns3:hr>
          </ns3:TrackPointExtension>
        </extensions>
      </trkpt>
      <trkpt lat="47.0170542038977146148681640625" lon="6.93163166753947734832763671875">
        <ele>1052.199951171875</ele>
        <time>2019-06-19T10:58:04.000Z</time>
        <extensions>
          <ns3:TrackPointExtension>
            <ns3:atemp>29.0</ns3:atemp>
            <ns3:hr>152</ns3:hr>
          </ns3:TrackPointExtension>
        </extensions>
      </trkpt>
      <trkpt lat="47.01704422943294048309326171875" lon="6.9316677935421466827392578125">
        <ele>1052.5999755859375</ele>
        <time>2019-06-19T10:58:06.000Z</time>
        <extensions>
          <ns3:TrackPointExtension>
            <ns3:atemp>29.0</ns3:atemp>
            <ns3:hr>152</ns3:hr>
          </ns3:TrackPointExtension>
        </extensions>
      </trkpt>
      <trkpt lat="47.01702562160789966583251953125" lon="6.93177147768437862396240234375">
        <ele>1052.5999755859375</ele>
        <time>2019-06-19T10:58:10.000Z</time>
        <extensions>
          <ns3:TrackPointExtension>
            <ns3:atemp>29.0</ns3:atemp>
            <ns3:hr>152</ns3:hr>
          </ns3:TrackPointExtension>
        </extensions>
      </trkpt>
      <trkpt lat="47.01699947007000446319580078125" lon="6.93188681267201900482177734375">
        <ele>1052.800048828125</ele>
        <time>2019-06-19T10:58:14.000Z</time>
        <extensions>
          <ns3:TrackPointExtension>
            <ns3:atemp>29.0</ns3:atemp>
            <ns3:hr>156</ns3:hr>
          </ns3:TrackPointExtension>
        </extensions>
      </trkpt>
      <trkpt lat="47.01697834767401218414306640625" lon="6.93192369304597377777099609375">
        <ele>1053</ele>
        <time>2019-06-19T10:58:16.000Z</time>
        <extensions>
          <ns3:TrackPointExtension>
            <ns3:atemp>29.0</ns3:atemp>
            <ns3:hr>153</ns3:hr>
          </ns3:TrackPointExtension>
        </extensions>
      </trkpt>
      <trkpt lat="47.0169730670750141143798828125" lon="6.93194783292710781097412109375">
        <ele>1053</ele>
        <time>2019-06-19T10:58:17.000Z</time>
        <extensions>
          <ns3:TrackPointExtension>
            <ns3:atemp>29.0</ns3:atemp>
            <ns3:hr>153</ns3:hr>
          </ns3:TrackPointExtension>
        </extensions>
      </trkpt>
      <trkpt lat="47.0169549621641635894775390625" lon="6.932050175964832305908203125">
        <ele>1053</ele>
        <time>2019-06-19T10:58:21.000Z</time>
        <extensions>
          <ns3:TrackPointExtension>
            <ns3:atemp>29.0</ns3:atemp>
            <ns3:hr>151</ns3:hr>
          </ns3:TrackPointExtension>
        </extensions>
      </trkpt>
      <trkpt lat="47.0169214345514774322509765625" lon="6.932254694402217864990234375">
        <ele>1053</ele>
        <time>2019-06-19T10:58:26.000Z</time>
        <extensions>
          <ns3:TrackPointExtension>
            <ns3:atemp>29.0</ns3:atemp>
            <ns3:hr>149</ns3:hr>
          </ns3:TrackPointExtension>
        </extensions>
      </trkpt>
      <trkpt lat="47.01688413508236408233642578125" lon="6.93248108960688114166259765625">
        <ele>1053</ele>
        <time>2019-06-19T10:58:31.000Z</time>
        <extensions>
          <ns3:TrackPointExtension>
            <ns3:atemp>29.0</ns3:atemp>
            <ns3:hr>149</ns3:hr>
          </ns3:TrackPointExtension>
        </extensions>
      </trkpt>
      <trkpt lat="47.0168805308640003204345703125" lon="6.93263766355812549591064453125">
        <ele>1053</ele>
        <time>2019-06-19T10:58:36.000Z</time>
        <extensions>
          <ns3:TrackPointExtension>
            <ns3:atemp>29.0</ns3:atemp>
            <ns3:hr>149</ns3:hr>
          </ns3:TrackPointExtension>
        </extensions>
      </trkpt>
      <trkpt lat="47.01696015894412994384765625" lon="6.9327876158058643341064453125">
        <ele>1053.199951171875</ele>
        <time>2019-06-19T10:58:42.000Z</time>
        <extensions>
          <ns3:TrackPointExtension>
            <ns3:atemp>29.0</ns3:atemp>
            <ns3:hr>148</ns3:hr>
          </ns3:TrackPointExtension>
        </extensions>
      </trkpt>
      <trkpt lat="47.01698823831975460052490234375" lon="6.93290554918348789215087890625">
        <ele>1053.800048828125</ele>
        <time>2019-06-19T10:58:46.000Z</time>
        <extensions>
          <ns3:TrackPointExtension>
            <ns3:atemp>29.0</ns3:atemp>
            <ns3:hr>147</ns3:hr>
          </ns3:TrackPointExtension>
        </extensions>
      </trkpt>
      <trkpt lat="47.0169757492840290069580078125" lon="6.9330015219748020172119140625">
        <ele>1054.199951171875</ele>
        <time>2019-06-19T10:58:48.000Z</time>
        <extensions>
          <ns3:TrackPointExtension>
            <ns3:atemp>29.0</ns3:atemp>
            <ns3:hr>145</ns3:hr>
          </ns3:TrackPointExtension>
        </extensions>
      </trkpt>
      <trkpt lat="47.016987316310405731201171875" lon="6.93323227576911449432373046875">
        <ele>1054.199951171875</ele>
        <time>2019-06-19T10:58:53.000Z</time>
        <extensions>
          <ns3:TrackPointExtension>
            <ns3:atemp>29.0</ns3:atemp>
            <ns3:hr>146</ns3:hr>
          </ns3:TrackPointExtension>
        </extensions>
      </trkpt>
      <trkpt lat="47.01703551225364208221435546875" lon="6.93352664820849895477294921875">
        <ele>1053.800048828125</ele>
        <time>2019-06-19T10:58:58.000Z</time>
        <extensions>
          <ns3:TrackPointExtension>
            <ns3:atemp>29.0</ns3:atemp>
            <ns3:hr>143</ns3:hr>
          </ns3:TrackPointExtension>
        </extensions>
      </trkpt>
      <trkpt lat="47.0170493423938751220703125" lon="6.93357761017978191375732421875">
        <ele>1053.5999755859375</ele>
        <time>2019-06-19T10:58:59.000Z</time>
        <extensions>
          <ns3:TrackPointExtension>
            <ns3:atemp>29.0</ns3:atemp>
            <ns3:hr>142</ns3:hr>
          </ns3:TrackPointExtension>
        </extensions>
      </trkpt>
      <trkpt lat="47.01705210842192173004150390625" lon="6.933636032044887542724609375">
        <ele>1053.800048828125</ele>
        <time>2019-06-19T10:59:00.000Z</time>
        <extensions>
          <ns3:TrackPointExtension>
            <ns3:atemp>29.0</ns3:atemp>
            <ns3:hr>142</ns3:hr>
          </ns3:TrackPointExtension>
        </extensions>
      </trkpt>
      <trkpt lat="47.01707976870238780975341796875" lon="6.933700740337371826171875">
        <ele>1053.800048828125</ele>
        <time>2019-06-19T10:59:02.000Z</time>
        <extensions>
          <ns3:TrackPointExtension>
            <ns3:atemp>29.0</ns3:atemp>
            <ns3:hr>141</ns3:hr>
          </ns3:TrackPointExtension>
        </extensions>
      </trkpt>
      <trkpt lat="47.01714816503226757049560546875" lon="6.9339676201343536376953125">
        <ele>1054.5999755859375</ele>
        <time>2019-06-19T10:59:08.000Z</time>
        <extensions>
          <ns3:TrackPointExtension>
            <ns3:atemp>29.0</ns3:atemp>
            <ns3:hr>139</ns3:hr>
          </ns3:TrackPointExtension>
        </extensions>
      </trkpt>
      <trkpt lat="47.0171779207885265350341796875" lon="6.93402864038944244384765625">
        <ele>1054.800048828125</ele>
        <time>2019-06-19T10:59:10.000Z</time>
        <extensions>
          <ns3:TrackPointExtension>
            <ns3:atemp>29.0</ns3:atemp>
            <ns3:hr>140</ns3:hr>
          </ns3:TrackPointExtension>
        </extensions>
      </trkpt>
      <trkpt lat="47.01724640093743801116943359375" lon="6.934134252369403839111328125">
        <ele>1055.4000244140625</ele>
        <time>2019-06-19T10:59:14.000Z</time>
        <extensions>
          <ns3:TrackPointExtension>
            <ns3:atemp>29.0</ns3:atemp>
            <ns3:hr>140</ns3:hr>
          </ns3:TrackPointExtension>
        </extensions>
      </trkpt>
      <trkpt lat="47.017266266047954559326171875" lon="6.93418286740779876708984375">
        <ele>1055.800048828125</ele>
        <time>2019-06-19T10:59:16.000Z</time>
        <extensions>
          <ns3:TrackPointExtension>
            <ns3:atemp>29.0</ns3:atemp>
            <ns3:hr>140</ns3:hr>
          </ns3:TrackPointExtension>
        </extensions>
      </trkpt>
      <trkpt lat="47.0172826945781707763671875" lon="6.93420306779444217681884765625">
        <ele>1055.800048828125</ele>
        <time>2019-06-19T10:59:17.000Z</time>
        <extensions>
          <ns3:TrackPointExtension>
            <ns3:atemp>29.0</ns3:atemp>
            <ns3:hr>140</ns3:hr>
          </ns3:TrackPointExtension>
        </extensions>
      </trkpt>
      <trkpt lat="47.01730809174478054046630859375" lon="6.93428671918809413909912109375">
        <ele>1056</ele>
        <time>2019-06-19T10:59:19.000Z</time>
        <extensions>
          <ns3:TrackPointExtension>
            <ns3:atemp>29.0</ns3:atemp>
            <ns3:hr>139</ns3:hr>
          </ns3:TrackPointExtension>
        </extensions>
      </trkpt>
      <trkpt lat="47.01739258132874965667724609375" lon="6.93441848270595073699951171875">
        <ele>1056.800048828125</ele>
        <time>2019-06-19T10:59:24.000Z</time>
        <extensions>
          <ns3:TrackPointExtension>
            <ns3:atemp>29.0</ns3:atemp>
            <ns3:hr>141</ns3:hr>
          </ns3:TrackPointExtension>
        </extensions>
      </trkpt>
      <trkpt lat="47.01739945448935031890869140625" lon="6.934450753033161163330078125">
        <ele>1056.800048828125</ele>
        <time>2019-06-19T10:59:25.000Z</time>
        <extensions>
          <ns3:TrackPointExtension>
            <ns3:atemp>29.0</ns3:atemp>
            <ns3:hr>141</ns3:hr>
          </ns3:TrackPointExtension>
        </extensions>
      </trkpt>
      <trkpt lat="47.01744119636714458465576171875" lon="6.934593580663204193115234375">
        <ele>1058</ele>
        <time>2019-06-19T10:59:29.000Z</time>
        <extensions>
          <ns3:TrackPointExtension>
            <ns3:atemp>29.0</ns3:atemp>
            <ns3:hr>140</ns3:hr>
          </ns3:TrackPointExtension>
        </extensions>
      </trkpt>
      <trkpt lat="47.01750456355512142181396484375" lon="6.93469919264316558837890625">
        <ele>1059.199951171875</ele>
        <time>2019-06-19T10:59:33.000Z</time>
        <extensions>
          <ns3:TrackPointExtension>
            <ns3:atemp>29.0</ns3:atemp>
            <ns3:hr>141</ns3:hr>
          </ns3:TrackPointExtension>
        </extensions>
      </trkpt>
      <trkpt lat="47.017513699829578399658203125" lon="6.93473297171294689178466796875">
        <ele>1059.4000244140625</ele>
        <time>2019-06-19T10:59:34.000Z</time>
        <extensions>
          <ns3:TrackPointExtension>
            <ns3:atemp>29.0</ns3:atemp>
            <ns3:hr>142</ns3:hr>
          </ns3:TrackPointExtension>
        </extensions>
      </trkpt>
      <trkpt lat="47.0175363309681415557861328125" lon="6.934840343892574310302734375">
        <ele>1060.199951171875</ele>
        <time>2019-06-19T10:59:37.000Z</time>
        <extensions>
          <ns3:TrackPointExtension>
            <ns3:atemp>29.0</ns3:atemp>
            <ns3:hr>142</ns3:hr>
          </ns3:TrackPointExtension>
        </extensions>
      </trkpt>
      <trkpt lat="47.01755804009735584259033203125" lon="6.93489239551126956939697265625">
        <ele>1060.5999755859375</ele>
        <time>2019-06-19T10:59:39.000Z</time>
        <extensions>
          <ns3:TrackPointExtension>
            <ns3:atemp>29.0</ns3:atemp>
            <ns3:hr>143</ns3:hr>
          </ns3:TrackPointExtension>
        </extensions>
      </trkpt>
      <trkpt lat="47.01759693212807178497314453125" lon="6.93502935580909252166748046875">
        <ele>1061.199951171875</ele>
        <time>2019-06-19T10:59:44.000Z</time>
        <extensions>
          <ns3:TrackPointExtension>
            <ns3:atemp>29.0</ns3:atemp>
            <ns3:hr>142</ns3:hr>
          </ns3:TrackPointExtension>
        </extensions>
      </trkpt>
      <trkpt lat="47.01761000789701938629150390625" lon="6.93505684845149517059326171875">
        <ele>1061.4000244140625</ele>
        <time>2019-06-19T10:59:45.000Z</time>
        <extensions>
          <ns3:TrackPointExtension>
            <ns3:atemp>29.0</ns3:atemp>
            <ns3:hr>142</ns3:hr>
          </ns3:TrackPointExtension>
        </extensions>
      </trkpt>
      <trkpt lat="47.01763180084526538848876953125" lon="6.93518274463713169097900390625">
        <ele>1061.4000244140625</ele>
        <time>2019-06-19T10:59:49.000Z</time>
        <extensions>
          <ns3:TrackPointExtension>
            <ns3:atemp>29.0</ns3:atemp>
            <ns3:hr>144</ns3:hr>
          </ns3:TrackPointExtension>
        </extensions>
      </trkpt>
      <trkpt lat="47.0176421105861663818359375" lon="6.9352497160434722900390625">
        <ele>1061.800048828125</ele>
        <time>2019-06-19T10:59:51.000Z</time>
        <extensions>
          <ns3:TrackPointExtension>
            <ns3:atemp>29.0</ns3:atemp>
            <ns3:hr>144</ns3:hr>
          </ns3:TrackPointExtension>
        </extensions>
      </trkpt>
      <trkpt lat="47.0176654122769832611083984375" lon="6.93535365164279937744140625">
        <ele>1062</ele>
        <time>2019-06-19T10:59:54.000Z</time>
        <extensions>
          <ns3:TrackPointExtension>
            <ns3:atemp>29.0</ns3:atemp>
            <ns3:hr>144</ns3:hr>
          </ns3:TrackPointExtension>
        </extensions>
      </trkpt>
      <trkpt lat="47.017674632370471954345703125" lon="6.93544895388185977935791015625">
        <ele>1062.199951171875</ele>
        <time>2019-06-19T10:59:56.000Z</time>
        <extensions>
          <ns3:TrackPointExtension>
            <ns3:atemp>29.0</ns3:atemp>
            <ns3:hr>144</ns3:hr>
          </ns3:TrackPointExtension>
        </extensions>
      </trkpt>
      <trkpt lat="47.01773665845394134521484375" lon="6.935571916401386260986328125">
        <ele>1062.4000244140625</ele>
        <time>2019-06-19T11:00:00.000Z</time>
        <extensions>
          <ns3:TrackPointExtension>
            <ns3:atemp>29.0</ns3:atemp>
            <ns3:hr>145</ns3:hr>
          </ns3:TrackPointExtension>
        </extensions>
      </trkpt>
      <trkpt lat="47.0177666656672954559326171875" lon="6.93562346510589122772216796875">
        <ele>1063</ele>
        <time>2019-06-19T11:00:02.000Z</time>
        <extensions>
          <ns3:TrackPointExtension>
            <ns3:atemp>29.0</ns3:atemp>
            <ns3:hr>145</ns3:hr>
          </ns3:TrackPointExtension>
        </extensions>
      </trkpt>
      <trkpt lat="47.0177918113768100738525390625" lon="6.93569705821573734283447265625">
        <ele>1063.4000244140625</ele>
        <time>2019-06-19T11:00:04.000Z</time>
        <extensions>
          <ns3:TrackPointExtension>
            <ns3:atemp>29.0</ns3:atemp>
            <ns3:hr>146</ns3:hr>
          </ns3:TrackPointExtension>
        </extensions>
      </trkpt>
      <trkpt lat="47.01781444251537322998046875" lon="6.93578607402741909027099609375">
        <ele>1064.199951171875</ele>
        <time>2019-06-19T11:00:07.000Z</time>
        <extensions>
          <ns3:TrackPointExtension>
            <ns3:atemp>29.0</ns3:atemp>
            <ns3:hr>146</ns3:hr>
          </ns3:TrackPointExtension>
        </extensions>
      </trkpt>
      <trkpt lat="47.017829529941082000732421875" lon="6.93583619780838489532470703125">
        <ele>1064.4000244140625</ele>
        <time>2019-06-19T11:00:09.000Z</time>
        <extensions>
          <ns3:TrackPointExtension>
            <ns3:atemp>29.0</ns3:atemp>
            <ns3:hr>147</ns3:hr>
          </ns3:TrackPointExtension>
        </extensions>
      </trkpt>
      <trkpt lat="47.01787387020885944366455078125" lon="6.93594046868383884429931640625">
        <ele>1065</ele>
        <time>2019-06-19T11:00:13.000Z</time>
        <extensions>
          <ns3:TrackPointExtension>
            <ns3:atemp>29.0</ns3:atemp>
            <ns3:hr>148</ns3:hr>
          </ns3:TrackPointExtension>
        </extensions>
      </trkpt>
      <trkpt lat="47.01790018938481807708740234375" lon="6.936100982129573822021484375">
        <ele>1065.4000244140625</ele>
        <time>2019-06-19T11:00:17.000Z</time>
        <extensions>
          <ns3:TrackPointExtension>
            <ns3:atemp>29.0</ns3:atemp>
            <ns3:hr>148</ns3:hr>
          </ns3:TrackPointExtension>
        </extensions>
      </trkpt>
      <trkpt lat="47.01790907420217990875244140625" lon="6.9361309893429279327392578125">
        <ele>1065.5999755859375</ele>
        <time>2019-06-19T11:00:18.000Z</time>
        <extensions>
          <ns3:TrackPointExtension>
            <ns3:atemp>29.0</ns3:atemp>
            <ns3:hr>148</ns3:hr>
          </ns3:TrackPointExtension>
        </extensions>
      </trkpt>
      <trkpt lat="47.01795567758381366729736328125" lon="6.93629552610218524932861328125">
        <ele>1066</ele>
        <time>2019-06-19T11:00:23.000Z</time>
        <extensions>
          <ns3:TrackPointExtension>
            <ns3:atemp>29.0</ns3:atemp>
            <ns3:hr>147</ns3:hr>
          </ns3:TrackPointExtension>
        </extensions>
      </trkpt>
      <trkpt lat="47.0180392451584339141845703125" lon="6.9365318119525909423828125">
        <ele>1066.5999755859375</ele>
        <time>2019-06-19T11:00:30.000Z</time>
        <extensions>
          <ns3:TrackPointExtension>
            <ns3:atemp>29.0</ns3:atemp>
            <ns3:hr>149</ns3:hr>
          </ns3:TrackPointExtension>
        </extensions>
      </trkpt>
      <trkpt lat="47.0180570147931575775146484375" lon="6.93656106479465961456298828125">
        <ele>1066.5999755859375</ele>
        <time>2019-06-19T11:00:31.000Z</time>
        <extensions>
          <ns3:TrackPointExtension>
            <ns3:atemp>29.0</ns3:atemp>
            <ns3:hr>149</ns3:hr>
          </ns3:TrackPointExtension>
        </extensions>
      </trkpt>
      <trkpt lat="47.01812968589365482330322265625" lon="6.93672551773488521575927734375">
        <ele>1066.800048828125</ele>
        <time>2019-06-19T11:00:36.000Z</time>
        <extensions>
          <ns3:TrackPointExtension>
            <ns3:atemp>29.0</ns3:atemp>
            <ns3:hr>150</ns3:hr>
          </ns3:TrackPointExtension>
        </extensions>
      </trkpt>
      <trkpt lat="47.01818165369331836700439453125" lon="6.93694713525474071502685546875">
        <ele>1067</ele>
        <time>2019-06-19T11:00:41.000Z</time>
        <extensions>
          <ns3:TrackPointExtension>
            <ns3:atemp>29.0</ns3:atemp>
            <ns3:hr>147</ns3:hr>
          </ns3:TrackPointExtension>
        </extensions>
      </trkpt>
      <trkpt lat="47.01820059679448604583740234375" lon="6.93700455129146575927734375">
        <ele>1067.199951171875</ele>
        <time>2019-06-19T11:00:42.000Z</time>
        <extensions>
          <ns3:TrackPointExtension>
            <ns3:atemp>29.0</ns3:atemp>
            <ns3:hr>147</ns3:hr>
          </ns3:TrackPointExtension>
        </extensions>
      </trkpt>
      <trkpt lat="47.01827720738947391510009765625" lon="6.9372883625328540802001953125">
        <ele>1066.4000244140625</ele>
        <time>2019-06-19T11:00:49.000Z</time>
        <extensions>
          <ns3:TrackPointExtension>
            <ns3:atemp>29.0</ns3:atemp>
            <ns3:hr>144</ns3:hr>
          </ns3:TrackPointExtension>
        </extensions>
      </trkpt>
      <trkpt lat="47.01836270280182361602783203125" lon="6.93755985237658023834228515625">
        <ele>1066.199951171875</ele>
        <time>2019-06-19T11:00:55.000Z</time>
        <extensions>
          <ns3:TrackPointExtension>
            <ns3:atemp>29.0</ns3:atemp>
            <ns3:hr>142</ns3:hr>
          </ns3:TrackPointExtension>
        </extensions>
      </trkpt>
      <trkpt lat="47.01843361370265483856201171875" lon="6.9377929531037807464599609375">
        <ele>1066.4000244140625</ele>
        <time>2019-06-19T11:01:01.000Z</time>
        <extensions>
          <ns3:TrackPointExtension>
            <ns3:atemp>29.0</ns3:atemp>
            <ns3:hr>139</ns3:hr>
          </ns3:TrackPointExtension>
        </extensions>
      </trkpt>
      <trkpt lat="47.01852061785757541656494140625" lon="6.93805790506303310394287109375">
        <ele>1066.4000244140625</ele>
        <time>2019-06-19T11:01:08.000Z</time>
        <extensions>
          <ns3:TrackPointExtension>
            <ns3:atemp>29.0</ns3:atemp>
            <ns3:hr>137</ns3:hr>
          </ns3:TrackPointExtension>
        </extensions>
      </trkpt>
      <trkpt lat="47.01857979409396648406982421875" lon="6.9382539577782154083251953125">
        <ele>1066.5999755859375</ele>
        <time>2019-06-19T11:01:13.000Z</time>
        <extensions>
          <ns3:TrackPointExtension>
            <ns3:atemp>29.0</ns3:atemp>
            <ns3:hr>134</ns3:hr>
          </ns3:TrackPointExtension>
        </extensions>
      </trkpt>
      <trkpt lat="47.0186015032231807708740234375" lon="6.93833685480058193206787109375">
        <ele>1066.800048828125</ele>
        <time>2019-06-19T11:01:15.000Z</time>
        <extensions>
          <ns3:TrackPointExtension>
            <ns3:atemp>29.0</ns3:atemp>
            <ns3:hr>134</ns3:hr>
          </ns3:TrackPointExtension>
        </extensions>
      </trkpt>
      <trkpt lat="47.0186122320592403411865234375" lon="6.9386723823845386505126953125">
        <ele>1066.4000244140625</ele>
        <time>2019-06-19T11:01:21.000Z</time>
        <extensions>
          <ns3:TrackPointExtension>
            <ns3:atemp>29.0</ns3:atemp>
            <ns3:hr>132</ns3:hr>
          </ns3:TrackPointExtension>
        </extensions>
      </trkpt>
      <trkpt lat="47.01857560314238071441650390625" lon="6.93880221806466579437255859375">
        <ele>1066</ele>
        <time>2019-06-19T11:01:23.000Z</time>
        <extensions>
          <ns3:TrackPointExtension>
            <ns3:atemp>28.0</ns3:atemp>
            <ns3:hr>132</ns3:hr>
          </ns3:TrackPointExtension>
        </extensions>
      </trkpt>
      <trkpt lat="47.01854643411934375762939453125" lon="6.938859634101390838623046875">
        <ele>1065.4000244140625</ele>
        <time>2019-06-19T11:01:24.000Z</time>
        <extensions>
          <ns3:TrackPointExtension>
            <ns3:atemp>28.0</ns3:atemp>
            <ns3:hr>132</ns3:hr>
          </ns3:TrackPointExtension>
        </extensions>
      </trkpt>
      <trkpt lat="47.0185124874114990234375" lon="6.9389224983751773834228515625">
        <ele>1065</ele>
        <time>2019-06-19T11:01:25.000Z</time>
        <extensions>
          <ns3:TrackPointExtension>
            <ns3:atemp>28.0</ns3:atemp>
            <ns3:hr>132</ns3:hr>
          </ns3:TrackPointExtension>
        </extensions>
      </trkpt>
      <trkpt lat="47.01845138333737850189208984375" lon="6.93903221748769283294677734375">
        <ele>1064.199951171875</ele>
        <time>2019-06-19T11:01:27.000Z</time>
        <extensions>
          <ns3:TrackPointExtension>
            <ns3:atemp>28.0</ns3:atemp>
            <ns3:hr>132</ns3:hr>
          </ns3:TrackPointExtension>
        </extensions>
      </trkpt>
      <trkpt lat="47.01838986016809940338134765625" lon="6.93908250890672206878662109375">
        <ele>1063.199951171875</ele>
        <time>2019-06-19T11:01:29.000Z</time>
        <extensions>
          <ns3:TrackPointExtension>
            <ns3:atemp>28.0</ns3:atemp>
            <ns3:hr>131</ns3:hr>
          </ns3:TrackPointExtension>
        </extensions>
      </trkpt>
      <trkpt lat="47.018353231251239776611328125" lon="6.9390817545354366302490234375">
        <ele>1063</ele>
        <time>2019-06-19T11:01:30.000Z</time>
        <extensions>
          <ns3:TrackPointExtension>
            <ns3:atemp>28.0</ns3:atemp>
            <ns3:hr>131</ns3:hr>
          </ns3:TrackPointExtension>
        </extensions>
      </trkpt>
      <trkpt lat="47.018311321735382080078125" lon="6.93907320499420166015625">
        <ele>1062.5999755859375</ele>
        <time>2019-06-19T11:01:31.000Z</time>
        <extensions>
          <ns3:TrackPointExtension>
            <ns3:atemp>28.0</ns3:atemp>
            <ns3:hr>131</ns3:hr>
          </ns3:TrackPointExtension>
        </extensions>
      </trkpt>
      <trkpt lat="47.01823110692203044891357421875" lon="6.939038336277008056640625">
        <ele>1061.4000244140625</ele>
        <time>2019-06-19T11:01:33.000Z</time>
        <extensions>
          <ns3:TrackPointExtension>
            <ns3:atemp>28.0</ns3:atemp>
            <ns3:hr>132</ns3:hr>
          </ns3:TrackPointExtension>
        </extensions>
      </trkpt>
      <trkpt lat="47.01815499924123287200927734375" lon="6.93896281532943248748779296875">
        <ele>1060.4000244140625</ele>
        <time>2019-06-19T11:01:35.000Z</time>
        <extensions>
          <ns3:TrackPointExtension>
            <ns3:atemp>28.0</ns3:atemp>
            <ns3:hr>133</ns3:hr>
          </ns3:TrackPointExtension>
        </extensions>
      </trkpt>
      <trkpt lat="47.01811878941953182220458984375" lon="6.9389094226062297821044921875">
        <ele>1060.199951171875</ele>
        <time>2019-06-19T11:01:36.000Z</time>
        <extensions>
          <ns3:TrackPointExtension>
            <ns3:atemp>28.0</ns3:atemp>
            <ns3:hr>133</ns3:hr>
          </ns3:TrackPointExtension>
        </extensions>
      </trkpt>
      <trkpt lat="47.01808224432170391082763671875" lon="6.93884789943695068359375">
        <ele>1059.800048828125</ele>
        <time>2019-06-19T11:01:37.000Z</time>
        <extensions>
          <ns3:TrackPointExtension>
            <ns3:atemp>28.0</ns3:atemp>
            <ns3:hr>133</ns3:hr>
          </ns3:TrackPointExtension>
        </extensions>
      </trkpt>
      <trkpt lat="47.01804653741419315338134765625" lon="6.93878352642059326171875">
        <ele>1059.4000244140625</ele>
        <time>2019-06-19T11:01:38.000Z</time>
        <extensions>
          <ns3:TrackPointExtension>
            <ns3:atemp>28.0</ns3:atemp>
            <ns3:hr>132</ns3:hr>
          </ns3:TrackPointExtension>
        </extensions>
      </trkpt>
      <trkpt lat="47.0180177874863147735595703125" lon="6.93871286697685718536376953125">
        <ele>1058.800048828125</ele>
        <time>2019-06-19T11:01:39.000Z</time>
        <extensions>
          <ns3:TrackPointExtension>
            <ns3:atemp>28.0</ns3:atemp>
            <ns3:hr>132</ns3:hr>
          </ns3:TrackPointExtension>
        </extensions>
      </trkpt>
      <trkpt lat="47.0179936476051807403564453125" lon="6.93863692693412303924560546875">
        <ele>1058.4000244140625</ele>
        <time>2019-06-19T11:01:40.000Z</time>
        <extensions>
          <ns3:TrackPointExtension>
            <ns3:atemp>27.0</ns3:atemp>
            <ns3:hr>132</ns3:hr>
          </ns3:TrackPointExtension>
        </extensions>
      </trkpt>
      <trkpt lat="47.01797093264758586883544921875" lon="6.93856148980557918548583984375">
        <ele>1058</ele>
        <time>2019-06-19T11:01:41.000Z</time>
        <extensions>
          <ns3:TrackPointExtension>
            <ns3:atemp>27.0</ns3:atemp>
            <ns3:hr>131</ns3:hr>
          </ns3:TrackPointExtension>
        </extensions>
      </trkpt>
      <trkpt lat="47.0179453678429126739501953125" lon="6.9384946860373020172119140625">
        <ele>1057.800048828125</ele>
        <time>2019-06-19T11:01:42.000Z</time>
        <extensions>
          <ns3:TrackPointExtension>
            <ns3:atemp>27.0</ns3:atemp>
            <ns3:hr>131</ns3:hr>
          </ns3:TrackPointExtension>
        </extensions>
      </trkpt>
      <trkpt lat="47.01784931123256683349609375" lon="6.93822118453681468963623046875">
        <ele>1056.800048828125</ele>
        <time>2019-06-19T11:01:45.000Z</time>
        <extensions>
          <ns3:TrackPointExtension>
            <ns3:atemp>27.0</ns3:atemp>
            <ns3:hr>131</ns3:hr>
          </ns3:TrackPointExtension>
        </extensions>
      </trkpt>
      <trkpt lat="47.01781050302088260650634765625" lon="6.9380953721702098846435546875">
        <ele>1056.199951171875</ele>
        <time>2019-06-19T11:01:46.000Z</time>
        <extensions>
          <ns3:TrackPointExtension>
            <ns3:atemp>27.0</ns3:atemp>
            <ns3:hr>132</ns3:hr>
          </ns3:TrackPointExtension>
        </extensions>
      </trkpt>
      <trkpt lat="47.01776348054409027099609375" lon="6.9379746727645397186279296875">
        <ele>1055.4000244140625</ele>
        <time>2019-06-19T11:01:47.000Z</time>
        <extensions>
          <ns3:TrackPointExtension>
            <ns3:atemp>27.0</ns3:atemp>
            <ns3:hr>132</ns3:hr>
          </ns3:TrackPointExtension>
        </extensions>
      </trkpt>
      <trkpt lat="47.01770992018282413482666015625" lon="6.93786243908107280731201171875">
        <ele>1054.4000244140625</ele>
        <time>2019-06-19T11:01:48.000Z</time>
        <extensions>
          <ns3:TrackPointExtension>
            <ns3:atemp>27.0</ns3:atemp>
            <ns3:hr>132</ns3:hr>
          </ns3:TrackPointExtension>
        </extensions>
      </trkpt>
      <trkpt lat="47.0176526717841625213623046875" lon="6.93775422871112823486328125">
        <ele>1053.199951171875</ele>
        <time>2019-06-19T11:01:49.000Z</time>
        <extensions>
          <ns3:TrackPointExtension>
            <ns3:atemp>27.0</ns3:atemp>
            <ns3:hr>132</ns3:hr>
          </ns3:TrackPointExtension>
        </extensions>
      </trkpt>
      <trkpt lat="47.01759290881454944610595703125" lon="6.9376315176486968994140625">
        <ele>1052.199951171875</ele>
        <time>2019-06-19T11:01:50.000Z</time>
        <extensions>
          <ns3:TrackPointExtension>
            <ns3:atemp>27.0</ns3:atemp>
            <ns3:hr>132</ns3:hr>
          </ns3:TrackPointExtension>
        </extensions>
      </trkpt>
      <trkpt lat="47.0175321400165557861328125" lon="6.93751039914786815643310546875">
        <ele>1051.5999755859375</ele>
        <time>2019-06-19T11:01:51.000Z</time>
        <extensions>
          <ns3:TrackPointExtension>
            <ns3:atemp>27.0</ns3:atemp>
            <ns3:hr>132</ns3:hr>
          </ns3:TrackPointExtension>
        </extensions>
      </trkpt>
      <trkpt lat="47.01746315695345401763916015625" lon="6.93740411661565303802490234375">
        <ele>1050.800048828125</ele>
        <time>2019-06-19T11:01:52.000Z</time>
        <extensions>
          <ns3:TrackPointExtension>
            <ns3:atemp>27.0</ns3:atemp>
            <ns3:hr>132</ns3:hr>
          </ns3:TrackPointExtension>
        </extensions>
      </trkpt>
      <trkpt lat="47.01739341951906681060791015625" lon="6.93730185739696025848388671875">
        <ele>1050</ele>
        <time>2019-06-19T11:01:53.000Z</time>
        <extensions>
          <ns3:TrackPointExtension>
            <ns3:atemp>27.0</ns3:atemp>
            <ns3:hr>132</ns3:hr>
          </ns3:TrackPointExtension>
        </extensions>
      </trkpt>
      <trkpt lat="47.01724941842257976531982421875" lon="6.937073282897472381591796875">
        <ele>1049</ele>
        <time>2019-06-19T11:01:55.000Z</time>
        <extensions>
          <ns3:TrackPointExtension>
            <ns3:atemp>27.0</ns3:atemp>
            <ns3:hr>132</ns3:hr>
          </ns3:TrackPointExtension>
        </extensions>
      </trkpt>
      <trkpt lat="47.01710072346031665802001953125" lon="6.936819143593311309814453125">
        <ele>1047.4000244140625</ele>
        <time>2019-06-19T11:01:57.000Z</time>
        <extensions>
          <ns3:TrackPointExtension>
            <ns3:atemp>26.0</ns3:atemp>
            <ns3:hr>131</ns3:hr>
          </ns3:TrackPointExtension>
        </extensions>
      </trkpt>
      <trkpt lat="47.01702897436916828155517578125" lon="6.93669115193188190460205078125">
        <ele>1046.199951171875</ele>
        <time>2019-06-19T11:01:58.000Z</time>
        <extensions>
          <ns3:TrackPointExtension>
            <ns3:atemp>26.0</ns3:atemp>
            <ns3:hr>131</ns3:hr>
          </ns3:TrackPointExtension>
        </extensions>
      </trkpt>
      <trkpt lat="47.01696091331541538238525390625" lon="6.93657045252621173858642578125">
        <ele>1044.800048828125</ele>
        <time>2019-06-19T11:01:59.000Z</time>
        <extensions>
          <ns3:TrackPointExtension>
            <ns3:atemp>26.0</ns3:atemp>
            <ns3:hr>131</ns3:hr>
          </ns3:TrackPointExtension>
        </extensions>
      </trkpt>
      <trkpt lat="47.01689268462359905242919921875" lon="6.9364515133202075958251953125">
        <ele>1043.800048828125</ele>
        <time>2019-06-19T11:02:00.000Z</time>
        <extensions>
          <ns3:TrackPointExtension>
            <ns3:atemp>26.0</ns3:atemp>
            <ns3:hr>132</ns3:hr>
          </ns3:TrackPointExtension>
        </extensions>
      </trkpt>
      <trkpt lat="47.0168294012546539306640625" lon="6.936328969895839691162109375">
        <ele>1043</ele>
        <time>2019-06-19T11:02:01.000Z</time>
        <extensions>
          <ns3:TrackPointExtension>
            <ns3:atemp>26.0</ns3:atemp>
            <ns3:hr>132</ns3:hr>
          </ns3:TrackPointExtension>
        </extensions>
      </trkpt>
      <trkpt lat="47.01676108874380588531494140625" lon="6.936202235519886016845703125">
        <ele>1042</ele>
        <time>2019-06-19T11:02:02.000Z</time>
        <extensions>
          <ns3:TrackPointExtension>
            <ns3:atemp>26.0</ns3:atemp>
            <ns3:hr>132</ns3:hr>
          </ns3:TrackPointExtension>
        </extensions>
      </trkpt>
      <trkpt lat="47.0166148245334625244140625" lon="6.935950107872486114501953125">
        <ele>1040.199951171875</ele>
        <time>2019-06-19T11:02:04.000Z</time>
        <extensions>
          <ns3:TrackPointExtension>
            <ns3:atemp>26.0</ns3:atemp>
            <ns3:hr>131</ns3:hr>
          </ns3:TrackPointExtension>
        </extensions>
      </trkpt>
      <trkpt lat="47.01654181815683841705322265625" lon="6.9358201883733272552490234375">
        <ele>1038.800048828125</ele>
        <time>2019-06-19T11:02:05.000Z</time>
        <extensions>
          <ns3:TrackPointExtension>
            <ns3:atemp>26.0</ns3:atemp>
            <ns3:hr>131</ns3:hr>
          </ns3:TrackPointExtension>
        </extensions>
      </trkpt>
      <trkpt lat="47.0164631120860576629638671875" lon="6.9356944598257541656494140625">
        <ele>1037.4000244140625</ele>
        <time>2019-06-19T11:02:06.000Z</time>
        <extensions>
          <ns3:TrackPointExtension>
            <ns3:atemp>26.0</ns3:atemp>
            <ns3:hr>131</ns3:hr>
          </ns3:TrackPointExtension>
        </extensions>
      </trkpt>
      <trkpt lat="47.01638842932879924774169921875" lon="6.93556445650756359100341796875">
        <ele>1036.199951171875</ele>
        <time>2019-06-19T11:02:07.000Z</time>
        <extensions>
          <ns3:TrackPointExtension>
            <ns3:atemp>26.0</ns3:atemp>
            <ns3:hr>130</ns3:hr>
          </ns3:TrackPointExtension>
        </extensions>
      </trkpt>
      <trkpt lat="47.0163202844560146331787109375" lon="6.9354302622377872467041015625">
        <ele>1035</ele>
        <time>2019-06-19T11:02:08.000Z</time>
        <extensions>
          <ns3:TrackPointExtension>
            <ns3:atemp>26.0</ns3:atemp>
            <ns3:hr>131</ns3:hr>
          </ns3:TrackPointExtension>
        </extensions>
      </trkpt>
      <trkpt lat="47.01625532470643520355224609375" lon="6.9353038631379604339599609375">
        <ele>1034</ele>
        <time>2019-06-19T11:02:09.000Z</time>
        <extensions>
          <ns3:TrackPointExtension>
            <ns3:atemp>26.0</ns3:atemp>
            <ns3:hr>131</ns3:hr>
          </ns3:TrackPointExtension>
        </extensions>
      </trkpt>
      <trkpt lat="47.0161365531384944915771484375" lon="6.9350269250571727752685546875">
        <ele>1032</ele>
        <time>2019-06-19T11:02:11.000Z</time>
        <extensions>
          <ns3:TrackPointExtension>
            <ns3:atemp>25.0</ns3:atemp>
            <ns3:hr>128</ns3:hr>
          </ns3:TrackPointExtension>
        </extensions>
      </trkpt>
      <trkpt lat="47.016036808490753173828125" lon="6.934736073017120361328125">
        <ele>1030.199951171875</ele>
        <time>2019-06-19T11:02:13.000Z</time>
        <extensions>
          <ns3:TrackPointExtension>
            <ns3:atemp>25.0</ns3:atemp>
            <ns3:hr>127</ns3:hr>
          </ns3:TrackPointExtension>
        </extensions>
      </trkpt>
      <trkpt lat="47.0159809850156307220458984375" lon="6.93458578549325466156005859375">
        <ele>1029.199951171875</ele>
        <time>2019-06-19T11:02:14.000Z</time>
        <extensions>
          <ns3:TrackPointExtension>
            <ns3:atemp>25.0</ns3:atemp>
            <ns3:hr>127</ns3:hr>
          </ns3:TrackPointExtension>
        </extensions>
      </trkpt>
      <trkpt lat="47.015911079943180084228515625" lon="6.9344304688274860382080078125">
        <ele>1027.800048828125</ele>
        <time>2019-06-19T11:02:15.000Z</time>
        <extensions>
          <ns3:TrackPointExtension>
            <ns3:atemp>25.0</ns3:atemp>
            <ns3:hr>126</ns3:hr>
          </ns3:TrackPointExtension>
        </extensions>
      </trkpt>
      <trkpt lat="47.0158431865274906158447265625" lon="6.93427599035203456878662109375">
        <ele>1026.4000244140625</ele>
        <time>2019-06-19T11:02:16.000Z</time>
        <extensions>
          <ns3:TrackPointExtension>
            <ns3:atemp>25.0</ns3:atemp>
            <ns3:hr>127</ns3:hr>
          </ns3:TrackPointExtension>
        </extensions>
      </trkpt>
      <trkpt lat="47.01577403582632541656494140625" lon="6.93412411026656627655029296875">
        <ele>1024.800048828125</ele>
        <time>2019-06-19T11:02:17.000Z</time>
        <extensions>
          <ns3:TrackPointExtension>
            <ns3:atemp>25.0</ns3:atemp>
            <ns3:hr>127</ns3:hr>
          </ns3:TrackPointExtension>
        </extensions>
      </trkpt>
      <trkpt lat="47.0157077349722385406494140625" lon="6.93398061208426952362060546875">
        <ele>1023.4000244140625</ele>
        <time>2019-06-19T11:02:18.000Z</time>
        <extensions>
          <ns3:TrackPointExtension>
            <ns3:atemp>25.0</ns3:atemp>
            <ns3:hr>127</ns3:hr>
          </ns3:TrackPointExtension>
        </extensions>
      </trkpt>
      <trkpt lat="47.015650235116481781005859375" lon="6.93384432233870029449462890625">
        <ele>1022</ele>
        <time>2019-06-19T11:02:19.000Z</time>
        <extensions>
          <ns3:TrackPointExtension>
            <ns3:atemp>25.0</ns3:atemp>
            <ns3:hr>127</ns3:hr>
          </ns3:TrackPointExtension>
        </extensions>
      </trkpt>
      <trkpt lat="47.0155923999845981597900390625" lon="6.9337086193263530731201171875">
        <ele>1020.79998779296875</ele>
        <time>2019-06-19T11:02:20.000Z</time>
        <extensions>
          <ns3:TrackPointExtension>
            <ns3:atemp>25.0</ns3:atemp>
            <ns3:hr>127</ns3:hr>
          </ns3:TrackPointExtension>
        </extensions>
      </trkpt>
      <trkpt lat="47.0155283622443675994873046875" lon="6.93358515389263629913330078125">
        <ele>1019.5999755859375</ele>
        <time>2019-06-19T11:02:21.000Z</time>
        <extensions>
          <ns3:TrackPointExtension>
            <ns3:atemp>25.0</ns3:atemp>
            <ns3:hr>127</ns3:hr>
          </ns3:TrackPointExtension>
        </extensions>
      </trkpt>
      <trkpt lat="47.01546348631381988525390625" lon="6.93348272703588008880615234375">
        <ele>1018.4000244140625</ele>
        <time>2019-06-19T11:02:22.000Z</time>
        <extensions>
          <ns3:TrackPointExtension>
            <ns3:atemp>25.0</ns3:atemp>
            <ns3:hr>127</ns3:hr>
          </ns3:TrackPointExtension>
        </extensions>
      </trkpt>
      <trkpt lat="47.015354521572589874267578125" lon="6.93329396657645702362060546875">
        <ele>1016.79998779296875</ele>
        <time>2019-06-19T11:02:24.000Z</time>
        <extensions>
          <ns3:TrackPointExtension>
            <ns3:atemp>25.0</ns3:atemp>
            <ns3:hr>127</ns3:hr>
          </ns3:TrackPointExtension>
        </extensions>
      </trkpt>
      <trkpt lat="47.01527816243469715118408203125" lon="6.9330943934619426727294921875">
        <ele>1015.4000244140625</ele>
        <time>2019-06-19T11:02:26.000Z</time>
        <extensions>
          <ns3:TrackPointExtension>
            <ns3:atemp>25.0</ns3:atemp>
            <ns3:hr>128</ns3:hr>
          </ns3:TrackPointExtension>
        </extensions>
      </trkpt>
      <trkpt lat="47.015254609286785125732421875" lon="6.93297511897981166839599609375">
        <ele>1014.5999755859375</ele>
        <time>2019-06-19T11:02:27.000Z</time>
        <extensions>
          <ns3:TrackPointExtension>
            <ns3:atemp>25.0</ns3:atemp>
            <ns3:hr>128</ns3:hr>
          </ns3:TrackPointExtension>
        </extensions>
      </trkpt>
      <trkpt lat="47.0152396894991397857666015625" lon="6.93283639848232269287109375">
        <ele>1013.4000244140625</ele>
        <time>2019-06-19T11:02:28.000Z</time>
        <extensions>
          <ns3:TrackPointExtension>
            <ns3:atemp>25.0</ns3:atemp>
            <ns3:hr>128</ns3:hr>
          </ns3:TrackPointExtension>
        </extensions>
      </trkpt>
      <trkpt lat="47.01523256488144397735595703125" lon="6.9326860271394252777099609375">
        <ele>1012.20001220703125</ele>
        <time>2019-06-19T11:02:29.000Z</time>
        <extensions>
          <ns3:TrackPointExtension>
            <ns3:atemp>25.0</ns3:atemp>
            <ns3:hr>129</ns3:hr>
          </ns3:TrackPointExtension>
        </extensions>
      </trkpt>
      <trkpt lat="47.01521932147443294525146484375" lon="6.932544372975826263427734375">
        <ele>1011.20001220703125</ele>
        <time>2019-06-19T11:02:30.000Z</time>
        <extensions>
          <ns3:TrackPointExtension>
            <ns3:atemp>25.0</ns3:atemp>
            <ns3:hr>130</ns3:hr>
          </ns3:TrackPointExtension>
        </extensions>
      </trkpt>
      <trkpt lat="47.0152095146477222442626953125" lon="6.93237698636949062347412109375">
        <ele>1010</ele>
        <time>2019-06-19T11:02:31.000Z</time>
        <extensions>
          <ns3:TrackPointExtension>
            <ns3:atemp>25.0</ns3:atemp>
            <ns3:hr>128</ns3:hr>
          </ns3:TrackPointExtension>
        </extensions>
      </trkpt>
      <trkpt lat="47.01519551686942577362060546875" lon="6.932213120162487030029296875">
        <ele>1008.79998779296875</ele>
        <time>2019-06-19T11:02:32.000Z</time>
        <extensions>
          <ns3:TrackPointExtension>
            <ns3:atemp>25.0</ns3:atemp>
            <ns3:hr>128</ns3:hr>
          </ns3:TrackPointExtension>
        </extensions>
      </trkpt>
      <trkpt lat="47.0151873864233493804931640625" lon="6.9320476613938808441162109375">
        <ele>1007.4000244140625</ele>
        <time>2019-06-19T11:02:33.000Z</time>
        <extensions>
          <ns3:TrackPointExtension>
            <ns3:atemp>25.0</ns3:atemp>
            <ns3:hr>130</ns3:hr>
          </ns3:TrackPointExtension>
        </extensions>
      </trkpt>
      <trkpt lat="47.01517690904438495635986328125" lon="6.93187574855983257293701171875">
        <ele>1006</ele>
        <time>2019-06-19T11:02:34.000Z</time>
        <extensions>
          <ns3:TrackPointExtension>
            <ns3:atemp>25.0</ns3:atemp>
            <ns3:hr>129</ns3:hr>
          </ns3:TrackPointExtension>
        </extensions>
      </trkpt>
      <trkpt lat="47.01515905559062957763671875" lon="6.93170676939189434051513671875">
        <ele>1004.79998779296875</ele>
        <time>2019-06-19T11:02:35.000Z</time>
        <extensions>
          <ns3:TrackPointExtension>
            <ns3:atemp>25.0</ns3:atemp>
            <ns3:hr>128</ns3:hr>
          </ns3:TrackPointExtension>
        </extensions>
      </trkpt>
      <trkpt lat="47.01514254324138164520263671875" lon="6.93152748048305511474609375">
        <ele>1003.79998779296875</ele>
        <time>2019-06-19T11:02:36.000Z</time>
        <extensions>
          <ns3:TrackPointExtension>
            <ns3:atemp>25.0</ns3:atemp>
            <ns3:hr>128</ns3:hr>
          </ns3:TrackPointExtension>
        </extensions>
      </trkpt>
      <trkpt lat="47.0151261985301971435546875" lon="6.9313573278486728668212890625">
        <ele>1002.79998779296875</ele>
        <time>2019-06-19T11:02:37.000Z</time>
        <extensions>
          <ns3:TrackPointExtension>
            <ns3:atemp>25.0</ns3:atemp>
            <ns3:hr>127</ns3:hr>
          </ns3:TrackPointExtension>
        </extensions>
      </trkpt>
      <trkpt lat="47.015103735029697418212890625" lon="6.93120603449642658233642578125">
        <ele>1001.4000244140625</ele>
        <time>2019-06-19T11:02:38.000Z</time>
        <extensions>
          <ns3:TrackPointExtension>
            <ns3:atemp>24.0</ns3:atemp>
            <ns3:hr>128</ns3:hr>
          </ns3:TrackPointExtension>
        </extensions>
      </trkpt>
      <trkpt lat="47.0150861330330371856689453125" lon="6.9310381449759006500244140625">
        <ele>1000.20001220703125</ele>
        <time>2019-06-19T11:02:39.000Z</time>
        <extensions>
          <ns3:TrackPointExtension>
            <ns3:atemp>24.0</ns3:atemp>
            <ns3:hr>129</ns3:hr>
          </ns3:TrackPointExtension>
        </extensions>
      </trkpt>
      <trkpt lat="47.01506274752318859100341796875" lon="6.93087159655988216400146484375">
        <ele>999</ele>
        <time>2019-06-19T11:02:40.000Z</time>
        <extensions>
          <ns3:TrackPointExtension>
            <ns3:atemp>24.0</ns3:atemp>
            <ns3:hr>129</ns3:hr>
          </ns3:TrackPointExtension>
        </extensions>
      </trkpt>
      <trkpt lat="47.0150388590991497039794921875" lon="6.93071083165705204010009765625">
        <ele>998</ele>
        <time>2019-06-19T11:02:41.000Z</time>
        <extensions>
          <ns3:TrackPointExtension>
            <ns3:atemp>24.0</ns3:atemp>
            <ns3:hr>132</ns3:hr>
          </ns3:TrackPointExtension>
        </extensions>
      </trkpt>
      <trkpt lat="47.0150090195238590240478515625" lon="6.9305154494941234588623046875">
        <ele>997</ele>
        <time>2019-06-19T11:02:42.000Z</time>
        <extensions>
          <ns3:TrackPointExtension>
            <ns3:atemp>24.0</ns3:atemp>
            <ns3:hr>135</ns3:hr>
          </ns3:TrackPointExtension>
        </extensions>
      </trkpt>
      <trkpt lat="47.01497842557728290557861328125" lon="6.93035527132451534271240234375">
        <ele>996.4000244140625</ele>
        <time>2019-06-19T11:02:43.000Z</time>
        <extensions>
          <ns3:TrackPointExtension>
            <ns3:atemp>24.0</ns3:atemp>
            <ns3:hr>137</ns3:hr>
          </ns3:TrackPointExtension>
        </extensions>
      </trkpt>
      <trkpt lat="47.0149503462016582489013671875" lon="6.93019618280231952667236328125">
        <ele>995.79998779296875</ele>
        <time>2019-06-19T11:02:44.000Z</time>
        <extensions>
          <ns3:TrackPointExtension>
            <ns3:atemp>24.0</ns3:atemp>
            <ns3:hr>141</ns3:hr>
          </ns3:TrackPointExtension>
        </extensions>
      </trkpt>
      <trkpt lat="47.01491388492286205291748046875" lon="6.93003483116626739501953125">
        <ele>995.20001220703125</ele>
        <time>2019-06-19T11:02:45.000Z</time>
        <extensions>
          <ns3:TrackPointExtension>
            <ns3:atemp>24.0</ns3:atemp>
            <ns3:hr>142</ns3:hr>
          </ns3:TrackPointExtension>
        </extensions>
      </trkpt>
      <trkpt lat="47.01486669480800628662109375" lon="6.92987347953021526336669921875">
        <ele>994.4000244140625</ele>
        <time>2019-06-19T11:02:46.000Z</time>
        <extensions>
          <ns3:TrackPointExtension>
            <ns3:atemp>24.0</ns3:atemp>
            <ns3:hr>141</ns3:hr>
          </ns3:TrackPointExtension>
        </extensions>
      </trkpt>
      <trkpt lat="47.01481782831251621246337890625" lon="6.92972444929182529449462890625">
        <ele>993.20001220703125</ele>
        <time>2019-06-19T11:02:47.000Z</time>
        <extensions>
          <ns3:TrackPointExtension>
            <ns3:atemp>24.0</ns3:atemp>
            <ns3:hr>141</ns3:hr>
          </ns3:TrackPointExtension>
        </extensions>
      </trkpt>
      <trkpt lat="47.01476803980767726898193359375" lon="6.929569132626056671142578125">
        <ele>992</ele>
        <time>2019-06-19T11:02:48.000Z</time>
        <extensions>
          <ns3:TrackPointExtension>
            <ns3:atemp>24.0</ns3:atemp>
            <ns3:hr>140</ns3:hr>
          </ns3:TrackPointExtension>
        </extensions>
      </trkpt>
      <trkpt lat="47.0147143118083477020263671875" lon="6.929416246712207794189453125">
        <ele>990.79998779296875</ele>
        <time>2019-06-19T11:02:49.000Z</time>
        <extensions>
          <ns3:TrackPointExtension>
            <ns3:atemp>24.0</ns3:atemp>
            <ns3:hr>140</ns3:hr>
          </ns3:TrackPointExtension>
        </extensions>
      </trkpt>
      <trkpt lat="47.0146616734564304351806640625" lon="6.92925170995295047760009765625">
        <ele>989.4000244140625</ele>
        <time>2019-06-19T11:02:50.000Z</time>
        <extensions>
          <ns3:TrackPointExtension>
            <ns3:atemp>24.0</ns3:atemp>
            <ns3:hr>140</ns3:hr>
          </ns3:TrackPointExtension>
        </extensions>
      </trkpt>
      <trkpt lat="47.01455161906778812408447265625" lon="6.928923390805721282958984375">
        <ele>987.5999755859375</ele>
        <time>2019-06-19T11:02:52.000Z</time>
        <extensions>
          <ns3:TrackPointExtension>
            <ns3:atemp>24.0</ns3:atemp>
            <ns3:hr>140</ns3:hr>
          </ns3:TrackPointExtension>
        </extensions>
      </trkpt>
      <trkpt lat="47.01449923217296600341796875" lon="6.92877092398703098297119140625">
        <ele>986.5999755859375</ele>
        <time>2019-06-19T11:02:53.000Z</time>
        <extensions>
          <ns3:TrackPointExtension>
            <ns3:atemp>24.0</ns3:atemp>
            <ns3:hr>140</ns3:hr>
          </ns3:TrackPointExtension>
        </extensions>
      </trkpt>
      <trkpt lat="47.014449276030063629150390625" lon="6.9286271743476390838623046875">
        <ele>985.4000244140625</ele>
        <time>2019-06-19T11:02:54.000Z</time>
        <extensions>
          <ns3:TrackPointExtension>
            <ns3:atemp>24.0</ns3:atemp>
            <ns3:hr>138</ns3:hr>
          </ns3:TrackPointExtension>
        </extensions>
      </trkpt>
      <trkpt lat="47.01440510340034961700439453125" lon="6.92849029786884784698486328125">
        <ele>984.4000244140625</ele>
        <time>2019-06-19T11:02:55.000Z</time>
        <extensions>
          <ns3:TrackPointExtension>
            <ns3:atemp>24.0</ns3:atemp>
            <ns3:hr>134</ns3:hr>
          </ns3:TrackPointExtension>
        </extensions>
      </trkpt>
      <trkpt lat="47.01436134986579418182373046875" lon="6.92836389876902103424072265625">
        <ele>983.20001220703125</ele>
        <time>2019-06-19T11:02:56.000Z</time>
        <extensions>
          <ns3:TrackPointExtension>
            <ns3:atemp>24.0</ns3:atemp>
            <ns3:hr>131</ns3:hr>
          </ns3:TrackPointExtension>
        </extensions>
      </trkpt>
      <trkpt lat="47.01431659050285816192626953125" lon="6.9282466359436511993408203125">
        <ele>982.20001220703125</ele>
        <time>2019-06-19T11:02:57.000Z</time>
        <extensions>
          <ns3:TrackPointExtension>
            <ns3:atemp>24.0</ns3:atemp>
            <ns3:hr>128</ns3:hr>
          </ns3:TrackPointExtension>
        </extensions>
      </trkpt>
      <trkpt lat="47.01427736319601535797119140625" lon="6.928129456937313079833984375">
        <ele>981.4000244140625</ele>
        <time>2019-06-19T11:02:58.000Z</time>
        <extensions>
          <ns3:TrackPointExtension>
            <ns3:atemp>24.0</ns3:atemp>
            <ns3:hr>126</ns3:hr>
          </ns3:TrackPointExtension>
        </extensions>
      </trkpt>
      <trkpt lat="47.01420125551521778106689453125" lon="6.92789300344884395599365234375">
        <ele>979.5999755859375</ele>
        <time>2019-06-19T11:03:00.000Z</time>
        <extensions>
          <ns3:TrackPointExtension>
            <ns3:atemp>24.0</ns3:atemp>
            <ns3:hr>125</ns3:hr>
          </ns3:TrackPointExtension>
        </extensions>
      </trkpt>
      <trkpt lat="47.01416403986513614654541015625" lon="6.92776861600577831268310546875">
        <ele>978.5999755859375</ele>
        <time>2019-06-19T11:03:01.000Z</time>
        <extensions>
          <ns3:TrackPointExtension>
            <ns3:atemp>24.0</ns3:atemp>
            <ns3:hr>126</ns3:hr>
          </ns3:TrackPointExtension>
        </extensions>
      </trkpt>
      <trkpt lat="47.01412213034927845001220703125" lon="6.9276371039450168609619140625">
        <ele>977.79998779296875</ele>
        <time>2019-06-19T11:03:02.000Z</time>
        <extensions>
          <ns3:TrackPointExtension>
            <ns3:atemp>24.0</ns3:atemp>
            <ns3:hr>126</ns3:hr>
          </ns3:TrackPointExtension>
        </extensions>
      </trkpt>
      <trkpt lat="47.01408005319535732269287109375" lon="6.92750693298876285552978515625">
        <ele>977</ele>
        <time>2019-06-19T11:03:03.000Z</time>
        <extensions>
          <ns3:TrackPointExtension>
            <ns3:atemp>24.0</ns3:atemp>
            <ns3:hr>126</ns3:hr>
          </ns3:TrackPointExtension>
        </extensions>
      </trkpt>
      <trkpt lat="47.01399631798267364501953125" lon="6.92729084752500057220458984375">
        <ele>975.4000244140625</ele>
        <time>2019-06-19T11:03:05.000Z</time>
        <extensions>
          <ns3:TrackPointExtension>
            <ns3:atemp>24.0</ns3:atemp>
            <ns3:hr>127</ns3:hr>
          </ns3:TrackPointExtension>
        </extensions>
      </trkpt>
      <trkpt lat="47.013939656317234039306640625" lon="6.9271950423717498779296875">
        <ele>974.20001220703125</ele>
        <time>2019-06-19T11:03:06.000Z</time>
        <extensions>
          <ns3:TrackPointExtension>
            <ns3:atemp>24.0</ns3:atemp>
            <ns3:hr>127</ns3:hr>
          </ns3:TrackPointExtension>
        </extensions>
      </trkpt>
      <trkpt lat="47.0138731040060520172119140625" lon="6.92710175178945064544677734375">
        <ele>973.20001220703125</ele>
        <time>2019-06-19T11:03:07.000Z</time>
        <extensions>
          <ns3:TrackPointExtension>
            <ns3:atemp>24.0</ns3:atemp>
            <ns3:hr>127</ns3:hr>
          </ns3:TrackPointExtension>
        </extensions>
      </trkpt>
      <trkpt lat="47.01373840682208538055419921875" lon="6.926917098462581634521484375">
        <ele>971.79998779296875</ele>
        <time>2019-06-19T11:03:09.000Z</time>
        <extensions>
          <ns3:TrackPointExtension>
            <ns3:atemp>24.0</ns3:atemp>
            <ns3:hr>126</ns3:hr>
          </ns3:TrackPointExtension>
        </extensions>
      </trkpt>
      <trkpt lat="47.01359725557267665863037109375" lon="6.9267033599317073822021484375">
        <ele>970.5999755859375</ele>
        <time>2019-06-19T11:03:11.000Z</time>
        <extensions>
          <ns3:TrackPointExtension>
            <ns3:atemp>24.0</ns3:atemp>
            <ns3:hr>126</ns3:hr>
          </ns3:TrackPointExtension>
        </extensions>
      </trkpt>
      <trkpt lat="47.01353372074663639068603515625" lon="6.9265846721827983856201171875">
        <ele>970</ele>
        <time>2019-06-19T11:03:12.000Z</time>
        <extensions>
          <ns3:TrackPointExtension>
            <ns3:atemp>24.0</ns3:atemp>
            <ns3:hr>127</ns3:hr>
          </ns3:TrackPointExtension>
        </extensions>
      </trkpt>
      <trkpt lat="47.01348133385181427001953125" lon="6.92645383067429065704345703125">
        <ele>969</ele>
        <time>2019-06-19T11:03:13.000Z</time>
        <extensions>
          <ns3:TrackPointExtension>
            <ns3:atemp>24.0</ns3:atemp>
            <ns3:hr>127</ns3:hr>
          </ns3:TrackPointExtension>
        </extensions>
      </trkpt>
      <trkpt lat="47.01336759142577648162841796875" lon="6.9261887110769748687744140625">
        <ele>967</ele>
        <time>2019-06-19T11:03:15.000Z</time>
        <extensions>
          <ns3:TrackPointExtension>
            <ns3:atemp>24.0</ns3:atemp>
            <ns3:hr>128</ns3:hr>
          </ns3:TrackPointExtension>
        </extensions>
      </trkpt>
      <trkpt lat="47.01326969079673290252685546875" lon="6.9259610585868358612060546875">
        <ele>965.20001220703125</ele>
        <time>2019-06-19T11:03:17.000Z</time>
        <extensions>
          <ns3:TrackPointExtension>
            <ns3:atemp>24.0</ns3:atemp>
            <ns3:hr>128</ns3:hr>
          </ns3:TrackPointExtension>
        </extensions>
      </trkpt>
      <trkpt lat="47.01323398388922214508056640625" lon="6.92585603334009647369384765625">
        <ele>964.5999755859375</ele>
        <time>2019-06-19T11:03:18.000Z</time>
        <extensions>
          <ns3:TrackPointExtension>
            <ns3:atemp>24.0</ns3:atemp>
            <ns3:hr>128</ns3:hr>
          </ns3:TrackPointExtension>
        </extensions>
      </trkpt>
      <trkpt lat="47.0132112689316272735595703125" lon="6.92574958316981792449951171875">
        <ele>963.79998779296875</ele>
        <time>2019-06-19T11:03:19.000Z</time>
        <extensions>
          <ns3:TrackPointExtension>
            <ns3:atemp>24.0</ns3:atemp>
            <ns3:hr>127</ns3:hr>
          </ns3:TrackPointExtension>
        </extensions>
      </trkpt>
      <trkpt lat="47.013203389942646026611328125" lon="6.9256432168185710906982421875">
        <ele>963</ele>
        <time>2019-06-19T11:03:20.000Z</time>
        <extensions>
          <ns3:TrackPointExtension>
            <ns3:atemp>24.0</ns3:atemp>
            <ns3:hr>127</ns3:hr>
          </ns3:TrackPointExtension>
        </extensions>
      </trkpt>
      <trkpt lat="47.01321168802678585052490234375" lon="6.92553500644862651824951171875">
        <ele>962.20001220703125</ele>
        <time>2019-06-19T11:03:21.000Z</time>
        <extensions>
          <ns3:TrackPointExtension>
            <ns3:atemp>24.0</ns3:atemp>
            <ns3:hr>127</ns3:hr>
          </ns3:TrackPointExtension>
        </extensions>
      </trkpt>
      <trkpt lat="47.01322074048221111297607421875" lon="6.92541363649070262908935546875">
        <ele>961.5999755859375</ele>
        <time>2019-06-19T11:03:22.000Z</time>
        <extensions>
          <ns3:TrackPointExtension>
            <ns3:atemp>24.0</ns3:atemp>
            <ns3:hr>127</ns3:hr>
          </ns3:TrackPointExtension>
        </extensions>
      </trkpt>
      <trkpt lat="47.01323012821376323699951171875" lon="6.9252878241240978240966796875">
        <ele>960.79998779296875</ele>
        <time>2019-06-19T11:03:23.000Z</time>
        <extensions>
          <ns3:TrackPointExtension>
            <ns3:atemp>24.0</ns3:atemp>
            <ns3:hr>127</ns3:hr>
          </ns3:TrackPointExtension>
        </extensions>
      </trkpt>
      <trkpt lat="47.01324320398271083831787109375" lon="6.92514139227569103240966796875">
        <ele>959.79998779296875</ele>
        <time>2019-06-19T11:03:24.000Z</time>
        <extensions>
          <ns3:TrackPointExtension>
            <ns3:atemp>24.0</ns3:atemp>
            <ns3:hr>126</ns3:hr>
          </ns3:TrackPointExtension>
        </extensions>
      </trkpt>
      <trkpt lat="47.0132722891867160797119140625" lon="6.9248590059578418731689453125">
        <ele>958.20001220703125</ele>
        <time>2019-06-19T11:03:26.000Z</time>
        <extensions>
          <ns3:TrackPointExtension>
            <ns3:atemp>24.0</ns3:atemp>
            <ns3:hr>125</ns3:hr>
          </ns3:TrackPointExtension>
        </extensions>
      </trkpt>
      <trkpt lat="47.0132917352020740509033203125" lon="6.92457091994583606719970703125">
        <ele>956.4000244140625</ele>
        <time>2019-06-19T11:03:28.000Z</time>
        <extensions>
          <ns3:TrackPointExtension>
            <ns3:atemp>24.0</ns3:atemp>
            <ns3:hr>126</ns3:hr>
          </ns3:TrackPointExtension>
        </extensions>
      </trkpt>
      <trkpt lat="47.01332182623445987701416015625" lon="6.92425374872982501983642578125">
        <ele>954.5999755859375</ele>
        <time>2019-06-19T11:03:30.000Z</time>
        <extensions>
          <ns3:TrackPointExtension>
            <ns3:atemp>24.0</ns3:atemp>
            <ns3:hr>126</ns3:hr>
          </ns3:TrackPointExtension>
        </extensions>
      </trkpt>
      <trkpt lat="47.01334395445883274078369140625" lon="6.9240882061421871185302734375">
        <ele>953.79998779296875</ele>
        <time>2019-06-19T11:03:31.000Z</time>
        <extensions>
          <ns3:TrackPointExtension>
            <ns3:atemp>24.0</ns3:atemp>
            <ns3:hr>127</ns3:hr>
          </ns3:TrackPointExtension>
        </extensions>
      </trkpt>
      <trkpt lat="47.01336272992193698883056640625" lon="6.92392207682132720947265625">
        <ele>952.79998779296875</ele>
        <time>2019-06-19T11:03:32.000Z</time>
        <extensions>
          <ns3:TrackPointExtension>
            <ns3:atemp>24.0</ns3:atemp>
            <ns3:hr>127</ns3:hr>
          </ns3:TrackPointExtension>
        </extensions>
      </trkpt>
      <trkpt lat="47.013380415737628936767578125" lon="6.9237656705081462860107421875">
        <ele>951.79998779296875</ele>
        <time>2019-06-19T11:03:33.000Z</time>
        <extensions>
          <ns3:TrackPointExtension>
            <ns3:atemp>24.0</ns3:atemp>
            <ns3:hr>127</ns3:hr>
          </ns3:TrackPointExtension>
        </extensions>
      </trkpt>
      <trkpt lat="47.01339818537235260009765625" lon="6.923465430736541748046875">
        <ele>950</ele>
        <time>2019-06-19T11:03:35.000Z</time>
        <extensions>
          <ns3:TrackPointExtension>
            <ns3:atemp>24.0</ns3:atemp>
            <ns3:hr>126</ns3:hr>
          </ns3:TrackPointExtension>
        </extensions>
      </trkpt>
      <trkpt lat="47.013400532305240631103515625" lon="6.9233288057148456573486328125">
        <ele>949</ele>
        <time>2019-06-19T11:03:36.000Z</time>
        <extensions>
          <ns3:TrackPointExtension>
            <ns3:atemp>24.0</ns3:atemp>
            <ns3:hr>128</ns3:hr>
          </ns3:TrackPointExtension>
        </extensions>
      </trkpt>
      <trkpt lat="47.01340765692293643951416015625" lon="6.9231987185776233673095703125">
        <ele>948.4000244140625</ele>
        <time>2019-06-19T11:03:37.000Z</time>
        <extensions>
          <ns3:TrackPointExtension>
            <ns3:atemp>24.0</ns3:atemp>
            <ns3:hr>128</ns3:hr>
          </ns3:TrackPointExtension>
        </extensions>
      </trkpt>
      <trkpt lat="47.013416625559329986572265625" lon="6.92309319041669368743896484375">
        <ele>947.5999755859375</ele>
        <time>2019-06-19T11:03:38.000Z</time>
        <extensions>
          <ns3:TrackPointExtension>
            <ns3:atemp>24.0</ns3:atemp>
            <ns3:hr>129</ns3:hr>
          </ns3:TrackPointExtension>
        </extensions>
      </trkpt>
      <trkpt lat="47.0134198106825351715087890625" lon="6.92296377383172512054443359375">
        <ele>946.79998779296875</ele>
        <time>2019-06-19T11:03:39.000Z</time>
        <extensions>
          <ns3:TrackPointExtension>
            <ns3:atemp>24.0</ns3:atemp>
            <ns3:hr>130</ns3:hr>
          </ns3:TrackPointExtension>
        </extensions>
      </trkpt>
      <trkpt lat="47.0134352333843708038330078125" lon="6.922865621745586395263671875">
        <ele>945.79998779296875</ele>
        <time>2019-06-19T11:03:40.000Z</time>
        <extensions>
          <ns3:TrackPointExtension>
            <ns3:atemp>24.0</ns3:atemp>
            <ns3:hr>131</ns3:hr>
          </ns3:TrackPointExtension>
        </extensions>
      </trkpt>
      <trkpt lat="47.01346549205482006072998046875" lon="6.92277434282004833221435546875">
        <ele>945.20001220703125</ele>
        <time>2019-06-19T11:03:41.000Z</time>
        <extensions>
          <ns3:TrackPointExtension>
            <ns3:atemp>24.0</ns3:atemp>
            <ns3:hr>129</ns3:hr>
          </ns3:TrackPointExtension>
        </extensions>
      </trkpt>
      <trkpt lat="47.0134989358484745025634765625" lon="6.92265280522406101226806640625">
        <ele>944.4000244140625</ele>
        <time>2019-06-19T11:03:42.000Z</time>
        <extensions>
          <ns3:TrackPointExtension>
            <ns3:atemp>24.0</ns3:atemp>
            <ns3:hr>129</ns3:hr>
          </ns3:TrackPointExtension>
        </extensions>
      </trkpt>
      <trkpt lat="47.01354109682142734527587890625" lon="6.9225730933248996734619140625">
        <ele>943.79998779296875</ele>
        <time>2019-06-19T11:03:43.000Z</time>
        <extensions>
          <ns3:TrackPointExtension>
            <ns3:atemp>24.0</ns3:atemp>
            <ns3:hr>128</ns3:hr>
          </ns3:TrackPointExtension>
        </extensions>
      </trkpt>
      <trkpt lat="47.013611756265163421630859375" lon="6.92242942750453948974609375">
        <ele>943</ele>
        <time>2019-06-19T11:03:45.000Z</time>
        <extensions>
          <ns3:TrackPointExtension>
            <ns3:atemp>24.0</ns3:atemp>
            <ns3:hr>127</ns3:hr>
          </ns3:TrackPointExtension>
        </extensions>
      </trkpt>
      <trkpt lat="47.01362608931958675384521484375" lon="6.9223477877676486968994140625">
        <ele>942.20001220703125</ele>
        <time>2019-06-19T11:03:46.000Z</time>
        <extensions>
          <ns3:TrackPointExtension>
            <ns3:atemp>24.0</ns3:atemp>
            <ns3:hr>126</ns3:hr>
          </ns3:TrackPointExtension>
        </extensions>
      </trkpt>
      <trkpt lat="47.013631872832775115966796875" lon="6.92227226682007312774658203125">
        <ele>941.5999755859375</ele>
        <time>2019-06-19T11:03:47.000Z</time>
        <extensions>
          <ns3:TrackPointExtension>
            <ns3:atemp>24.0</ns3:atemp>
            <ns3:hr>126</ns3:hr>
          </ns3:TrackPointExtension>
        </extensions>
      </trkpt>
      <trkpt lat="47.01364696025848388671875" lon="6.92234552465379238128662109375">
        <ele>941.20001220703125</ele>
        <time>2019-06-19T11:03:48.000Z</time>
        <extensions>
          <ns3:TrackPointExtension>
            <ns3:atemp>24.0</ns3:atemp>
            <ns3:hr>127</ns3:hr>
          </ns3:TrackPointExtension>
        </extensions>
      </trkpt>
      <trkpt lat="47.0136270113289356231689453125" lon="6.92228467203676700592041015625">
        <ele>940.5999755859375</ele>
        <time>2019-06-19T11:03:49.000Z</time>
        <extensions>
          <ns3:TrackPointExtension>
            <ns3:atemp>24.0</ns3:atemp>
            <ns3:hr>128</ns3:hr>
          </ns3:TrackPointExtension>
        </extensions>
      </trkpt>
      <trkpt lat="47.01367470435798168182373046875" lon="6.9223890267312526702880859375">
        <ele>940</ele>
        <time>2019-06-19T11:03:50.000Z</time>
        <extensions>
          <ns3:TrackPointExtension>
            <ns3:atemp>24.0</ns3:atemp>
            <ns3:hr>130</ns3:hr>
          </ns3:TrackPointExtension>
        </extensions>
      </trkpt>
      <trkpt lat="47.0136065594851970672607421875" lon="6.92234334535896778106689453125">
        <ele>939.4000244140625</ele>
        <time>2019-06-19T11:03:52.000Z</time>
        <extensions>
          <ns3:TrackPointExtension>
            <ns3:atemp>24.0</ns3:atemp>
            <ns3:hr>127</ns3:hr>
          </ns3:TrackPointExtension>
        </extensions>
      </trkpt>
      <trkpt lat="47.01364452950656414031982421875" lon="6.92241467535495758056640625">
        <ele>939</ele>
        <time>2019-06-19T11:03:53.000Z</time>
        <extensions>
          <ns3:TrackPointExtension>
            <ns3:atemp>24.0</ns3:atemp>
            <ns3:hr>126</ns3:hr>
          </ns3:TrackPointExtension>
        </extensions>
      </trkpt>
      <trkpt lat="47.01362810097634792327880859375" lon="6.9224111549556255340576171875">
        <ele>938.4000244140625</ele>
        <time>2019-06-19T11:03:54.000Z</time>
        <extensions>
          <ns3:TrackPointExtension>
            <ns3:atemp>24.0</ns3:atemp>
            <ns3:hr>124</ns3:hr>
          </ns3:TrackPointExtension>
        </extensions>
      </trkpt>
      <trkpt lat="47.01361418701708316802978515625" lon="6.9224446825683116912841796875">
        <ele>937.4000244140625</ele>
        <time>2019-06-19T11:03:55.000Z</time>
        <extensions>
          <ns3:TrackPointExtension>
            <ns3:atemp>24.0</ns3:atemp>
            <ns3:hr>124</ns3:hr>
          </ns3:TrackPointExtension>
        </extensions>
      </trkpt>
      <trkpt lat="47.01355568133294582366943359375" lon="6.9224875979125499725341796875">
        <ele>936.5999755859375</ele>
        <time>2019-06-19T11:03:56.000Z</time>
        <extensions>
          <ns3:TrackPointExtension>
            <ns3:atemp>24.0</ns3:atemp>
            <ns3:hr>123</ns3:hr>
          </ns3:TrackPointExtension>
        </extensions>
      </trkpt>
      <trkpt lat="47.01350404880940914154052734375" lon="6.9225238077342510223388671875">
        <ele>936</ele>
        <time>2019-06-19T11:03:57.000Z</time>
        <extensions>
          <ns3:TrackPointExtension>
            <ns3:atemp>24.0</ns3:atemp>
            <ns3:hr>123</ns3:hr>
          </ns3:TrackPointExtension>
        </extensions>
      </trkpt>
      <trkpt lat="47.01343196444213390350341796875" lon="6.922565214335918426513671875">
        <ele>935.4000244140625</ele>
        <time>2019-06-19T11:03:58.000Z</time>
        <extensions>
          <ns3:TrackPointExtension>
            <ns3:atemp>24.0</ns3:atemp>
            <ns3:hr>123</ns3:hr>
          </ns3:TrackPointExtension>
        </extensions>
      </trkpt>
      <trkpt lat="47.01330087147653102874755859375" lon="6.92271432839334011077880859375">
        <ele>934.5999755859375</ele>
        <time>2019-06-19T11:04:00.000Z</time>
        <extensions>
          <ns3:TrackPointExtension>
            <ns3:atemp>24.0</ns3:atemp>
            <ns3:hr>122</ns3:hr>
          </ns3:TrackPointExtension>
        </extensions>
      </trkpt>
      <trkpt lat="47.0132454670965671539306640625" lon="6.9227843172848224639892578125">
        <ele>934</ele>
        <time>2019-06-19T11:04:01.000Z</time>
        <extensions>
          <ns3:TrackPointExtension>
            <ns3:atemp>24.0</ns3:atemp>
            <ns3:hr>122</ns3:hr>
          </ns3:TrackPointExtension>
        </extensions>
      </trkpt>
      <trkpt lat="47.01316575519740581512451171875" lon="6.9228473491966724395751953125">
        <ele>933.4000244140625</ele>
        <time>2019-06-19T11:04:02.000Z</time>
        <extensions>
          <ns3:TrackPointExtension>
            <ns3:atemp>24.0</ns3:atemp>
            <ns3:hr>122</ns3:hr>
          </ns3:TrackPointExtension>
        </extensions>
      </trkpt>
      <trkpt lat="47.01299945823848247528076171875" lon="6.9229834713041782379150390625">
        <ele>931.79998779296875</ele>
        <time>2019-06-19T11:04:04.000Z</time>
        <extensions>
          <ns3:TrackPointExtension>
            <ns3:atemp>24.0</ns3:atemp>
            <ns3:hr>122</ns3:hr>
          </ns3:TrackPointExtension>
        </extensions>
      </trkpt>
      <trkpt lat="47.01286316849291324615478515625" lon="6.923123113811016082763671875">
        <ele>929.5999755859375</ele>
        <time>2019-06-19T11:04:06.000Z</time>
        <extensions>
          <ns3:TrackPointExtension>
            <ns3:atemp>24.0</ns3:atemp>
            <ns3:hr>122</ns3:hr>
          </ns3:TrackPointExtension>
        </extensions>
      </trkpt>
      <trkpt lat="47.0128129608929157257080078125" lon="6.92319519817829132080078125">
        <ele>928.5999755859375</ele>
        <time>2019-06-19T11:04:07.000Z</time>
        <extensions>
          <ns3:TrackPointExtension>
            <ns3:atemp>24.0</ns3:atemp>
            <ns3:hr>122</ns3:hr>
          </ns3:TrackPointExtension>
        </extensions>
      </trkpt>
      <trkpt lat="47.01273710466921329498291015625" lon="6.92333743907511234283447265625">
        <ele>927.20001220703125</ele>
        <time>2019-06-19T11:04:09.000Z</time>
        <extensions>
          <ns3:TrackPointExtension>
            <ns3:atemp>24.0</ns3:atemp>
            <ns3:hr>122</ns3:hr>
          </ns3:TrackPointExtension>
        </extensions>
      </trkpt>
      <trkpt lat="47.012667618691921234130859375" lon="6.92351161502301692962646484375">
        <ele>925.79998779296875</ele>
        <time>2019-06-19T11:04:11.000Z</time>
        <extensions>
          <ns3:TrackPointExtension>
            <ns3:atemp>24.0</ns3:atemp>
            <ns3:hr>121</ns3:hr>
          </ns3:TrackPointExtension>
        </extensions>
      </trkpt>
      <trkpt lat="47.01262897811830043792724609375" lon="6.92360532470047473907470703125">
        <ele>925</ele>
        <time>2019-06-19T11:04:12.000Z</time>
        <extensions>
          <ns3:TrackPointExtension>
            <ns3:atemp>24.0</ns3:atemp>
            <ns3:hr>120</ns3:hr>
          </ns3:TrackPointExtension>
        </extensions>
      </trkpt>
      <trkpt lat="47.01257952488958835601806640625" lon="6.923701465129852294921875">
        <ele>924.4000244140625</ele>
        <time>2019-06-19T11:04:13.000Z</time>
        <extensions>
          <ns3:TrackPointExtension>
            <ns3:atemp>24.0</ns3:atemp>
            <ns3:hr>120</ns3:hr>
          </ns3:TrackPointExtension>
        </extensions>
      </trkpt>
      <trkpt lat="47.01252378523349761962890625" lon="6.9238015450537204742431640625">
        <ele>923.5999755859375</ele>
        <time>2019-06-19T11:04:14.000Z</time>
        <extensions>
          <ns3:TrackPointExtension>
            <ns3:atemp>24.0</ns3:atemp>
            <ns3:hr>121</ns3:hr>
          </ns3:TrackPointExtension>
        </extensions>
      </trkpt>
      <trkpt lat="47.01246083714067935943603515625" lon="6.92388192750513553619384765625">
        <ele>922.5999755859375</ele>
        <time>2019-06-19T11:04:15.000Z</time>
        <extensions>
          <ns3:TrackPointExtension>
            <ns3:atemp>24.0</ns3:atemp>
            <ns3:hr>122</ns3:hr>
          </ns3:TrackPointExtension>
        </extensions>
      </trkpt>
      <trkpt lat="47.01240702532231807708740234375" lon="6.92396138794720172882080078125">
        <ele>921.79998779296875</ele>
        <time>2019-06-19T11:04:16.000Z</time>
        <extensions>
          <ns3:TrackPointExtension>
            <ns3:atemp>24.0</ns3:atemp>
            <ns3:hr>122</ns3:hr>
          </ns3:TrackPointExtension>
        </extensions>
      </trkpt>
      <trkpt lat="47.0123640261590480804443359375" lon="6.92404210567474365234375">
        <ele>920.79998779296875</ele>
        <time>2019-06-19T11:04:17.000Z</time>
        <extensions>
          <ns3:TrackPointExtension>
            <ns3:atemp>24.0</ns3:atemp>
            <ns3:hr>122</ns3:hr>
          </ns3:TrackPointExtension>
        </extensions>
      </trkpt>
      <trkpt lat="47.0123247988522052764892578125" lon="6.92414243705570697784423828125">
        <ele>919.5999755859375</ele>
        <time>2019-06-19T11:04:18.000Z</time>
        <extensions>
          <ns3:TrackPointExtension>
            <ns3:atemp>24.0</ns3:atemp>
            <ns3:hr>122</ns3:hr>
          </ns3:TrackPointExtension>
        </extensions>
      </trkpt>
      <trkpt lat="47.0122966356575489044189453125" lon="6.92425609566271305084228515625">
        <ele>918.4000244140625</ele>
        <time>2019-06-19T11:04:19.000Z</time>
        <extensions>
          <ns3:TrackPointExtension>
            <ns3:atemp>24.0</ns3:atemp>
            <ns3:hr>122</ns3:hr>
          </ns3:TrackPointExtension>
        </extensions>
      </trkpt>
      <trkpt lat="47.0122862420976161956787109375" lon="6.92435215227305889129638671875">
        <ele>917.5999755859375</ele>
        <time>2019-06-19T11:04:20.000Z</time>
        <extensions>
          <ns3:TrackPointExtension>
            <ns3:atemp>24.0</ns3:atemp>
            <ns3:hr>122</ns3:hr>
          </ns3:TrackPointExtension>
        </extensions>
      </trkpt>
      <trkpt lat="47.01225548051297664642333984375" lon="6.92447519861161708831787109375">
        <ele>917</ele>
        <time>2019-06-19T11:04:21.000Z</time>
        <extensions>
          <ns3:TrackPointExtension>
            <ns3:atemp>24.0</ns3:atemp>
            <ns3:hr>122</ns3:hr>
          </ns3:TrackPointExtension>
        </extensions>
      </trkpt>
      <trkpt lat="47.0121722482144832611083984375" lon="6.92469379864633083343505859375">
        <ele>916.20001220703125</ele>
        <time>2019-06-19T11:04:23.000Z</time>
        <extensions>
          <ns3:TrackPointExtension>
            <ns3:atemp>24.0</ns3:atemp>
            <ns3:hr>123</ns3:hr>
          </ns3:TrackPointExtension>
        </extensions>
      </trkpt>
      <trkpt lat="47.01212690211832523345947265625" lon="6.92481122910976409912109375">
        <ele>915.4000244140625</ele>
        <time>2019-06-19T11:04:24.000Z</time>
        <extensions>
          <ns3:TrackPointExtension>
            <ns3:atemp>24.0</ns3:atemp>
            <ns3:hr>121</ns3:hr>
          </ns3:TrackPointExtension>
        </extensions>
      </trkpt>
      <trkpt lat="47.01202631928026676177978515625" lon="6.92503946833312511444091796875">
        <ele>913.5999755859375</ele>
        <time>2019-06-19T11:04:26.000Z</time>
        <extensions>
          <ns3:TrackPointExtension>
            <ns3:atemp>24.0</ns3:atemp>
            <ns3:hr>122</ns3:hr>
          </ns3:TrackPointExtension>
        </extensions>
      </trkpt>
      <trkpt lat="47.0119697414338588714599609375" lon="6.9251634366810321807861328125">
        <ele>912.79998779296875</ele>
        <time>2019-06-19T11:04:27.000Z</time>
        <extensions>
          <ns3:TrackPointExtension>
            <ns3:atemp>24.0</ns3:atemp>
            <ns3:hr>121</ns3:hr>
          </ns3:TrackPointExtension>
        </extensions>
      </trkpt>
      <trkpt lat="47.01192565262317657470703125" lon="6.9252757541835308074951171875">
        <ele>912.20001220703125</ele>
        <time>2019-06-19T11:04:28.000Z</time>
        <extensions>
          <ns3:TrackPointExtension>
            <ns3:atemp>24.0</ns3:atemp>
            <ns3:hr>122</ns3:hr>
          </ns3:TrackPointExtension>
        </extensions>
      </trkpt>
      <trkpt lat="47.01188868843019008636474609375" lon="6.925384886562824249267578125">
        <ele>911.4000244140625</ele>
        <time>2019-06-19T11:04:29.000Z</time>
        <extensions>
          <ns3:TrackPointExtension>
            <ns3:atemp>24.0</ns3:atemp>
            <ns3:hr>120</ns3:hr>
          </ns3:TrackPointExtension>
        </extensions>
      </trkpt>
      <trkpt lat="47.0118624530732631683349609375" lon="6.92548446357250213623046875">
        <ele>910.5999755859375</ele>
        <time>2019-06-19T11:04:30.000Z</time>
        <extensions>
          <ns3:TrackPointExtension>
            <ns3:atemp>24.0</ns3:atemp>
            <ns3:hr>120</ns3:hr>
          </ns3:TrackPointExtension>
        </extensions>
      </trkpt>
      <trkpt lat="47.01185264624655246734619140625" lon="6.9255751557648181915283203125">
        <ele>909.79998779296875</ele>
        <time>2019-06-19T11:04:31.000Z</time>
        <extensions>
          <ns3:TrackPointExtension>
            <ns3:atemp>24.0</ns3:atemp>
            <ns3:hr>122</ns3:hr>
          </ns3:TrackPointExtension>
        </extensions>
      </trkpt>
      <trkpt lat="47.01184652745723724365234375" lon="6.9256670214235782623291015625">
        <ele>908.79998779296875</ele>
        <time>2019-06-19T11:04:32.000Z</time>
        <extensions>
          <ns3:TrackPointExtension>
            <ns3:atemp>24.0</ns3:atemp>
            <ns3:hr>121</ns3:hr>
          </ns3:TrackPointExtension>
        </extensions>
      </trkpt>
      <trkpt lat="47.01183982193470001220703125" lon="6.92577724345028400421142578125">
        <ele>907.79998779296875</ele>
        <time>2019-06-19T11:04:33.000Z</time>
        <extensions>
          <ns3:TrackPointExtension>
            <ns3:atemp>24.0</ns3:atemp>
            <ns3:hr>122</ns3:hr>
          </ns3:TrackPointExtension>
        </extensions>
      </trkpt>
      <trkpt lat="47.01180906035006046295166015625" lon="6.9260157085955142974853515625">
        <ele>906.20001220703125</ele>
        <time>2019-06-19T11:04:35.000Z</time>
        <extensions>
          <ns3:TrackPointExtension>
            <ns3:atemp>24.0</ns3:atemp>
            <ns3:hr>122</ns3:hr>
          </ns3:TrackPointExtension>
        </extensions>
      </trkpt>
      <trkpt lat="47.011787854135036468505859375" lon="6.92611905746161937713623046875">
        <ele>905.4000244140625</ele>
        <time>2019-06-19T11:04:36.000Z</time>
        <extensions>
          <ns3:TrackPointExtension>
            <ns3:atemp>24.0</ns3:atemp>
            <ns3:hr>122</ns3:hr>
          </ns3:TrackPointExtension>
        </extensions>
      </trkpt>
      <trkpt lat="47.011761367321014404296875" lon="6.9262322969734668731689453125">
        <ele>904.79998779296875</ele>
        <time>2019-06-19T11:04:37.000Z</time>
        <extensions>
          <ns3:TrackPointExtension>
            <ns3:atemp>24.0</ns3:atemp>
            <ns3:hr>122</ns3:hr>
          </ns3:TrackPointExtension>
        </extensions>
      </trkpt>
      <trkpt lat="47.0117249898612499237060546875" lon="6.926341764628887176513671875">
        <ele>904.4000244140625</ele>
        <time>2019-06-19T11:04:38.000Z</time>
        <extensions>
          <ns3:TrackPointExtension>
            <ns3:atemp>24.0</ns3:atemp>
            <ns3:hr>122</ns3:hr>
          </ns3:TrackPointExtension>
        </extensions>
      </trkpt>
      <trkpt lat="47.01170009560883045196533203125" lon="6.9264569319784641265869140625">
        <ele>903.5999755859375</ele>
        <time>2019-06-19T11:04:39.000Z</time>
        <extensions>
          <ns3:TrackPointExtension>
            <ns3:atemp>24.0</ns3:atemp>
            <ns3:hr>122</ns3:hr>
          </ns3:TrackPointExtension>
        </extensions>
      </trkpt>
      <trkpt lat="47.01166220940649509429931640625" lon="6.92659246735274791717529296875">
        <ele>902.79998779296875</ele>
        <time>2019-06-19T11:04:40.000Z</time>
        <extensions>
          <ns3:TrackPointExtension>
            <ns3:atemp>24.0</ns3:atemp>
            <ns3:hr>122</ns3:hr>
          </ns3:TrackPointExtension>
        </extensions>
      </trkpt>
      <trkpt lat="47.01163438148796558380126953125" lon="6.9267191179096698760986328125">
        <ele>901.79998779296875</ele>
        <time>2019-06-19T11:04:41.000Z</time>
        <extensions>
          <ns3:TrackPointExtension>
            <ns3:atemp>24.0</ns3:atemp>
            <ns3:hr>122</ns3:hr>
          </ns3:TrackPointExtension>
        </extensions>
      </trkpt>
      <trkpt lat="47.0116019435226917266845703125" lon="6.926841996610164642333984375">
        <ele>900.79998779296875</ele>
        <time>2019-06-19T11:04:42.000Z</time>
        <extensions>
          <ns3:TrackPointExtension>
            <ns3:atemp>24.0</ns3:atemp>
            <ns3:hr>122</ns3:hr>
          </ns3:TrackPointExtension>
        </extensions>
      </trkpt>
      <trkpt lat="47.01157696545124053955078125" lon="6.926960684359073638916015625">
        <ele>899.79998779296875</ele>
        <time>2019-06-19T11:04:43.000Z</time>
        <extensions>
          <ns3:TrackPointExtension>
            <ns3:atemp>24.0</ns3:atemp>
            <ns3:hr>122</ns3:hr>
          </ns3:TrackPointExtension>
        </extensions>
      </trkpt>
      <trkpt lat="47.0115499757230281829833984375" lon="6.92707979120314121246337890625">
        <ele>898.79998779296875</ele>
        <time>2019-06-19T11:04:44.000Z</time>
        <extensions>
          <ns3:TrackPointExtension>
            <ns3:atemp>24.0</ns3:atemp>
            <ns3:hr>122</ns3:hr>
          </ns3:TrackPointExtension>
        </extensions>
      </trkpt>
      <trkpt lat="47.01153178699314594268798828125" lon="6.927189342677593231201171875">
        <ele>898.20001220703125</ele>
        <time>2019-06-19T11:04:45.000Z</time>
        <extensions>
          <ns3:TrackPointExtension>
            <ns3:atemp>24.0</ns3:atemp>
            <ns3:hr>121</ns3:hr>
          </ns3:TrackPointExtension>
        </extensions>
      </trkpt>
      <trkpt lat="47.0115268416702747344970703125" lon="6.92727844230830669403076171875">
        <ele>897.4000244140625</ele>
        <time>2019-06-19T11:04:46.000Z</time>
        <extensions>
          <ns3:TrackPointExtension>
            <ns3:atemp>24.0</ns3:atemp>
            <ns3:hr>121</ns3:hr>
          </ns3:TrackPointExtension>
        </extensions>
      </trkpt>
      <trkpt lat="47.011524327099323272705078125" lon="6.92746619693934917449951171875">
        <ele>895.79998779296875</ele>
        <time>2019-06-19T11:04:48.000Z</time>
        <extensions>
          <ns3:TrackPointExtension>
            <ns3:atemp>24.0</ns3:atemp>
            <ns3:hr>120</ns3:hr>
          </ns3:TrackPointExtension>
        </extensions>
      </trkpt>
      <trkpt lat="47.01149658299982547760009765625" lon="6.92770172841846942901611328125">
        <ele>894</ele>
        <time>2019-06-19T11:04:50.000Z</time>
        <extensions>
          <ns3:TrackPointExtension>
            <ns3:atemp>24.0</ns3:atemp>
            <ns3:hr>120</ns3:hr>
          </ns3:TrackPointExtension>
        </extensions>
      </trkpt>
      <trkpt lat="47.01146523468196392059326171875" lon="6.92793206311762332916259765625">
        <ele>892.5999755859375</ele>
        <time>2019-06-19T11:04:52.000Z</time>
        <extensions>
          <ns3:TrackPointExtension>
            <ns3:atemp>24.0</ns3:atemp>
            <ns3:hr>120</ns3:hr>
          </ns3:TrackPointExtension>
        </extensions>
      </trkpt>
      <trkpt lat="47.0114510692656040191650390625" lon="6.92802526988089084625244140625">
        <ele>891.79998779296875</ele>
        <time>2019-06-19T11:04:53.000Z</time>
        <extensions>
          <ns3:TrackPointExtension>
            <ns3:atemp>24.0</ns3:atemp>
            <ns3:hr>121</ns3:hr>
          </ns3:TrackPointExtension>
        </extensions>
      </trkpt>
      <trkpt lat="47.01145836152136325836181640625" lon="6.92809760570526123046875">
        <ele>891.20001220703125</ele>
        <time>2019-06-19T11:04:54.000Z</time>
        <extensions>
          <ns3:TrackPointExtension>
            <ns3:atemp>24.0</ns3:atemp>
            <ns3:hr>121</ns3:hr>
          </ns3:TrackPointExtension>
        </extensions>
      </trkpt>
      <trkpt lat="47.0115114189684391021728515625" lon="6.92820967175066471099853515625">
        <ele>890</ele>
        <time>2019-06-19T11:04:56.000Z</time>
        <extensions>
          <ns3:TrackPointExtension>
            <ns3:atemp>24.0</ns3:atemp>
            <ns3:hr>122</ns3:hr>
          </ns3:TrackPointExtension>
        </extensions>
      </trkpt>
      <trkpt lat="47.01155559159815311431884765625" lon="6.92826993763446807861328125">
        <ele>889.4000244140625</ele>
        <time>2019-06-19T11:04:57.000Z</time>
        <extensions>
          <ns3:TrackPointExtension>
            <ns3:atemp>24.0</ns3:atemp>
            <ns3:hr>122</ns3:hr>
          </ns3:TrackPointExtension>
        </extensions>
      </trkpt>
      <trkpt lat="47.0116073079407215118408203125" lon="6.9283488951623439788818359375">
        <ele>889</ele>
        <time>2019-06-19T11:04:58.000Z</time>
        <extensions>
          <ns3:TrackPointExtension>
            <ns3:atemp>24.0</ns3:atemp>
            <ns3:hr>122</ns3:hr>
          </ns3:TrackPointExtension>
        </extensions>
      </trkpt>
      <trkpt lat="47.0117627084255218505859375" lon="6.9286325387656688690185546875">
        <ele>887.5999755859375</ele>
        <time>2019-06-19T11:05:01.000Z</time>
        <extensions>
          <ns3:TrackPointExtension>
            <ns3:atemp>24.0</ns3:atemp>
            <ns3:hr>122</ns3:hr>
          </ns3:TrackPointExtension>
        </extensions>
      </trkpt>
      <trkpt lat="47.0118460245430469512939453125" lon="6.92881048657000064849853515625">
        <ele>886.5999755859375</ele>
        <time>2019-06-19T11:05:03.000Z</time>
        <extensions>
          <ns3:TrackPointExtension>
            <ns3:atemp>24.0</ns3:atemp>
            <ns3:hr>121</ns3:hr>
          </ns3:TrackPointExtension>
        </extensions>
      </trkpt>
      <trkpt lat="47.01191349886357784271240234375" lon="6.92911257036030292510986328125">
        <ele>885.4000244140625</ele>
        <time>2019-06-19T11:05:05.000Z</time>
        <extensions>
          <ns3:TrackPointExtension>
            <ns3:atemp>24.0</ns3:atemp>
            <ns3:hr>120</ns3:hr>
          </ns3:TrackPointExtension>
        </extensions>
      </trkpt>
      <trkpt lat="47.0119281671941280364990234375" lon="6.929330416023731231689453125">
        <ele>884.20001220703125</ele>
        <time>2019-06-19T11:05:07.000Z</time>
        <extensions>
          <ns3:TrackPointExtension>
            <ns3:atemp>24.0</ns3:atemp>
            <ns3:hr>120</ns3:hr>
          </ns3:TrackPointExtension>
        </extensions>
      </trkpt>
      <trkpt lat="47.011917270720005035400390625" lon="6.92944248206913471221923828125">
        <ele>883.4000244140625</ele>
        <time>2019-06-19T11:05:08.000Z</time>
        <extensions>
          <ns3:TrackPointExtension>
            <ns3:atemp>24.0</ns3:atemp>
            <ns3:hr>121</ns3:hr>
          </ns3:TrackPointExtension>
        </extensions>
      </trkpt>
      <trkpt lat="47.01190126128494739532470703125" lon="6.92955982871353626251220703125">
        <ele>882.79998779296875</ele>
        <time>2019-06-19T11:05:09.000Z</time>
        <extensions>
          <ns3:TrackPointExtension>
            <ns3:atemp>24.0</ns3:atemp>
            <ns3:hr>121</ns3:hr>
          </ns3:TrackPointExtension>
        </extensions>
      </trkpt>
      <trkpt lat="47.011874355375766754150390625" lon="6.9297490082681179046630859375">
        <ele>881.20001220703125</ele>
        <time>2019-06-19T11:05:11.000Z</time>
        <extensions>
          <ns3:TrackPointExtension>
            <ns3:atemp>24.0</ns3:atemp>
            <ns3:hr>121</ns3:hr>
          </ns3:TrackPointExtension>
        </extensions>
      </trkpt>
      <trkpt lat="47.01185801066458225250244140625" lon="6.9298304803669452667236328125">
        <ele>880.5999755859375</ele>
        <time>2019-06-19T11:05:12.000Z</time>
        <extensions>
          <ns3:TrackPointExtension>
            <ns3:atemp>24.0</ns3:atemp>
            <ns3:hr>121</ns3:hr>
          </ns3:TrackPointExtension>
        </extensions>
      </trkpt>
      <trkpt lat="47.01184518635272979736328125" lon="6.9299116171896457672119140625">
        <ele>879.79998779296875</ele>
        <time>2019-06-19T11:05:13.000Z</time>
        <extensions>
          <ns3:TrackPointExtension>
            <ns3:atemp>24.0</ns3:atemp>
            <ns3:hr>120</ns3:hr>
          </ns3:TrackPointExtension>
        </extensions>
      </trkpt>
      <trkpt lat="47.01182699762284755706787109375" lon="6.92998118698596954345703125">
        <ele>879.20001220703125</ele>
        <time>2019-06-19T11:05:14.000Z</time>
        <extensions>
          <ns3:TrackPointExtension>
            <ns3:atemp>24.0</ns3:atemp>
            <ns3:hr>119</ns3:hr>
          </ns3:TrackPointExtension>
        </extensions>
      </trkpt>
      <trkpt lat="47.01181056909263134002685546875" lon="6.93006106652319431304931640625">
        <ele>878.20001220703125</ele>
        <time>2019-06-19T11:05:15.000Z</time>
        <extensions>
          <ns3:TrackPointExtension>
            <ns3:atemp>24.0</ns3:atemp>
            <ns3:hr>119</ns3:hr>
          </ns3:TrackPointExtension>
        </extensions>
      </trkpt>
      <trkpt lat="47.0117605291306972503662109375" lon="6.930182017385959625244140625">
        <ele>877.4000244140625</ele>
        <time>2019-06-19T11:05:16.000Z</time>
        <extensions>
          <ns3:TrackPointExtension>
            <ns3:atemp>24.0</ns3:atemp>
            <ns3:hr>118</ns3:hr>
          </ns3:TrackPointExtension>
        </extensions>
      </trkpt>
      <trkpt lat="47.01172088272869586944580078125" lon="6.93027966655790805816650390625">
        <ele>876.5999755859375</ele>
        <time>2019-06-19T11:05:17.000Z</time>
        <extensions>
          <ns3:TrackPointExtension>
            <ns3:atemp>24.0</ns3:atemp>
            <ns3:hr>118</ns3:hr>
          </ns3:TrackPointExtension>
        </extensions>
      </trkpt>
      <trkpt lat="47.01163672842085361480712890625" lon="6.93047630600631237030029296875">
        <ele>875.4000244140625</ele>
        <time>2019-06-19T11:05:19.000Z</time>
        <extensions>
          <ns3:TrackPointExtension>
            <ns3:atemp>24.0</ns3:atemp>
            <ns3:hr>118</ns3:hr>
          </ns3:TrackPointExtension>
        </extensions>
      </trkpt>
      <trkpt lat="47.0116016082465648651123046875" lon="6.93054386414587497711181640625">
        <ele>874.79998779296875</ele>
        <time>2019-06-19T11:05:20.000Z</time>
        <extensions>
          <ns3:TrackPointExtension>
            <ns3:atemp>24.0</ns3:atemp>
            <ns3:hr>118</ns3:hr>
          </ns3:TrackPointExtension>
        </extensions>
      </trkpt>
      <trkpt lat="47.0115687511861324310302734375" lon="6.9305949099361896514892578125">
        <ele>874.20001220703125</ele>
        <time>2019-06-19T11:05:21.000Z</time>
        <extensions>
          <ns3:TrackPointExtension>
            <ns3:atemp>24.0</ns3:atemp>
            <ns3:hr>118</ns3:hr>
          </ns3:TrackPointExtension>
        </extensions>
      </trkpt>
      <trkpt lat="47.01147847808897495269775390625" lon="6.93064830265939235687255859375">
        <ele>873</ele>
        <time>2019-06-19T11:05:23.000Z</time>
        <extensions>
          <ns3:TrackPointExtension>
            <ns3:atemp>24.0</ns3:atemp>
            <ns3:hr>118</ns3:hr>
          </ns3:TrackPointExtension>
        </extensions>
      </trkpt>
      <trkpt lat="47.01143170706927776336669921875" lon="6.93064863793551921844482421875">
        <ele>872.5999755859375</ele>
        <time>2019-06-19T11:05:24.000Z</time>
        <extensions>
          <ns3:TrackPointExtension>
            <ns3:atemp>24.0</ns3:atemp>
            <ns3:hr>118</ns3:hr>
          </ns3:TrackPointExtension>
        </extensions>
      </trkpt>
      <trkpt lat="47.01140354387462139129638671875" lon="6.93062081001698970794677734375">
        <ele>872.20001220703125</ele>
        <time>2019-06-19T11:05:25.000Z</time>
        <extensions>
          <ns3:TrackPointExtension>
            <ns3:atemp>24.0</ns3:atemp>
            <ns3:hr>118</ns3:hr>
          </ns3:TrackPointExtension>
        </extensions>
      </trkpt>
      <trkpt lat="47.01139633543789386749267578125" lon="6.9305687583982944488525390625">
        <ele>871.79998779296875</ele>
        <time>2019-06-19T11:05:26.000Z</time>
        <extensions>
          <ns3:TrackPointExtension>
            <ns3:atemp>24.0</ns3:atemp>
            <ns3:hr>118</ns3:hr>
          </ns3:TrackPointExtension>
        </extensions>
      </trkpt>
      <trkpt lat="47.01139968819916248321533203125" lon="6.9305060617625713348388671875">
        <ele>871.20001220703125</ele>
        <time>2019-06-19T11:05:27.000Z</time>
        <extensions>
          <ns3:TrackPointExtension>
            <ns3:atemp>24.0</ns3:atemp>
            <ns3:hr>118</ns3:hr>
          </ns3:TrackPointExtension>
        </extensions>
      </trkpt>
      <trkpt lat="47.0114101655781269073486328125" lon="6.93044244311749935150146484375">
        <ele>870.5999755859375</ele>
        <time>2019-06-19T11:05:28.000Z</time>
        <extensions>
          <ns3:TrackPointExtension>
            <ns3:atemp>24.0</ns3:atemp>
            <ns3:hr>118</ns3:hr>
          </ns3:TrackPointExtension>
        </extensions>
      </trkpt>
      <trkpt lat="47.011438496410846710205078125" lon="6.9302720390260219573974609375">
        <ele>869</ele>
        <time>2019-06-19T11:05:30.000Z</time>
        <extensions>
          <ns3:TrackPointExtension>
            <ns3:atemp>24.0</ns3:atemp>
            <ns3:hr>119</ns3:hr>
          </ns3:TrackPointExtension>
        </extensions>
      </trkpt>
      <trkpt lat="47.01141125522553920745849609375" lon="6.93006609566509723663330078125">
        <ele>867.20001220703125</ele>
        <time>2019-06-19T11:05:32.000Z</time>
        <extensions>
          <ns3:TrackPointExtension>
            <ns3:atemp>24.0</ns3:atemp>
            <ns3:hr>119</ns3:hr>
          </ns3:TrackPointExtension>
        </extensions>
      </trkpt>
      <trkpt lat="47.0113779790699481964111328125" lon="6.9299501739442348480224609375">
        <ele>866.20001220703125</ele>
        <time>2019-06-19T11:05:33.000Z</time>
        <extensions>
          <ns3:TrackPointExtension>
            <ns3:atemp>24.0</ns3:atemp>
            <ns3:hr>119</ns3:hr>
          </ns3:TrackPointExtension>
        </extensions>
      </trkpt>
      <trkpt lat="47.01133648864924907684326171875" lon="6.92983324639499187469482421875">
        <ele>865.4000244140625</ele>
        <time>2019-06-19T11:05:34.000Z</time>
        <extensions>
          <ns3:TrackPointExtension>
            <ns3:atemp>24.0</ns3:atemp>
            <ns3:hr>118</ns3:hr>
          </ns3:TrackPointExtension>
        </extensions>
      </trkpt>
      <trkpt lat="47.011238001286983489990234375" lon="6.92960835993289947509765625">
        <ele>863.4000244140625</ele>
        <time>2019-06-19T11:05:36.000Z</time>
        <extensions>
          <ns3:TrackPointExtension>
            <ns3:atemp>24.0</ns3:atemp>
            <ns3:hr>118</ns3:hr>
          </ns3:TrackPointExtension>
        </extensions>
      </trkpt>
      <trkpt lat="47.01116281561553478240966796875" lon="6.9294827990233898162841796875">
        <ele>862.20001220703125</ele>
        <time>2019-06-19T11:05:37.000Z</time>
        <extensions>
          <ns3:TrackPointExtension>
            <ns3:atemp>24.0</ns3:atemp>
            <ns3:hr>118</ns3:hr>
          </ns3:TrackPointExtension>
        </extensions>
      </trkpt>
      <trkpt lat="47.01108704321086406707763671875" lon="6.92938196472823619842529296875">
        <ele>861</ele>
        <time>2019-06-19T11:05:38.000Z</time>
        <extensions>
          <ns3:TrackPointExtension>
            <ns3:atemp>24.0</ns3:atemp>
            <ns3:hr>119</ns3:hr>
          </ns3:TrackPointExtension>
        </extensions>
      </trkpt>
      <trkpt lat="47.01100355945527553558349609375" lon="6.92929311655461788177490234375">
        <ele>860.20001220703125</ele>
        <time>2019-06-19T11:05:39.000Z</time>
        <extensions>
          <ns3:TrackPointExtension>
            <ns3:atemp>24.0</ns3:atemp>
            <ns3:hr>119</ns3:hr>
          </ns3:TrackPointExtension>
        </extensions>
      </trkpt>
      <trkpt lat="47.01091504655778408050537109375" lon="6.92920762114226818084716796875">
        <ele>859.4000244140625</ele>
        <time>2019-06-19T11:05:40.000Z</time>
        <extensions>
          <ns3:TrackPointExtension>
            <ns3:atemp>24.0</ns3:atemp>
            <ns3:hr>119</ns3:hr>
          </ns3:TrackPointExtension>
        </extensions>
      </trkpt>
      <trkpt lat="47.0108341611921787261962890625" lon="6.9291173480451107025146484375">
        <ele>858.20001220703125</ele>
        <time>2019-06-19T11:05:41.000Z</time>
        <extensions>
          <ns3:TrackPointExtension>
            <ns3:atemp>24.0</ns3:atemp>
            <ns3:hr>119</ns3:hr>
          </ns3:TrackPointExtension>
        </extensions>
      </trkpt>
      <trkpt lat="47.010756544768810272216796875" lon="6.92902095615863800048828125">
        <ele>857</ele>
        <time>2019-06-19T11:05:42.000Z</time>
        <extensions>
          <ns3:TrackPointExtension>
            <ns3:atemp>24.0</ns3:atemp>
            <ns3:hr>118</ns3:hr>
          </ns3:TrackPointExtension>
        </extensions>
      </trkpt>
      <trkpt lat="47.01068907044827938079833984375" lon="6.928905285894870758056640625">
        <ele>856</ele>
        <time>2019-06-19T11:05:43.000Z</time>
        <extensions>
          <ns3:TrackPointExtension>
            <ns3:atemp>24.0</ns3:atemp>
            <ns3:hr>118</ns3:hr>
          </ns3:TrackPointExtension>
        </extensions>
      </trkpt>
      <trkpt lat="47.010627128183841705322265625" lon="6.92878148518502712249755859375">
        <ele>855</ele>
        <time>2019-06-19T11:05:44.000Z</time>
        <extensions>
          <ns3:TrackPointExtension>
            <ns3:atemp>24.0</ns3:atemp>
            <ns3:hr>118</ns3:hr>
          </ns3:TrackPointExtension>
        </extensions>
      </trkpt>
      <trkpt lat="47.010574154555797576904296875" lon="6.9286486320197582244873046875">
        <ele>854</ele>
        <time>2019-06-19T11:05:45.000Z</time>
        <extensions>
          <ns3:TrackPointExtension>
            <ns3:atemp>24.0</ns3:atemp>
            <ns3:hr>118</ns3:hr>
          </ns3:TrackPointExtension>
        </extensions>
      </trkpt>
      <trkpt lat="47.01052294112741947174072265625" lon="6.92850463092327117919921875">
        <ele>853</ele>
        <time>2019-06-19T11:05:46.000Z</time>
        <extensions>
          <ns3:TrackPointExtension>
            <ns3:atemp>24.0</ns3:atemp>
            <ns3:hr>117</ns3:hr>
          </ns3:TrackPointExtension>
        </extensions>
      </trkpt>
      <trkpt lat="47.010487653315067291259765625" lon="6.9283643178641796112060546875">
        <ele>851.4000244140625</ele>
        <time>2019-06-19T11:05:47.000Z</time>
        <extensions>
          <ns3:TrackPointExtension>
            <ns3:atemp>24.0</ns3:atemp>
            <ns3:hr>117</ns3:hr>
          </ns3:TrackPointExtension>
        </extensions>
      </trkpt>
      <trkpt lat="47.01044565998017787933349609375" lon="6.92820849828422069549560546875">
        <ele>850.20001220703125</ele>
        <time>2019-06-19T11:05:48.000Z</time>
        <extensions>
          <ns3:TrackPointExtension>
            <ns3:atemp>24.0</ns3:atemp>
            <ns3:hr>117</ns3:hr>
          </ns3:TrackPointExtension>
        </extensions>
      </trkpt>
      <trkpt lat="47.010408528149127960205078125" lon="6.92805326543748378753662109375">
        <ele>849.20001220703125</ele>
        <time>2019-06-19T11:05:49.000Z</time>
        <extensions>
          <ns3:TrackPointExtension>
            <ns3:atemp>24.0</ns3:atemp>
            <ns3:hr>118</ns3:hr>
          </ns3:TrackPointExtension>
        </extensions>
      </trkpt>
      <trkpt lat="47.0103798620402812957763671875" lon="6.92789484746754169464111328125">
        <ele>848</ele>
        <time>2019-06-19T11:05:50.000Z</time>
        <extensions>
          <ns3:TrackPointExtension>
            <ns3:atemp>24.0</ns3:atemp>
            <ns3:hr>118</ns3:hr>
          </ns3:TrackPointExtension>
        </extensions>
      </trkpt>
      <trkpt lat="47.01035211794078350067138671875" lon="6.9277450628578662872314453125">
        <ele>846.79998779296875</ele>
        <time>2019-06-19T11:05:51.000Z</time>
        <extensions>
          <ns3:TrackPointExtension>
            <ns3:atemp>24.0</ns3:atemp>
            <ns3:hr>119</ns3:hr>
          </ns3:TrackPointExtension>
        </extensions>
      </trkpt>
      <trkpt lat="47.0103275589644908905029296875" lon="6.92760483361780643463134765625">
        <ele>845.79998779296875</ele>
        <time>2019-06-19T11:05:52.000Z</time>
        <extensions>
          <ns3:TrackPointExtension>
            <ns3:atemp>24.0</ns3:atemp>
            <ns3:hr>119</ns3:hr>
          </ns3:TrackPointExtension>
        </extensions>
      </trkpt>
      <trkpt lat="47.01030115596950054168701171875" lon="6.92746804095804691314697265625">
        <ele>844.4000244140625</ele>
        <time>2019-06-19T11:05:53.000Z</time>
        <extensions>
          <ns3:TrackPointExtension>
            <ns3:atemp>24.0</ns3:atemp>
            <ns3:hr>119</ns3:hr>
          </ns3:TrackPointExtension>
        </extensions>
      </trkpt>
      <trkpt lat="47.01026670634746551513671875" lon="6.9273350201547145843505859375">
        <ele>843.20001220703125</ele>
        <time>2019-06-19T11:05:54.000Z</time>
        <extensions>
          <ns3:TrackPointExtension>
            <ns3:atemp>24.0</ns3:atemp>
            <ns3:hr>119</ns3:hr>
          </ns3:TrackPointExtension>
        </extensions>
      </trkpt>
      <trkpt lat="47.01022990979254245758056640625" lon="6.927192024886608123779296875">
        <ele>842.20001220703125</ele>
        <time>2019-06-19T11:05:55.000Z</time>
        <extensions>
          <ns3:TrackPointExtension>
            <ns3:atemp>24.0</ns3:atemp>
            <ns3:hr>119</ns3:hr>
          </ns3:TrackPointExtension>
        </extensions>
      </trkpt>
      <trkpt lat="47.0101887546479701995849609375" lon="6.92704793997108936309814453125">
        <ele>841.20001220703125</ele>
        <time>2019-06-19T11:05:56.000Z</time>
        <extensions>
          <ns3:TrackPointExtension>
            <ns3:atemp>24.0</ns3:atemp>
            <ns3:hr>119</ns3:hr>
          </ns3:TrackPointExtension>
        </extensions>
      </trkpt>
      <trkpt lat="47.01015078462660312652587890625" lon="6.9269018433988094329833984375">
        <ele>839.79998779296875</ele>
        <time>2019-06-19T11:05:57.000Z</time>
        <extensions>
          <ns3:TrackPointExtension>
            <ns3:atemp>24.0</ns3:atemp>
            <ns3:hr>119</ns3:hr>
          </ns3:TrackPointExtension>
        </extensions>
      </trkpt>
      <trkpt lat="47.01011742465198040008544921875" lon="6.92675792612135410308837890625">
        <ele>838.79998779296875</ele>
        <time>2019-06-19T11:05:58.000Z</time>
        <extensions>
          <ns3:TrackPointExtension>
            <ns3:atemp>24.0</ns3:atemp>
            <ns3:hr>118</ns3:hr>
          </ns3:TrackPointExtension>
        </extensions>
      </trkpt>
      <trkpt lat="47.010071240365505218505859375" lon="6.92649590782821178436279296875">
        <ele>837</ele>
        <time>2019-06-19T11:06:00.000Z</time>
        <extensions>
          <ns3:TrackPointExtension>
            <ns3:atemp>24.0</ns3:atemp>
            <ns3:hr>117</ns3:hr>
          </ns3:TrackPointExtension>
        </extensions>
      </trkpt>
      <trkpt lat="47.01006017625331878662109375" lon="6.92639297805726528167724609375">
        <ele>836</ele>
        <time>2019-06-19T11:06:01.000Z</time>
        <extensions>
          <ns3:TrackPointExtension>
            <ns3:atemp>24.0</ns3:atemp>
            <ns3:hr>117</ns3:hr>
          </ns3:TrackPointExtension>
        </extensions>
      </trkpt>
      <trkpt lat="47.01005288399755954742431640625" lon="6.92630765028297901153564453125">
        <ele>835.4000244140625</ele>
        <time>2019-06-19T11:06:02.000Z</time>
        <extensions>
          <ns3:TrackPointExtension>
            <ns3:atemp>24.0</ns3:atemp>
            <ns3:hr>117</ns3:hr>
          </ns3:TrackPointExtension>
        </extensions>
      </trkpt>
      <trkpt lat="47.01004064641892910003662109375" lon="6.92619516514241695404052734375">
        <ele>834.4000244140625</ele>
        <time>2019-06-19T11:06:04.000Z</time>
        <extensions>
          <ns3:TrackPointExtension>
            <ns3:atemp>24.0</ns3:atemp>
            <ns3:hr>117</ns3:hr>
          </ns3:TrackPointExtension>
        </extensions>
      </trkpt>
      <trkpt lat="47.0100308395922183990478515625" lon="6.9261618889868259429931640625">
        <ele>833.79998779296875</ele>
        <time>2019-06-19T11:06:05.000Z</time>
        <extensions>
          <ns3:TrackPointExtension>
            <ns3:atemp>24.0</ns3:atemp>
            <ns3:hr>117</ns3:hr>
          </ns3:TrackPointExtension>
        </extensions>
      </trkpt>
      <trkpt lat="47.0100073702633380889892578125" lon="6.92614831030368804931640625">
        <ele>832.5999755859375</ele>
        <time>2019-06-19T11:06:07.000Z</time>
        <extensions>
          <ns3:TrackPointExtension>
            <ns3:atemp>24.0</ns3:atemp>
            <ns3:hr>116</ns3:hr>
          </ns3:TrackPointExtension>
        </extensions>
      </trkpt>
      <trkpt lat="47.00999253429472446441650390625" lon="6.92616641521453857421875">
        <ele>832.20001220703125</ele>
        <time>2019-06-19T11:06:08.000Z</time>
        <extensions>
          <ns3:TrackPointExtension>
            <ns3:atemp>24.0</ns3:atemp>
            <ns3:hr>116</ns3:hr>
          </ns3:TrackPointExtension>
        </extensions>
      </trkpt>
      <trkpt lat="47.00999001972377300262451171875" lon="6.92627026699483394622802734375">
        <ele>831.5999755859375</ele>
        <time>2019-06-19T11:06:11.000Z</time>
        <extensions>
          <ns3:TrackPointExtension>
            <ns3:atemp>24.0</ns3:atemp>
            <ns3:hr>116</ns3:hr>
          </ns3:TrackPointExtension>
        </extensions>
      </trkpt>
      <trkpt lat="47.00999286957085132598876953125" lon="6.9263050518929958343505859375">
        <ele>831.4000244140625</ele>
        <time>2019-06-19T11:06:12.000Z</time>
        <extensions>
          <ns3:TrackPointExtension>
            <ns3:atemp>24.0</ns3:atemp>
            <ns3:hr>116</ns3:hr>
          </ns3:TrackPointExtension>
        </extensions>
      </trkpt>
      <trkpt lat="47.0100050233304500579833984375" lon="6.92636028863489627838134765625">
        <ele>831.4000244140625</ele>
        <time>2019-06-19T11:06:14.000Z</time>
        <extensions>
          <ns3:TrackPointExtension>
            <ns3:atemp>24.0</ns3:atemp>
            <ns3:hr>115</ns3:hr>
          </ns3:TrackPointExtension>
        </extensions>
      </trkpt>
      <trkpt lat="47.01001617126166820526123046875" lon="6.926501356065273284912109375">
        <ele>831.5999755859375</ele>
        <time>2019-06-19T11:06:17.000Z</time>
        <extensions>
          <ns3:TrackPointExtension>
            <ns3:atemp>24.0</ns3:atemp>
            <ns3:hr>115</ns3:hr>
          </ns3:TrackPointExtension>
        </extensions>
      </trkpt>
      <trkpt lat="47.0100120641291141510009765625" lon="6.9267395697534084320068359375">
        <ele>831.5999755859375</ele>
        <time>2019-06-19T11:06:22.000Z</time>
        <extensions>
          <ns3:TrackPointExtension>
            <ns3:atemp>24.0</ns3:atemp>
            <ns3:hr>117</ns3:hr>
          </ns3:TrackPointExtension>
        </extensions>
      </trkpt>
      <trkpt lat="47.0100445859134197235107421875" lon="6.926985494792461395263671875">
        <ele>831.5999755859375</ele>
        <time>2019-06-19T11:06:27.000Z</time>
        <extensions>
          <ns3:TrackPointExtension>
            <ns3:atemp>24.0</ns3:atemp>
            <ns3:hr>119</ns3:hr>
          </ns3:TrackPointExtension>
        </extensions>
      </trkpt>
      <trkpt lat="47.01005757786333560943603515625" lon="6.92712974734604358673095703125">
        <ele>831.4000244140625</ele>
        <time>2019-06-19T11:06:30.000Z</time>
        <extensions>
          <ns3:TrackPointExtension>
            <ns3:atemp>24.0</ns3:atemp>
            <ns3:hr>122</ns3:hr>
          </ns3:TrackPointExtension>
        </extensions>
      </trkpt>
      <trkpt lat="47.01006688177585601806640625" lon="6.92732269875705242156982421875">
        <ele>831.20001220703125</ele>
        <time>2019-06-19T11:06:33.000Z</time>
        <extensions>
          <ns3:TrackPointExtension>
            <ns3:atemp>24.0</ns3:atemp>
            <ns3:hr>122</ns3:hr>
          </ns3:TrackPointExtension>
        </extensions>
      </trkpt>
      <trkpt lat="47.01009026728570461273193359375" lon="6.92757063545286655426025390625">
        <ele>830.79998779296875</ele>
        <time>2019-06-19T11:06:37.000Z</time>
        <extensions>
          <ns3:TrackPointExtension>
            <ns3:atemp>24.0</ns3:atemp>
            <ns3:hr>123</ns3:hr>
          </ns3:TrackPointExtension>
        </extensions>
      </trkpt>
      <trkpt lat="47.01008624397218227386474609375" lon="6.92764925770461559295654296875">
        <ele>830.79998779296875</ele>
        <time>2019-06-19T11:06:38.000Z</time>
        <extensions>
          <ns3:TrackPointExtension>
            <ns3:atemp>24.0</ns3:atemp>
            <ns3:hr>124</ns3:hr>
          </ns3:TrackPointExtension>
        </extensions>
      </trkpt>
      <trkpt lat="47.0100603438913822174072265625" lon="6.92788227461278438568115234375">
        <ele>830.5999755859375</ele>
        <time>2019-06-19T11:06:40.000Z</time>
        <extensions>
          <ns3:TrackPointExtension>
            <ns3:atemp>24.0</ns3:atemp>
            <ns3:hr>124</ns3:hr>
          </ns3:TrackPointExtension>
        </extensions>
      </trkpt>
      <trkpt lat="47.01005749404430389404296875" lon="6.92807547748088836669921875">
        <ele>830.4000244140625</ele>
        <time>2019-06-19T11:06:42.000Z</time>
        <extensions>
          <ns3:TrackPointExtension>
            <ns3:atemp>25.0</ns3:atemp>
            <ns3:hr>125</ns3:hr>
          </ns3:TrackPointExtension>
        </extensions>
      </trkpt>
      <trkpt lat="47.01005975715816020965576171875" lon="6.9281463883817195892333984375">
        <ele>830.4000244140625</ele>
        <time>2019-06-19T11:06:43.000Z</time>
        <extensions>
          <ns3:TrackPointExtension>
            <ns3:atemp>25.0</ns3:atemp>
            <ns3:hr>125</ns3:hr>
          </ns3:TrackPointExtension>
        </extensions>
      </trkpt>
      <trkpt lat="47.01006210409104824066162109375" lon="6.928380243480205535888671875">
        <ele>830</ele>
        <time>2019-06-19T11:06:45.000Z</time>
        <extensions>
          <ns3:TrackPointExtension>
            <ns3:atemp>25.0</ns3:atemp>
            <ns3:hr>125</ns3:hr>
          </ns3:TrackPointExtension>
        </extensions>
      </trkpt>
      <trkpt lat="47.01009563170373439788818359375" lon="6.9285671599209308624267578125">
        <ele>829.4000244140625</ele>
        <time>2019-06-19T11:06:47.000Z</time>
        <extensions>
          <ns3:TrackPointExtension>
            <ns3:atemp>25.0</ns3:atemp>
            <ns3:hr>125</ns3:hr>
          </ns3:TrackPointExtension>
        </extensions>
      </trkpt>
      <trkpt lat="47.01010686345398426055908203125" lon="6.928663887083530426025390625">
        <ele>829.4000244140625</ele>
        <time>2019-06-19T11:06:48.000Z</time>
        <extensions>
          <ns3:TrackPointExtension>
            <ns3:atemp>25.0</ns3:atemp>
            <ns3:hr>125</ns3:hr>
          </ns3:TrackPointExtension>
        </extensions>
      </trkpt>
      <trkpt lat="47.0101418159902095794677734375" lon="6.928985752165317535400390625">
        <ele>828.79998779296875</ele>
        <time>2019-06-19T11:06:51.000Z</time>
        <extensions>
          <ns3:TrackPointExtension>
            <ns3:atemp>25.0</ns3:atemp>
            <ns3:hr>124</ns3:hr>
          </ns3:TrackPointExtension>
        </extensions>
      </trkpt>
      <trkpt lat="47.01018414460122585296630859375" lon="6.92944080568850040435791015625">
        <ele>828.20001220703125</ele>
        <time>2019-06-19T11:06:56.000Z</time>
        <extensions>
          <ns3:TrackPointExtension>
            <ns3:atemp>25.0</ns3:atemp>
            <ns3:hr>125</ns3:hr>
          </ns3:TrackPointExtension>
        </extensions>
      </trkpt>
      <trkpt lat="47.01018146239221096038818359375" lon="6.9296806119382381439208984375">
        <ele>827.79998779296875</ele>
        <time>2019-06-19T11:06:59.000Z</time>
        <extensions>
          <ns3:TrackPointExtension>
            <ns3:atemp>25.0</ns3:atemp>
            <ns3:hr>122</ns3:hr>
          </ns3:TrackPointExtension>
        </extensions>
      </trkpt>
      <trkpt lat="47.01016033999621868133544921875" lon="6.92980692721903324127197265625">
        <ele>827.20001220703125</ele>
        <time>2019-06-19T11:07:00.000Z</time>
        <extensions>
          <ns3:TrackPointExtension>
            <ns3:atemp>25.0</ns3:atemp>
            <ns3:hr>122</ns3:hr>
          </ns3:TrackPointExtension>
        </extensions>
      </trkpt>
      <trkpt lat="47.01011591590940952301025390625" lon="6.93003977648913860321044921875">
        <ele>827</ele>
        <time>2019-06-19T11:07:02.000Z</time>
        <extensions>
          <ns3:TrackPointExtension>
            <ns3:atemp>25.0</ns3:atemp>
            <ns3:hr>122</ns3:hr>
          </ns3:TrackPointExtension>
        </extensions>
      </trkpt>
      <trkpt lat="47.0101324282586574554443359375" lon="6.93025351502001285552978515625">
        <ele>826.20001220703125</ele>
        <time>2019-06-19T11:07:04.000Z</time>
        <extensions>
          <ns3:TrackPointExtension>
            <ns3:atemp>25.0</ns3:atemp>
            <ns3:hr>124</ns3:hr>
          </ns3:TrackPointExtension>
        </extensions>
      </trkpt>
      <trkpt lat="47.01015195809304714202880859375" lon="6.93034772761166095733642578125">
        <ele>826</ele>
        <time>2019-06-19T11:07:05.000Z</time>
        <extensions>
          <ns3:TrackPointExtension>
            <ns3:atemp>25.0</ns3:atemp>
            <ns3:hr>124</ns3:hr>
          </ns3:TrackPointExtension>
        </extensions>
      </trkpt>
      <trkpt lat="47.01015648432075977325439453125" lon="6.93061158992350101470947265625">
        <ele>825.5999755859375</ele>
        <time>2019-06-19T11:07:08.000Z</time>
        <extensions>
          <ns3:TrackPointExtension>
            <ns3:atemp>25.0</ns3:atemp>
            <ns3:hr>124</ns3:hr>
          </ns3:TrackPointExtension>
        </extensions>
      </trkpt>
      <trkpt lat="47.01015950180590152740478515625" lon="6.9307065568864345550537109375">
        <ele>825.5999755859375</ele>
        <time>2019-06-19T11:07:09.000Z</time>
        <extensions>
          <ns3:TrackPointExtension>
            <ns3:atemp>25.0</ns3:atemp>
            <ns3:hr>124</ns3:hr>
          </ns3:TrackPointExtension>
        </extensions>
      </trkpt>
      <trkpt lat="47.010142318904399871826171875" lon="6.930892467498779296875">
        <ele>825.79998779296875</ele>
        <time>2019-06-19T11:07:11.000Z</time>
        <extensions>
          <ns3:TrackPointExtension>
            <ns3:atemp>25.0</ns3:atemp>
            <ns3:hr>125</ns3:hr>
          </ns3:TrackPointExtension>
        </extensions>
      </trkpt>
      <trkpt lat="47.01012195087969303131103515625" lon="6.93114518187940120697021484375">
        <ele>826.4000244140625</ele>
        <time>2019-06-19T11:07:14.000Z</time>
        <extensions>
          <ns3:TrackPointExtension>
            <ns3:atemp>25.0</ns3:atemp>
            <ns3:hr>125</ns3:hr>
          </ns3:TrackPointExtension>
        </extensions>
      </trkpt>
      <trkpt lat="47.0100757665932178497314453125" lon="6.93161540664732456207275390625">
        <ele>826.79998779296875</ele>
        <time>2019-06-19T11:07:20.000Z</time>
        <extensions>
          <ns3:TrackPointExtension>
            <ns3:atemp>25.0</ns3:atemp>
            <ns3:hr>126</ns3:hr>
          </ns3:TrackPointExtension>
        </extensions>
      </trkpt>
      <trkpt lat="47.010079286992549896240234375" lon="6.931695453822612762451171875">
        <ele>826.79998779296875</ele>
        <time>2019-06-19T11:07:21.000Z</time>
        <extensions>
          <ns3:TrackPointExtension>
            <ns3:atemp>25.0</ns3:atemp>
            <ns3:hr>127</ns3:hr>
          </ns3:TrackPointExtension>
        </extensions>
      </trkpt>
      <trkpt lat="47.0100948773324489593505859375" lon="6.931865103542804718017578125">
        <ele>827.20001220703125</ele>
        <time>2019-06-19T11:07:23.000Z</time>
        <extensions>
          <ns3:TrackPointExtension>
            <ns3:atemp>25.0</ns3:atemp>
            <ns3:hr>127</ns3:hr>
          </ns3:TrackPointExtension>
        </extensions>
      </trkpt>
      <trkpt lat="47.01011474244296550750732421875" lon="6.93193760700523853302001953125">
        <ele>827.20001220703125</ele>
        <time>2019-06-19T11:07:24.000Z</time>
        <extensions>
          <ns3:TrackPointExtension>
            <ns3:atemp>25.0</ns3:atemp>
            <ns3:hr>127</ns3:hr>
          </ns3:TrackPointExtension>
        </extensions>
      </trkpt>
      <trkpt lat="47.01016101054847240447998046875" lon="6.9321935065090656280517578125">
        <ele>827.5999755859375</ele>
        <time>2019-06-19T11:07:28.000Z</time>
        <extensions>
          <ns3:TrackPointExtension>
            <ns3:atemp>25.0</ns3:atemp>
            <ns3:hr>128</ns3:hr>
          </ns3:TrackPointExtension>
        </extensions>
      </trkpt>
      <trkpt lat="47.010200321674346923828125" lon="6.9324982725083827972412109375">
        <ele>828</ele>
        <time>2019-06-19T11:07:33.000Z</time>
        <extensions>
          <ns3:TrackPointExtension>
            <ns3:atemp>25.0</ns3:atemp>
            <ns3:hr>129</ns3:hr>
          </ns3:TrackPointExtension>
        </extensions>
      </trkpt>
      <trkpt lat="47.01020794920623302459716796875" lon="6.93256725557148456573486328125">
        <ele>828.20001220703125</ele>
        <time>2019-06-19T11:07:35.000Z</time>
        <extensions>
          <ns3:TrackPointExtension>
            <ns3:atemp>25.0</ns3:atemp>
            <ns3:hr>130</ns3:hr>
          </ns3:TrackPointExtension>
        </extensions>
      </trkpt>
      <trkpt lat="47.010216414928436279296875" lon="6.93273422308266162872314453125">
        <ele>828.4000244140625</ele>
        <time>2019-06-19T11:07:38.000Z</time>
        <extensions>
          <ns3:TrackPointExtension>
            <ns3:atemp>25.0</ns3:atemp>
            <ns3:hr>130</ns3:hr>
          </ns3:TrackPointExtension>
        </extensions>
      </trkpt>
      <trkpt lat="47.0102740824222564697265625" lon="6.93302423693239688873291015625">
        <ele>828.79998779296875</ele>
        <time>2019-06-19T11:07:44.000Z</time>
        <extensions>
          <ns3:TrackPointExtension>
            <ns3:atemp>25.0</ns3:atemp>
            <ns3:hr>131</ns3:hr>
          </ns3:TrackPointExtension>
        </extensions>
      </trkpt>
      <trkpt lat="47.01037508435547351837158203125" lon="6.93340444006025791168212890625">
        <ele>828.79998779296875</ele>
        <time>2019-06-19T11:07:49.000Z</time>
        <extensions>
          <ns3:TrackPointExtension>
            <ns3:atemp>25.0</ns3:atemp>
            <ns3:hr>132</ns3:hr>
          </ns3:TrackPointExtension>
        </extensions>
      </trkpt>
      <trkpt lat="47.0105096139013767242431640625" lon="6.933724544942378997802734375">
        <ele>829.20001220703125</ele>
        <time>2019-06-19T11:07:54.000Z</time>
        <extensions>
          <ns3:TrackPointExtension>
            <ns3:atemp>25.0</ns3:atemp>
            <ns3:hr>133</ns3:hr>
          </ns3:TrackPointExtension>
        </extensions>
      </trkpt>
      <trkpt lat="47.0105302333831787109375" lon="6.93381917662918567657470703125">
        <ele>829.4000244140625</ele>
        <time>2019-06-19T11:07:55.000Z</time>
        <extensions>
          <ns3:TrackPointExtension>
            <ns3:atemp>25.0</ns3:atemp>
            <ns3:hr>133</ns3:hr>
          </ns3:TrackPointExtension>
        </extensions>
      </trkpt>
      <trkpt lat="47.01055395416915416717529296875" lon="6.93391598761081695556640625">
        <ele>829.5999755859375</ele>
        <time>2019-06-19T11:07:56.000Z</time>
        <extensions>
          <ns3:TrackPointExtension>
            <ns3:atemp>25.0</ns3:atemp>
            <ns3:hr>133</ns3:hr>
          </ns3:TrackPointExtension>
        </extensions>
      </trkpt>
      <trkpt lat="47.01060944236814975738525390625" lon="6.9340599887073040008544921875">
        <ele>829.79998779296875</ele>
        <time>2019-06-19T11:07:58.000Z</time>
        <extensions>
          <ns3:TrackPointExtension>
            <ns3:atemp>25.0</ns3:atemp>
            <ns3:hr>134</ns3:hr>
          </ns3:TrackPointExtension>
        </extensions>
      </trkpt>
      <trkpt lat="47.0106494240462779998779296875" lon="6.93420424126088619232177734375">
        <ele>830</ele>
        <time>2019-06-19T11:08:00.000Z</time>
        <extensions>
          <ns3:TrackPointExtension>
            <ns3:atemp>25.0</ns3:atemp>
            <ns3:hr>134</ns3:hr>
          </ns3:TrackPointExtension>
        </extensions>
      </trkpt>
      <trkpt lat="47.0106708817183971405029296875" lon="6.93426509387791156768798828125">
        <ele>830</ele>
        <time>2019-06-19T11:08:01.000Z</time>
        <extensions>
          <ns3:TrackPointExtension>
            <ns3:atemp>25.0</ns3:atemp>
            <ns3:hr>134</ns3:hr>
          </ns3:TrackPointExtension>
        </extensions>
      </trkpt>
      <trkpt lat="47.01071329414844512939453125" lon="6.93445066921412944793701171875">
        <ele>830.4000244140625</ele>
        <time>2019-06-19T11:08:04.000Z</time>
        <extensions>
          <ns3:TrackPointExtension>
            <ns3:atemp>25.0</ns3:atemp>
            <ns3:hr>134</ns3:hr>
          </ns3:TrackPointExtension>
        </extensions>
      </trkpt>
      <trkpt lat="47.01074003241956233978271484375" lon="6.93450339138507843017578125">
        <ele>830.5999755859375</ele>
        <time>2019-06-19T11:08:05.000Z</time>
        <extensions>
          <ns3:TrackPointExtension>
            <ns3:atemp>25.0</ns3:atemp>
            <ns3:hr>134</ns3:hr>
          </ns3:TrackPointExtension>
        </extensions>
      </trkpt>
      <trkpt lat="47.01082603074610233306884765625" lon="6.93467329256236553192138671875">
        <ele>831</ele>
        <time>2019-06-19T11:08:08.000Z</time>
        <extensions>
          <ns3:TrackPointExtension>
            <ns3:atemp>25.0</ns3:atemp>
            <ns3:hr>135</ns3:hr>
          </ns3:TrackPointExtension>
        </extensions>
      </trkpt>
      <trkpt lat="47.0108492486178874969482421875" lon="6.9347422756254673004150390625">
        <ele>831.20001220703125</ele>
        <time>2019-06-19T11:08:09.000Z</time>
        <extensions>
          <ns3:TrackPointExtension>
            <ns3:atemp>25.0</ns3:atemp>
            <ns3:hr>135</ns3:hr>
          </ns3:TrackPointExtension>
        </extensions>
      </trkpt>
      <trkpt lat="47.01087682507932186126708984375" lon="6.9348056428134441375732421875">
        <ele>831.20001220703125</ele>
        <time>2019-06-19T11:08:10.000Z</time>
        <extensions>
          <ns3:TrackPointExtension>
            <ns3:atemp>25.0</ns3:atemp>
            <ns3:hr>136</ns3:hr>
          </ns3:TrackPointExtension>
        </extensions>
      </trkpt>
      <trkpt lat="47.01094136573374271392822265625" lon="6.93503974936902523040771484375">
        <ele>831.4000244140625</ele>
        <time>2019-06-19T11:08:14.000Z</time>
        <extensions>
          <ns3:TrackPointExtension>
            <ns3:atemp>25.0</ns3:atemp>
            <ns3:hr>136</ns3:hr>
          </ns3:TrackPointExtension>
        </extensions>
      </trkpt>
      <trkpt lat="47.01100322417914867401123046875" lon="6.93520721979439258575439453125">
        <ele>831.5999755859375</ele>
        <time>2019-06-19T11:08:17.000Z</time>
        <extensions>
          <ns3:TrackPointExtension>
            <ns3:atemp>25.0</ns3:atemp>
            <ns3:hr>136</ns3:hr>
          </ns3:TrackPointExtension>
        </extensions>
      </trkpt>
      <trkpt lat="47.01108838431537151336669921875" lon="6.9354279153048992156982421875">
        <ele>831.79998779296875</ele>
        <time>2019-06-19T11:08:21.000Z</time>
        <extensions>
          <ns3:TrackPointExtension>
            <ns3:atemp>25.0</ns3:atemp>
            <ns3:hr>136</ns3:hr>
          </ns3:TrackPointExtension>
        </extensions>
      </trkpt>
      <trkpt lat="47.011172957718372344970703125" lon="6.9356874190270900726318359375">
        <ele>831.4000244140625</ele>
        <time>2019-06-19T11:08:26.000Z</time>
        <extensions>
          <ns3:TrackPointExtension>
            <ns3:atemp>25.0</ns3:atemp>
            <ns3:hr>136</ns3:hr>
          </ns3:TrackPointExtension>
        </extensions>
      </trkpt>
      <trkpt lat="47.01131721027195453643798828125" lon="6.93597500212490558624267578125">
        <ele>832</ele>
        <time>2019-06-19T11:08:32.000Z</time>
        <extensions>
          <ns3:TrackPointExtension>
            <ns3:atemp>25.0</ns3:atemp>
            <ns3:hr>135</ns3:hr>
          </ns3:TrackPointExtension>
        </extensions>
      </trkpt>
      <trkpt lat="47.01145433820784091949462890625" lon="6.9362528622150421142578125">
        <ele>831.4000244140625</ele>
        <time>2019-06-19T11:08:38.000Z</time>
        <extensions>
          <ns3:TrackPointExtension>
            <ns3:atemp>25.0</ns3:atemp>
            <ns3:hr>134</ns3:hr>
          </ns3:TrackPointExtension>
        </extensions>
      </trkpt>
      <trkpt lat="47.01166036538779735565185546875" lon="6.9365115277469158172607421875">
        <ele>831</ele>
        <time>2019-06-19T11:08:45.000Z</time>
        <extensions>
          <ns3:TrackPointExtension>
            <ns3:atemp>26.0</ns3:atemp>
            <ns3:hr>133</ns3:hr>
          </ns3:TrackPointExtension>
        </extensions>
      </trkpt>
      <trkpt lat="47.01179078780114650726318359375" lon="6.93669073283672332763671875">
        <ele>831</ele>
        <time>2019-06-19T11:08:50.000Z</time>
        <extensions>
          <ns3:TrackPointExtension>
            <ns3:atemp>26.0</ns3:atemp>
            <ns3:hr>134</ns3:hr>
          </ns3:TrackPointExtension>
        </extensions>
      </trkpt>
      <trkpt lat="47.01193629764020442962646484375" lon="6.9368350692093372344970703125">
        <ele>831</ele>
        <time>2019-06-19T11:08:55.000Z</time>
        <extensions>
          <ns3:TrackPointExtension>
            <ns3:atemp>26.0</ns3:atemp>
            <ns3:hr>132</ns3:hr>
          </ns3:TrackPointExtension>
        </extensions>
      </trkpt>
      <trkpt lat="47.01201760210096836090087890625" lon="6.937001533806324005126953125">
        <ele>831.79998779296875</ele>
        <time>2019-06-19T11:09:00.000Z</time>
        <extensions>
          <ns3:TrackPointExtension>
            <ns3:atemp>26.0</ns3:atemp>
            <ns3:hr>132</ns3:hr>
          </ns3:TrackPointExtension>
        </extensions>
      </trkpt>
      <trkpt lat="47.012064121663570404052734375" lon="6.93709976971149444580078125">
        <ele>832.5999755859375</ele>
        <time>2019-06-19T11:09:03.000Z</time>
        <extensions>
          <ns3:TrackPointExtension>
            <ns3:atemp>26.0</ns3:atemp>
            <ns3:hr>132</ns3:hr>
          </ns3:TrackPointExtension>
        </extensions>
      </trkpt>
      <trkpt lat="47.01211583800613880157470703125" lon="6.93720328621566295623779296875">
        <ele>833.5999755859375</ele>
        <time>2019-06-19T11:09:07.000Z</time>
        <extensions>
          <ns3:TrackPointExtension>
            <ns3:atemp>26.0</ns3:atemp>
            <ns3:hr>133</ns3:hr>
          </ns3:TrackPointExtension>
        </extensions>
      </trkpt>
      <trkpt lat="47.012123800814151763916015625" lon="6.93724117241799831390380859375">
        <ele>833.5999755859375</ele>
        <time>2019-06-19T11:09:08.000Z</time>
        <extensions>
          <ns3:TrackPointExtension>
            <ns3:atemp>26.0</ns3:atemp>
            <ns3:hr>134</ns3:hr>
          </ns3:TrackPointExtension>
        </extensions>
      </trkpt>
      <trkpt lat="47.012196220457553863525390625" lon="6.93733446300029754638671875">
        <ele>834.79998779296875</ele>
        <time>2019-06-19T11:09:12.000Z</time>
        <extensions>
          <ns3:TrackPointExtension>
            <ns3:atemp>26.0</ns3:atemp>
            <ns3:hr>133</ns3:hr>
          </ns3:TrackPointExtension>
        </extensions>
      </trkpt>
      <trkpt lat="47.01222069561481475830078125" lon="6.937354244291782379150390625">
        <ele>835</ele>
        <time>2019-06-19T11:09:13.000Z</time>
        <extensions>
          <ns3:TrackPointExtension>
            <ns3:atemp>26.0</ns3:atemp>
            <ns3:hr>133</ns3:hr>
          </ns3:TrackPointExtension>
        </extensions>
      </trkpt>
      <trkpt lat="47.01228163205087184906005859375" lon="6.93745306693017482757568359375">
        <ele>835.79998779296875</ele>
        <time>2019-06-19T11:09:17.000Z</time>
        <extensions>
          <ns3:TrackPointExtension>
            <ns3:atemp>26.0</ns3:atemp>
            <ns3:hr>129</ns3:hr>
          </ns3:TrackPointExtension>
        </extensions>
      </trkpt>
      <trkpt lat="47.012292109429836273193359375" lon="6.93748022429645061492919921875">
        <ele>836</ele>
        <time>2019-06-19T11:09:18.000Z</time>
        <extensions>
          <ns3:TrackPointExtension>
            <ns3:atemp>26.0</ns3:atemp>
            <ns3:hr>128</ns3:hr>
          </ns3:TrackPointExtension>
        </extensions>
      </trkpt>
      <trkpt lat="47.01230786740779876708984375" lon="6.93753520958125591278076171875">
        <ele>836</ele>
        <time>2019-06-19T11:09:20.000Z</time>
        <extensions>
          <ns3:TrackPointExtension>
            <ns3:atemp>26.0</ns3:atemp>
            <ns3:hr>129</ns3:hr>
          </ns3:TrackPointExtension>
        </extensions>
      </trkpt>
      <trkpt lat="47.01237634755671024322509765625" lon="6.93769614212214946746826171875">
        <ele>837</ele>
        <time>2019-06-19T11:09:26.000Z</time>
        <extensions>
          <ns3:TrackPointExtension>
            <ns3:atemp>26.0</ns3:atemp>
            <ns3:hr>132</ns3:hr>
          </ns3:TrackPointExtension>
        </extensions>
      </trkpt>
      <trkpt lat="47.01239093206822872161865234375" lon="6.9377225451171398162841796875">
        <ele>837.20001220703125</ele>
        <time>2019-06-19T11:09:27.000Z</time>
        <extensions>
          <ns3:TrackPointExtension>
            <ns3:atemp>26.0</ns3:atemp>
            <ns3:hr>134</ns3:hr>
          </ns3:TrackPointExtension>
        </extensions>
      </trkpt>
      <trkpt lat="47.01241155155003070831298828125" lon="6.93777560256421566009521484375">
        <ele>837.79998779296875</ele>
        <time>2019-06-19T11:09:29.000Z</time>
        <extensions>
          <ns3:TrackPointExtension>
            <ns3:atemp>26.0</ns3:atemp>
            <ns3:hr>137</ns3:hr>
          </ns3:TrackPointExtension>
        </extensions>
      </trkpt>
      <trkpt lat="47.01242848299443721771240234375" lon="6.93782052956521511077880859375">
        <ele>838.4000244140625</ele>
        <time>2019-06-19T11:09:31.000Z</time>
        <extensions>
          <ns3:TrackPointExtension>
            <ns3:atemp>26.0</ns3:atemp>
            <ns3:hr>138</ns3:hr>
          </ns3:TrackPointExtension>
        </extensions>
      </trkpt>
      <trkpt lat="47.0124364458024501800537109375" lon="6.9378462620079517364501953125">
        <ele>838.5999755859375</ele>
        <time>2019-06-19T11:09:32.000Z</time>
        <extensions>
          <ns3:TrackPointExtension>
            <ns3:atemp>26.0</ns3:atemp>
            <ns3:hr>138</ns3:hr>
          </ns3:TrackPointExtension>
        </extensions>
      </trkpt>
      <trkpt lat="47.012491934001445770263671875" lon="6.93799872882664203643798828125">
        <ele>839.4000244140625</ele>
        <time>2019-06-19T11:09:38.000Z</time>
        <extensions>
          <ns3:TrackPointExtension>
            <ns3:atemp>26.0</ns3:atemp>
            <ns3:hr>140</ns3:hr>
          </ns3:TrackPointExtension>
        </extensions>
      </trkpt>
      <trkpt lat="47.0125175826251506805419921875" lon="6.9380606710910797119140625">
        <ele>840</ele>
        <time>2019-06-19T11:09:41.000Z</time>
        <extensions>
          <ns3:TrackPointExtension>
            <ns3:atemp>26.0</ns3:atemp>
            <ns3:hr>141</ns3:hr>
          </ns3:TrackPointExtension>
        </extensions>
      </trkpt>
      <trkpt lat="47.0125370286405086517333984375" lon="6.938103251159191131591796875">
        <ele>840.4000244140625</ele>
        <time>2019-06-19T11:09:43.000Z</time>
        <extensions>
          <ns3:TrackPointExtension>
            <ns3:atemp>26.0</ns3:atemp>
            <ns3:hr>141</ns3:hr>
          </ns3:TrackPointExtension>
        </extensions>
      </trkpt>
      <trkpt lat="47.01254256069660186767578125" lon="6.93812730722129344940185546875">
        <ele>840.5999755859375</ele>
        <time>2019-06-19T11:09:44.000Z</time>
        <extensions>
          <ns3:TrackPointExtension>
            <ns3:atemp>26.0</ns3:atemp>
            <ns3:hr>141</ns3:hr>
          </ns3:TrackPointExtension>
        </extensions>
      </trkpt>
      <trkpt lat="47.01257248409092426300048828125" lon="6.93823426030576229095458984375">
        <ele>841.4000244140625</ele>
        <time>2019-06-19T11:09:49.000Z</time>
        <extensions>
          <ns3:TrackPointExtension>
            <ns3:atemp>26.0</ns3:atemp>
            <ns3:hr>140</ns3:hr>
          </ns3:TrackPointExtension>
        </extensions>
      </trkpt>
      <trkpt lat="47.0125950314104557037353515625" lon="6.938279606401920318603515625">
        <ele>841.79998779296875</ele>
        <time>2019-06-19T11:09:51.000Z</time>
        <extensions>
          <ns3:TrackPointExtension>
            <ns3:atemp>26.0</ns3:atemp>
            <ns3:hr>140</ns3:hr>
          </ns3:TrackPointExtension>
        </extensions>
      </trkpt>
      <trkpt lat="47.01260182075202465057373046875" lon="6.93830098025500774383544921875">
        <ele>841.79998779296875</ele>
        <time>2019-06-19T11:09:52.000Z</time>
        <extensions>
          <ns3:TrackPointExtension>
            <ns3:atemp>26.0</ns3:atemp>
            <ns3:hr>140</ns3:hr>
          </ns3:TrackPointExtension>
        </extensions>
      </trkpt>
      <trkpt lat="47.01262948103249073028564453125" lon="6.9383704662322998046875">
        <ele>842.4000244140625</ele>
        <time>2019-06-19T11:09:55.000Z</time>
        <extensions>
          <ns3:TrackPointExtension>
            <ns3:atemp>26.0</ns3:atemp>
            <ns3:hr>142</ns3:hr>
          </ns3:TrackPointExtension>
        </extensions>
      </trkpt>
      <trkpt lat="47.01265697367489337921142578125" lon="6.93840675987303256988525390625">
        <ele>842.79998779296875</ele>
        <time>2019-06-19T11:09:57.000Z</time>
        <extensions>
          <ns3:TrackPointExtension>
            <ns3:atemp>26.0</ns3:atemp>
            <ns3:hr>143</ns3:hr>
          </ns3:TrackPointExtension>
        </extensions>
      </trkpt>
      <trkpt lat="47.01269469223916530609130859375" lon="6.938487477600574493408203125">
        <ele>843.20001220703125</ele>
        <time>2019-06-19T11:10:01.000Z</time>
        <extensions>
          <ns3:TrackPointExtension>
            <ns3:atemp>26.0</ns3:atemp>
            <ns3:hr>143</ns3:hr>
          </ns3:TrackPointExtension>
        </extensions>
      </trkpt>
      <trkpt lat="47.01274733059108257293701171875" lon="6.9385637529194355010986328125">
        <ele>844</ele>
        <time>2019-06-19T11:10:05.000Z</time>
        <extensions>
          <ns3:TrackPointExtension>
            <ns3:atemp>26.0</ns3:atemp>
            <ns3:hr>142</ns3:hr>
          </ns3:TrackPointExtension>
        </extensions>
      </trkpt>
      <trkpt lat="47.01277934946119785308837890625" lon="6.9386033155024051666259765625">
        <ele>844.5999755859375</ele>
        <time>2019-06-19T11:10:07.000Z</time>
        <extensions>
          <ns3:TrackPointExtension>
            <ns3:atemp>26.0</ns3:atemp>
            <ns3:hr>143</ns3:hr>
          </ns3:TrackPointExtension>
        </extensions>
      </trkpt>
      <trkpt lat="47.0128007233142852783203125" lon="6.93871387280523777008056640625">
        <ele>845.20001220703125</ele>
        <time>2019-06-19T11:10:11.000Z</time>
        <extensions>
          <ns3:TrackPointExtension>
            <ns3:atemp>26.0</ns3:atemp>
            <ns3:hr>145</ns3:hr>
          </ns3:TrackPointExtension>
        </extensions>
      </trkpt>
      <trkpt lat="47.0128320716321468353271484375" lon="6.93880699574947357177734375">
        <ele>845.5999755859375</ele>
        <time>2019-06-19T11:10:15.000Z</time>
        <extensions>
          <ns3:TrackPointExtension>
            <ns3:atemp>26.0</ns3:atemp>
            <ns3:hr>145</ns3:hr>
          </ns3:TrackPointExtension>
        </extensions>
      </trkpt>
      <trkpt lat="47.01286719180643558502197265625" lon="6.9389322213828563690185546875">
        <ele>846.20001220703125</ele>
        <time>2019-06-19T11:10:19.000Z</time>
        <extensions>
          <ns3:TrackPointExtension>
            <ns3:atemp>26.0</ns3:atemp>
            <ns3:hr>144</ns3:hr>
          </ns3:TrackPointExtension>
        </extensions>
      </trkpt>
      <trkpt lat="47.0128987915813922882080078125" lon="6.9389727897942066192626953125">
        <ele>846.4000244140625</ele>
        <time>2019-06-19T11:10:21.000Z</time>
        <extensions>
          <ns3:TrackPointExtension>
            <ns3:atemp>26.0</ns3:atemp>
            <ns3:hr>145</ns3:hr>
          </ns3:TrackPointExtension>
        </extensions>
      </trkpt>
      <trkpt lat="47.0129262842237949371337890625" lon="6.939089298248291015625">
        <ele>847.4000244140625</ele>
        <time>2019-06-19T11:10:26.000Z</time>
        <extensions>
          <ns3:TrackPointExtension>
            <ns3:atemp>26.0</ns3:atemp>
            <ns3:hr>145</ns3:hr>
          </ns3:TrackPointExtension>
        </extensions>
      </trkpt>
      <trkpt lat="47.01293190009891986846923828125" lon="6.93911000154912471771240234375">
        <ele>847.5999755859375</ele>
        <time>2019-06-19T11:10:27.000Z</time>
        <extensions>
          <ns3:TrackPointExtension>
            <ns3:atemp>26.0</ns3:atemp>
            <ns3:hr>145</ns3:hr>
          </ns3:TrackPointExtension>
        </extensions>
      </trkpt>
      <trkpt lat="47.013000883162021636962890625" lon="6.939213685691356658935546875">
        <ele>848</ele>
        <time>2019-06-19T11:10:33.000Z</time>
        <extensions>
          <ns3:TrackPointExtension>
            <ns3:atemp>26.0</ns3:atemp>
            <ns3:hr>145</ns3:hr>
          </ns3:TrackPointExtension>
        </extensions>
      </trkpt>
      <trkpt lat="47.01303248293697834014892578125" lon="6.93923346698284149169921875">
        <ele>848.4000244140625</ele>
        <time>2019-06-19T11:10:35.000Z</time>
        <extensions>
          <ns3:TrackPointExtension>
            <ns3:atemp>26.0</ns3:atemp>
            <ns3:hr>145</ns3:hr>
          </ns3:TrackPointExtension>
        </extensions>
      </trkpt>
      <trkpt lat="47.0130999572575092315673828125" lon="6.93932424299418926239013671875">
        <ele>849.4000244140625</ele>
        <time>2019-06-19T11:10:40.000Z</time>
        <extensions>
          <ns3:TrackPointExtension>
            <ns3:atemp>26.0</ns3:atemp>
            <ns3:hr>146</ns3:hr>
          </ns3:TrackPointExtension>
        </extensions>
      </trkpt>
      <trkpt lat="47.01310758478939533233642578125" lon="6.9393442757427692413330078125">
        <ele>849.5999755859375</ele>
        <time>2019-06-19T11:10:41.000Z</time>
        <extensions>
          <ns3:TrackPointExtension>
            <ns3:atemp>26.0</ns3:atemp>
            <ns3:hr>147</ns3:hr>
          </ns3:TrackPointExtension>
        </extensions>
      </trkpt>
      <trkpt lat="47.01313239522278308868408203125" lon="6.9394468702375888824462890625">
        <ele>849.79998779296875</ele>
        <time>2019-06-19T11:10:45.000Z</time>
        <extensions>
          <ns3:TrackPointExtension>
            <ns3:atemp>27.0</ns3:atemp>
            <ns3:hr>148</ns3:hr>
          </ns3:TrackPointExtension>
        </extensions>
      </trkpt>
      <trkpt lat="47.01314798556268215179443359375" lon="6.9396416656672954559326171875">
        <ele>850.5999755859375</ele>
        <time>2019-06-19T11:10:51.000Z</time>
        <extensions>
          <ns3:TrackPointExtension>
            <ns3:atemp>27.0</ns3:atemp>
            <ns3:hr>148</ns3:hr>
          </ns3:TrackPointExtension>
        </extensions>
      </trkpt>
      <trkpt lat="47.01315770857036113739013671875" lon="6.93973235785961151123046875">
        <ele>851.79998779296875</ele>
        <time>2019-06-19T11:10:54.000Z</time>
        <extensions>
          <ns3:TrackPointExtension>
            <ns3:atemp>27.0</ns3:atemp>
            <ns3:hr>148</ns3:hr>
          </ns3:TrackPointExtension>
        </extensions>
      </trkpt>
      <trkpt lat="47.01317983679473400115966796875" lon="6.9397888518869876861572265625">
        <ele>852.20001220703125</ele>
        <time>2019-06-19T11:10:56.000Z</time>
        <extensions>
          <ns3:TrackPointExtension>
            <ns3:atemp>27.0</ns3:atemp>
            <ns3:hr>147</ns3:hr>
          </ns3:TrackPointExtension>
        </extensions>
      </trkpt>
      <trkpt lat="47.01322996057569980621337890625" lon="6.939894296228885650634765625">
        <ele>852.79998779296875</ele>
        <time>2019-06-19T11:11:01.000Z</time>
        <extensions>
          <ns3:TrackPointExtension>
            <ns3:atemp>27.0</ns3:atemp>
            <ns3:hr>146</ns3:hr>
          </ns3:TrackPointExtension>
        </extensions>
      </trkpt>
      <trkpt lat="47.01323130168020725250244140625" lon="6.9399296678602695465087890625">
        <ele>853</ele>
        <time>2019-06-19T11:11:02.000Z</time>
        <extensions>
          <ns3:TrackPointExtension>
            <ns3:atemp>27.0</ns3:atemp>
            <ns3:hr>146</ns3:hr>
          </ns3:TrackPointExtension>
        </extensions>
      </trkpt>
      <trkpt lat="47.0132727921009063720703125" lon="6.94006361067295074462890625">
        <ele>853.5999755859375</ele>
        <time>2019-06-19T11:11:08.000Z</time>
        <extensions>
          <ns3:TrackPointExtension>
            <ns3:atemp>27.0</ns3:atemp>
            <ns3:hr>148</ns3:hr>
          </ns3:TrackPointExtension>
        </extensions>
      </trkpt>
      <trkpt lat="47.0132816769182682037353515625" lon="6.9400776922702789306640625">
        <ele>854</ele>
        <time>2019-06-19T11:11:09.000Z</time>
        <extensions>
          <ns3:TrackPointExtension>
            <ns3:atemp>27.0</ns3:atemp>
            <ns3:hr>148</ns3:hr>
          </ns3:TrackPointExtension>
        </extensions>
      </trkpt>
      <trkpt lat="47.01328494586050510406494140625" lon="6.9401009939610958099365234375">
        <ele>854.20001220703125</ele>
        <time>2019-06-19T11:11:10.000Z</time>
        <extensions>
          <ns3:TrackPointExtension>
            <ns3:atemp>27.0</ns3:atemp>
            <ns3:hr>148</ns3:hr>
          </ns3:TrackPointExtension>
        </extensions>
      </trkpt>
      <trkpt lat="47.01330321840941905975341796875" lon="6.94017383269965648651123046875">
        <ele>854.5999755859375</ele>
        <time>2019-06-19T11:11:13.000Z</time>
        <extensions>
          <ns3:TrackPointExtension>
            <ns3:atemp>27.0</ns3:atemp>
            <ns3:hr>146</ns3:hr>
          </ns3:TrackPointExtension>
        </extensions>
      </trkpt>
      <trkpt lat="47.01332316733896732330322265625" lon="6.9402118027210235595703125">
        <ele>855</ele>
        <time>2019-06-19T11:11:15.000Z</time>
        <extensions>
          <ns3:TrackPointExtension>
            <ns3:atemp>27.0</ns3:atemp>
            <ns3:hr>147</ns3:hr>
          </ns3:TrackPointExtension>
        </extensions>
      </trkpt>
      <trkpt lat="47.0133420266211032867431640625" lon="6.940268464386463165283203125">
        <ele>855.5999755859375</ele>
        <time>2019-06-19T11:11:18.000Z</time>
        <extensions>
          <ns3:TrackPointExtension>
            <ns3:atemp>27.0</ns3:atemp>
            <ns3:hr>146</ns3:hr>
          </ns3:TrackPointExtension>
        </extensions>
      </trkpt>
      <trkpt lat="47.01334848068654537200927734375" lon="6.94029553793370723724365234375">
        <ele>855.79998779296875</ele>
        <time>2019-06-19T11:11:19.000Z</time>
        <extensions>
          <ns3:TrackPointExtension>
            <ns3:atemp>27.0</ns3:atemp>
            <ns3:hr>146</ns3:hr>
          </ns3:TrackPointExtension>
        </extensions>
      </trkpt>
      <trkpt lat="47.01336599886417388916015625" lon="6.940352618694305419921875">
        <ele>856.20001220703125</ele>
        <time>2019-06-19T11:11:21.000Z</time>
        <extensions>
          <ns3:TrackPointExtension>
            <ns3:atemp>27.0</ns3:atemp>
            <ns3:hr>146</ns3:hr>
          </ns3:TrackPointExtension>
        </extensions>
      </trkpt>
      <trkpt lat="47.01342743821442127227783203125" lon="6.9404872320592403411865234375">
        <ele>857</ele>
        <time>2019-06-19T11:11:26.000Z</time>
        <extensions>
          <ns3:TrackPointExtension>
            <ns3:atemp>27.0</ns3:atemp>
            <ns3:hr>147</ns3:hr>
          </ns3:TrackPointExtension>
        </extensions>
      </trkpt>
      <trkpt lat="47.01343749649822711944580078125" lon="6.94051061756908893585205078125">
        <ele>857.20001220703125</ele>
        <time>2019-06-19T11:11:27.000Z</time>
        <extensions>
          <ns3:TrackPointExtension>
            <ns3:atemp>27.0</ns3:atemp>
            <ns3:hr>147</ns3:hr>
          </ns3:TrackPointExtension>
        </extensions>
      </trkpt>
      <trkpt lat="47.013481669127941131591796875" lon="6.940631568431854248046875">
        <ele>857.5999755859375</ele>
        <time>2019-06-19T11:11:32.000Z</time>
        <extensions>
          <ns3:TrackPointExtension>
            <ns3:atemp>27.0</ns3:atemp>
            <ns3:hr>147</ns3:hr>
          </ns3:TrackPointExtension>
        </extensions>
      </trkpt>
      <trkpt lat="47.01349499635398387908935546875" lon="6.940728463232517242431640625">
        <ele>858.20001220703125</ele>
        <time>2019-06-19T11:11:35.000Z</time>
        <extensions>
          <ns3:TrackPointExtension>
            <ns3:atemp>27.0</ns3:atemp>
            <ns3:hr>147</ns3:hr>
          </ns3:TrackPointExtension>
        </extensions>
      </trkpt>
      <trkpt lat="47.0135348103940486907958984375" lon="6.94079996086657047271728515625">
        <ele>858.5999755859375</ele>
        <time>2019-06-19T11:11:38.000Z</time>
        <extensions>
          <ns3:TrackPointExtension>
            <ns3:atemp>27.0</ns3:atemp>
            <ns3:hr>148</ns3:hr>
          </ns3:TrackPointExtension>
        </extensions>
      </trkpt>
      <trkpt lat="47.013588286936283111572265625" lon="6.94086701609194278717041015625">
        <ele>859.20001220703125</ele>
        <time>2019-06-19T11:11:41.000Z</time>
        <extensions>
          <ns3:TrackPointExtension>
            <ns3:atemp>27.0</ns3:atemp>
            <ns3:hr>147</ns3:hr>
          </ns3:TrackPointExtension>
        </extensions>
      </trkpt>
      <trkpt lat="47.0136528275907039642333984375" lon="6.94097430445253849029541015625">
        <ele>860</ele>
        <time>2019-06-19T11:11:45.000Z</time>
        <extensions>
          <ns3:TrackPointExtension>
            <ns3:atemp>27.0</ns3:atemp>
            <ns3:hr>147</ns3:hr>
          </ns3:TrackPointExtension>
        </extensions>
      </trkpt>
      <trkpt lat="47.0136954076588153839111328125" lon="6.941048316657543182373046875">
        <ele>860.4000244140625</ele>
        <time>2019-06-19T11:11:48.000Z</time>
        <extensions>
          <ns3:TrackPointExtension>
            <ns3:atemp>27.0</ns3:atemp>
            <ns3:hr>146</ns3:hr>
          </ns3:TrackPointExtension>
        </extensions>
      </trkpt>
      <trkpt lat="47.013735808432102203369140625" lon="6.94108712486922740936279296875">
        <ele>860.5999755859375</ele>
        <time>2019-06-19T11:11:50.000Z</time>
        <extensions>
          <ns3:TrackPointExtension>
            <ns3:atemp>27.0</ns3:atemp>
            <ns3:hr>147</ns3:hr>
          </ns3:TrackPointExtension>
        </extensions>
      </trkpt>
      <trkpt lat="47.0138379000127315521240234375" lon="6.94123464636504650115966796875">
        <ele>861</ele>
        <time>2019-06-19T11:11:56.000Z</time>
        <extensions>
          <ns3:TrackPointExtension>
            <ns3:atemp>27.0</ns3:atemp>
            <ns3:hr>147</ns3:hr>
          </ns3:TrackPointExtension>
        </extensions>
      </trkpt>
      <trkpt lat="47.0138791389763355255126953125" lon="6.94131293334066867828369140625">
        <ele>861.4000244140625</ele>
        <time>2019-06-19T11:11:59.000Z</time>
        <extensions>
          <ns3:TrackPointExtension>
            <ns3:atemp>27.0</ns3:atemp>
            <ns3:hr>147</ns3:hr>
          </ns3:TrackPointExtension>
        </extensions>
      </trkpt>
      <trkpt lat="47.0139274187386035919189453125" lon="6.94141401909291744232177734375">
        <ele>861.79998779296875</ele>
        <time>2019-06-19T11:12:02.000Z</time>
        <extensions>
          <ns3:TrackPointExtension>
            <ns3:atemp>27.0</ns3:atemp>
            <ns3:hr>148</ns3:hr>
          </ns3:TrackPointExtension>
        </extensions>
      </trkpt>
      <trkpt lat="47.01398818753659725189208984375" lon="6.94153706543147563934326171875">
        <ele>862.5999755859375</ele>
        <time>2019-06-19T11:12:06.000Z</time>
        <extensions>
          <ns3:TrackPointExtension>
            <ns3:atemp>27.0</ns3:atemp>
            <ns3:hr>147</ns3:hr>
          </ns3:TrackPointExtension>
        </extensions>
      </trkpt>
      <trkpt lat="47.01400763355195522308349609375" lon="6.94161350838840007781982421875">
        <ele>862.79998779296875</ele>
        <time>2019-06-19T11:12:08.000Z</time>
        <extensions>
          <ns3:TrackPointExtension>
            <ns3:atemp>27.0</ns3:atemp>
            <ns3:hr>147</ns3:hr>
          </ns3:TrackPointExtension>
        </extensions>
      </trkpt>
      <trkpt lat="47.0140162669122219085693359375" lon="6.9417166896164417266845703125">
        <ele>863</ele>
        <time>2019-06-19T11:12:10.000Z</time>
        <extensions>
          <ns3:TrackPointExtension>
            <ns3:atemp>27.0</ns3:atemp>
            <ns3:hr>144</ns3:hr>
          </ns3:TrackPointExtension>
        </extensions>
      </trkpt>
      <trkpt lat="47.014054320752620697021484375" lon="6.9417808949947357177734375">
        <ele>863</ele>
        <time>2019-06-19T11:12:12.000Z</time>
        <extensions>
          <ns3:TrackPointExtension>
            <ns3:atemp>27.0</ns3:atemp>
            <ns3:hr>147</ns3:hr>
          </ns3:TrackPointExtension>
        </extensions>
      </trkpt>
      <trkpt lat="47.0140849985182285308837890625" lon="6.941852979362010955810546875">
        <ele>863.4000244140625</ele>
        <time>2019-06-19T11:12:14.000Z</time>
        <extensions>
          <ns3:TrackPointExtension>
            <ns3:atemp>27.0</ns3:atemp>
            <ns3:hr>147</ns3:hr>
          </ns3:TrackPointExtension>
        </extensions>
      </trkpt>
      <trkpt lat="47.01410570181906223297119140625" lon="6.9418762810528278350830078125">
        <ele>863.79998779296875</ele>
        <time>2019-06-19T11:12:15.000Z</time>
        <extensions>
          <ns3:TrackPointExtension>
            <ns3:atemp>27.0</ns3:atemp>
            <ns3:hr>147</ns3:hr>
          </ns3:TrackPointExtension>
        </extensions>
      </trkpt>
      <trkpt lat="47.01418817974627017974853515625" lon="6.9420100562274456024169921875">
        <ele>864.79998779296875</ele>
        <time>2019-06-19T11:12:20.000Z</time>
        <extensions>
          <ns3:TrackPointExtension>
            <ns3:atemp>27.0</ns3:atemp>
            <ns3:hr>149</ns3:hr>
          </ns3:TrackPointExtension>
        </extensions>
      </trkpt>
      <trkpt lat="47.01426764018833637237548828125" lon="6.94215531460940837860107421875">
        <ele>865.5999755859375</ele>
        <time>2019-06-19T11:12:25.000Z</time>
        <extensions>
          <ns3:TrackPointExtension>
            <ns3:atemp>27.0</ns3:atemp>
            <ns3:hr>149</ns3:hr>
          </ns3:TrackPointExtension>
        </extensions>
      </trkpt>
      <trkpt lat="47.0143817178905010223388671875" lon="6.94222806952893733978271484375">
        <ele>865.79998779296875</ele>
        <time>2019-06-19T11:12:29.000Z</time>
        <extensions>
          <ns3:TrackPointExtension>
            <ns3:atemp>27.0</ns3:atemp>
            <ns3:hr>149</ns3:hr>
          </ns3:TrackPointExtension>
        </extensions>
      </trkpt>
      <trkpt lat="47.0145094580948352813720703125" lon="6.9423359446227550506591796875">
        <ele>865.79998779296875</ele>
        <time>2019-06-19T11:12:35.000Z</time>
        <extensions>
          <ns3:TrackPointExtension>
            <ns3:atemp>27.0</ns3:atemp>
            <ns3:hr>148</ns3:hr>
          </ns3:TrackPointExtension>
        </extensions>
      </trkpt>
      <trkpt lat="47.01464717276394367218017578125" lon="6.94250400178134441375732421875">
        <ele>866</ele>
        <time>2019-06-19T11:12:40.000Z</time>
        <extensions>
          <ns3:TrackPointExtension>
            <ns3:atemp>27.0</ns3:atemp>
            <ns3:hr>147</ns3:hr>
          </ns3:TrackPointExtension>
        </extensions>
      </trkpt>
      <trkpt lat="47.01487264595925807952880859375" lon="6.94276786409318447113037109375">
        <ele>865.79998779296875</ele>
        <time>2019-06-19T11:12:46.000Z</time>
        <extensions>
          <ns3:TrackPointExtension>
            <ns3:atemp>27.0</ns3:atemp>
            <ns3:hr>149</ns3:hr>
          </ns3:TrackPointExtension>
        </extensions>
      </trkpt>
      <trkpt lat="47.014935426414012908935546875" lon="6.94287096150219440460205078125">
        <ele>866</ele>
        <time>2019-06-19T11:12:48.000Z</time>
        <extensions>
          <ns3:TrackPointExtension>
            <ns3:atemp>27.0</ns3:atemp>
            <ns3:hr>149</ns3:hr>
          </ns3:TrackPointExtension>
        </extensions>
      </trkpt>
      <trkpt lat="47.01501689851284027099609375" lon="6.943037845194339752197265625">
        <ele>866.20001220703125</ele>
        <time>2019-06-19T11:12:51.000Z</time>
        <extensions>
          <ns3:TrackPointExtension>
            <ns3:atemp>27.0</ns3:atemp>
            <ns3:hr>148</ns3:hr>
          </ns3:TrackPointExtension>
        </extensions>
      </trkpt>
      <trkpt lat="47.015039362013339996337890625" lon="6.94309928454458713531494140625">
        <ele>866.4000244140625</ele>
        <time>2019-06-19T11:12:52.000Z</time>
        <extensions>
          <ns3:TrackPointExtension>
            <ns3:atemp>27.0</ns3:atemp>
            <ns3:hr>148</ns3:hr>
          </ns3:TrackPointExtension>
        </extensions>
      </trkpt>
      <trkpt lat="47.01522476971149444580078125" lon="6.94341260008513927459716796875">
        <ele>865.4000244140625</ele>
        <time>2019-06-19T11:12:57.000Z</time>
        <extensions>
          <ns3:TrackPointExtension>
            <ns3:atemp>27.0</ns3:atemp>
            <ns3:hr>147</ns3:hr>
          </ns3:TrackPointExtension>
        </extensions>
      </trkpt>
      <trkpt lat="47.0152973569929599761962890625" lon="6.94361879490315914154052734375">
        <ele>864.5999755859375</ele>
        <time>2019-06-19T11:12:59.000Z</time>
        <extensions>
          <ns3:TrackPointExtension>
            <ns3:atemp>26.0</ns3:atemp>
            <ns3:hr>147</ns3:hr>
          </ns3:TrackPointExtension>
        </extensions>
      </trkpt>
      <trkpt lat="47.015350498259067535400390625" lon="6.943850554525852203369140625">
        <ele>863.4000244140625</ele>
        <time>2019-06-19T11:13:01.000Z</time>
        <extensions>
          <ns3:TrackPointExtension>
            <ns3:atemp>26.0</ns3:atemp>
            <ns3:hr>148</ns3:hr>
          </ns3:TrackPointExtension>
        </extensions>
      </trkpt>
      <trkpt lat="47.015394084155559539794921875" lon="6.94409404881298542022705078125">
        <ele>862.20001220703125</ele>
        <time>2019-06-19T11:13:03.000Z</time>
        <extensions>
          <ns3:TrackPointExtension>
            <ns3:atemp>26.0</ns3:atemp>
            <ns3:hr>147</ns3:hr>
          </ns3:TrackPointExtension>
        </extensions>
      </trkpt>
      <trkpt lat="47.01542249880731105804443359375" lon="6.944353468716144561767578125">
        <ele>860.4000244140625</ele>
        <time>2019-06-19T11:13:05.000Z</time>
        <extensions>
          <ns3:TrackPointExtension>
            <ns3:atemp>26.0</ns3:atemp>
            <ns3:hr>146</ns3:hr>
          </ns3:TrackPointExtension>
        </extensions>
      </trkpt>
      <trkpt lat="47.01543071307241916656494140625" lon="6.94458690471947193145751953125">
        <ele>859.20001220703125</ele>
        <time>2019-06-19T11:13:07.000Z</time>
        <extensions>
          <ns3:TrackPointExtension>
            <ns3:atemp>26.0</ns3:atemp>
            <ns3:hr>146</ns3:hr>
          </ns3:TrackPointExtension>
        </extensions>
      </trkpt>
      <trkpt lat="47.01544043608009815216064453125" lon="6.94476191885769367218017578125">
        <ele>858</ele>
        <time>2019-06-19T11:13:09.000Z</time>
        <extensions>
          <ns3:TrackPointExtension>
            <ns3:atemp>26.0</ns3:atemp>
            <ns3:hr>146</ns3:hr>
          </ns3:TrackPointExtension>
        </extensions>
      </trkpt>
      <trkpt lat="47.0154489018023014068603515625" lon="6.9448506832122802734375">
        <ele>857</ele>
        <time>2019-06-19T11:13:10.000Z</time>
        <extensions>
          <ns3:TrackPointExtension>
            <ns3:atemp>25.0</ns3:atemp>
            <ns3:hr>146</ns3:hr>
          </ns3:TrackPointExtension>
        </extensions>
      </trkpt>
      <trkpt lat="47.015493996441364288330078125" lon="6.945062577724456787109375">
        <ele>855.4000244140625</ele>
        <time>2019-06-19T11:13:12.000Z</time>
        <extensions>
          <ns3:TrackPointExtension>
            <ns3:atemp>25.0</ns3:atemp>
            <ns3:hr>145</ns3:hr>
          </ns3:TrackPointExtension>
        </extensions>
      </trkpt>
      <trkpt lat="47.01552492566406726837158203125" lon="6.94518260657787322998046875">
        <ele>855</ele>
        <time>2019-06-19T11:13:13.000Z</time>
        <extensions>
          <ns3:TrackPointExtension>
            <ns3:atemp>25.0</ns3:atemp>
            <ns3:hr>145</ns3:hr>
          </ns3:TrackPointExtension>
        </extensions>
      </trkpt>
      <trkpt lat="47.0155598782002925872802734375" lon="6.9453014619648456573486328125">
        <ele>854.4000244140625</ele>
        <time>2019-06-19T11:13:14.000Z</time>
        <extensions>
          <ns3:TrackPointExtension>
            <ns3:atemp>25.0</ns3:atemp>
            <ns3:hr>145</ns3:hr>
          </ns3:TrackPointExtension>
        </extensions>
      </trkpt>
      <trkpt lat="47.01564428396522998809814453125" lon="6.94559357129037380218505859375">
        <ele>853</ele>
        <time>2019-06-19T11:13:16.000Z</time>
        <extensions>
          <ns3:TrackPointExtension>
            <ns3:atemp>25.0</ns3:atemp>
            <ns3:hr>145</ns3:hr>
          </ns3:TrackPointExtension>
        </extensions>
      </trkpt>
      <trkpt lat="47.0156859420239925384521484375" lon="6.94572768174111843109130859375">
        <ele>852.4000244140625</ele>
        <time>2019-06-19T11:13:17.000Z</time>
        <extensions>
          <ns3:TrackPointExtension>
            <ns3:atemp>25.0</ns3:atemp>
            <ns3:hr>145</ns3:hr>
          </ns3:TrackPointExtension>
        </extensions>
      </trkpt>
      <trkpt lat="47.01573195867240428924560546875" lon="6.94584419019520282745361328125">
        <ele>851.5999755859375</ele>
        <time>2019-06-19T11:13:18.000Z</time>
        <extensions>
          <ns3:TrackPointExtension>
            <ns3:atemp>25.0</ns3:atemp>
            <ns3:hr>144</ns3:hr>
          </ns3:TrackPointExtension>
        </extensions>
      </trkpt>
      <trkpt lat="47.015823908150196075439453125" lon="6.946097575128078460693359375">
        <ele>850</ele>
        <time>2019-06-19T11:13:20.000Z</time>
        <extensions>
          <ns3:TrackPointExtension>
            <ns3:atemp>25.0</ns3:atemp>
            <ns3:hr>145</ns3:hr>
          </ns3:TrackPointExtension>
        </extensions>
      </trkpt>
      <trkpt lat="47.0158512331545352935791015625" lon="6.94626043550670146942138671875">
        <ele>849.4000244140625</ele>
        <time>2019-06-19T11:13:21.000Z</time>
        <extensions>
          <ns3:TrackPointExtension>
            <ns3:atemp>25.0</ns3:atemp>
            <ns3:hr>144</ns3:hr>
          </ns3:TrackPointExtension>
        </extensions>
      </trkpt>
      <trkpt lat="47.01586824841797351837158203125" lon="6.946403682231903076171875">
        <ele>848.5999755859375</ele>
        <time>2019-06-19T11:13:22.000Z</time>
        <extensions>
          <ns3:TrackPointExtension>
            <ns3:atemp>25.0</ns3:atemp>
            <ns3:hr>144</ns3:hr>
          </ns3:TrackPointExtension>
        </extensions>
      </trkpt>
      <trkpt lat="47.015892975032329559326171875" lon="6.94667651318013668060302734375">
        <ele>847.4000244140625</ele>
        <time>2019-06-19T11:13:24.000Z</time>
        <extensions>
          <ns3:TrackPointExtension>
            <ns3:atemp>24.0</ns3:atemp>
            <ns3:hr>144</ns3:hr>
          </ns3:TrackPointExtension>
        </extensions>
      </trkpt>
      <trkpt lat="47.0159169472754001617431640625" lon="6.9467914290726184844970703125">
        <ele>846.79998779296875</ele>
        <time>2019-06-19T11:13:25.000Z</time>
        <extensions>
          <ns3:TrackPointExtension>
            <ns3:atemp>24.0</ns3:atemp>
            <ns3:hr>144</ns3:hr>
          </ns3:TrackPointExtension>
        </extensions>
      </trkpt>
      <trkpt lat="47.01594737358391284942626953125" lon="6.94690550677478313446044921875">
        <ele>846.20001220703125</ele>
        <time>2019-06-19T11:13:26.000Z</time>
        <extensions>
          <ns3:TrackPointExtension>
            <ns3:atemp>24.0</ns3:atemp>
            <ns3:hr>144</ns3:hr>
          </ns3:TrackPointExtension>
        </extensions>
      </trkpt>
      <trkpt lat="47.015985511243343353271484375" lon="6.94701061584055423736572265625">
        <ele>845.5999755859375</ele>
        <time>2019-06-19T11:13:27.000Z</time>
        <extensions>
          <ns3:TrackPointExtension>
            <ns3:atemp>24.0</ns3:atemp>
            <ns3:hr>144</ns3:hr>
          </ns3:TrackPointExtension>
        </extensions>
      </trkpt>
      <trkpt lat="47.0160354673862457275390625" lon="6.9471265375614166259765625">
        <ele>845.20001220703125</ele>
        <time>2019-06-19T11:13:28.000Z</time>
        <extensions>
          <ns3:TrackPointExtension>
            <ns3:atemp>24.0</ns3:atemp>
            <ns3:hr>145</ns3:hr>
          </ns3:TrackPointExtension>
        </extensions>
      </trkpt>
      <trkpt lat="47.016079723834991455078125" lon="6.94723357446491718292236328125">
        <ele>844.79998779296875</ele>
        <time>2019-06-19T11:13:29.000Z</time>
        <extensions>
          <ns3:TrackPointExtension>
            <ns3:atemp>24.0</ns3:atemp>
            <ns3:hr>144</ns3:hr>
          </ns3:TrackPointExtension>
        </extensions>
      </trkpt>
      <trkpt lat="47.016123645007610321044921875" lon="6.9474549405276775360107421875">
        <ele>843.79998779296875</ele>
        <time>2019-06-19T11:13:31.000Z</time>
        <extensions>
          <ns3:TrackPointExtension>
            <ns3:atemp>24.0</ns3:atemp>
            <ns3:hr>141</ns3:hr>
          </ns3:TrackPointExtension>
        </extensions>
      </trkpt>
      <trkpt lat="47.01613797806203365325927734375" lon="6.94752953946590423583984375">
        <ele>843.20001220703125</ele>
        <time>2019-06-19T11:13:32.000Z</time>
        <extensions>
          <ns3:TrackPointExtension>
            <ns3:atemp>24.0</ns3:atemp>
            <ns3:hr>142</ns3:hr>
          </ns3:TrackPointExtension>
        </extensions>
      </trkpt>
      <trkpt lat="47.016150467097759246826171875" lon="6.9476001150906085968017578125">
        <ele>842.5999755859375</ele>
        <time>2019-06-19T11:13:33.000Z</time>
        <extensions>
          <ns3:TrackPointExtension>
            <ns3:atemp>24.0</ns3:atemp>
            <ns3:hr>140</ns3:hr>
          </ns3:TrackPointExtension>
        </extensions>
      </trkpt>
      <trkpt lat="47.0161637105047702789306640625" lon="6.9477080740034580230712890625">
        <ele>841.20001220703125</ele>
        <time>2019-06-19T11:13:35.000Z</time>
        <extensions>
          <ns3:TrackPointExtension>
            <ns3:atemp>24.0</ns3:atemp>
            <ns3:hr>137</ns3:hr>
          </ns3:TrackPointExtension>
        </extensions>
      </trkpt>
      <trkpt lat="47.01616044156253337860107421875" lon="6.9477627240121364593505859375">
        <ele>840.79998779296875</ele>
        <time>2019-06-19T11:13:36.000Z</time>
        <extensions>
          <ns3:TrackPointExtension>
            <ns3:atemp>24.0</ns3:atemp>
            <ns3:hr>136</ns3:hr>
          </ns3:TrackPointExtension>
        </extensions>
      </trkpt>
      <trkpt lat="47.01616178266704082489013671875" lon="6.9478535838425159454345703125">
        <ele>840</ele>
        <time>2019-06-19T11:13:38.000Z</time>
        <extensions>
          <ns3:TrackPointExtension>
            <ns3:atemp>24.0</ns3:atemp>
            <ns3:hr>136</ns3:hr>
          </ns3:TrackPointExtension>
        </extensions>
      </trkpt>
      <trkpt lat="47.0161642134189605712890625" lon="6.9479363970458507537841796875">
        <ele>839.5999755859375</ele>
        <time>2019-06-19T11:13:40.000Z</time>
        <extensions>
          <ns3:TrackPointExtension>
            <ns3:atemp>24.0</ns3:atemp>
            <ns3:hr>135</ns3:hr>
          </ns3:TrackPointExtension>
        </extensions>
      </trkpt>
      <trkpt lat="47.0161261595785617828369140625" lon="6.94792374037206172943115234375">
        <ele>839.5999755859375</ele>
        <time>2019-06-19T11:13:43.000Z</time>
        <extensions>
          <ns3:TrackPointExtension>
            <ns3:atemp>24.0</ns3:atemp>
            <ns3:hr>135</ns3:hr>
          </ns3:TrackPointExtension>
        </extensions>
      </trkpt>
      <trkpt lat="47.01603923924267292022705078125" lon="6.94775442592799663543701171875">
        <ele>839.20001220703125</ele>
        <time>2019-06-19T11:13:47.000Z</time>
        <extensions>
          <ns3:TrackPointExtension>
            <ns3:atemp>24.0</ns3:atemp>
            <ns3:hr>135</ns3:hr>
          </ns3:TrackPointExtension>
        </extensions>
      </trkpt>
      <trkpt lat="47.0160182006657123565673828125" lon="6.94769759662449359893798828125">
        <ele>838.79998779296875</ele>
        <time>2019-06-19T11:13:48.000Z</time>
        <extensions>
          <ns3:TrackPointExtension>
            <ns3:atemp>24.0</ns3:atemp>
            <ns3:hr>136</ns3:hr>
          </ns3:TrackPointExtension>
        </extensions>
      </trkpt>
      <trkpt lat="47.01597042381763458251953125" lon="6.947539933025836944580078125">
        <ele>838</ele>
        <time>2019-06-19T11:13:50.000Z</time>
        <extensions>
          <ns3:TrackPointExtension>
            <ns3:atemp>24.0</ns3:atemp>
            <ns3:hr>135</ns3:hr>
          </ns3:TrackPointExtension>
        </extensions>
      </trkpt>
      <trkpt lat="47.01595039106905460357666015625" lon="6.94743222557008266448974609375">
        <ele>837.5999755859375</ele>
        <time>2019-06-19T11:13:51.000Z</time>
        <extensions>
          <ns3:TrackPointExtension>
            <ns3:atemp>24.0</ns3:atemp>
            <ns3:hr>135</ns3:hr>
          </ns3:TrackPointExtension>
        </extensions>
      </trkpt>
      <trkpt lat="47.01589892618358135223388671875" lon="6.94733466021716594696044921875">
        <ele>837</ele>
        <time>2019-06-19T11:13:52.000Z</time>
        <extensions>
          <ns3:TrackPointExtension>
            <ns3:atemp>24.0</ns3:atemp>
            <ns3:hr>135</ns3:hr>
          </ns3:TrackPointExtension>
        </extensions>
      </trkpt>
      <trkpt lat="47.01588459312915802001953125" lon="6.9472691975533962249755859375">
        <ele>836.20001220703125</ele>
        <time>2019-06-19T11:13:53.000Z</time>
        <extensions>
          <ns3:TrackPointExtension>
            <ns3:atemp>24.0</ns3:atemp>
            <ns3:hr>135</ns3:hr>
          </ns3:TrackPointExtension>
        </extensions>
      </trkpt>
      <trkpt lat="47.01578794978559017181396484375" lon="6.94708655588328838348388671875">
        <ele>834.5999755859375</ele>
        <time>2019-06-19T11:13:55.000Z</time>
        <extensions>
          <ns3:TrackPointExtension>
            <ns3:atemp>24.0</ns3:atemp>
            <ns3:hr>134</ns3:hr>
          </ns3:TrackPointExtension>
        </extensions>
      </trkpt>
      <trkpt lat="47.01573732309043407440185546875" lon="6.94697356782853603363037109375">
        <ele>834</ele>
        <time>2019-06-19T11:13:56.000Z</time>
        <extensions>
          <ns3:TrackPointExtension>
            <ns3:atemp>24.0</ns3:atemp>
            <ns3:hr>133</ns3:hr>
          </ns3:TrackPointExtension>
        </extensions>
      </trkpt>
      <trkpt lat="47.01567881740629673004150390625" lon="6.9468507729470729827880859375">
        <ele>833.20001220703125</ele>
        <time>2019-06-19T11:13:57.000Z</time>
        <extensions>
          <ns3:TrackPointExtension>
            <ns3:atemp>24.0</ns3:atemp>
            <ns3:hr>134</ns3:hr>
          </ns3:TrackPointExtension>
        </extensions>
      </trkpt>
      <trkpt lat="47.015620730817317962646484375" lon="6.94671012461185455322265625">
        <ele>832</ele>
        <time>2019-06-19T11:13:58.000Z</time>
        <extensions>
          <ns3:TrackPointExtension>
            <ns3:atemp>24.0</ns3:atemp>
            <ns3:hr>134</ns3:hr>
          </ns3:TrackPointExtension>
        </extensions>
      </trkpt>
      <trkpt lat="47.0155297033488750457763671875" lon="6.94659587927162647247314453125">
        <ele>830.79998779296875</ele>
        <time>2019-06-19T11:13:59.000Z</time>
        <extensions>
          <ns3:TrackPointExtension>
            <ns3:atemp>24.0</ns3:atemp>
            <ns3:hr>135</ns3:hr>
          </ns3:TrackPointExtension>
        </extensions>
      </trkpt>
      <trkpt lat="47.01545502059161663055419921875" lon="6.946477778255939483642578125">
        <ele>829.79998779296875</ele>
        <time>2019-06-19T11:14:00.000Z</time>
        <extensions>
          <ns3:TrackPointExtension>
            <ns3:atemp>24.0</ns3:atemp>
            <ns3:hr>135</ns3:hr>
          </ns3:TrackPointExtension>
        </extensions>
      </trkpt>
      <trkpt lat="47.0153778232634067535400390625" lon="6.94637979380786418914794921875">
        <ele>828.5999755859375</ele>
        <time>2019-06-19T11:14:01.000Z</time>
        <extensions>
          <ns3:TrackPointExtension>
            <ns3:atemp>23.0</ns3:atemp>
            <ns3:hr>135</ns3:hr>
          </ns3:TrackPointExtension>
        </extensions>
      </trkpt>
      <trkpt lat="47.01525293290615081787109375" lon="6.94615113548934459686279296875">
        <ele>827</ele>
        <time>2019-06-19T11:14:03.000Z</time>
        <extensions>
          <ns3:TrackPointExtension>
            <ns3:atemp>23.0</ns3:atemp>
            <ns3:hr>135</ns3:hr>
          </ns3:TrackPointExtension>
        </extensions>
      </trkpt>
      <trkpt lat="47.01511907391250133514404296875" lon="6.94592733867466449737548828125">
        <ele>825.4000244140625</ele>
        <time>2019-06-19T11:14:05.000Z</time>
        <extensions>
          <ns3:TrackPointExtension>
            <ns3:atemp>23.0</ns3:atemp>
            <ns3:hr>135</ns3:hr>
          </ns3:TrackPointExtension>
        </extensions>
      </trkpt>
      <trkpt lat="47.01505704782903194427490234375" lon="6.94582440890371799468994140625">
        <ele>824.20001220703125</ele>
        <time>2019-06-19T11:14:06.000Z</time>
        <extensions>
          <ns3:TrackPointExtension>
            <ns3:atemp>23.0</ns3:atemp>
            <ns3:hr>135</ns3:hr>
          </ns3:TrackPointExtension>
        </extensions>
      </trkpt>
      <trkpt lat="47.0150023140013217926025390625" lon="6.945704631507396697998046875">
        <ele>823.20001220703125</ele>
        <time>2019-06-19T11:14:07.000Z</time>
        <extensions>
          <ns3:TrackPointExtension>
            <ns3:atemp>23.0</ns3:atemp>
            <ns3:hr>135</ns3:hr>
          </ns3:TrackPointExtension>
        </extensions>
      </trkpt>
      <trkpt lat="47.01490080915391445159912109375" lon="6.94545644335448741912841796875">
        <ele>821.79998779296875</ele>
        <time>2019-06-19T11:14:09.000Z</time>
        <extensions>
          <ns3:TrackPointExtension>
            <ns3:atemp>23.0</ns3:atemp>
            <ns3:hr>135</ns3:hr>
          </ns3:TrackPointExtension>
        </extensions>
      </trkpt>
      <trkpt lat="47.01479083858430385589599609375" lon="6.94520783610641956329345703125">
        <ele>820</ele>
        <time>2019-06-19T11:14:11.000Z</time>
        <extensions>
          <ns3:TrackPointExtension>
            <ns3:atemp>23.0</ns3:atemp>
            <ns3:hr>137</ns3:hr>
          </ns3:TrackPointExtension>
        </extensions>
      </trkpt>
      <trkpt lat="47.01466041617095470428466796875" lon="6.94497465156018733978271484375">
        <ele>818.4000244140625</ele>
        <time>2019-06-19T11:14:13.000Z</time>
        <extensions>
          <ns3:TrackPointExtension>
            <ns3:atemp>23.0</ns3:atemp>
            <ns3:hr>140</ns3:hr>
          </ns3:TrackPointExtension>
        </extensions>
      </trkpt>
      <trkpt lat="47.0146100409328937530517578125" lon="6.94485210813581943511962890625">
        <ele>817.4000244140625</ele>
        <time>2019-06-19T11:14:14.000Z</time>
        <extensions>
          <ns3:TrackPointExtension>
            <ns3:atemp>23.0</ns3:atemp>
            <ns3:hr>141</ns3:hr>
          </ns3:TrackPointExtension>
        </extensions>
      </trkpt>
      <trkpt lat="47.01457031071186065673828125" lon="6.944741047918796539306640625">
        <ele>816.20001220703125</ele>
        <time>2019-06-19T11:14:15.000Z</time>
        <extensions>
          <ns3:TrackPointExtension>
            <ns3:atemp>23.0</ns3:atemp>
            <ns3:hr>142</ns3:hr>
          </ns3:TrackPointExtension>
        </extensions>
      </trkpt>
      <trkpt lat="47.01452898792922496795654296875" lon="6.94463786669075489044189453125">
        <ele>814.79998779296875</ele>
        <time>2019-06-19T11:14:16.000Z</time>
        <extensions>
          <ns3:TrackPointExtension>
            <ns3:atemp>23.0</ns3:atemp>
            <ns3:hr>143</ns3:hr>
          </ns3:TrackPointExtension>
        </extensions>
      </trkpt>
      <trkpt lat="47.01448188163340091705322265625" lon="6.94454583339393138885498046875">
        <ele>813.5999755859375</ele>
        <time>2019-06-19T11:14:17.000Z</time>
        <extensions>
          <ns3:TrackPointExtension>
            <ns3:atemp>23.0</ns3:atemp>
            <ns3:hr>143</ns3:hr>
          </ns3:TrackPointExtension>
        </extensions>
      </trkpt>
      <trkpt lat="47.0144269801676273345947265625" lon="6.9444783590734004974365234375">
        <ele>812.5999755859375</ele>
        <time>2019-06-19T11:14:18.000Z</time>
        <extensions>
          <ns3:TrackPointExtension>
            <ns3:atemp>23.0</ns3:atemp>
            <ns3:hr>142</ns3:hr>
          </ns3:TrackPointExtension>
        </extensions>
      </trkpt>
      <trkpt lat="47.01436453498899936676025390625" lon="6.9444170035421848297119140625">
        <ele>812</ele>
        <time>2019-06-19T11:14:19.000Z</time>
        <extensions>
          <ns3:TrackPointExtension>
            <ns3:atemp>23.0</ns3:atemp>
            <ns3:hr>142</ns3:hr>
          </ns3:TrackPointExtension>
        </extensions>
      </trkpt>
      <trkpt lat="47.01420913450419902801513671875" lon="6.94428138434886932373046875">
        <ele>810.20001220703125</ele>
        <time>2019-06-19T11:14:21.000Z</time>
        <extensions>
          <ns3:TrackPointExtension>
            <ns3:atemp>23.0</ns3:atemp>
            <ns3:hr>142</ns3:hr>
          </ns3:TrackPointExtension>
        </extensions>
      </trkpt>
      <trkpt lat="47.01410855166614055633544921875" lon="6.94419362582266330718994140625">
        <ele>809.20001220703125</ele>
        <time>2019-06-19T11:14:22.000Z</time>
        <extensions>
          <ns3:TrackPointExtension>
            <ns3:atemp>23.0</ns3:atemp>
            <ns3:hr>142</ns3:hr>
          </ns3:TrackPointExtension>
        </extensions>
      </trkpt>
      <trkpt lat="47.01400763355195522308349609375" lon="6.9441025145351886749267578125">
        <ele>808.20001220703125</ele>
        <time>2019-06-19T11:14:23.000Z</time>
        <extensions>
          <ns3:TrackPointExtension>
            <ns3:atemp>23.0</ns3:atemp>
            <ns3:hr>142</ns3:hr>
          </ns3:TrackPointExtension>
        </extensions>
      </trkpt>
      <trkpt lat="47.01392465271055698394775390625" lon="6.94400243461132049560546875">
        <ele>807.20001220703125</ele>
        <time>2019-06-19T11:14:24.000Z</time>
        <extensions>
          <ns3:TrackPointExtension>
            <ns3:atemp>23.0</ns3:atemp>
            <ns3:hr>142</ns3:hr>
          </ns3:TrackPointExtension>
        </extensions>
      </trkpt>
      <trkpt lat="47.01378786005079746246337890625" lon="6.94376212544739246368408203125">
        <ele>805.79998779296875</ele>
        <time>2019-06-19T11:14:26.000Z</time>
        <extensions>
          <ns3:TrackPointExtension>
            <ns3:atemp>23.0</ns3:atemp>
            <ns3:hr>143</ns3:hr>
          </ns3:TrackPointExtension>
        </extensions>
      </trkpt>
      <trkpt lat="47.01365911401808261871337890625" lon="6.94350899197161197662353515625">
        <ele>804.5999755859375</ele>
        <time>2019-06-19T11:14:28.000Z</time>
        <extensions>
          <ns3:TrackPointExtension>
            <ns3:atemp>23.0</ns3:atemp>
            <ns3:hr>144</ns3:hr>
          </ns3:TrackPointExtension>
        </extensions>
      </trkpt>
      <trkpt lat="47.0134965889155864715576171875" lon="6.9432794116437435150146484375">
        <ele>803.20001220703125</ele>
        <time>2019-06-19T11:14:30.000Z</time>
        <extensions>
          <ns3:TrackPointExtension>
            <ns3:atemp>23.0</ns3:atemp>
            <ns3:hr>144</ns3:hr>
          </ns3:TrackPointExtension>
        </extensions>
      </trkpt>
      <trkpt lat="47.01340883038938045501708984375" lon="6.9431687705218791961669921875">
        <ele>802.20001220703125</ele>
        <time>2019-06-19T11:14:31.000Z</time>
        <extensions>
          <ns3:TrackPointExtension>
            <ns3:atemp>23.0</ns3:atemp>
            <ns3:hr>145</ns3:hr>
          </ns3:TrackPointExtension>
        </extensions>
      </trkpt>
      <trkpt lat="47.01324018649756908416748046875" lon="6.9429525174200534820556640625">
        <ele>800.5999755859375</ele>
        <time>2019-06-19T11:14:33.000Z</time>
        <extensions>
          <ns3:TrackPointExtension>
            <ns3:atemp>23.0</ns3:atemp>
            <ns3:hr>144</ns3:hr>
          </ns3:TrackPointExtension>
        </extensions>
      </trkpt>
      <trkpt lat="47.01316072605550289154052734375" lon="6.94286224432289600372314453125">
        <ele>800</ele>
        <time>2019-06-19T11:14:34.000Z</time>
        <extensions>
          <ns3:TrackPointExtension>
            <ns3:atemp>23.0</ns3:atemp>
            <ns3:hr>143</ns3:hr>
          </ns3:TrackPointExtension>
        </extensions>
      </trkpt>
      <trkpt lat="47.0130788348615169525146484375" lon="6.9427882321178913116455078125">
        <ele>799.4000244140625</ele>
        <time>2019-06-19T11:14:35.000Z</time>
        <extensions>
          <ns3:TrackPointExtension>
            <ns3:atemp>23.0</ns3:atemp>
            <ns3:hr>142</ns3:hr>
          </ns3:TrackPointExtension>
        </extensions>
      </trkpt>
      <trkpt lat="47.01291010715067386627197265625" lon="6.94265722297132015228271484375">
        <ele>798.79998779296875</ele>
        <time>2019-06-19T11:14:37.000Z</time>
        <extensions>
          <ns3:TrackPointExtension>
            <ns3:atemp>23.0</ns3:atemp>
            <ns3:hr>138</ns3:hr>
          </ns3:TrackPointExtension>
        </extensions>
      </trkpt>
      <trkpt lat="47.0128179900348186492919921875" lon="6.94260173477232456207275390625">
        <ele>798.4000244140625</ele>
        <time>2019-06-19T11:14:38.000Z</time>
        <extensions>
          <ns3:TrackPointExtension>
            <ns3:atemp>23.0</ns3:atemp>
            <ns3:hr>137</ns3:hr>
          </ns3:TrackPointExtension>
        </extensions>
      </trkpt>
      <trkpt lat="47.0127398706972599029541015625" lon="6.942532919347286224365234375">
        <ele>798</ele>
        <time>2019-06-19T11:14:39.000Z</time>
        <extensions>
          <ns3:TrackPointExtension>
            <ns3:atemp>23.0</ns3:atemp>
            <ns3:hr>135</ns3:hr>
          </ns3:TrackPointExtension>
        </extensions>
      </trkpt>
      <trkpt lat="47.01266367919743061065673828125" lon="6.94245924241840839385986328125">
        <ele>797.20001220703125</ele>
        <time>2019-06-19T11:14:40.000Z</time>
        <extensions>
          <ns3:TrackPointExtension>
            <ns3:atemp>23.0</ns3:atemp>
            <ns3:hr>133</ns3:hr>
          </ns3:TrackPointExtension>
        </extensions>
      </trkpt>
      <trkpt lat="47.0126067660748958587646484375" lon="6.9423879124224185943603515625">
        <ele>796.4000244140625</ele>
        <time>2019-06-19T11:14:41.000Z</time>
        <extensions>
          <ns3:TrackPointExtension>
            <ns3:atemp>23.0</ns3:atemp>
            <ns3:hr>132</ns3:hr>
          </ns3:TrackPointExtension>
        </extensions>
      </trkpt>
      <trkpt lat="47.01255203224718570709228515625" lon="6.94230920635163784027099609375">
        <ele>796</ele>
        <time>2019-06-19T11:14:42.000Z</time>
        <extensions>
          <ns3:TrackPointExtension>
            <ns3:atemp>23.0</ns3:atemp>
            <ns3:hr>131</ns3:hr>
          </ns3:TrackPointExtension>
        </extensions>
      </trkpt>
      <trkpt lat="47.01251582242548465728759765625" lon="6.94221398793160915374755859375">
        <ele>795.5999755859375</ele>
        <time>2019-06-19T11:14:43.000Z</time>
        <extensions>
          <ns3:TrackPointExtension>
            <ns3:atemp>23.0</ns3:atemp>
            <ns3:hr>130</ns3:hr>
          </ns3:TrackPointExtension>
        </extensions>
      </trkpt>
      <trkpt lat="47.01245807111263275146484375" lon="6.94200125522911548614501953125">
        <ele>795.20001220703125</ele>
        <time>2019-06-19T11:14:45.000Z</time>
        <extensions>
          <ns3:TrackPointExtension>
            <ns3:atemp>23.0</ns3:atemp>
            <ns3:hr>129</ns3:hr>
          </ns3:TrackPointExtension>
        </extensions>
      </trkpt>
      <trkpt lat="47.01241993345320224761962890625" lon="6.94189312867820262908935546875">
        <ele>794.5999755859375</ele>
        <time>2019-06-19T11:14:46.000Z</time>
        <extensions>
          <ns3:TrackPointExtension>
            <ns3:atemp>23.0</ns3:atemp>
            <ns3:hr>128</ns3:hr>
          </ns3:TrackPointExtension>
        </extensions>
      </trkpt>
      <trkpt lat="47.01237333007156848907470703125" lon="6.9417824037373065948486328125">
        <ele>794</ele>
        <time>2019-06-19T11:14:47.000Z</time>
        <extensions>
          <ns3:TrackPointExtension>
            <ns3:atemp>23.0</ns3:atemp>
            <ns3:hr>128</ns3:hr>
          </ns3:TrackPointExtension>
        </extensions>
      </trkpt>
      <trkpt lat="47.01225162483751773834228515625" lon="6.9415648095309734344482421875">
        <ele>793.20001220703125</ele>
        <time>2019-06-19T11:14:49.000Z</time>
        <extensions>
          <ns3:TrackPointExtension>
            <ns3:atemp>23.0</ns3:atemp>
            <ns3:hr>128</ns3:hr>
          </ns3:TrackPointExtension>
        </extensions>
      </trkpt>
      <trkpt lat="47.0121222920715808868408203125" lon="6.941337324678897857666015625">
        <ele>792</ele>
        <time>2019-06-19T11:14:51.000Z</time>
        <extensions>
          <ns3:TrackPointExtension>
            <ns3:atemp>23.0</ns3:atemp>
            <ns3:hr>128</ns3:hr>
          </ns3:TrackPointExtension>
        </extensions>
      </trkpt>
      <trkpt lat="47.0119968988001346588134765625" lon="6.9411088339984416961669921875">
        <ele>790.79998779296875</ele>
        <time>2019-06-19T11:14:53.000Z</time>
        <extensions>
          <ns3:TrackPointExtension>
            <ns3:atemp>23.0</ns3:atemp>
            <ns3:hr>128</ns3:hr>
          </ns3:TrackPointExtension>
        </extensions>
      </trkpt>
      <trkpt lat="47.01187737286090850830078125" lon="6.94086735136806964874267578125">
        <ele>789.4000244140625</ele>
        <time>2019-06-19T11:14:55.000Z</time>
        <extensions>
          <ns3:TrackPointExtension>
            <ns3:atemp>23.0</ns3:atemp>
            <ns3:hr>127</ns3:hr>
          </ns3:TrackPointExtension>
        </extensions>
      </trkpt>
      <trkpt lat="47.01175843365490436553955078125" lon="6.94060483016073703765869140625">
        <ele>787.79998779296875</ele>
        <time>2019-06-19T11:14:57.000Z</time>
        <extensions>
          <ns3:TrackPointExtension>
            <ns3:atemp>23.0</ns3:atemp>
            <ns3:hr>128</ns3:hr>
          </ns3:TrackPointExtension>
        </extensions>
      </trkpt>
      <trkpt lat="47.01163471676409244537353515625" lon="6.94032772444188594818115234375">
        <ele>786</ele>
        <time>2019-06-19T11:14:59.000Z</time>
        <extensions>
          <ns3:TrackPointExtension>
            <ns3:atemp>23.0</ns3:atemp>
            <ns3:hr>128</ns3:hr>
          </ns3:TrackPointExtension>
        </extensions>
      </trkpt>
      <trkpt lat="47.011510245501995086669921875" lon="6.940062604844570159912109375">
        <ele>784.5999755859375</ele>
        <time>2019-06-19T11:15:01.000Z</time>
        <extensions>
          <ns3:TrackPointExtension>
            <ns3:atemp>23.0</ns3:atemp>
            <ns3:hr>130</ns3:hr>
          </ns3:TrackPointExtension>
        </extensions>
      </trkpt>
      <trkpt lat="47.01145827770233154296875" lon="6.9399216212332248687744140625">
        <ele>784</ele>
        <time>2019-06-19T11:15:02.000Z</time>
        <extensions>
          <ns3:TrackPointExtension>
            <ns3:atemp>23.0</ns3:atemp>
            <ns3:hr>130</ns3:hr>
          </ns3:TrackPointExtension>
        </extensions>
      </trkpt>
      <trkpt lat="47.01141209341585636138916015625" lon="6.93977787159383296966552734375">
        <ele>783.4000244140625</ele>
        <time>2019-06-19T11:15:03.000Z</time>
        <extensions>
          <ns3:TrackPointExtension>
            <ns3:atemp>23.0</ns3:atemp>
            <ns3:hr>132</ns3:hr>
          </ns3:TrackPointExtension>
        </extensions>
      </trkpt>
      <trkpt lat="47.0113317109644412994384765625" lon="6.93948416970670223236083984375">
        <ele>781.79998779296875</ele>
        <time>2019-06-19T11:15:05.000Z</time>
        <extensions>
          <ns3:TrackPointExtension>
            <ns3:atemp>23.0</ns3:atemp>
            <ns3:hr>131</ns3:hr>
          </ns3:TrackPointExtension>
        </extensions>
      </trkpt>
      <trkpt lat="47.01128720305860042572021484375" lon="6.93934067152440547943115234375">
        <ele>781</ele>
        <time>2019-06-19T11:15:06.000Z</time>
        <extensions>
          <ns3:TrackPointExtension>
            <ns3:atemp>23.0</ns3:atemp>
            <ns3:hr>131</ns3:hr>
          </ns3:TrackPointExtension>
        </extensions>
      </trkpt>
      <trkpt lat="47.0112421922385692596435546875" lon="6.9392007775604724884033203125">
        <ele>780.20001220703125</ele>
        <time>2019-06-19T11:15:07.000Z</time>
        <extensions>
          <ns3:TrackPointExtension>
            <ns3:atemp>23.0</ns3:atemp>
            <ns3:hr>132</ns3:hr>
          </ns3:TrackPointExtension>
        </extensions>
      </trkpt>
      <trkpt lat="47.01119164936244487762451171875" lon="6.93907429464161396026611328125">
        <ele>779.4000244140625</ele>
        <time>2019-06-19T11:15:08.000Z</time>
        <extensions>
          <ns3:TrackPointExtension>
            <ns3:atemp>23.0</ns3:atemp>
            <ns3:hr>132</ns3:hr>
          </ns3:TrackPointExtension>
        </extensions>
      </trkpt>
      <trkpt lat="47.01114001683890819549560546875" lon="6.938962899148464202880859375">
        <ele>778.5999755859375</ele>
        <time>2019-06-19T11:15:09.000Z</time>
        <extensions>
          <ns3:TrackPointExtension>
            <ns3:atemp>23.0</ns3:atemp>
            <ns3:hr>130</ns3:hr>
          </ns3:TrackPointExtension>
        </extensions>
      </trkpt>
      <trkpt lat="47.0110826008021831512451171875" lon="6.9388634897768497467041015625">
        <ele>778.20001220703125</ele>
        <time>2019-06-19T11:15:10.000Z</time>
        <extensions>
          <ns3:TrackPointExtension>
            <ns3:atemp>23.0</ns3:atemp>
            <ns3:hr>131</ns3:hr>
          </ns3:TrackPointExtension>
        </extensions>
      </trkpt>
      <trkpt lat="47.0110249333083629608154296875" lon="6.93878822028636932373046875">
        <ele>777.5999755859375</ele>
        <time>2019-06-19T11:15:11.000Z</time>
        <extensions>
          <ns3:TrackPointExtension>
            <ns3:atemp>23.0</ns3:atemp>
            <ns3:hr>131</ns3:hr>
          </ns3:TrackPointExtension>
        </extensions>
      </trkpt>
      <trkpt lat="47.010956704616546630859375" lon="6.9387360848486423492431640625">
        <ele>777.20001220703125</ele>
        <time>2019-06-19T11:15:12.000Z</time>
        <extensions>
          <ns3:TrackPointExtension>
            <ns3:atemp>23.0</ns3:atemp>
            <ns3:hr>132</ns3:hr>
          </ns3:TrackPointExtension>
        </extensions>
      </trkpt>
      <trkpt lat="47.0108814351260662078857421875" lon="6.93869375623762607574462890625">
        <ele>776.5999755859375</ele>
        <time>2019-06-19T11:15:13.000Z</time>
        <extensions>
          <ns3:TrackPointExtension>
            <ns3:atemp>23.0</ns3:atemp>
            <ns3:hr>130</ns3:hr>
          </ns3:TrackPointExtension>
        </extensions>
      </trkpt>
      <trkpt lat="47.01081245206296443939208984375" lon="6.93864078260958194732666015625">
        <ele>776</ele>
        <time>2019-06-19T11:15:14.000Z</time>
        <extensions>
          <ns3:TrackPointExtension>
            <ns3:atemp>23.0</ns3:atemp>
            <ns3:hr>129</ns3:hr>
          </ns3:TrackPointExtension>
        </extensions>
      </trkpt>
      <trkpt lat="47.01066878624260425567626953125" lon="6.938520334661006927490234375">
        <ele>774.5999755859375</ele>
        <time>2019-06-19T11:15:16.000Z</time>
        <extensions>
          <ns3:TrackPointExtension>
            <ns3:atemp>23.0</ns3:atemp>
            <ns3:hr>129</ns3:hr>
          </ns3:TrackPointExtension>
        </extensions>
      </trkpt>
      <trkpt lat="47.01061162166297435760498046875" lon="6.9384624995291233062744140625">
        <ele>774.20001220703125</ele>
        <time>2019-06-19T11:15:17.000Z</time>
        <extensions>
          <ns3:TrackPointExtension>
            <ns3:atemp>23.0</ns3:atemp>
            <ns3:hr>129</ns3:hr>
          </ns3:TrackPointExtension>
        </extensions>
      </trkpt>
      <trkpt lat="47.01056711375713348388671875" lon="6.9384075142443180084228515625">
        <ele>773.79998779296875</ele>
        <time>2019-06-19T11:15:18.000Z</time>
        <extensions>
          <ns3:TrackPointExtension>
            <ns3:atemp>23.0</ns3:atemp>
            <ns3:hr>128</ns3:hr>
          </ns3:TrackPointExtension>
        </extensions>
      </trkpt>
      <trkpt lat="47.0105283893644809722900390625" lon="6.9383444823324680328369140625">
        <ele>773.20001220703125</ele>
        <time>2019-06-19T11:15:19.000Z</time>
        <extensions>
          <ns3:TrackPointExtension>
            <ns3:atemp>23.0</ns3:atemp>
            <ns3:hr>127</ns3:hr>
          </ns3:TrackPointExtension>
        </extensions>
      </trkpt>
      <trkpt lat="47.0104658603668212890625" lon="6.93819545209407806396484375">
        <ele>772.20001220703125</ele>
        <time>2019-06-19T11:15:21.000Z</time>
        <extensions>
          <ns3:TrackPointExtension>
            <ns3:atemp>23.0</ns3:atemp>
            <ns3:hr>127</ns3:hr>
          </ns3:TrackPointExtension>
        </extensions>
      </trkpt>
      <trkpt lat="47.01044029556214809417724609375" lon="6.938109286129474639892578125">
        <ele>771.79998779296875</ele>
        <time>2019-06-19T11:15:22.000Z</time>
        <extensions>
          <ns3:TrackPointExtension>
            <ns3:atemp>23.0</ns3:atemp>
            <ns3:hr>126</ns3:hr>
          </ns3:TrackPointExtension>
        </extensions>
      </trkpt>
      <trkpt lat="47.010404504835605621337890625" lon="6.93793385289609432220458984375">
        <ele>771</ele>
        <time>2019-06-19T11:15:24.000Z</time>
        <extensions>
          <ns3:TrackPointExtension>
            <ns3:atemp>23.0</ns3:atemp>
            <ns3:hr>125</ns3:hr>
          </ns3:TrackPointExtension>
        </extensions>
      </trkpt>
      <trkpt lat="47.01038070023059844970703125" lon="6.9378335215151309967041015625">
        <ele>770.5999755859375</ele>
        <time>2019-06-19T11:15:25.000Z</time>
        <extensions>
          <ns3:TrackPointExtension>
            <ns3:atemp>23.0</ns3:atemp>
            <ns3:hr>126</ns3:hr>
          </ns3:TrackPointExtension>
        </extensions>
      </trkpt>
      <trkpt lat="47.010329402983188629150390625" lon="6.93773654289543628692626953125">
        <ele>769.79998779296875</ele>
        <time>2019-06-19T11:15:26.000Z</time>
        <extensions>
          <ns3:TrackPointExtension>
            <ns3:atemp>23.0</ns3:atemp>
            <ns3:hr>127</ns3:hr>
          </ns3:TrackPointExtension>
        </extensions>
      </trkpt>
      <trkpt lat="47.0102722384035587310791015625" lon="6.93764165975153446197509765625">
        <ele>769.20001220703125</ele>
        <time>2019-06-19T11:15:27.000Z</time>
        <extensions>
          <ns3:TrackPointExtension>
            <ns3:atemp>23.0</ns3:atemp>
            <ns3:hr>126</ns3:hr>
          </ns3:TrackPointExtension>
        </extensions>
      </trkpt>
      <trkpt lat="47.01021230779588222503662109375" lon="6.93753738887608051300048828125">
        <ele>768.79998779296875</ele>
        <time>2019-06-19T11:15:28.000Z</time>
        <extensions>
          <ns3:TrackPointExtension>
            <ns3:atemp>23.0</ns3:atemp>
            <ns3:hr>126</ns3:hr>
          </ns3:TrackPointExtension>
        </extensions>
      </trkpt>
      <trkpt lat="47.010020948946475982666015625" lon="6.93722658790647983551025390625">
        <ele>767.5999755859375</ele>
        <time>2019-06-19T11:15:31.000Z</time>
        <extensions>
          <ns3:TrackPointExtension>
            <ns3:atemp>23.0</ns3:atemp>
            <ns3:hr>125</ns3:hr>
          </ns3:TrackPointExtension>
        </extensions>
      </trkpt>
      <trkpt lat="47.00995012186467647552490234375" lon="6.9371259212493896484375">
        <ele>766.79998779296875</ele>
        <time>2019-06-19T11:15:32.000Z</time>
        <extensions>
          <ns3:TrackPointExtension>
            <ns3:atemp>23.0</ns3:atemp>
            <ns3:hr>126</ns3:hr>
          </ns3:TrackPointExtension>
        </extensions>
      </trkpt>
      <trkpt lat="47.00988725759088993072509765625" lon="6.9370134361088275909423828125">
        <ele>766</ele>
        <time>2019-06-19T11:15:33.000Z</time>
        <extensions>
          <ns3:TrackPointExtension>
            <ns3:atemp>23.0</ns3:atemp>
            <ns3:hr>127</ns3:hr>
          </ns3:TrackPointExtension>
        </extensions>
      </trkpt>
      <trkpt lat="47.0097723416984081268310546875" lon="6.936771869659423828125">
        <ele>764.5999755859375</ele>
        <time>2019-06-19T11:15:35.000Z</time>
        <extensions>
          <ns3:TrackPointExtension>
            <ns3:atemp>23.0</ns3:atemp>
            <ns3:hr>127</ns3:hr>
          </ns3:TrackPointExtension>
        </extensions>
      </trkpt>
      <trkpt lat="47.00971417129039764404296875" lon="6.9366523437201976776123046875">
        <ele>763.79998779296875</ele>
        <time>2019-06-19T11:15:36.000Z</time>
        <extensions>
          <ns3:TrackPointExtension>
            <ns3:atemp>23.0</ns3:atemp>
            <ns3:hr>126</ns3:hr>
          </ns3:TrackPointExtension>
        </extensions>
      </trkpt>
      <trkpt lat="47.00965407304465770721435546875" lon="6.9365319795906543731689453125">
        <ele>763.4000244140625</ele>
        <time>2019-06-19T11:15:37.000Z</time>
        <extensions>
          <ns3:TrackPointExtension>
            <ns3:atemp>23.0</ns3:atemp>
            <ns3:hr>126</ns3:hr>
          </ns3:TrackPointExtension>
        </extensions>
      </trkpt>
      <trkpt lat="47.0095171965658664703369140625" lon="6.93631815724074840545654296875">
        <ele>762</ele>
        <time>2019-06-19T11:15:39.000Z</time>
        <extensions>
          <ns3:TrackPointExtension>
            <ns3:atemp>23.0</ns3:atemp>
            <ns3:hr>125</ns3:hr>
          </ns3:TrackPointExtension>
        </extensions>
      </trkpt>
      <trkpt lat="47.00943681411445140838623046875" lon="6.93622277118265628814697265625">
        <ele>761.20001220703125</ele>
        <time>2019-06-19T11:15:40.000Z</time>
        <extensions>
          <ns3:TrackPointExtension>
            <ns3:atemp>23.0</ns3:atemp>
            <ns3:hr>124</ns3:hr>
          </ns3:TrackPointExtension>
        </extensions>
      </trkpt>
      <trkpt lat="47.0093621313571929931640625" lon="6.9361179135739803314208984375">
        <ele>760.5999755859375</ele>
        <time>2019-06-19T11:15:41.000Z</time>
        <extensions>
          <ns3:TrackPointExtension>
            <ns3:atemp>23.0</ns3:atemp>
            <ns3:hr>124</ns3:hr>
          </ns3:TrackPointExtension>
        </extensions>
      </trkpt>
      <trkpt lat="47.00914579443633556365966796875" lon="6.93578775040805339813232421875">
        <ele>758.79998779296875</ele>
        <time>2019-06-19T11:15:44.000Z</time>
        <extensions>
          <ns3:TrackPointExtension>
            <ns3:atemp>23.0</ns3:atemp>
            <ns3:hr>122</ns3:hr>
          </ns3:TrackPointExtension>
        </extensions>
      </trkpt>
      <trkpt lat="47.00900397263467311859130859375" lon="6.9355593435466289520263671875">
        <ele>757.4000244140625</ele>
        <time>2019-06-19T11:15:46.000Z</time>
        <extensions>
          <ns3:TrackPointExtension>
            <ns3:atemp>23.0</ns3:atemp>
            <ns3:hr>123</ns3:hr>
          </ns3:TrackPointExtension>
        </extensions>
      </trkpt>
      <trkpt lat="47.00894437730312347412109375" lon="6.9354383088648319244384765625">
        <ele>757</ele>
        <time>2019-06-19T11:15:47.000Z</time>
        <extensions>
          <ns3:TrackPointExtension>
            <ns3:atemp>23.0</ns3:atemp>
            <ns3:hr>123</ns3:hr>
          </ns3:TrackPointExtension>
        </extensions>
      </trkpt>
      <trkpt lat="47.00884203426539897918701171875" lon="6.93520856089890003204345703125">
        <ele>756.20001220703125</ele>
        <time>2019-06-19T11:15:49.000Z</time>
        <extensions>
          <ns3:TrackPointExtension>
            <ns3:atemp>23.0</ns3:atemp>
            <ns3:hr>123</ns3:hr>
          </ns3:TrackPointExtension>
        </extensions>
      </trkpt>
      <trkpt lat="47.00870557688176631927490234375" lon="6.9348029606044292449951171875">
        <ele>755.4000244140625</ele>
        <time>2019-06-19T11:15:53.000Z</time>
        <extensions>
          <ns3:TrackPointExtension>
            <ns3:atemp>23.0</ns3:atemp>
            <ns3:hr>124</ns3:hr>
          </ns3:TrackPointExtension>
        </extensions>
      </trkpt>
      <trkpt lat="47.008652351796627044677734375" lon="6.93442602641880512237548828125">
        <ele>755.4000244140625</ele>
        <time>2019-06-19T11:15:57.000Z</time>
        <extensions>
          <ns3:TrackPointExtension>
            <ns3:atemp>23.0</ns3:atemp>
            <ns3:hr>121</ns3:hr>
          </ns3:TrackPointExtension>
        </extensions>
      </trkpt>
      <trkpt lat="47.0086350850760936737060546875" lon="6.93432242609560489654541015625">
        <ele>755.4000244140625</ele>
        <time>2019-06-19T11:15:58.000Z</time>
        <extensions>
          <ns3:TrackPointExtension>
            <ns3:atemp>23.0</ns3:atemp>
            <ns3:hr>123</ns3:hr>
          </ns3:TrackPointExtension>
        </extensions>
      </trkpt>
      <trkpt lat="47.0086109451949596405029296875" lon="6.93412444554269313812255859375">
        <ele>755.79998779296875</ele>
        <time>2019-06-19T11:16:00.000Z</time>
        <extensions>
          <ns3:TrackPointExtension>
            <ns3:atemp>23.0</ns3:atemp>
            <ns3:hr>126</ns3:hr>
          </ns3:TrackPointExtension>
        </extensions>
      </trkpt>
      <trkpt lat="47.00858973897993564605712890625" lon="6.93394792266190052032470703125">
        <ele>755.5999755859375</ele>
        <time>2019-06-19T11:16:02.000Z</time>
        <extensions>
          <ns3:TrackPointExtension>
            <ns3:atemp>23.0</ns3:atemp>
            <ns3:hr>124</ns3:hr>
          </ns3:TrackPointExtension>
        </extensions>
      </trkpt>
      <trkpt lat="47.008571885526180267333984375" lon="6.93386376835405826568603515625">
        <ele>755.5999755859375</ele>
        <time>2019-06-19T11:16:03.000Z</time>
        <extensions>
          <ns3:TrackPointExtension>
            <ns3:atemp>23.0</ns3:atemp>
            <ns3:hr>125</ns3:hr>
          </ns3:TrackPointExtension>
        </extensions>
      </trkpt>
      <trkpt lat="47.0085170678794384002685546875" lon="6.93369529210031032562255859375">
        <ele>755.79998779296875</ele>
        <time>2019-06-19T11:16:05.000Z</time>
        <extensions>
          <ns3:TrackPointExtension>
            <ns3:atemp>23.0</ns3:atemp>
            <ns3:hr>125</ns3:hr>
          </ns3:TrackPointExtension>
        </extensions>
      </trkpt>
      <trkpt lat="47.0084858871996402740478515625" lon="6.9335755147039890289306640625">
        <ele>755.79998779296875</ele>
        <time>2019-06-19T11:16:07.000Z</time>
        <extensions>
          <ns3:TrackPointExtension>
            <ns3:atemp>23.0</ns3:atemp>
            <ns3:hr>126</ns3:hr>
          </ns3:TrackPointExtension>
        </extensions>
      </trkpt>
      <trkpt lat="47.0084684528410434722900390625" lon="6.93347937427461147308349609375">
        <ele>755.79998779296875</ele>
        <time>2019-06-19T11:16:08.000Z</time>
        <extensions>
          <ns3:TrackPointExtension>
            <ns3:atemp>23.0</ns3:atemp>
            <ns3:hr>126</ns3:hr>
          </ns3:TrackPointExtension>
        </extensions>
      </trkpt>
      <trkpt lat="47.0084533654153347015380859375" lon="6.9333790428936481475830078125">
        <ele>756</ele>
        <time>2019-06-19T11:16:09.000Z</time>
        <extensions>
          <ns3:TrackPointExtension>
            <ns3:atemp>23.0</ns3:atemp>
            <ns3:hr>125</ns3:hr>
          </ns3:TrackPointExtension>
        </extensions>
      </trkpt>
      <trkpt lat="47.00843115337193012237548828125" lon="6.93303479813039302825927734375">
        <ele>755.20001220703125</ele>
        <time>2019-06-19T11:16:12.000Z</time>
        <extensions>
          <ns3:TrackPointExtension>
            <ns3:atemp>23.0</ns3:atemp>
            <ns3:hr>125</ns3:hr>
          </ns3:TrackPointExtension>
        </extensions>
      </trkpt>
      <trkpt lat="47.008421011269092559814453125" lon="6.9327738694846630096435546875">
        <ele>753.79998779296875</ele>
        <time>2019-06-19T11:16:14.000Z</time>
        <extensions>
          <ns3:TrackPointExtension>
            <ns3:atemp>23.0</ns3:atemp>
            <ns3:hr>128</ns3:hr>
          </ns3:TrackPointExtension>
        </extensions>
      </trkpt>
      <trkpt lat="47.00837843120098114013671875" lon="6.93252182565629482269287109375">
        <ele>752.4000244140625</ele>
        <time>2019-06-19T11:16:16.000Z</time>
        <extensions>
          <ns3:TrackPointExtension>
            <ns3:atemp>23.0</ns3:atemp>
            <ns3:hr>129</ns3:hr>
          </ns3:TrackPointExtension>
        </extensions>
      </trkpt>
      <trkpt lat="47.008339874446392059326171875" lon="6.9322920776903629302978515625">
        <ele>751.4000244140625</ele>
        <time>2019-06-19T11:16:18.000Z</time>
        <extensions>
          <ns3:TrackPointExtension>
            <ns3:atemp>23.0</ns3:atemp>
            <ns3:hr>130</ns3:hr>
          </ns3:TrackPointExtension>
        </extensions>
      </trkpt>
      <trkpt lat="47.00833861716091632843017578125" lon="6.93218059837818145751953125">
        <ele>751</ele>
        <time>2019-06-19T11:16:19.000Z</time>
        <extensions>
          <ns3:TrackPointExtension>
            <ns3:atemp>23.0</ns3:atemp>
            <ns3:hr>130</ns3:hr>
          </ns3:TrackPointExtension>
        </extensions>
      </trkpt>
      <trkpt lat="47.00834448449313640594482421875" lon="6.932070963084697723388671875">
        <ele>750.79998779296875</ele>
        <time>2019-06-19T11:16:20.000Z</time>
        <extensions>
          <ns3:TrackPointExtension>
            <ns3:atemp>23.0</ns3:atemp>
            <ns3:hr>130</ns3:hr>
          </ns3:TrackPointExtension>
        </extensions>
      </trkpt>
      <trkpt lat="47.0083437301218509674072265625" lon="6.93195219151675701141357421875">
        <ele>750.4000244140625</ele>
        <time>2019-06-19T11:16:21.000Z</time>
        <extensions>
          <ns3:TrackPointExtension>
            <ns3:atemp>23.0</ns3:atemp>
            <ns3:hr>131</ns3:hr>
          </ns3:TrackPointExtension>
        </extensions>
      </trkpt>
      <trkpt lat="47.00833660550415515899658203125" lon="6.9318406283855438232421875">
        <ele>750</ele>
        <time>2019-06-19T11:16:22.000Z</time>
        <extensions>
          <ns3:TrackPointExtension>
            <ns3:atemp>23.0</ns3:atemp>
            <ns3:hr>131</ns3:hr>
          </ns3:TrackPointExtension>
        </extensions>
      </trkpt>
      <trkpt lat="47.00830374844372272491455078125" lon="6.9316352717578411102294921875">
        <ele>749.20001220703125</ele>
        <time>2019-06-19T11:16:24.000Z</time>
        <extensions>
          <ns3:TrackPointExtension>
            <ns3:atemp>23.0</ns3:atemp>
            <ns3:hr>131</ns3:hr>
          </ns3:TrackPointExtension>
        </extensions>
      </trkpt>
      <trkpt lat="47.0082739926874637603759765625" lon="6.931512393057346343994140625">
        <ele>748.5999755859375</ele>
        <time>2019-06-19T11:16:25.000Z</time>
        <extensions>
          <ns3:TrackPointExtension>
            <ns3:atemp>23.0</ns3:atemp>
            <ns3:hr>131</ns3:hr>
          </ns3:TrackPointExtension>
        </extensions>
      </trkpt>
      <trkpt lat="47.00818338431417942047119140625" lon="6.93115222267806529998779296875">
        <ele>747.20001220703125</ele>
        <time>2019-06-19T11:16:28.000Z</time>
        <extensions>
          <ns3:TrackPointExtension>
            <ns3:atemp>23.0</ns3:atemp>
            <ns3:hr>131</ns3:hr>
          </ns3:TrackPointExtension>
        </extensions>
      </trkpt>
      <trkpt lat="47.00815991498529911041259765625" lon="6.93101995624601840972900390625">
        <ele>747</ele>
        <time>2019-06-19T11:16:29.000Z</time>
        <extensions>
          <ns3:TrackPointExtension>
            <ns3:atemp>23.0</ns3:atemp>
            <ns3:hr>131</ns3:hr>
          </ns3:TrackPointExtension>
        </extensions>
      </trkpt>
      <trkpt lat="47.00812186114490032196044921875" lon="6.93075693212449550628662109375">
        <ele>746.4000244140625</ele>
        <time>2019-06-19T11:16:31.000Z</time>
        <extensions>
          <ns3:TrackPointExtension>
            <ns3:atemp>23.0</ns3:atemp>
            <ns3:hr>130</ns3:hr>
          </ns3:TrackPointExtension>
        </extensions>
      </trkpt>
      <trkpt lat="47.00810811482369899749755859375" lon="6.9306190498173236846923828125">
        <ele>746</ele>
        <time>2019-06-19T11:16:32.000Z</time>
        <extensions>
          <ns3:TrackPointExtension>
            <ns3:atemp>23.0</ns3:atemp>
            <ns3:hr>130</ns3:hr>
          </ns3:TrackPointExtension>
        </extensions>
      </trkpt>
      <trkpt lat="47.0080827176570892333984375" lon="6.93049223162233829498291015625">
        <ele>745.4000244140625</ele>
        <time>2019-06-19T11:16:33.000Z</time>
        <extensions>
          <ns3:TrackPointExtension>
            <ns3:atemp>23.0</ns3:atemp>
            <ns3:hr>129</ns3:hr>
          </ns3:TrackPointExtension>
        </extensions>
      </trkpt>
      <trkpt lat="47.0080486871302127838134765625" lon="6.93036834709346294403076171875">
        <ele>744.79998779296875</ele>
        <time>2019-06-19T11:16:34.000Z</time>
        <extensions>
          <ns3:TrackPointExtension>
            <ns3:atemp>23.0</ns3:atemp>
            <ns3:hr>129</ns3:hr>
          </ns3:TrackPointExtension>
        </extensions>
      </trkpt>
      <trkpt lat="47.007995881140232086181640625" lon="6.9302420318126678466796875">
        <ele>744.4000244140625</ele>
        <time>2019-06-19T11:16:35.000Z</time>
        <extensions>
          <ns3:TrackPointExtension>
            <ns3:atemp>23.0</ns3:atemp>
            <ns3:hr>129</ns3:hr>
          </ns3:TrackPointExtension>
        </extensions>
      </trkpt>
      <trkpt lat="47.0078927837312221527099609375" lon="6.9300470687448978424072265625">
        <ele>744</ele>
        <time>2019-06-19T11:16:37.000Z</time>
        <extensions>
          <ns3:TrackPointExtension>
            <ns3:atemp>23.0</ns3:atemp>
            <ns3:hr>128</ns3:hr>
          </ns3:TrackPointExtension>
        </extensions>
      </trkpt>
      <trkpt lat="47.00784794054925441741943359375" lon="6.92993416450917720794677734375">
        <ele>743.79998779296875</ele>
        <time>2019-06-19T11:16:38.000Z</time>
        <extensions>
          <ns3:TrackPointExtension>
            <ns3:atemp>23.0</ns3:atemp>
            <ns3:hr>129</ns3:hr>
          </ns3:TrackPointExtension>
        </extensions>
      </trkpt>
      <trkpt lat="47.007739730179309844970703125" lon="6.9296105392277240753173828125">
        <ele>743.5999755859375</ele>
        <time>2019-06-19T11:16:41.000Z</time>
        <extensions>
          <ns3:TrackPointExtension>
            <ns3:atemp>23.0</ns3:atemp>
            <ns3:hr>129</ns3:hr>
          </ns3:TrackPointExtension>
        </extensions>
      </trkpt>
      <trkpt lat="47.007697485387325286865234375" lon="6.92949235439300537109375">
        <ele>743.4000244140625</ele>
        <time>2019-06-19T11:16:42.000Z</time>
        <extensions>
          <ns3:TrackPointExtension>
            <ns3:atemp>23.0</ns3:atemp>
            <ns3:hr>129</ns3:hr>
          </ns3:TrackPointExtension>
        </extensions>
      </trkpt>
      <trkpt lat="47.00762297026813030242919921875" lon="6.92929026670753955841064453125">
        <ele>743.20001220703125</ele>
        <time>2019-06-19T11:16:44.000Z</time>
        <extensions>
          <ns3:TrackPointExtension>
            <ns3:atemp>23.0</ns3:atemp>
            <ns3:hr>128</ns3:hr>
          </ns3:TrackPointExtension>
        </extensions>
      </trkpt>
      <trkpt lat="47.0075489580631256103515625" lon="6.92912329919636249542236328125">
        <ele>743.4000244140625</ele>
        <time>2019-06-19T11:16:46.000Z</time>
        <extensions>
          <ns3:TrackPointExtension>
            <ns3:atemp>23.0</ns3:atemp>
            <ns3:hr>127</ns3:hr>
          </ns3:TrackPointExtension>
        </extensions>
      </trkpt>
      <trkpt lat="47.00738794170320034027099609375" lon="6.92856841720640659332275390625">
        <ele>743.20001220703125</ele>
        <time>2019-06-19T11:16:51.000Z</time>
        <extensions>
          <ns3:TrackPointExtension>
            <ns3:atemp>23.0</ns3:atemp>
            <ns3:hr>127</ns3:hr>
          </ns3:TrackPointExtension>
        </extensions>
      </trkpt>
      <trkpt lat="47.00735307298600673675537109375" lon="6.9284773059189319610595703125">
        <ele>742.5999755859375</ele>
        <time>2019-06-19T11:16:52.000Z</time>
        <extensions>
          <ns3:TrackPointExtension>
            <ns3:atemp>23.0</ns3:atemp>
            <ns3:hr>126</ns3:hr>
          </ns3:TrackPointExtension>
        </extensions>
      </trkpt>
      <trkpt lat="47.00732390396296977996826171875" lon="6.92842341028153896331787109375">
        <ele>742.20001220703125</ele>
        <time>2019-06-19T11:16:53.000Z</time>
        <extensions>
          <ns3:TrackPointExtension>
            <ns3:atemp>23.0</ns3:atemp>
            <ns3:hr>127</ns3:hr>
          </ns3:TrackPointExtension>
        </extensions>
      </trkpt>
      <trkpt lat="47.00730462558567523956298828125" lon="6.9283760525286197662353515625">
        <ele>742</ele>
        <time>2019-06-19T11:16:54.000Z</time>
        <extensions>
          <ns3:TrackPointExtension>
            <ns3:atemp>23.0</ns3:atemp>
            <ns3:hr>128</ns3:hr>
          </ns3:TrackPointExtension>
        </extensions>
      </trkpt>
      <trkpt lat="47.00723958201706409454345703125" lon="6.9283076561987400054931640625">
        <ele>741.79998779296875</ele>
        <time>2019-06-19T11:16:56.000Z</time>
        <extensions>
          <ns3:TrackPointExtension>
            <ns3:atemp>23.0</ns3:atemp>
            <ns3:hr>129</ns3:hr>
          </ns3:TrackPointExtension>
        </extensions>
      </trkpt>
      <trkpt lat="47.0072027854621410369873046875" lon="6.92829131148755550384521484375">
        <ele>741.4000244140625</ele>
        <time>2019-06-19T11:16:57.000Z</time>
        <extensions>
          <ns3:TrackPointExtension>
            <ns3:atemp>23.0</ns3:atemp>
            <ns3:hr>130</ns3:hr>
          </ns3:TrackPointExtension>
        </extensions>
      </trkpt>
      <trkpt lat="47.00716950930655002593994140625" lon="6.92828175611793994903564453125">
        <ele>741.20001220703125</ele>
        <time>2019-06-19T11:16:58.000Z</time>
        <extensions>
          <ns3:TrackPointExtension>
            <ns3:atemp>23.0</ns3:atemp>
            <ns3:hr>131</ns3:hr>
          </ns3:TrackPointExtension>
        </extensions>
      </trkpt>
      <trkpt lat="47.0071010291576385498046875" lon="6.92826834507286548614501953125">
        <ele>740.79998779296875</ele>
        <time>2019-06-19T11:17:00.000Z</time>
        <extensions>
          <ns3:TrackPointExtension>
            <ns3:atemp>23.0</ns3:atemp>
            <ns3:hr>135</ns3:hr>
          </ns3:TrackPointExtension>
        </extensions>
      </trkpt>
      <trkpt lat="47.00706188566982746124267578125" lon="6.9282416068017482757568359375">
        <ele>740.5999755859375</ele>
        <time>2019-06-19T11:17:01.000Z</time>
        <extensions>
          <ns3:TrackPointExtension>
            <ns3:atemp>23.0</ns3:atemp>
            <ns3:hr>136</ns3:hr>
          </ns3:TrackPointExtension>
        </extensions>
      </trkpt>
      <trkpt lat="47.00689139775931835174560546875" lon="6.92813004367053508758544921875">
        <ele>740.20001220703125</ele>
        <time>2019-06-19T11:17:05.000Z</time>
        <extensions>
          <ns3:TrackPointExtension>
            <ns3:atemp>23.0</ns3:atemp>
            <ns3:hr>135</ns3:hr>
          </ns3:TrackPointExtension>
        </extensions>
      </trkpt>
      <trkpt lat="47.00667162425816059112548828125" lon="6.9280427880585193634033203125">
        <ele>739.4000244140625</ele>
        <time>2019-06-19T11:17:09.000Z</time>
        <extensions>
          <ns3:TrackPointExtension>
            <ns3:atemp>23.0</ns3:atemp>
            <ns3:hr>134</ns3:hr>
          </ns3:TrackPointExtension>
        </extensions>
      </trkpt>
      <trkpt lat="47.00661580078303813934326171875" lon="6.92802476696670055389404296875">
        <ele>738.79998779296875</ele>
        <time>2019-06-19T11:17:10.000Z</time>
        <extensions>
          <ns3:TrackPointExtension>
            <ns3:atemp>23.0</ns3:atemp>
            <ns3:hr>133</ns3:hr>
          </ns3:TrackPointExtension>
        </extensions>
      </trkpt>
      <trkpt lat="47.00645050965249538421630859375" lon="6.92794061265885829925537109375">
        <ele>737.20001220703125</ele>
        <time>2019-06-19T11:17:13.000Z</time>
        <extensions>
          <ns3:TrackPointExtension>
            <ns3:atemp>23.0</ns3:atemp>
            <ns3:hr>135</ns3:hr>
          </ns3:TrackPointExtension>
        </extensions>
      </trkpt>
      <trkpt lat="47.00637842528522014617919921875" lon="6.9278432987630367279052734375">
        <ele>735.4000244140625</ele>
        <time>2019-06-19T11:17:15.000Z</time>
        <extensions>
          <ns3:TrackPointExtension>
            <ns3:atemp>23.0</ns3:atemp>
            <ns3:hr>134</ns3:hr>
          </ns3:TrackPointExtension>
        </extensions>
      </trkpt>
      <trkpt lat="47.006347663700580596923828125" lon="6.927797533571720123291015625">
        <ele>734.5999755859375</ele>
        <time>2019-06-19T11:17:16.000Z</time>
        <extensions>
          <ns3:TrackPointExtension>
            <ns3:atemp>23.0</ns3:atemp>
            <ns3:hr>133</ns3:hr>
          </ns3:TrackPointExtension>
        </extensions>
      </trkpt>
      <trkpt lat="47.00631505809724330902099609375" lon="6.92776241339743137359619140625">
        <ele>733.79998779296875</ele>
        <time>2019-06-19T11:17:17.000Z</time>
        <extensions>
          <ns3:TrackPointExtension>
            <ns3:atemp>23.0</ns3:atemp>
            <ns3:hr>133</ns3:hr>
          </ns3:TrackPointExtension>
        </extensions>
      </trkpt>
      <trkpt lat="47.0062680356204509735107421875" lon="6.92771136760711669921875">
        <ele>732.4000244140625</ele>
        <time>2019-06-19T11:17:19.000Z</time>
        <extensions>
          <ns3:TrackPointExtension>
            <ns3:atemp>23.0</ns3:atemp>
            <ns3:hr>133</ns3:hr>
          </ns3:TrackPointExtension>
        </extensions>
      </trkpt>
      <trkpt lat="47.0062177442014217376708984375" lon="6.92766166292130947113037109375">
        <ele>730.79998779296875</ele>
        <time>2019-06-19T11:17:21.000Z</time>
        <extensions>
          <ns3:TrackPointExtension>
            <ns3:atemp>23.0</ns3:atemp>
            <ns3:hr>133</ns3:hr>
          </ns3:TrackPointExtension>
        </extensions>
      </trkpt>
      <trkpt lat="47.00617474503815174102783203125" lon="6.92761556245386600494384765625">
        <ele>729.5999755859375</ele>
        <time>2019-06-19T11:17:23.000Z</time>
        <extensions>
          <ns3:TrackPointExtension>
            <ns3:atemp>23.0</ns3:atemp>
            <ns3:hr>133</ns3:hr>
          </ns3:TrackPointExtension>
        </extensions>
      </trkpt>
      <trkpt lat="47.00611288659274578094482421875" lon="6.927531324326992034912109375">
        <ele>729</ele>
        <time>2019-06-19T11:17:26.000Z</time>
        <extensions>
          <ns3:TrackPointExtension>
            <ns3:atemp>23.0</ns3:atemp>
            <ns3:hr>132</ns3:hr>
          </ns3:TrackPointExtension>
        </extensions>
      </trkpt>
      <trkpt lat="47.00606024824082851409912109375" lon="6.9275100342929363250732421875">
        <ele>728.4000244140625</ele>
        <time>2019-06-19T11:17:28.000Z</time>
        <extensions>
          <ns3:TrackPointExtension>
            <ns3:atemp>23.0</ns3:atemp>
            <ns3:hr>132</ns3:hr>
          </ns3:TrackPointExtension>
        </extensions>
      </trkpt>
      <trkpt lat="47.005994953215122222900390625" lon="6.927477680146694183349609375">
        <ele>727.20001220703125</ele>
        <time>2019-06-19T11:17:31.000Z</time>
        <extensions>
          <ns3:TrackPointExtension>
            <ns3:atemp>23.0</ns3:atemp>
            <ns3:hr>134</ns3:hr>
          </ns3:TrackPointExtension>
        </extensions>
      </trkpt>
      <trkpt lat="47.0059736631810665130615234375" lon="6.92747206427156925201416015625">
        <ele>727</ele>
        <time>2019-06-19T11:17:32.000Z</time>
        <extensions>
          <ns3:TrackPointExtension>
            <ns3:atemp>23.0</ns3:atemp>
            <ns3:hr>133</ns3:hr>
          </ns3:TrackPointExtension>
        </extensions>
      </trkpt>
      <trkpt lat="47.00591490603983402252197265625" lon="6.92746150307357311248779296875">
        <ele>726.20001220703125</ele>
        <time>2019-06-19T11:17:34.000Z</time>
        <extensions>
          <ns3:TrackPointExtension>
            <ns3:atemp>23.0</ns3:atemp>
            <ns3:hr>137</ns3:hr>
          </ns3:TrackPointExtension>
        </extensions>
      </trkpt>
      <trkpt lat="47.00588665902614593505859375" lon="6.9274610839784145355224609375">
        <ele>725.79998779296875</ele>
        <time>2019-06-19T11:17:35.000Z</time>
        <extensions>
          <ns3:TrackPointExtension>
            <ns3:atemp>23.0</ns3:atemp>
            <ns3:hr>142</ns3:hr>
          </ns3:TrackPointExtension>
        </extensions>
      </trkpt>
      <trkpt lat="47.00586796738207340240478515625" lon="6.927448175847530364990234375">
        <ele>725.4000244140625</ele>
        <time>2019-06-19T11:17:36.000Z</time>
        <extensions>
          <ns3:TrackPointExtension>
            <ns3:atemp>23.0</ns3:atemp>
            <ns3:hr>139</ns3:hr>
          </ns3:TrackPointExtension>
        </extensions>
      </trkpt>
      <trkpt lat="47.0058140717446804046630859375" lon="6.92742931656539440155029296875">
        <ele>725.20001220703125</ele>
        <time>2019-06-19T11:17:38.000Z</time>
        <extensions>
          <ns3:TrackPointExtension>
            <ns3:atemp>23.0</ns3:atemp>
            <ns3:hr>138</ns3:hr>
          </ns3:TrackPointExtension>
        </extensions>
      </trkpt>
      <trkpt lat="47.005748860538005828857421875" lon="6.927424035966396331787109375">
        <ele>724.79998779296875</ele>
        <time>2019-06-19T11:17:41.000Z</time>
        <extensions>
          <ns3:TrackPointExtension>
            <ns3:atemp>23.0</ns3:atemp>
            <ns3:hr>139</ns3:hr>
          </ns3:TrackPointExtension>
        </extensions>
      </trkpt>
      <trkpt lat="47.005696557462215423583984375" lon="6.92742529325187206268310546875">
        <ele>724.5999755859375</ele>
        <time>2019-06-19T11:17:43.000Z</time>
        <extensions>
          <ns3:TrackPointExtension>
            <ns3:atemp>23.0</ns3:atemp>
            <ns3:hr>137</ns3:hr>
          </ns3:TrackPointExtension>
        </extensions>
      </trkpt>
      <trkpt lat="47.0056628622114658355712890625" lon="6.927426718175411224365234375">
        <ele>724.20001220703125</ele>
        <time>2019-06-19T11:17:44.000Z</time>
        <extensions>
          <ns3:TrackPointExtension>
            <ns3:atemp>23.0</ns3:atemp>
            <ns3:hr>140</ns3:hr>
          </ns3:TrackPointExtension>
        </extensions>
      </trkpt>
      <trkpt lat="47.0055676437914371490478515625" lon="6.92743317224085330963134765625">
        <ele>723.5999755859375</ele>
        <time>2019-06-19T11:17:46.000Z</time>
        <extensions>
          <ns3:TrackPointExtension>
            <ns3:atemp>23.0</ns3:atemp>
            <ns3:hr>138</ns3:hr>
          </ns3:TrackPointExtension>
        </extensions>
      </trkpt>
      <trkpt lat="47.005521543323993682861328125" lon="6.9274453260004520416259765625">
        <ele>723.20001220703125</ele>
        <time>2019-06-19T11:17:47.000Z</time>
        <extensions>
          <ns3:TrackPointExtension>
            <ns3:atemp>23.0</ns3:atemp>
            <ns3:hr>138</ns3:hr>
          </ns3:TrackPointExtension>
        </extensions>
      </trkpt>
      <trkpt lat="47.00547133572399616241455078125" lon="6.92746066488325595855712890625">
        <ele>723</ele>
        <time>2019-06-19T11:17:48.000Z</time>
        <extensions>
          <ns3:TrackPointExtension>
            <ns3:atemp>23.0</ns3:atemp>
            <ns3:hr>137</ns3:hr>
          </ns3:TrackPointExtension>
        </extensions>
      </trkpt>
      <trkpt lat="47.0053262449800968170166015625" lon="6.927506513893604278564453125">
        <ele>723</ele>
        <time>2019-06-19T11:17:51.000Z</time>
        <extensions>
          <ns3:TrackPointExtension>
            <ns3:atemp>23.0</ns3:atemp>
            <ns3:hr>136</ns3:hr>
          </ns3:TrackPointExtension>
        </extensions>
      </trkpt>
      <trkpt lat="47.0052306912839412689208984375" lon="6.9275542907416820526123046875">
        <ele>723</ele>
        <time>2019-06-19T11:17:53.000Z</time>
        <extensions>
          <ns3:TrackPointExtension>
            <ns3:atemp>23.0</ns3:atemp>
            <ns3:hr>136</ns3:hr>
          </ns3:TrackPointExtension>
        </extensions>
      </trkpt>
      <trkpt lat="47.0051297731697559356689453125" lon="6.92766048945486545562744140625">
        <ele>723</ele>
        <time>2019-06-19T11:17:55.000Z</time>
        <extensions>
          <ns3:TrackPointExtension>
            <ns3:atemp>23.0</ns3:atemp>
            <ns3:hr>137</ns3:hr>
          </ns3:TrackPointExtension>
        </extensions>
      </trkpt>
      <trkpt lat="47.00508057139813899993896484375" lon="6.92774062044918537139892578125">
        <ele>723</ele>
        <time>2019-06-19T11:17:56.000Z</time>
        <extensions>
          <ns3:TrackPointExtension>
            <ns3:atemp>23.0</ns3:atemp>
            <ns3:hr>138</ns3:hr>
          </ns3:TrackPointExtension>
        </extensions>
      </trkpt>
      <trkpt lat="47.005032710731029510498046875" lon="6.9278308935463428497314453125">
        <ele>722.79998779296875</ele>
        <time>2019-06-19T11:17:57.000Z</time>
        <extensions>
          <ns3:TrackPointExtension>
            <ns3:atemp>23.0</ns3:atemp>
            <ns3:hr>137</ns3:hr>
          </ns3:TrackPointExtension>
        </extensions>
      </trkpt>
      <trkpt lat="47.004986107349395751953125" lon="6.92792435176670551300048828125">
        <ele>722.5999755859375</ele>
        <time>2019-06-19T11:17:58.000Z</time>
        <extensions>
          <ns3:TrackPointExtension>
            <ns3:atemp>23.0</ns3:atemp>
            <ns3:hr>137</ns3:hr>
          </ns3:TrackPointExtension>
        </extensions>
      </trkpt>
      <trkpt lat="47.00490170158445835113525390625" lon="6.92811244167387485504150390625">
        <ele>721.79998779296875</ele>
        <time>2019-06-19T11:18:00.000Z</time>
        <extensions>
          <ns3:TrackPointExtension>
            <ns3:atemp>23.0</ns3:atemp>
            <ns3:hr>136</ns3:hr>
          </ns3:TrackPointExtension>
        </extensions>
      </trkpt>
      <trkpt lat="47.00486230663955211639404296875" lon="6.9282107613980770111083984375">
        <ele>721.4000244140625</ele>
        <time>2019-06-19T11:18:01.000Z</time>
        <extensions>
          <ns3:TrackPointExtension>
            <ns3:atemp>23.0</ns3:atemp>
            <ns3:hr>137</ns3:hr>
          </ns3:TrackPointExtension>
        </extensions>
      </trkpt>
      <trkpt lat="47.00480296276509761810302734375" lon="6.92834059707820415496826171875">
        <ele>721</ele>
        <time>2019-06-19T11:18:03.000Z</time>
        <extensions>
          <ns3:TrackPointExtension>
            <ns3:atemp>23.0</ns3:atemp>
            <ns3:hr>136</ns3:hr>
          </ns3:TrackPointExtension>
        </extensions>
      </trkpt>
      <trkpt lat="47.0047495700418949127197265625" lon="6.9283783994615077972412109375">
        <ele>720.4000244140625</ele>
        <time>2019-06-19T11:18:05.000Z</time>
        <extensions>
          <ns3:TrackPointExtension>
            <ns3:atemp>23.0</ns3:atemp>
            <ns3:hr>135</ns3:hr>
          </ns3:TrackPointExtension>
        </extensions>
      </trkpt>
      <trkpt lat="47.004695422947406768798828125" lon="6.9284011982381343841552734375">
        <ele>719.5999755859375</ele>
        <time>2019-06-19T11:18:07.000Z</time>
        <extensions>
          <ns3:TrackPointExtension>
            <ns3:atemp>23.0</ns3:atemp>
            <ns3:hr>132</ns3:hr>
          </ns3:TrackPointExtension>
        </extensions>
      </trkpt>
      <trkpt lat="47.00466784648597240447998046875" lon="6.9284048862755298614501953125">
        <ele>719.4000244140625</ele>
        <time>2019-06-19T11:18:08.000Z</time>
        <extensions>
          <ns3:TrackPointExtension>
            <ns3:atemp>23.0</ns3:atemp>
            <ns3:hr>130</ns3:hr>
          </ns3:TrackPointExtension>
        </extensions>
      </trkpt>
      <trkpt lat="47.004601545631885528564453125" lon="6.92841343581676483154296875">
        <ele>719</ele>
        <time>2019-06-19T11:18:10.000Z</time>
        <extensions>
          <ns3:TrackPointExtension>
            <ns3:atemp>23.0</ns3:atemp>
            <ns3:hr>128</ns3:hr>
          </ns3:TrackPointExtension>
        </extensions>
      </trkpt>
      <trkpt lat="47.00456324033439159393310546875" lon="6.9283897988498210906982421875">
        <ele>718.79998779296875</ele>
        <time>2019-06-19T11:18:11.000Z</time>
        <extensions>
          <ns3:TrackPointExtension>
            <ns3:atemp>23.0</ns3:atemp>
            <ns3:hr>128</ns3:hr>
          </ns3:TrackPointExtension>
        </extensions>
      </trkpt>
      <trkpt lat="47.004535496234893798828125" lon="6.928347386419773101806640625">
        <ele>718.20001220703125</ele>
        <time>2019-06-19T11:18:12.000Z</time>
        <extensions>
          <ns3:TrackPointExtension>
            <ns3:atemp>23.0</ns3:atemp>
            <ns3:hr>127</ns3:hr>
          </ns3:TrackPointExtension>
        </extensions>
      </trkpt>
      <trkpt lat="47.00450255535542964935302734375" lon="6.92823682911694049835205078125">
        <ele>717.4000244140625</ele>
        <time>2019-06-19T11:18:14.000Z</time>
        <extensions>
          <ns3:TrackPointExtension>
            <ns3:atemp>23.0</ns3:atemp>
            <ns3:hr>127</ns3:hr>
          </ns3:TrackPointExtension>
        </extensions>
      </trkpt>
      <trkpt lat="47.00447539798915386199951171875" lon="6.92816860042512416839599609375">
        <ele>717.20001220703125</ele>
        <time>2019-06-19T11:18:15.000Z</time>
        <extensions>
          <ns3:TrackPointExtension>
            <ns3:atemp>23.0</ns3:atemp>
            <ns3:hr>126</ns3:hr>
          </ns3:TrackPointExtension>
        </extensions>
      </trkpt>
      <trkpt lat="47.00437565334141254425048828125" lon="6.92793960683047771453857421875">
        <ele>715.79998779296875</ele>
        <time>2019-06-19T11:18:18.000Z</time>
        <extensions>
          <ns3:TrackPointExtension>
            <ns3:atemp>23.0</ns3:atemp>
            <ns3:hr>125</ns3:hr>
          </ns3:TrackPointExtension>
        </extensions>
      </trkpt>
      <trkpt lat="47.00434480793774127960205078125" lon="6.92785528488457202911376953125">
        <ele>715.20001220703125</ele>
        <time>2019-06-19T11:18:19.000Z</time>
        <extensions>
          <ns3:TrackPointExtension>
            <ns3:atemp>23.0</ns3:atemp>
            <ns3:hr>127</ns3:hr>
          </ns3:TrackPointExtension>
        </extensions>
      </trkpt>
      <trkpt lat="47.00430759228765964508056640625" lon="6.92775403149425983428955078125">
        <ele>714.5999755859375</ele>
        <time>2019-06-19T11:18:20.000Z</time>
        <extensions>
          <ns3:TrackPointExtension>
            <ns3:atemp>23.0</ns3:atemp>
            <ns3:hr>126</ns3:hr>
          </ns3:TrackPointExtension>
        </extensions>
      </trkpt>
      <trkpt lat="47.0041571371257305145263671875" lon="6.9275157339870929718017578125">
        <ele>713.5999755859375</ele>
        <time>2019-06-19T11:18:23.000Z</time>
        <extensions>
          <ns3:TrackPointExtension>
            <ns3:atemp>22.0</ns3:atemp>
            <ns3:hr>126</ns3:hr>
          </ns3:TrackPointExtension>
        </extensions>
      </trkpt>
      <trkpt lat="47.00411598198115825653076171875" lon="6.927446834743022918701171875">
        <ele>713.20001220703125</ele>
        <time>2019-06-19T11:18:24.000Z</time>
        <extensions>
          <ns3:TrackPointExtension>
            <ns3:atemp>22.0</ns3:atemp>
            <ns3:hr>127</ns3:hr>
          </ns3:TrackPointExtension>
        </extensions>
      </trkpt>
      <trkpt lat="47.00406652875244617462158203125" lon="6.9273179210722446441650390625">
        <ele>712</ele>
        <time>2019-06-19T11:18:26.000Z</time>
        <extensions>
          <ns3:TrackPointExtension>
            <ns3:atemp>22.0</ns3:atemp>
            <ns3:hr>125</ns3:hr>
          </ns3:TrackPointExtension>
        </extensions>
      </trkpt>
      <trkpt lat="47.00405932031571865081787109375" lon="6.9272542186081409454345703125">
        <ele>711.4000244140625</ele>
        <time>2019-06-19T11:18:27.000Z</time>
        <extensions>
          <ns3:TrackPointExtension>
            <ns3:atemp>22.0</ns3:atemp>
            <ns3:hr>125</ns3:hr>
          </ns3:TrackPointExtension>
        </extensions>
      </trkpt>
      <trkpt lat="47.00406418181955814361572265625" lon="6.92718892358243465423583984375">
        <ele>711</ele>
        <time>2019-06-19T11:18:28.000Z</time>
        <extensions>
          <ns3:TrackPointExtension>
            <ns3:atemp>22.0</ns3:atemp>
            <ns3:hr>126</ns3:hr>
          </ns3:TrackPointExtension>
        </extensions>
      </trkpt>
      <trkpt lat="47.0040793530642986297607421875" lon="6.92712471820414066314697265625">
        <ele>710.79998779296875</ele>
        <time>2019-06-19T11:18:29.000Z</time>
        <extensions>
          <ns3:TrackPointExtension>
            <ns3:atemp>22.0</ns3:atemp>
            <ns3:hr>128</ns3:hr>
          </ns3:TrackPointExtension>
        </extensions>
      </trkpt>
      <trkpt lat="47.0041299797594547271728515625" lon="6.92697401158511638641357421875">
        <ele>710</ele>
        <time>2019-06-19T11:18:31.000Z</time>
        <extensions>
          <ns3:TrackPointExtension>
            <ns3:atemp>22.0</ns3:atemp>
            <ns3:hr>125</ns3:hr>
          </ns3:TrackPointExtension>
        </extensions>
      </trkpt>
      <trkpt lat="47.00415453873574733734130859375" lon="6.92690293304622173309326171875">
        <ele>709.79998779296875</ele>
        <time>2019-06-19T11:18:32.000Z</time>
        <extensions>
          <ns3:TrackPointExtension>
            <ns3:atemp>22.0</ns3:atemp>
            <ns3:hr>126</ns3:hr>
          </ns3:TrackPointExtension>
        </extensions>
      </trkpt>
      <trkpt lat="47.00418756343424320220947265625" lon="6.92684425972402095794677734375">
        <ele>709.5999755859375</ele>
        <time>2019-06-19T11:18:33.000Z</time>
        <extensions>
          <ns3:TrackPointExtension>
            <ns3:atemp>22.0</ns3:atemp>
            <ns3:hr>126</ns3:hr>
          </ns3:TrackPointExtension>
        </extensions>
      </trkpt>
      <trkpt lat="47.00423232279717922210693359375" lon="6.92680436186492443084716796875">
        <ele>709.4000244140625</ele>
        <time>2019-06-19T11:18:34.000Z</time>
        <extensions>
          <ns3:TrackPointExtension>
            <ns3:atemp>22.0</ns3:atemp>
            <ns3:hr>126</ns3:hr>
          </ns3:TrackPointExtension>
        </extensions>
      </trkpt>
      <trkpt lat="47.0043410360813140869140625" lon="6.9267878495156764984130859375">
        <ele>708.5999755859375</ele>
        <time>2019-06-19T11:18:36.000Z</time>
        <extensions>
          <ns3:TrackPointExtension>
            <ns3:atemp>22.0</ns3:atemp>
            <ns3:hr>126</ns3:hr>
          </ns3:TrackPointExtension>
        </extensions>
      </trkpt>
      <trkpt lat="47.00439174659550189971923828125" lon="6.9267808087170124053955078125">
        <ele>708.20001220703125</ele>
        <time>2019-06-19T11:18:37.000Z</time>
        <extensions>
          <ns3:TrackPointExtension>
            <ns3:atemp>22.0</ns3:atemp>
            <ns3:hr>127</ns3:hr>
          </ns3:TrackPointExtension>
        </extensions>
      </trkpt>
      <trkpt lat="47.00443918816745281219482421875" lon="6.92676882259547710418701171875">
        <ele>708</ele>
        <time>2019-06-19T11:18:38.000Z</time>
        <extensions>
          <ns3:TrackPointExtension>
            <ns3:atemp>22.0</ns3:atemp>
            <ns3:hr>128</ns3:hr>
          </ns3:TrackPointExtension>
        </extensions>
      </trkpt>
      <trkpt lat="47.004509679973125457763671875" lon="6.92671316675841808319091796875">
        <ele>707</ele>
        <time>2019-06-19T11:18:40.000Z</time>
        <extensions>
          <ns3:TrackPointExtension>
            <ns3:atemp>22.0</ns3:atemp>
            <ns3:hr>126</ns3:hr>
          </ns3:TrackPointExtension>
        </extensions>
      </trkpt>
      <trkpt lat="47.0045299641788005828857421875" lon="6.92667729221284389495849609375">
        <ele>705.5999755859375</ele>
        <time>2019-06-19T11:18:42.000Z</time>
        <extensions>
          <ns3:TrackPointExtension>
            <ns3:atemp>22.0</ns3:atemp>
            <ns3:hr>125</ns3:hr>
          </ns3:TrackPointExtension>
        </extensions>
      </trkpt>
      <trkpt lat="47.00452200137078762054443359375" lon="6.9266587682068347930908203125">
        <ele>705.20001220703125</ele>
        <time>2019-06-19T11:18:43.000Z</time>
        <extensions>
          <ns3:TrackPointExtension>
            <ns3:atemp>22.0</ns3:atemp>
            <ns3:hr>124</ns3:hr>
          </ns3:TrackPointExtension>
        </extensions>
      </trkpt>
      <trkpt lat="47.00445410795509815216064453125" lon="6.9266116619110107421875">
        <ele>704.5999755859375</ele>
        <time>2019-06-19T11:18:45.000Z</time>
        <extensions>
          <ns3:TrackPointExtension>
            <ns3:atemp>22.0</ns3:atemp>
            <ns3:hr>126</ns3:hr>
          </ns3:TrackPointExtension>
        </extensions>
      </trkpt>
      <trkpt lat="47.0044122822582721710205078125" lon="6.92660487256944179534912109375">
        <ele>704</ele>
        <time>2019-06-19T11:18:46.000Z</time>
        <extensions>
          <ns3:TrackPointExtension>
            <ns3:atemp>22.0</ns3:atemp>
            <ns3:hr>126</ns3:hr>
          </ns3:TrackPointExtension>
        </extensions>
      </trkpt>
      <trkpt lat="47.00438453815877437591552734375" lon="6.926601938903331756591796875">
        <ele>703.20001220703125</ele>
        <time>2019-06-19T11:18:47.000Z</time>
        <extensions>
          <ns3:TrackPointExtension>
            <ns3:atemp>22.0</ns3:atemp>
            <ns3:hr>126</ns3:hr>
          </ns3:TrackPointExtension>
        </extensions>
      </trkpt>
      <trkpt lat="47.004326619207859039306640625" lon="6.926561035215854644775390625">
        <ele>701.5999755859375</ele>
        <time>2019-06-19T11:18:49.000Z</time>
        <extensions>
          <ns3:TrackPointExtension>
            <ns3:atemp>22.0</ns3:atemp>
            <ns3:hr>124</ns3:hr>
          </ns3:TrackPointExtension>
        </extensions>
      </trkpt>
      <trkpt lat="47.00425378046929836273193359375" lon="6.9265025295317173004150390625">
        <ele>699.79998779296875</ele>
        <time>2019-06-19T11:18:51.000Z</time>
        <extensions>
          <ns3:TrackPointExtension>
            <ns3:atemp>22.0</ns3:atemp>
            <ns3:hr>127</ns3:hr>
          </ns3:TrackPointExtension>
        </extensions>
      </trkpt>
      <trkpt lat="47.004166357219219207763671875" lon="6.9264498911798000335693359375">
        <ele>698.5999755859375</ele>
        <time>2019-06-19T11:18:52.000Z</time>
        <extensions>
          <ns3:TrackPointExtension>
            <ns3:atemp>22.0</ns3:atemp>
            <ns3:hr>124</ns3:hr>
          </ns3:TrackPointExtension>
        </extensions>
      </trkpt>
      <trkpt lat="47.00411246158182621002197265625" lon="6.92641519010066986083984375">
        <ele>697.4000244140625</ele>
        <time>2019-06-19T11:18:53.000Z</time>
        <extensions>
          <ns3:TrackPointExtension>
            <ns3:atemp>22.0</ns3:atemp>
            <ns3:hr>125</ns3:hr>
          </ns3:TrackPointExtension>
        </extensions>
      </trkpt>
      <trkpt lat="47.00406401418149471282958984375" lon="6.92638074047863483428955078125">
        <ele>696.20001220703125</ele>
        <time>2019-06-19T11:18:54.000Z</time>
        <extensions>
          <ns3:TrackPointExtension>
            <ns3:atemp>22.0</ns3:atemp>
            <ns3:hr>124</ns3:hr>
          </ns3:TrackPointExtension>
        </extensions>
      </trkpt>
      <trkpt lat="47.00401187874376773834228515625" lon="6.9263519905507564544677734375">
        <ele>695</ele>
        <time>2019-06-19T11:18:55.000Z</time>
        <extensions>
          <ns3:TrackPointExtension>
            <ns3:atemp>22.0</ns3:atemp>
            <ns3:hr>126</ns3:hr>
          </ns3:TrackPointExtension>
        </extensions>
      </trkpt>
      <trkpt lat="47.00392051599919795989990234375" lon="6.92627814598381519317626953125">
        <ele>693.20001220703125</ele>
        <time>2019-06-19T11:18:57.000Z</time>
        <extensions>
          <ns3:TrackPointExtension>
            <ns3:atemp>22.0</ns3:atemp>
            <ns3:hr>127</ns3:hr>
          </ns3:TrackPointExtension>
        </extensions>
      </trkpt>
      <trkpt lat="47.003810964524745941162109375" lon="6.92627144046127796173095703125">
        <ele>691.20001220703125</ele>
        <time>2019-06-19T11:18:59.000Z</time>
        <extensions>
          <ns3:TrackPointExtension>
            <ns3:atemp>22.0</ns3:atemp>
            <ns3:hr>127</ns3:hr>
          </ns3:TrackPointExtension>
        </extensions>
      </trkpt>
      <trkpt lat="47.003732509911060333251953125" lon="6.926294155418872833251953125">
        <ele>689.5999755859375</ele>
        <time>2019-06-19T11:19:00.000Z</time>
        <extensions>
          <ns3:TrackPointExtension>
            <ns3:atemp>22.0</ns3:atemp>
            <ns3:hr>125</ns3:hr>
          </ns3:TrackPointExtension>
        </extensions>
      </trkpt>
      <trkpt lat="47.00368045829236507415771484375" lon="6.92631066776812076568603515625">
        <ele>688</ele>
        <time>2019-06-19T11:19:01.000Z</time>
        <extensions>
          <ns3:TrackPointExtension>
            <ns3:atemp>22.0</ns3:atemp>
            <ns3:hr>125</ns3:hr>
          </ns3:TrackPointExtension>
        </extensions>
      </trkpt>
      <trkpt lat="47.00364022515714168548583984375" lon="6.926315613090991973876953125">
        <ele>687</ele>
        <time>2019-06-19T11:19:02.000Z</time>
        <extensions>
          <ns3:TrackPointExtension>
            <ns3:atemp>22.0</ns3:atemp>
            <ns3:hr>125</ns3:hr>
          </ns3:TrackPointExtension>
        </extensions>
      </trkpt>
      <trkpt lat="47.00344677083194255828857421875" lon="6.92639079876244068145751953125">
        <ele>685.79998779296875</ele>
        <time>2019-06-19T11:19:05.000Z</time>
        <extensions>
          <ns3:TrackPointExtension>
            <ns3:atemp>22.0</ns3:atemp>
            <ns3:hr>124</ns3:hr>
          </ns3:TrackPointExtension>
        </extensions>
      </trkpt>
      <trkpt lat="47.0033378899097442626953125" lon="6.92644762806594371795654296875">
        <ele>685</ele>
        <time>2019-06-19T11:19:07.000Z</time>
        <extensions>
          <ns3:TrackPointExtension>
            <ns3:atemp>22.0</ns3:atemp>
            <ns3:hr>123</ns3:hr>
          </ns3:TrackPointExtension>
        </extensions>
      </trkpt>
      <trkpt lat="47.003280222415924072265625" lon="6.9264656491577625274658203125">
        <ele>684.5999755859375</ele>
        <time>2019-06-19T11:19:08.000Z</time>
        <extensions>
          <ns3:TrackPointExtension>
            <ns3:atemp>22.0</ns3:atemp>
            <ns3:hr>123</ns3:hr>
          </ns3:TrackPointExtension>
        </extensions>
      </trkpt>
      <trkpt lat="47.003218866884708404541015625" lon="6.92649205215275287628173828125">
        <ele>684.20001220703125</ele>
        <time>2019-06-19T11:19:09.000Z</time>
        <extensions>
          <ns3:TrackPointExtension>
            <ns3:atemp>22.0</ns3:atemp>
            <ns3:hr>122</ns3:hr>
          </ns3:TrackPointExtension>
        </extensions>
      </trkpt>
      <trkpt lat="47.0031687431037425994873046875" lon="6.92651786841452121734619140625">
        <ele>683.4000244140625</ele>
        <time>2019-06-19T11:19:10.000Z</time>
        <extensions>
          <ns3:TrackPointExtension>
            <ns3:atemp>22.0</ns3:atemp>
            <ns3:hr>122</ns3:hr>
          </ns3:TrackPointExtension>
        </extensions>
      </trkpt>
      <trkpt lat="47.00308366678655147552490234375" lon="6.9265511445701122283935546875">
        <ele>681.5999755859375</ele>
        <time>2019-06-19T11:19:12.000Z</time>
        <extensions>
          <ns3:TrackPointExtension>
            <ns3:atemp>22.0</ns3:atemp>
            <ns3:hr>122</ns3:hr>
          </ns3:TrackPointExtension>
        </extensions>
      </trkpt>
      <trkpt lat="47.0030041225254535675048828125" lon="6.92657922394573688507080078125">
        <ele>680.4000244140625</ele>
        <time>2019-06-19T11:19:14.000Z</time>
        <extensions>
          <ns3:TrackPointExtension>
            <ns3:atemp>22.0</ns3:atemp>
            <ns3:hr>123</ns3:hr>
          </ns3:TrackPointExtension>
        </extensions>
      </trkpt>
      <trkpt lat="47.00294167734682559967041015625" lon="6.9265861809253692626953125">
        <ele>679.5999755859375</ele>
        <time>2019-06-19T11:19:16.000Z</time>
        <extensions>
          <ns3:TrackPointExtension>
            <ns3:atemp>22.0</ns3:atemp>
            <ns3:hr>124</ns3:hr>
          </ns3:TrackPointExtension>
        </extensions>
      </trkpt>
      <trkpt lat="47.0029141008853912353515625" lon="6.9265853427350521087646484375">
        <ele>679</ele>
        <time>2019-06-19T11:19:17.000Z</time>
        <extensions>
          <ns3:TrackPointExtension>
            <ns3:atemp>22.0</ns3:atemp>
            <ns3:hr>123</ns3:hr>
          </ns3:TrackPointExtension>
        </extensions>
      </trkpt>
      <trkpt lat="47.0028884522616863250732421875" lon="6.92657872103154659271240234375">
        <ele>678.4000244140625</ele>
        <time>2019-06-19T11:19:18.000Z</time>
        <extensions>
          <ns3:TrackPointExtension>
            <ns3:atemp>22.0</ns3:atemp>
            <ns3:hr>125</ns3:hr>
          </ns3:TrackPointExtension>
        </extensions>
      </trkpt>
      <trkpt lat="47.00285433791577816009521484375" lon="6.92656782455742359161376953125">
        <ele>677.20001220703125</ele>
        <time>2019-06-19T11:19:19.000Z</time>
        <extensions>
          <ns3:TrackPointExtension>
            <ns3:atemp>22.0</ns3:atemp>
            <ns3:hr>125</ns3:hr>
          </ns3:TrackPointExtension>
        </extensions>
      </trkpt>
      <trkpt lat="47.0028244145214557647705078125" lon="6.92655726335942745208740234375">
        <ele>676.20001220703125</ele>
        <time>2019-06-19T11:19:20.000Z</time>
        <extensions>
          <ns3:TrackPointExtension>
            <ns3:atemp>22.0</ns3:atemp>
            <ns3:hr>125</ns3:hr>
          </ns3:TrackPointExtension>
        </extensions>
      </trkpt>
      <trkpt lat="47.00280052609741687774658203125" lon="6.92654401995241641998291015625">
        <ele>675</ele>
        <time>2019-06-19T11:19:21.000Z</time>
        <extensions>
          <ns3:TrackPointExtension>
            <ns3:atemp>22.0</ns3:atemp>
            <ns3:hr>125</ns3:hr>
          </ns3:TrackPointExtension>
        </extensions>
      </trkpt>
      <trkpt lat="47.00276582501828670501708984375" lon="6.92653077654540538787841796875">
        <ele>674</ele>
        <time>2019-06-19T11:19:22.000Z</time>
        <extensions>
          <ns3:TrackPointExtension>
            <ns3:atemp>22.0</ns3:atemp>
            <ns3:hr>126</ns3:hr>
          </ns3:TrackPointExtension>
        </extensions>
      </trkpt>
      <trkpt lat="47.00272374786436557769775390625" lon="6.9265258312225341796875">
        <ele>673.4000244140625</ele>
        <time>2019-06-19T11:19:23.000Z</time>
        <extensions>
          <ns3:TrackPointExtension>
            <ns3:atemp>22.0</ns3:atemp>
            <ns3:hr>124</ns3:hr>
          </ns3:TrackPointExtension>
        </extensions>
      </trkpt>
      <trkpt lat="47.00268678367137908935546875" lon="6.92651200108230113983154296875">
        <ele>672.5999755859375</ele>
        <time>2019-06-19T11:19:24.000Z</time>
        <extensions>
          <ns3:TrackPointExtension>
            <ns3:atemp>22.0</ns3:atemp>
            <ns3:hr>127</ns3:hr>
          </ns3:TrackPointExtension>
        </extensions>
      </trkpt>
      <trkpt lat="47.00264562852680683135986328125" lon="6.926508732140064239501953125">
        <ele>671.79998779296875</ele>
        <time>2019-06-19T11:19:25.000Z</time>
        <extensions>
          <ns3:TrackPointExtension>
            <ns3:atemp>22.0</ns3:atemp>
            <ns3:hr>126</ns3:hr>
          </ns3:TrackPointExtension>
        </extensions>
      </trkpt>
      <trkpt lat="47.00256734155118465423583984375" lon="6.926487945020198822021484375">
        <ele>670.20001220703125</ele>
        <time>2019-06-19T11:19:27.000Z</time>
        <extensions>
          <ns3:TrackPointExtension>
            <ns3:atemp>22.0</ns3:atemp>
            <ns3:hr>125</ns3:hr>
          </ns3:TrackPointExtension>
        </extensions>
      </trkpt>
      <trkpt lat="47.00249223969876766204833984375" lon="6.92645131610333919525146484375">
        <ele>668.5999755859375</ele>
        <time>2019-06-19T11:19:29.000Z</time>
        <extensions>
          <ns3:TrackPointExtension>
            <ns3:atemp>22.0</ns3:atemp>
            <ns3:hr>124</ns3:hr>
          </ns3:TrackPointExtension>
        </extensions>
      </trkpt>
      <trkpt lat="47.0024291239678859710693359375" lon="6.92644067108631134033203125">
        <ele>668</ele>
        <time>2019-06-19T11:19:30.000Z</time>
        <extensions>
          <ns3:TrackPointExtension>
            <ns3:atemp>22.0</ns3:atemp>
            <ns3:hr>124</ns3:hr>
          </ns3:TrackPointExtension>
        </extensions>
      </trkpt>
      <trkpt lat="47.00238411314785480499267578125" lon="6.92641912959516048431396484375">
        <ele>667.4000244140625</ele>
        <time>2019-06-19T11:19:31.000Z</time>
        <extensions>
          <ns3:TrackPointExtension>
            <ns3:atemp>22.0</ns3:atemp>
            <ns3:hr>126</ns3:hr>
          </ns3:TrackPointExtension>
        </extensions>
      </trkpt>
      <trkpt lat="47.00227246619760990142822265625" lon="6.9263969175517559051513671875">
        <ele>665.20001220703125</ele>
        <time>2019-06-19T11:19:33.000Z</time>
        <extensions>
          <ns3:TrackPointExtension>
            <ns3:atemp>22.0</ns3:atemp>
            <ns3:hr>127</ns3:hr>
          </ns3:TrackPointExtension>
        </extensions>
      </trkpt>
      <trkpt lat="47.00223273597657680511474609375" lon="6.92637487314641475677490234375">
        <ele>664</ele>
        <time>2019-06-19T11:19:34.000Z</time>
        <extensions>
          <ns3:TrackPointExtension>
            <ns3:atemp>22.0</ns3:atemp>
            <ns3:hr>127</ns3:hr>
          </ns3:TrackPointExtension>
        </extensions>
      </trkpt>
      <trkpt lat="47.00219468213617801666259765625" lon="6.92636020481586456298828125">
        <ele>663</ele>
        <time>2019-06-19T11:19:35.000Z</time>
        <extensions>
          <ns3:TrackPointExtension>
            <ns3:atemp>22.0</ns3:atemp>
            <ns3:hr>126</ns3:hr>
          </ns3:TrackPointExtension>
        </extensions>
      </trkpt>
      <trkpt lat="47.00214221142232418060302734375" lon="6.92635458894073963165283203125">
        <ele>662.20001220703125</ele>
        <time>2019-06-19T11:19:36.000Z</time>
        <extensions>
          <ns3:TrackPointExtension>
            <ns3:atemp>22.0</ns3:atemp>
            <ns3:hr>127</ns3:hr>
          </ns3:TrackPointExtension>
        </extensions>
      </trkpt>
      <trkpt lat="47.00207029469311237335205078125" lon="6.92632592283189296722412109375">
        <ele>660.5999755859375</ele>
        <time>2019-06-19T11:19:38.000Z</time>
        <extensions>
          <ns3:TrackPointExtension>
            <ns3:atemp>22.0</ns3:atemp>
            <ns3:hr>128</ns3:hr>
          </ns3:TrackPointExtension>
        </extensions>
      </trkpt>
      <trkpt lat="47.00201899744570255279541015625" lon="6.926335394382476806640625">
        <ele>659.5999755859375</ele>
        <time>2019-06-19T11:19:40.000Z</time>
        <extensions>
          <ns3:TrackPointExtension>
            <ns3:atemp>22.0</ns3:atemp>
            <ns3:hr>130</ns3:hr>
          </ns3:TrackPointExtension>
        </extensions>
      </trkpt>
      <trkpt lat="47.00199837796390056610107421875" lon="6.9263513199985027313232421875">
        <ele>659.4000244140625</ele>
        <time>2019-06-19T11:19:41.000Z</time>
        <extensions>
          <ns3:TrackPointExtension>
            <ns3:atemp>22.0</ns3:atemp>
            <ns3:hr>129</ns3:hr>
          </ns3:TrackPointExtension>
        </extensions>
      </trkpt>
      <trkpt lat="47.0019694603979587554931640625" lon="6.92639465443789958953857421875">
        <ele>659</ele>
        <time>2019-06-19T11:19:43.000Z</time>
        <extensions>
          <ns3:TrackPointExtension>
            <ns3:atemp>22.0</ns3:atemp>
            <ns3:hr>129</ns3:hr>
          </ns3:TrackPointExtension>
        </extensions>
      </trkpt>
      <trkpt lat="47.001954205334186553955078125" lon="6.92644997499883174896240234375">
        <ele>658.79998779296875</ele>
        <time>2019-06-19T11:19:45.000Z</time>
        <extensions>
          <ns3:TrackPointExtension>
            <ns3:atemp>22.0</ns3:atemp>
            <ns3:hr>126</ns3:hr>
          </ns3:TrackPointExtension>
        </extensions>
      </trkpt>
      <trkpt lat="47.00195009820163249969482421875" lon="6.92647822201251983642578125">
        <ele>658.79998779296875</ele>
        <time>2019-06-19T11:19:46.000Z</time>
        <extensions>
          <ns3:TrackPointExtension>
            <ns3:atemp>22.0</ns3:atemp>
            <ns3:hr>129</ns3:hr>
          </ns3:TrackPointExtension>
        </extensions>
      </trkpt>
      <trkpt lat="47.00192243792116641998291015625" lon="6.9265749491751194000244140625">
        <ele>659.4000244140625</ele>
        <time>2019-06-19T11:19:50.000Z</time>
        <extensions>
          <ns3:TrackPointExtension>
            <ns3:atemp>22.0</ns3:atemp>
            <ns3:hr>126</ns3:hr>
          </ns3:TrackPointExtension>
        </extensions>
      </trkpt>
      <trkpt lat="47.00191807933151721954345703125" lon="6.92660185508430004119873046875">
        <ele>659.5999755859375</ele>
        <time>2019-06-19T11:19:51.000Z</time>
        <extensions>
          <ns3:TrackPointExtension>
            <ns3:atemp>22.0</ns3:atemp>
            <ns3:hr>127</ns3:hr>
          </ns3:TrackPointExtension>
        </extensions>
      </trkpt>
      <trkpt lat="47.0018916763365268707275390625" lon="6.926746107637882232666015625">
        <ele>660.4000244140625</ele>
        <time>2019-06-19T11:19:55.000Z</time>
        <extensions>
          <ns3:TrackPointExtension>
            <ns3:atemp>22.0</ns3:atemp>
            <ns3:hr>126</ns3:hr>
          </ns3:TrackPointExtension>
        </extensions>
      </trkpt>
      <trkpt lat="47.0018853060901165008544921875" lon="6.92678256891667842864990234375">
        <ele>660.79998779296875</ele>
        <time>2019-06-19T11:19:56.000Z</time>
        <extensions>
          <ns3:TrackPointExtension>
            <ns3:atemp>22.0</ns3:atemp>
            <ns3:hr>128</ns3:hr>
          </ns3:TrackPointExtension>
        </extensions>
      </trkpt>
      <trkpt lat="47.00188756920397281646728515625" lon="6.926849372684955596923828125">
        <ele>661.5999755859375</ele>
        <time>2019-06-19T11:19:58.000Z</time>
        <extensions>
          <ns3:TrackPointExtension>
            <ns3:atemp>22.0</ns3:atemp>
            <ns3:hr>127</ns3:hr>
          </ns3:TrackPointExtension>
        </extensions>
      </trkpt>
      <trkpt lat="47.00188723392784595489501953125" lon="6.9269229657948017120361328125">
        <ele>662.5999755859375</ele>
        <time>2019-06-19T11:20:00.000Z</time>
        <extensions>
          <ns3:TrackPointExtension>
            <ns3:atemp>22.0</ns3:atemp>
            <ns3:hr>128</ns3:hr>
          </ns3:TrackPointExtension>
        </extensions>
      </trkpt>
      <trkpt lat="47.00189293362200260162353515625" lon="6.92696646787226200103759765625">
        <ele>663</ele>
        <time>2019-06-19T11:20:01.000Z</time>
        <extensions>
          <ns3:TrackPointExtension>
            <ns3:atemp>22.0</ns3:atemp>
            <ns3:hr>128</ns3:hr>
          </ns3:TrackPointExtension>
        </extensions>
      </trkpt>
      <trkpt lat="47.001919336616992950439453125" lon="6.92709219641983509063720703125">
        <ele>663.79998779296875</ele>
        <time>2019-06-19T11:20:04.000Z</time>
        <extensions>
          <ns3:TrackPointExtension>
            <ns3:atemp>22.0</ns3:atemp>
            <ns3:hr>130</ns3:hr>
          </ns3:TrackPointExtension>
        </extensions>
      </trkpt>
      <trkpt lat="47.00195244513452053070068359375" lon="6.9271935336291790008544921875">
        <ele>664.4000244140625</ele>
        <time>2019-06-19T11:20:07.000Z</time>
        <extensions>
          <ns3:TrackPointExtension>
            <ns3:atemp>23.0</ns3:atemp>
            <ns3:hr>135</ns3:hr>
          </ns3:TrackPointExtension>
        </extensions>
      </trkpt>
      <trkpt lat="47.00195856392383575439453125" lon="6.927224881947040557861328125">
        <ele>664.5999755859375</ele>
        <time>2019-06-19T11:20:08.000Z</time>
        <extensions>
          <ns3:TrackPointExtension>
            <ns3:atemp>23.0</ns3:atemp>
            <ns3:hr>132</ns3:hr>
          </ns3:TrackPointExtension>
        </extensions>
      </trkpt>
      <trkpt lat="47.00197524391114711761474609375" lon="6.927274167537689208984375">
        <ele>665</ele>
        <time>2019-06-19T11:20:10.000Z</time>
        <extensions>
          <ns3:TrackPointExtension>
            <ns3:atemp>23.0</ns3:atemp>
            <ns3:hr>135</ns3:hr>
          </ns3:TrackPointExtension>
        </extensions>
      </trkpt>
      <trkpt lat="47.0019915886223316192626953125" lon="6.927371732890605926513671875">
        <ele>666.20001220703125</ele>
        <time>2019-06-19T11:20:13.000Z</time>
        <extensions>
          <ns3:TrackPointExtension>
            <ns3:atemp>23.0</ns3:atemp>
            <ns3:hr>136</ns3:hr>
          </ns3:TrackPointExtension>
        </extensions>
      </trkpt>
      <trkpt lat="47.002008520066738128662109375" lon="6.92738556303083896636962890625">
        <ele>666.5999755859375</ele>
        <time>2019-06-19T11:20:14.000Z</time>
        <extensions>
          <ns3:TrackPointExtension>
            <ns3:atemp>23.0</ns3:atemp>
            <ns3:hr>135</ns3:hr>
          </ns3:TrackPointExtension>
        </extensions>
      </trkpt>
      <trkpt lat="47.0020455680787563323974609375" lon="6.92748002707958221435546875">
        <ele>667.4000244140625</ele>
        <time>2019-06-19T11:20:17.000Z</time>
        <extensions>
          <ns3:TrackPointExtension>
            <ns3:atemp>23.0</ns3:atemp>
            <ns3:hr>135</ns3:hr>
          </ns3:TrackPointExtension>
        </extensions>
      </trkpt>
      <trkpt lat="47.00204984284937381744384765625" lon="6.92753023467957973480224609375">
        <ele>667.5999755859375</ele>
        <time>2019-06-19T11:20:18.000Z</time>
        <extensions>
          <ns3:TrackPointExtension>
            <ns3:atemp>23.0</ns3:atemp>
            <ns3:hr>135</ns3:hr>
          </ns3:TrackPointExtension>
        </extensions>
      </trkpt>
      <trkpt lat="47.00207985006272792816162109375" lon="6.9276770018041133880615234375">
        <ele>668.79998779296875</ele>
        <time>2019-06-19T11:20:22.000Z</time>
        <extensions>
          <ns3:TrackPointExtension>
            <ns3:atemp>23.0</ns3:atemp>
            <ns3:hr>134</ns3:hr>
          </ns3:TrackPointExtension>
        </extensions>
      </trkpt>
      <trkpt lat="47.00209745205938816070556640625" lon="6.92778177559375762939453125">
        <ele>669.20001220703125</ele>
        <time>2019-06-19T11:20:25.000Z</time>
        <extensions>
          <ns3:TrackPointExtension>
            <ns3:atemp>23.0</ns3:atemp>
            <ns3:hr>133</ns3:hr>
          </ns3:TrackPointExtension>
        </extensions>
      </trkpt>
      <trkpt lat="47.0021156407892704010009765625" lon="6.9278226792812347412109375">
        <ele>669.5999755859375</ele>
        <time>2019-06-19T11:20:27.000Z</time>
        <extensions>
          <ns3:TrackPointExtension>
            <ns3:atemp>23.0</ns3:atemp>
            <ns3:hr>132</ns3:hr>
          </ns3:TrackPointExtension>
        </extensions>
      </trkpt>
      <trkpt lat="47.002126872539520263671875" lon="6.9278402812778949737548828125">
        <ele>669.79998779296875</ele>
        <time>2019-06-19T11:20:28.000Z</time>
        <extensions>
          <ns3:TrackPointExtension>
            <ns3:atemp>23.0</ns3:atemp>
            <ns3:hr>133</ns3:hr>
          </ns3:TrackPointExtension>
        </extensions>
      </trkpt>
      <trkpt lat="47.0021474920213222503662109375" lon="6.92788864485919475555419921875">
        <ele>670.4000244140625</ele>
        <time>2019-06-19T11:20:30.000Z</time>
        <extensions>
          <ns3:TrackPointExtension>
            <ns3:atemp>23.0</ns3:atemp>
            <ns3:hr>132</ns3:hr>
          </ns3:TrackPointExtension>
        </extensions>
      </trkpt>
      <trkpt lat="47.00218345038592815399169921875" lon="6.92792921327054500579833984375">
        <ele>671.20001220703125</ele>
        <time>2019-06-19T11:20:32.000Z</time>
        <extensions>
          <ns3:TrackPointExtension>
            <ns3:atemp>23.0</ns3:atemp>
            <ns3:hr>130</ns3:hr>
          </ns3:TrackPointExtension>
        </extensions>
      </trkpt>
      <trkpt lat="47.002237848937511444091796875" lon="6.9280163012444972991943359375">
        <ele>672.20001220703125</ele>
        <time>2019-06-19T11:20:36.000Z</time>
        <extensions>
          <ns3:TrackPointExtension>
            <ns3:atemp>23.0</ns3:atemp>
            <ns3:hr>130</ns3:hr>
          </ns3:TrackPointExtension>
        </extensions>
      </trkpt>
      <trkpt lat="47.00224983505904674530029296875" lon="6.92803666926920413970947265625">
        <ele>672.20001220703125</ele>
        <time>2019-06-19T11:20:37.000Z</time>
        <extensions>
          <ns3:TrackPointExtension>
            <ns3:atemp>23.0</ns3:atemp>
            <ns3:hr>127</ns3:hr>
          </ns3:TrackPointExtension>
        </extensions>
      </trkpt>
      <trkpt lat="47.00226207263767719268798828125" lon="6.92806265316903591156005859375">
        <ele>672.20001220703125</ele>
        <time>2019-06-19T11:20:38.000Z</time>
        <extensions>
          <ns3:TrackPointExtension>
            <ns3:atemp>23.0</ns3:atemp>
            <ns3:hr>130</ns3:hr>
          </ns3:TrackPointExtension>
        </extensions>
      </trkpt>
      <trkpt lat="47.00231202878057956695556640625" lon="6.92817094735801219940185546875">
        <ele>673</ele>
        <time>2019-06-19T11:20:42.000Z</time>
        <extensions>
          <ns3:TrackPointExtension>
            <ns3:atemp>23.0</ns3:atemp>
            <ns3:hr>130</ns3:hr>
          </ns3:TrackPointExtension>
        </extensions>
      </trkpt>
      <trkpt lat="47.002324350178241729736328125" lon="6.9281936623156070709228515625">
        <ele>673.20001220703125</ele>
        <time>2019-06-19T11:20:43.000Z</time>
        <extensions>
          <ns3:TrackPointExtension>
            <ns3:atemp>23.0</ns3:atemp>
            <ns3:hr>130</ns3:hr>
          </ns3:TrackPointExtension>
        </extensions>
      </trkpt>
      <trkpt lat="47.00239308178424835205078125" lon="6.9283032976090908050537109375">
        <ele>674.4000244140625</ele>
        <time>2019-06-19T11:20:48.000Z</time>
        <extensions>
          <ns3:TrackPointExtension>
            <ns3:atemp>23.0</ns3:atemp>
            <ns3:hr>128</ns3:hr>
          </ns3:TrackPointExtension>
        </extensions>
      </trkpt>
      <trkpt lat="47.0024609751999378204345703125" lon="6.9283757172524929046630859375">
        <ele>675.4000244140625</ele>
        <time>2019-06-19T11:20:52.000Z</time>
        <extensions>
          <ns3:TrackPointExtension>
            <ns3:atemp>23.0</ns3:atemp>
            <ns3:hr>131</ns3:hr>
          </ns3:TrackPointExtension>
        </extensions>
      </trkpt>
      <trkpt lat="47.00248637236654758453369140625" lon="6.928432881832122802734375">
        <ele>675.5999755859375</ele>
        <time>2019-06-19T11:20:54.000Z</time>
        <extensions>
          <ns3:TrackPointExtension>
            <ns3:atemp>23.0</ns3:atemp>
            <ns3:hr>131</ns3:hr>
          </ns3:TrackPointExtension>
        </extensions>
      </trkpt>
      <trkpt lat="47.00249374844133853912353515625" lon="6.92845811136066913604736328125">
        <ele>675.79998779296875</ele>
        <time>2019-06-19T11:20:55.000Z</time>
        <extensions>
          <ns3:TrackPointExtension>
            <ns3:atemp>23.0</ns3:atemp>
            <ns3:hr>131</ns3:hr>
          </ns3:TrackPointExtension>
        </extensions>
      </trkpt>
      <trkpt lat="47.0024636574089527130126953125" lon="6.9286026991903781890869140625">
        <ele>676</ele>
        <time>2019-06-19T11:20:59.000Z</time>
        <extensions>
          <ns3:TrackPointExtension>
            <ns3:atemp>23.0</ns3:atemp>
            <ns3:hr>132</ns3:hr>
          </ns3:TrackPointExtension>
        </extensions>
      </trkpt>
      <trkpt lat="47.0024294592440128326416015625" lon="6.928751058876514434814453125">
        <ele>675.5999755859375</ele>
        <time>2019-06-19T11:21:02.000Z</time>
        <extensions>
          <ns3:TrackPointExtension>
            <ns3:atemp>23.0</ns3:atemp>
            <ns3:hr>132</ns3:hr>
          </ns3:TrackPointExtension>
        </extensions>
      </trkpt>
      <trkpt lat="47.00241646729409694671630859375" lon="6.92888407967984676361083984375">
        <ele>674.79998779296875</ele>
        <time>2019-06-19T11:21:04.000Z</time>
        <extensions>
          <ns3:TrackPointExtension>
            <ns3:atemp>23.0</ns3:atemp>
            <ns3:hr>130</ns3:hr>
          </ns3:TrackPointExtension>
        </extensions>
      </trkpt>
      <trkpt lat="47.0024240948259830474853515625" lon="6.92895582877099514007568359375">
        <ele>674.20001220703125</ele>
        <time>2019-06-19T11:21:05.000Z</time>
        <extensions>
          <ns3:TrackPointExtension>
            <ns3:atemp>23.0</ns3:atemp>
            <ns3:hr>130</ns3:hr>
          </ns3:TrackPointExtension>
        </extensions>
      </trkpt>
      <trkpt lat="47.00244077481329441070556640625" lon="6.929182223975658416748046875">
        <ele>673</ele>
        <time>2019-06-19T11:21:07.000Z</time>
        <extensions>
          <ns3:TrackPointExtension>
            <ns3:atemp>23.0</ns3:atemp>
            <ns3:hr>131</ns3:hr>
          </ns3:TrackPointExtension>
        </extensions>
      </trkpt>
      <trkpt lat="47.00247966684401035308837890625" lon="6.9295066036283969879150390625">
        <ele>671.79998779296875</ele>
        <time>2019-06-19T11:21:10.000Z</time>
        <extensions>
          <ns3:TrackPointExtension>
            <ns3:atemp>23.0</ns3:atemp>
            <ns3:hr>131</ns3:hr>
          </ns3:TrackPointExtension>
        </extensions>
      </trkpt>
      <trkpt lat="47.00250749476253986358642578125" lon="6.9297181628644466400146484375">
        <ele>670.4000244140625</ele>
        <time>2019-06-19T11:21:12.000Z</time>
        <extensions>
          <ns3:TrackPointExtension>
            <ns3:atemp>23.0</ns3:atemp>
            <ns3:hr>130</ns3:hr>
          </ns3:TrackPointExtension>
        </extensions>
      </trkpt>
      <trkpt lat="47.002538256347179412841796875" lon="6.9298826158046722412109375">
        <ele>669.20001220703125</ele>
        <time>2019-06-19T11:21:14.000Z</time>
        <extensions>
          <ns3:TrackPointExtension>
            <ns3:atemp>23.0</ns3:atemp>
            <ns3:hr>129</ns3:hr>
          </ns3:TrackPointExtension>
        </extensions>
      </trkpt>
      <trkpt lat="47.0025468058884143829345703125" lon="6.93009559996426105499267578125">
        <ele>667.79998779296875</ele>
        <time>2019-06-19T11:21:16.000Z</time>
        <extensions>
          <ns3:TrackPointExtension>
            <ns3:atemp>23.0</ns3:atemp>
            <ns3:hr>130</ns3:hr>
          </ns3:TrackPointExtension>
        </extensions>
      </trkpt>
      <trkpt lat="47.00255493633449077606201171875" lon="6.93033498711884021759033203125">
        <ele>666.5999755859375</ele>
        <time>2019-06-19T11:21:18.000Z</time>
        <extensions>
          <ns3:TrackPointExtension>
            <ns3:atemp>23.0</ns3:atemp>
            <ns3:hr>129</ns3:hr>
          </ns3:TrackPointExtension>
        </extensions>
      </trkpt>
      <trkpt lat="47.00255057774484157562255859375" lon="6.9304336421191692352294921875">
        <ele>666.20001220703125</ele>
        <time>2019-06-19T11:21:19.000Z</time>
        <extensions>
          <ns3:TrackPointExtension>
            <ns3:atemp>23.0</ns3:atemp>
            <ns3:hr>129</ns3:hr>
          </ns3:TrackPointExtension>
        </extensions>
      </trkpt>
      <trkpt lat="47.0025357417762279510498046875" lon="6.93054168485105037689208984375">
        <ele>665.5999755859375</ele>
        <time>2019-06-19T11:21:20.000Z</time>
        <extensions>
          <ns3:TrackPointExtension>
            <ns3:atemp>23.0</ns3:atemp>
            <ns3:hr>130</ns3:hr>
          </ns3:TrackPointExtension>
        </extensions>
      </trkpt>
      <trkpt lat="47.002513110637664794921875" lon="6.930713765323162078857421875">
        <ele>664.20001220703125</ele>
        <time>2019-06-19T11:21:22.000Z</time>
        <extensions>
          <ns3:TrackPointExtension>
            <ns3:atemp>23.0</ns3:atemp>
            <ns3:hr>129</ns3:hr>
          </ns3:TrackPointExtension>
        </extensions>
      </trkpt>
      <trkpt lat="47.0025169663131237030029296875" lon="6.93077151663601398468017578125">
        <ele>663.79998779296875</ele>
        <time>2019-06-19T11:21:23.000Z</time>
        <extensions>
          <ns3:TrackPointExtension>
            <ns3:atemp>23.0</ns3:atemp>
            <ns3:hr>129</ns3:hr>
          </ns3:TrackPointExtension>
        </extensions>
      </trkpt>
      <trkpt lat="47.00253389775753021240234375" lon="6.930845193564891815185546875">
        <ele>662.5999755859375</ele>
        <time>2019-06-19T11:21:25.000Z</time>
        <extensions>
          <ns3:TrackPointExtension>
            <ns3:atemp>23.0</ns3:atemp>
            <ns3:hr>129</ns3:hr>
          </ns3:TrackPointExtension>
        </extensions>
      </trkpt>
      <trkpt lat="47.00257019139826297760009765625" lon="6.930975280702114105224609375">
        <ele>661.79998779296875</ele>
        <time>2019-06-19T11:21:27.000Z</time>
        <extensions>
          <ns3:TrackPointExtension>
            <ns3:atemp>23.0</ns3:atemp>
            <ns3:hr>128</ns3:hr>
          </ns3:TrackPointExtension>
        </extensions>
      </trkpt>
      <trkpt lat="47.00259156525135040283203125" lon="6.93111316300928592681884765625">
        <ele>661.5999755859375</ele>
        <time>2019-06-19T11:21:28.000Z</time>
        <extensions>
          <ns3:TrackPointExtension>
            <ns3:atemp>23.0</ns3:atemp>
            <ns3:hr>130</ns3:hr>
          </ns3:TrackPointExtension>
        </extensions>
      </trkpt>
      <trkpt lat="47.002620734274387359619140625" lon="6.93119195289909839630126953125">
        <ele>661.4000244140625</ele>
        <time>2019-06-19T11:21:29.000Z</time>
        <extensions>
          <ns3:TrackPointExtension>
            <ns3:atemp>23.0</ns3:atemp>
            <ns3:hr>129</ns3:hr>
          </ns3:TrackPointExtension>
        </extensions>
      </trkpt>
      <trkpt lat="47.0027094148099422454833984375" lon="6.93139781244099140167236328125">
        <ele>661.5999755859375</ele>
        <time>2019-06-19T11:21:32.000Z</time>
        <extensions>
          <ns3:TrackPointExtension>
            <ns3:atemp>23.0</ns3:atemp>
            <ns3:hr>130</ns3:hr>
          </ns3:TrackPointExtension>
        </extensions>
      </trkpt>
      <trkpt lat="47.00281108729541301727294921875" lon="6.93172730505466461181640625">
        <ele>661.5999755859375</ele>
        <time>2019-06-19T11:21:37.000Z</time>
        <extensions>
          <ns3:TrackPointExtension>
            <ns3:atemp>23.0</ns3:atemp>
            <ns3:hr>129</ns3:hr>
          </ns3:TrackPointExtension>
        </extensions>
      </trkpt>
      <trkpt lat="47.00290261767804622650146484375" lon="6.9319668598473072052001953125">
        <ele>661.79998779296875</ele>
        <time>2019-06-19T11:21:42.000Z</time>
        <extensions>
          <ns3:TrackPointExtension>
            <ns3:atemp>23.0</ns3:atemp>
            <ns3:hr>128</ns3:hr>
          </ns3:TrackPointExtension>
        </extensions>
      </trkpt>
      <trkpt lat="47.003013007342815399169921875" lon="6.932246647775173187255859375">
        <ele>662</ele>
        <time>2019-06-19T11:21:48.000Z</time>
        <extensions>
          <ns3:TrackPointExtension>
            <ns3:atemp>23.0</ns3:atemp>
            <ns3:hr>127</ns3:hr>
          </ns3:TrackPointExtension>
        </extensions>
      </trkpt>
      <trkpt lat="47.00303957797586917877197265625" lon="6.932349912822246551513671875">
        <ele>661.5999755859375</ele>
        <time>2019-06-19T11:21:53.000Z</time>
        <extensions>
          <ns3:TrackPointExtension>
            <ns3:atemp>23.0</ns3:atemp>
            <ns3:hr>128</ns3:hr>
          </ns3:TrackPointExtension>
        </extensions>
      </trkpt>
      <trkpt lat="47.00304544530808925628662109375" lon="6.932383440434932708740234375">
        <ele>661.5999755859375</ele>
        <time>2019-06-19T11:21:55.000Z</time>
        <extensions>
          <ns3:TrackPointExtension>
            <ns3:atemp>23.0</ns3:atemp>
            <ns3:hr>130</ns3:hr>
          </ns3:TrackPointExtension>
        </extensions>
      </trkpt>
    </trkseg>
  </trk>
</gpx>
